<?xml version="1.0" encoding="utf-8"?>
<gpx xmlns:xsi="http://www.w3.org/2001/XMLSchema-instance" xmlns:xsd="http://www.w3.org/2001/XMLSchema" version="1.1" creator="Shapelink.com" xmlns="http://www.topografix.com/GPX/1/1" xmlns:gpxtpx="http://www.garmin.com/xmlschemas/TrackPointExtension/v1">
  <metadata>
    <name>Cykling 66.87 km, 2015-03-28</name>
    <desc></desc>
    <author><name>Alexander Engvall</name></author> 
    <time>2015-03-28T13:11:45Z</time>
  </metadata>
  <trk>
    <name>Cykling 66.87 km, 2015-03-28</name>
    <trkseg>
      <trkpt lat="59.238764850759" lon="17.961471502277">
        <ele>48.2</ele>
        <time>2015-03-28T13:11:45Z</time>
      </trkpt>
      <trkpt lat="59.238748925149" lon="17.961596644044">
        <ele>46.8</ele>
        <time>2015-03-28T13:11:46Z</time>
      </trkpt>
      <trkpt lat="59.238735514109" lon="17.961713571549">
        <ele>46.4</ele>
        <time>2015-03-28T13:11:47Z</time>
      </trkpt>
      <trkpt lat="59.238679187741" lon="17.962291084459">
        <ele>46.2</ele>
        <time>2015-03-28T13:11:51Z</time>
      </trkpt>
      <trkpt lat="59.238659825552" lon="17.962463500142">
        <ele>46</ele>
        <time>2015-03-28T13:11:52Z</time>
      </trkpt>
      <trkpt lat="59.238641720648" lon="17.962649494503">
        <ele>45.8</ele>
        <time>2015-03-28T13:11:53Z</time>
      </trkpt>
      <trkpt lat="59.238625375943" lon="17.96282911862">
        <ele>45.6</ele>
        <time>2015-03-28T13:11:54Z</time>
      </trkpt>
      <trkpt lat="59.238603918279" lon="17.963005389977">
        <ele>45.4</ele>
        <time>2015-03-28T13:11:55Z</time>
      </trkpt>
      <trkpt lat="59.238549855024" lon="17.963362710374">
        <ele>44.8</ele>
        <time>2015-03-28T13:11:57Z</time>
      </trkpt>
      <trkpt lat="59.238521440383" lon="17.96354577107">
        <ele>44.4</ele>
        <time>2015-03-28T13:11:58Z</time>
      </trkpt>
      <trkpt lat="59.238494534484" lon="17.963718186753">
        <ele>44</ele>
        <time>2015-03-28T13:11:59Z</time>
      </trkpt>
      <trkpt lat="59.238468969689" lon="17.963888255504">
        <ele>43.4</ele>
        <time>2015-03-28T13:12:00Z</time>
      </trkpt>
      <trkpt lat="59.238444913636" lon="17.964044745577">
        <ele>43</ele>
        <time>2015-03-28T13:12:01Z</time>
      </trkpt>
      <trkpt lat="59.238420438488" lon="17.96419369194">
        <ele>43</ele>
        <time>2015-03-28T13:12:02Z</time>
      </trkpt>
      <trkpt lat="59.238220949268" lon="17.965292139935">
        <ele>43</ele>
        <time>2015-03-28T13:12:09Z</time>
      </trkpt>
      <trkpt lat="59.23807745114" lon="17.966290927139">
        <ele>43</ele>
        <time>2015-03-28T13:12:15Z</time>
      </trkpt>
      <trkpt lat="59.238070158887" lon="17.966459235691">
        <ele>42.6</ele>
        <time>2015-03-28T13:12:16Z</time>
      </trkpt>
      <trkpt lat="59.238076277674" lon="17.96661354647">
        <ele>42.2</ele>
        <time>2015-03-28T13:12:17Z</time>
      </trkpt>
      <trkpt lat="59.238092035646" lon="17.966762660471">
        <ele>41.6</ele>
        <time>2015-03-28T13:12:18Z</time>
      </trkpt>
      <trkpt lat="59.238119109183" lon="17.966900794183">
        <ele>41.2</ele>
        <time>2015-03-28T13:12:19Z</time>
      </trkpt>
      <trkpt lat="59.238153055878" lon="17.967039095533">
        <ele>40.8</ele>
        <time>2015-03-28T13:12:20Z</time>
      </trkpt>
      <trkpt lat="59.23819144498" lon="17.967180079091">
        <ele>40.8</ele>
        <time>2015-03-28T13:12:21Z</time>
      </trkpt>
      <trkpt lat="59.238311222331" lon="17.967641251229">
        <ele>40.8</ele>
        <time>2015-03-28T13:12:24Z</time>
      </trkpt>
      <trkpt lat="59.238574581629" lon="17.968676248241">
        <ele>40.8</ele>
        <time>2015-03-28T13:12:31Z</time>
      </trkpt>
      <trkpt lat="59.238802569309" lon="17.96953380043">
        <ele>40.8</ele>
        <time>2015-03-28T13:12:37Z</time>
      </trkpt>
      <trkpt lat="59.238996191199" lon="17.970357657381">
        <ele>40.8</ele>
        <time>2015-03-28T13:12:43Z</time>
      </trkpt>
      <trkpt lat="59.239103060424" lon="17.97082545122">
        <ele>40.8</ele>
        <time>2015-03-28T13:12:47Z</time>
      </trkpt>
      <trkpt lat="59.239122841708" lon="17.970929638237">
        <ele>40.8</ele>
        <time>2015-03-28T13:12:48Z</time>
      </trkpt>
      <trkpt lat="59.239138934956" lon="17.971047487751">
        <ele>40.8</ele>
        <time>2015-03-28T13:12:50Z</time>
      </trkpt>
      <trkpt lat="59.239083614416" lon="17.971173970622">
        <ele>40.8</ele>
        <time>2015-03-28T13:12:54Z</time>
      </trkpt>
      <trkpt lat="59.238956209536" lon="17.97129064667">
        <ele>40.8</ele>
        <time>2015-03-28T13:12:57Z</time>
      </trkpt>
      <trkpt lat="59.238775914867" lon="17.971464235819">
        <ele>39.8</ele>
        <time>2015-03-28T13:13:00Z</time>
      </trkpt>
      <trkpt lat="59.238712128608" lon="17.971536068702">
        <ele>39.2</ele>
        <time>2015-03-28T13:13:01Z</time>
      </trkpt>
      <trkpt lat="59.238645995417" lon="17.971605387015">
        <ele>38.6</ele>
        <time>2015-03-28T13:13:02Z</time>
      </trkpt>
      <trkpt lat="59.23857952695" lon="17.971667329256">
        <ele>38.2</ele>
        <time>2015-03-28T13:13:03Z</time>
      </trkpt>
      <trkpt lat="59.238507694067" lon="17.971716531009">
        <ele>38.2</ele>
        <time>2015-03-28T13:13:04Z</time>
      </trkpt>
      <trkpt lat="59.238369811812" lon="17.971730780239">
        <ele>38.2</ele>
        <time>2015-03-28T13:13:06Z</time>
      </trkpt>
      <trkpt lat="59.238218518517" lon="17.971562136411">
        <ele>38.2</ele>
        <time>2015-03-28T13:13:09Z</time>
      </trkpt>
      <trkpt lat="59.238173340076" lon="17.971507486423">
        <ele>38.6</ele>
        <time>2015-03-28T13:13:10Z</time>
      </trkpt>
      <trkpt lat="59.238127574902" lon="17.971451327693">
        <ele>39</ele>
        <time>2015-03-28T13:13:11Z</time>
      </trkpt>
      <trkpt lat="59.238079546615" lon="17.971400952474">
        <ele>39.6</ele>
        <time>2015-03-28T13:13:12Z</time>
      </trkpt>
      <trkpt lat="59.238029841948" lon="17.971359462069">
        <ele>40</ele>
        <time>2015-03-28T13:13:13Z</time>
      </trkpt>
      <trkpt lat="59.23797519196" lon="17.971325180098">
        <ele>40.6</ele>
        <time>2015-03-28T13:13:14Z</time>
      </trkpt>
      <trkpt lat="59.237916351022" lon="17.971302548968">
        <ele>40.6</ele>
        <time>2015-03-28T13:13:15Z</time>
      </trkpt>
      <trkpt lat="59.237857593903" lon="17.971289976118">
        <ele>41</ele>
        <time>2015-03-28T13:13:16Z</time>
      </trkpt>
      <trkpt lat="59.237799758793" lon="17.971274972517">
        <ele>41.4</ele>
        <time>2015-03-28T13:13:17Z</time>
      </trkpt>
      <trkpt lat="59.237740414941" lon="17.971265249513">
        <ele>41.8</ele>
        <time>2015-03-28T13:13:18Z</time>
      </trkpt>
      <trkpt lat="59.237680400537" lon="17.971256867613">
        <ele>42.2</ele>
        <time>2015-03-28T13:13:19Z</time>
      </trkpt>
      <trkpt lat="59.237618793572" lon="17.971252173749">
        <ele>42.8</ele>
        <time>2015-03-28T13:13:20Z</time>
      </trkpt>
      <trkpt lat="59.237556599874" lon="17.971258041079">
        <ele>43.2</ele>
        <time>2015-03-28T13:13:21Z</time>
      </trkpt>
      <trkpt lat="59.237497088384" lon="17.971267847902">
        <ele>43.6</ele>
        <time>2015-03-28T13:13:22Z</time>
      </trkpt>
      <trkpt lat="59.237437744532" lon="17.971288718833">
        <ele>44</ele>
        <time>2015-03-28T13:13:23Z</time>
      </trkpt>
      <trkpt lat="59.237382926906" lon="17.971330293057">
        <ele>44.4</ele>
        <time>2015-03-28T13:13:24Z</time>
      </trkpt>
      <trkpt lat="59.237336826456" lon="17.971384188674">
        <ele>44.8</ele>
        <time>2015-03-28T13:13:25Z</time>
      </trkpt>
      <trkpt lat="59.237135074123" lon="17.971630448896">
        <ele>44.8</ele>
        <time>2015-03-28T13:13:30Z</time>
      </trkpt>
      <trkpt lat="59.237080172678" lon="17.971674956785">
        <ele>44.8</ele>
        <time>2015-03-28T13:13:31Z</time>
      </trkpt>
      <trkpt lat="59.236897363439" lon="17.97178769334">
        <ele>44.8</ele>
        <time>2015-03-28T13:13:34Z</time>
      </trkpt>
      <trkpt lat="59.236836510845" lon="17.971832201229">
        <ele>44.8</ele>
        <time>2015-03-28T13:13:35Z</time>
      </trkpt>
      <trkpt lat="59.236720086254" lon="17.971922055197">
        <ele>44.8</ele>
        <time>2015-03-28T13:13:37Z</time>
      </trkpt>
      <trkpt lat="59.236660323307" lon="17.9719419203">
        <ele>44.8</ele>
        <time>2015-03-28T13:13:38Z</time>
      </trkpt>
      <trkpt lat="59.236460750268" lon="17.971937142617">
        <ele>44.8</ele>
        <time>2015-03-28T13:13:41Z</time>
      </trkpt>
      <trkpt lat="59.236250029302" lon="17.972024984929">
        <ele>44.8</ele>
        <time>2015-03-28T13:13:44Z</time>
      </trkpt>
      <trkpt lat="59.236185823948" lon="17.972044347118">
        <ele>44.8</ele>
        <time>2015-03-28T13:13:45Z</time>
      </trkpt>
      <trkpt lat="59.236120026033" lon="17.972075779243">
        <ele>44.8</ele>
        <time>2015-03-28T13:13:46Z</time>
      </trkpt>
      <trkpt lat="59.235847614283" lon="17.972247524374">
        <ele>44.8</ele>
        <time>2015-03-28T13:13:50Z</time>
      </trkpt>
      <trkpt lat="59.235708223286" lon="17.972356069979">
        <ele>44.8</ele>
        <time>2015-03-28T13:13:52Z</time>
      </trkpt>
      <trkpt lat="59.235572436506" lon="17.972532173698">
        <ele>44.8</ele>
        <time>2015-03-28T13:13:54Z</time>
      </trkpt>
      <trkpt lat="59.235507225324" lon="17.972643736787">
        <ele>44.4</ele>
        <time>2015-03-28T13:13:55Z</time>
      </trkpt>
      <trkpt lat="59.235439751029" lon="17.972761334844">
        <ele>44</ele>
        <time>2015-03-28T13:13:56Z</time>
      </trkpt>
      <trkpt lat="59.235371103268" lon="17.972880190186">
        <ele>43.6</ele>
        <time>2015-03-28T13:13:57Z</time>
      </trkpt>
      <trkpt lat="59.23531226233" lon="17.973004577582">
        <ele>43.2</ele>
        <time>2015-03-28T13:13:58Z</time>
      </trkpt>
      <trkpt lat="59.235253840487" lon="17.973114967205">
        <ele>42.8</ele>
        <time>2015-03-28T13:13:59Z</time>
      </trkpt>
      <trkpt lat="59.235151497488" lon="17.973329460026">
        <ele>42.8</ele>
        <time>2015-03-28T13:14:01Z</time>
      </trkpt>
      <trkpt lat="59.235108163065" lon="17.973535151852">
        <ele>42.8</ele>
        <time>2015-03-28T13:14:03Z</time>
      </trkpt>
      <trkpt lat="59.235169015659" lon="17.973792308544">
        <ele>43.2</ele>
        <time>2015-03-28T13:14:06Z</time>
      </trkpt>
      <trkpt lat="59.235209332598" lon="17.973828937447">
        <ele>43.6</ele>
        <time>2015-03-28T13:14:07Z</time>
      </trkpt>
      <trkpt lat="59.235247386424" lon="17.973853747871">
        <ele>44</ele>
        <time>2015-03-28T13:14:08Z</time>
      </trkpt>
      <trkpt lat="59.235271861572" lon="17.973866153083">
        <ele>44.4</ele>
        <time>2015-03-28T13:14:09Z</time>
      </trkpt>
      <trkpt lat="59.235291642856" lon="17.973880234675">
        <ele>44.8</ele>
        <time>2015-03-28T13:14:10Z</time>
      </trkpt>
      <trkpt lat="59.235321063325" lon="17.973930693713">
        <ele>44.8</ele>
        <time>2015-03-28T13:14:13Z</time>
      </trkpt>
      <trkpt lat="59.235332546528" lon="17.973957683431">
        <ele>44.8</ele>
        <time>2015-03-28T13:14:14Z</time>
      </trkpt>
      <trkpt lat="59.235387615611" lon="17.97407176109">
        <ele>44.8</ele>
        <time>2015-03-28T13:14:17Z</time>
      </trkpt>
      <trkpt lat="59.235406810162" lon="17.974182234532">
        <ele>45.2</ele>
        <time>2015-03-28T13:14:19Z</time>
      </trkpt>
      <trkpt lat="59.235407061619" lon="17.974245685515">
        <ele>45.8</ele>
        <time>2015-03-28T13:14:20Z</time>
      </trkpt>
      <trkpt lat="59.235397338615" lon="17.974294132897">
        <ele>46.2</ele>
        <time>2015-03-28T13:14:21Z</time>
      </trkpt>
      <trkpt lat="59.235389124353" lon="17.974345513944">
        <ele>46.6</ele>
        <time>2015-03-28T13:14:22Z</time>
      </trkpt>
      <trkpt lat="59.235379652806" lon="17.974386752892">
        <ele>47</ele>
        <time>2015-03-28T13:14:23Z</time>
      </trkpt>
      <trkpt lat="59.235380239539" lon="17.974414413162">
        <ele>47</ele>
        <time>2015-03-28T13:14:25Z</time>
      </trkpt>
      <trkpt lat="59.235373617838" lon="17.974472918824">
        <ele>47</ele>
        <time>2015-03-28T13:14:31Z</time>
      </trkpt>
      <trkpt lat="59.235373617838" lon="17.974472918824">
        <ele>47</ele>
        <time>2015-03-28T13:14:32Z</time>
      </trkpt>
      <trkpt lat="59.235246632053" lon="17.974927050166">
        <ele>47</ele>
        <time>2015-03-28T13:14:42Z</time>
      </trkpt>
      <trkpt lat="59.235220564344" lon="17.975015898306">
        <ele>47</ele>
        <time>2015-03-28T13:14:43Z</time>
      </trkpt>
      <trkpt lat="59.23505745257" lon="17.975531552794">
        <ele>47</ele>
        <time>2015-03-28T13:14:48Z</time>
      </trkpt>
      <trkpt lat="59.234872547856" lon="17.976089200601">
        <ele>47</ele>
        <time>2015-03-28T13:14:54Z</time>
      </trkpt>
      <trkpt lat="59.234802894267" lon="17.976259939904">
        <ele>47</ele>
        <time>2015-03-28T13:14:56Z</time>
      </trkpt>
      <trkpt lat="59.234687978418" lon="17.976521119908">
        <ele>47</ele>
        <time>2015-03-28T13:14:59Z</time>
      </trkpt>
      <trkpt lat="59.234532494173" lon="17.976823035946">
        <ele>47</ele>
        <time>2015-03-28T13:15:03Z</time>
      </trkpt>
      <trkpt lat="59.234490081759" lon="17.976884056178">
        <ele>47</ele>
        <time>2015-03-28T13:15:04Z</time>
      </trkpt>
      <trkpt lat="59.234118428313" lon="17.977385545255">
        <ele>47</ele>
        <time>2015-03-28T13:15:12Z</time>
      </trkpt>
      <trkpt lat="59.233823720709" lon="17.977620070817">
        <ele>46.6</ele>
        <time>2015-03-28T13:15:17Z</time>
      </trkpt>
      <trkpt lat="59.233757671337" lon="17.977674469348">
        <ele>46.2</ele>
        <time>2015-03-28T13:15:18Z</time>
      </trkpt>
      <trkpt lat="59.233687766291" lon="17.977730292802">
        <ele>45.6</ele>
        <time>2015-03-28T13:15:19Z</time>
      </trkpt>
      <trkpt lat="59.233616855417" lon="17.977782260582">
        <ele>45</ele>
        <time>2015-03-28T13:15:20Z</time>
      </trkpt>
      <trkpt lat="59.23354535781" lon="17.977840095692">
        <ele>43.8</ele>
        <time>2015-03-28T13:15:21Z</time>
      </trkpt>
      <trkpt lat="59.233476877687" lon="17.977905809788">
        <ele>43.2</ele>
        <time>2015-03-28T13:15:22Z</time>
      </trkpt>
      <trkpt lat="59.233406385908" lon="17.977971440065">
        <ele>42.8</ele>
        <time>2015-03-28T13:15:23Z</time>
      </trkpt>
      <trkpt lat="59.233353077024" lon="17.978054504694">
        <ele>42.8</ele>
        <time>2015-03-28T13:15:24Z</time>
      </trkpt>
      <trkpt lat="59.233291889154" lon="17.978125583206">
        <ele>42.2</ele>
        <time>2015-03-28T13:15:25Z</time>
      </trkpt>
      <trkpt lat="59.233222738479" lon="17.978201942315">
        <ele>41.8</ele>
        <time>2015-03-28T13:15:26Z</time>
      </trkpt>
      <trkpt lat="59.233167166482" lon="17.978286264229">
        <ele>41.4</ele>
        <time>2015-03-28T13:15:27Z</time>
      </trkpt>
      <trkpt lat="59.233113270865" lon="17.97836077932">
        <ele>41</ele>
        <time>2015-03-28T13:15:28Z</time>
      </trkpt>
      <trkpt lat="59.233057782687" lon="17.978422218647">
        <ele>40.4</ele>
        <time>2015-03-28T13:15:29Z</time>
      </trkpt>
      <trkpt lat="59.233005479631" lon="17.978452058211">
        <ele>40.4</ele>
        <time>2015-03-28T13:15:30Z</time>
      </trkpt>
      <trkpt lat="59.232901460252" lon="17.978573511942">
        <ele>40.4</ele>
        <time>2015-03-28T13:15:32Z</time>
      </trkpt>
      <trkpt lat="59.23279098681" lon="17.978729499101">
        <ele>40.4</ele>
        <time>2015-03-28T13:15:34Z</time>
      </trkpt>
      <trkpt lat="59.232740276315" lon="17.978816335585">
        <ele>40.4</ele>
        <time>2015-03-28T13:15:35Z</time>
      </trkpt>
      <trkpt lat="59.232625611923" lon="17.978987661621">
        <ele>40.4</ele>
        <time>2015-03-28T13:15:37Z</time>
      </trkpt>
      <trkpt lat="59.232374071104" lon="17.979352525728">
        <ele>40.4</ele>
        <time>2015-03-28T13:15:42Z</time>
      </trkpt>
      <trkpt lat="59.232250102803" lon="17.9795694493">
        <ele>40.4</ele>
        <time>2015-03-28T13:15:47Z</time>
      </trkpt>
      <trkpt lat="59.232227304035" lon="17.979739266594">
        <ele>40.4</ele>
        <time>2015-03-28T13:15:51Z</time>
      </trkpt>
      <trkpt lat="59.232128146158" lon="17.97990053435">
        <ele>40</ele>
        <time>2015-03-28T13:15:54Z</time>
      </trkpt>
      <trkpt lat="59.232094786196" lon="17.979960967849">
        <ele>39.6</ele>
        <time>2015-03-28T13:15:55Z</time>
      </trkpt>
      <trkpt lat="59.232061510053" lon="17.980023915918">
        <ele>39</ele>
        <time>2015-03-28T13:15:56Z</time>
      </trkpt>
      <trkpt lat="59.232020438743" lon="17.98010421452">
        <ele>38.6</ele>
        <time>2015-03-28T13:15:57Z</time>
      </trkpt>
      <trkpt lat="59.231976433768" lon="17.980199349085">
        <ele>38.2</ele>
        <time>2015-03-28T13:15:58Z</time>
      </trkpt>
      <trkpt lat="59.231929159852" lon="17.980304290473">
        <ele>38.2</ele>
        <time>2015-03-28T13:15:59Z</time>
      </trkpt>
      <trkpt lat="59.231690946254" lon="17.980964616555">
        <ele>38.2</ele>
        <time>2015-03-28T13:16:04Z</time>
      </trkpt>
      <trkpt lat="59.231436136494" lon="17.981765088005">
        <ele>38.2</ele>
        <time>2015-03-28T13:16:09Z</time>
      </trkpt>
      <trkpt lat="59.231169256798" lon="17.982601601625">
        <ele>37.8</ele>
        <time>2015-03-28T13:16:14Z</time>
      </trkpt>
      <trkpt lat="59.231115277362" lon="17.982774101127">
        <ele>37.2</ele>
        <time>2015-03-28T13:16:15Z</time>
      </trkpt>
      <trkpt lat="59.231059202451" lon="17.982957161823">
        <ele>36.8</ele>
        <time>2015-03-28T13:16:16Z</time>
      </trkpt>
      <trkpt lat="59.231007737585" lon="17.983133516999">
        <ele>36.4</ele>
        <time>2015-03-28T13:16:17Z</time>
      </trkpt>
      <trkpt lat="59.230947639362" lon="17.983320768645">
        <ele>36</ele>
        <time>2015-03-28T13:16:18Z</time>
      </trkpt>
      <trkpt lat="59.230783940855" lon="17.983866681792">
        <ele>36</ele>
        <time>2015-03-28T13:16:21Z</time>
      </trkpt>
      <trkpt lat="59.230680005295" lon="17.984239592523">
        <ele>35.6</ele>
        <time>2015-03-28T13:16:23Z</time>
      </trkpt>
      <trkpt lat="59.230630552085" lon="17.984434220241">
        <ele>35.2</ele>
        <time>2015-03-28T13:16:24Z</time>
      </trkpt>
      <trkpt lat="59.230578668124" lon="17.984613928177">
        <ele>34.8</ele>
        <time>2015-03-28T13:16:25Z</time>
      </trkpt>
      <trkpt lat="59.23052619743" lon="17.984794306665">
        <ele>34.4</ele>
        <time>2015-03-28T13:16:26Z</time>
      </trkpt>
      <trkpt lat="59.230475151659" lon="17.984978708465">
        <ele>34</ele>
        <time>2015-03-28T13:16:27Z</time>
      </trkpt>
      <trkpt lat="59.230156974735" lon="17.985981099886">
        <ele>34</ele>
        <time>2015-03-28T13:16:33Z</time>
      </trkpt>
      <trkpt lat="59.229812143369" lon="17.986924063636">
        <ele>34</ele>
        <time>2015-03-28T13:16:39Z</time>
      </trkpt>
      <trkpt lat="59.229751877508" lon="17.987074937836">
        <ele>34</ele>
        <time>2015-03-28T13:16:40Z</time>
      </trkpt>
      <trkpt lat="59.229436131335" lon="17.987984373986">
        <ele>34</ele>
        <time>2015-03-28T13:16:46Z</time>
      </trkpt>
      <trkpt lat="59.229381062252" lon="17.988145641742">
        <ele>34</ele>
        <time>2015-03-28T13:16:47Z</time>
      </trkpt>
      <trkpt lat="59.229074368531" lon="17.989024986871">
        <ele>34</ele>
        <time>2015-03-28T13:16:53Z</time>
      </trkpt>
      <trkpt lat="59.229021897837" lon="17.989174017053">
        <ele>34</ele>
        <time>2015-03-28T13:16:54Z</time>
      </trkpt>
      <trkpt lat="59.228716796677" lon="17.99004514792">
        <ele>34</ele>
        <time>2015-03-28T13:17:00Z</time>
      </trkpt>
      <trkpt lat="59.228665667087" lon="17.990196944129">
        <ele>34</ele>
        <time>2015-03-28T13:17:01Z</time>
      </trkpt>
      <trkpt lat="59.228434997199" lon="17.9911280894">
        <ele>34</ele>
        <time>2015-03-28T13:17:07Z</time>
      </trkpt>
      <trkpt lat="59.228341790471" lon="17.991973906929">
        <ele>34</ele>
        <time>2015-03-28T13:17:12Z</time>
      </trkpt>
      <trkpt lat="59.228323182653" lon="17.992320247037">
        <ele>34.4</ele>
        <time>2015-03-28T13:17:14Z</time>
      </trkpt>
      <trkpt lat="59.22832008135" lon="17.992496350756">
        <ele>34.8</ele>
        <time>2015-03-28T13:17:15Z</time>
      </trkpt>
      <trkpt lat="59.228318321151" lon="17.992672538294">
        <ele>35.2</ele>
        <time>2015-03-28T13:17:16Z</time>
      </trkpt>
      <trkpt lat="59.228319326979" lon="17.992841685036">
        <ele>35.8</ele>
        <time>2015-03-28T13:17:17Z</time>
      </trkpt>
      <trkpt lat="59.228322176825" lon="17.993013011072">
        <ele>36.2</ele>
        <time>2015-03-28T13:17:18Z</time>
      </trkpt>
      <trkpt lat="59.228354363321" lon="17.994036943976">
        <ele>36.2</ele>
        <time>2015-03-28T13:17:24Z</time>
      </trkpt>
      <trkpt lat="59.228332235105" lon="17.994940093701">
        <ele>36.2</ele>
        <time>2015-03-28T13:17:29Z</time>
      </trkpt>
      <trkpt lat="59.228269370855" lon="17.995945670244">
        <ele>35.8</ele>
        <time>2015-03-28T13:17:34Z</time>
      </trkpt>
      <trkpt lat="59.228249338114" lon="17.996148763681">
        <ele>35.2</ele>
        <time>2015-03-28T13:17:35Z</time>
      </trkpt>
      <trkpt lat="59.228230897934" lon="17.99635168948">
        <ele>34.8</ele>
        <time>2015-03-28T13:17:36Z</time>
      </trkpt>
      <trkpt lat="59.228214217953" lon="17.996552435985">
        <ele>34.4</ele>
        <time>2015-03-28T13:17:37Z</time>
      </trkpt>
      <trkpt lat="59.228201812741" lon="17.996762234942">
        <ele>34</ele>
        <time>2015-03-28T13:17:38Z</time>
      </trkpt>
      <trkpt lat="59.228186892959" lon="17.997549546809">
        <ele>34</ele>
        <time>2015-03-28T13:17:42Z</time>
      </trkpt>
      <trkpt lat="59.228171889358" lon="17.998670290658">
        <ele>34</ele>
        <time>2015-03-28T13:17:48Z</time>
      </trkpt>
      <trkpt lat="59.228169458607" lon="17.998832815699">
        <ele>34</ele>
        <time>2015-03-28T13:17:49Z</time>
      </trkpt>
      <trkpt lat="59.228167027856" lon="17.999131295158">
        <ele>33.6</ele>
        <time>2015-03-28T13:17:51Z</time>
      </trkpt>
      <trkpt lat="59.228138780853" lon="17.99926272335">
        <ele>33.2</ele>
        <time>2015-03-28T13:17:52Z</time>
      </trkpt>
      <trkpt lat="59.228092345127" lon="17.999387110746">
        <ele>32.8</ele>
        <time>2015-03-28T13:17:53Z</time>
      </trkpt>
      <trkpt lat="59.228021182796" lon="17.999456093783">
        <ele>32.4</ele>
        <time>2015-03-28T13:17:54Z</time>
      </trkpt>
      <trkpt lat="59.227942812031" lon="17.999459698">
        <ele>32</ele>
        <time>2015-03-28T13:17:55Z</time>
      </trkpt>
      <trkpt lat="59.227863183981" lon="17.999470007737">
        <ele>32</ele>
        <time>2015-03-28T13:17:56Z</time>
      </trkpt>
      <trkpt lat="59.227557160812" lon="17.999537482032">
        <ele>32</ele>
        <time>2015-03-28T13:18:00Z</time>
      </trkpt>
      <trkpt lat="59.227242671924" lon="17.999608728182">
        <ele>32</ele>
        <time>2015-03-28T13:18:04Z</time>
      </trkpt>
      <trkpt lat="59.227162289503" lon="17.999605878336">
        <ele>32</ele>
        <time>2015-03-28T13:18:05Z</time>
      </trkpt>
      <trkpt lat="59.226682593366" lon="17.999666144197">
        <ele>32.4</ele>
        <time>2015-03-28T13:18:11Z</time>
      </trkpt>
      <trkpt lat="59.226599780194" lon="17.999694223562">
        <ele>32.8</ele>
        <time>2015-03-28T13:18:12Z</time>
      </trkpt>
      <trkpt lat="59.226517386117" lon="17.999725739506">
        <ele>33.2</ele>
        <time>2015-03-28T13:18:13Z</time>
      </trkpt>
      <trkpt lat="59.226433902393" lon="17.999766894635">
        <ele>34.2</ele>
        <time>2015-03-28T13:18:14Z</time>
      </trkpt>
      <trkpt lat="59.22618102047" lon="17.99994501001">
        <ele>34.2</ele>
        <time>2015-03-28T13:18:17Z</time>
      </trkpt>
      <trkpt lat="59.225711382613" lon="18.000440045024">
        <ele>34.2</ele>
        <time>2015-03-28T13:18:23Z</time>
      </trkpt>
      <trkpt lat="59.225308045585" lon="18.000978833556">
        <ele>34.2</ele>
        <time>2015-03-28T13:18:29Z</time>
      </trkpt>
      <trkpt lat="59.225179215782" lon="18.00118050207">
        <ele>34.6</ele>
        <time>2015-03-28T13:18:31Z</time>
      </trkpt>
      <trkpt lat="59.225117944093" lon="18.001267925287">
        <ele>35</ele>
        <time>2015-03-28T13:18:32Z</time>
      </trkpt>
      <trkpt lat="59.22505784587" lon="18.00136155111">
        <ele>35.4</ele>
        <time>2015-03-28T13:18:33Z</time>
      </trkpt>
      <trkpt lat="59.224999507846" lon="18.001461044263">
        <ele>35.8</ele>
        <time>2015-03-28T13:18:34Z</time>
      </trkpt>
      <trkpt lat="59.224940666908" lon="18.001560621235">
        <ele>36.2</ele>
        <time>2015-03-28T13:18:35Z</time>
      </trkpt>
      <trkpt lat="59.224826337792" lon="18.001749046347">
        <ele>36.6</ele>
        <time>2015-03-28T13:18:37Z</time>
      </trkpt>
      <trkpt lat="59.224771352528" lon="18.001842504532">
        <ele>37</ele>
        <time>2015-03-28T13:18:38Z</time>
      </trkpt>
      <trkpt lat="59.22471670254" lon="18.001935878898">
        <ele>38</ele>
        <time>2015-03-28T13:18:39Z</time>
      </trkpt>
      <trkpt lat="59.224660795267" lon="18.002029504721">
        <ele>38.4</ele>
        <time>2015-03-28T13:18:40Z</time>
      </trkpt>
      <trkpt lat="59.224491313249" lon="18.002303592851">
        <ele>38.4</ele>
        <time>2015-03-28T13:18:43Z</time>
      </trkpt>
      <trkpt lat="59.224315460987" lon="18.00259117584">
        <ele>38.8</ele>
        <time>2015-03-28T13:18:46Z</time>
      </trkpt>
      <trkpt lat="59.224259637533" lon="18.002683292921">
        <ele>39.2</ele>
        <time>2015-03-28T13:18:47Z</time>
      </trkpt>
      <trkpt lat="59.224204903726" lon="18.002778846581">
        <ele>39.6</ele>
        <time>2015-03-28T13:18:48Z</time>
      </trkpt>
      <trkpt lat="59.224152768308" lon="18.00287280768">
        <ele>40</ele>
        <time>2015-03-28T13:18:49Z</time>
      </trkpt>
      <trkpt lat="59.224095855207" lon="18.002966517322">
        <ele>40.4</ele>
        <time>2015-03-28T13:18:50Z</time>
      </trkpt>
      <trkpt lat="59.223834423746" lon="18.003395502964">
        <ele>41</ele>
        <time>2015-03-28T13:18:55Z</time>
      </trkpt>
      <trkpt lat="59.223784299984" lon="18.00348049543">
        <ele>41.4</ele>
        <time>2015-03-28T13:18:56Z</time>
      </trkpt>
      <trkpt lat="59.223736187878" lon="18.003555345797">
        <ele>41.8</ele>
        <time>2015-03-28T13:18:57Z</time>
      </trkpt>
      <trkpt lat="59.223690087428" lon="18.003644277756">
        <ele>42.2</ele>
        <time>2015-03-28T13:18:58Z</time>
      </trkpt>
      <trkpt lat="59.223638454924" lon="18.003730108412">
        <ele>42.6</ele>
        <time>2015-03-28T13:18:59Z</time>
      </trkpt>
      <trkpt lat="59.223438630428" lon="18.004060439091">
        <ele>43.2</ele>
        <time>2015-03-28T13:19:03Z</time>
      </trkpt>
      <trkpt lat="59.22338984777" lon="18.004148113765">
        <ele>44</ele>
        <time>2015-03-28T13:19:04Z</time>
      </trkpt>
      <trkpt lat="59.223338550542" lon="18.004235369344">
        <ele>44.6</ele>
        <time>2015-03-28T13:19:05Z</time>
      </trkpt>
      <trkpt lat="59.223289851703" lon="18.004322624923">
        <ele>45</ele>
        <time>2015-03-28T13:19:06Z</time>
      </trkpt>
      <trkpt lat="59.223096397451" lon="18.004668713574">
        <ele>45</ele>
        <time>2015-03-28T13:19:10Z</time>
      </trkpt>
      <trkpt lat="59.223042082739" lon="18.004744150674">
        <ele>45.4</ele>
        <time>2015-03-28T13:19:11Z</time>
      </trkpt>
      <trkpt lat="59.222989025312" lon="18.004830987158">
        <ele>45.8</ele>
        <time>2015-03-28T13:19:12Z</time>
      </trkpt>
      <trkpt lat="59.222934375324" lon="18.004914554701">
        <ele>46.2</ele>
        <time>2015-03-28T13:19:13Z</time>
      </trkpt>
      <trkpt lat="59.222878635689" lon="18.005003989574">
        <ele>46.6</ele>
        <time>2015-03-28T13:19:14Z</time>
      </trkpt>
      <trkpt lat="59.222823315149" lon="18.00509149661">
        <ele>47</ele>
        <time>2015-03-28T13:19:15Z</time>
      </trkpt>
      <trkpt lat="59.222602535903" lon="18.005415289407">
        <ele>47</ele>
        <time>2015-03-28T13:19:19Z</time>
      </trkpt>
      <trkpt lat="59.222194337373" lon="18.006022390424">
        <ele>47</ele>
        <time>2015-03-28T13:19:26Z</time>
      </trkpt>
      <trkpt lat="59.221708773906" lon="18.006746586584">
        <ele>47</ele>
        <time>2015-03-28T13:19:34Z</time>
      </trkpt>
      <trkpt lat="59.221647334579" lon="18.006839038941">
        <ele>47</ele>
        <time>2015-03-28T13:19:35Z</time>
      </trkpt>
      <trkpt lat="59.221467375186" lon="18.007107259741">
        <ele>47.4</ele>
        <time>2015-03-28T13:19:38Z</time>
      </trkpt>
      <trkpt lat="59.2214092048" lon="18.007197784261">
        <ele>47.8</ele>
        <time>2015-03-28T13:19:39Z</time>
      </trkpt>
      <trkpt lat="59.221349022758" lon="18.007284034012">
        <ele>48.2</ele>
        <time>2015-03-28T13:19:40Z</time>
      </trkpt>
      <trkpt lat="59.221291271467" lon="18.007360141664">
        <ele>48.6</ele>
        <time>2015-03-28T13:19:41Z</time>
      </trkpt>
      <trkpt lat="59.221221701697" lon="18.007416048937">
        <ele>49</ele>
        <time>2015-03-28T13:19:42Z</time>
      </trkpt>
      <trkpt lat="59.221023385943" lon="18.007635822355">
        <ele>49</ele>
        <time>2015-03-28T13:19:45Z</time>
      </trkpt>
      <trkpt lat="59.220947445929" lon="18.007890129201">
        <ele>49</ele>
        <time>2015-03-28T13:19:47Z</time>
      </trkpt>
      <trkpt lat="59.220894975235" lon="18.008006134697">
        <ele>49</ele>
        <time>2015-03-28T13:19:48Z</time>
      </trkpt>
      <trkpt lat="59.220645781348" lon="18.00836798132">
        <ele>49</ele>
        <time>2015-03-28T13:19:52Z</time>
      </trkpt>
      <trkpt lat="59.220234649153" lon="18.008871817329">
        <ele>49</ele>
        <time>2015-03-28T13:19:58Z</time>
      </trkpt>
      <trkpt lat="59.220157535673" lon="18.008925629127">
        <ele>49</ele>
        <time>2015-03-28T13:19:59Z</time>
      </trkpt>
      <trkpt lat="59.220073465216" lon="18.008956055424">
        <ele>48.6</ele>
        <time>2015-03-28T13:20:00Z</time>
      </trkpt>
      <trkpt lat="59.219997860478" lon="18.009011795059">
        <ele>48.2</ele>
        <time>2015-03-28T13:20:01Z</time>
      </trkpt>
      <trkpt lat="59.219931559649" lon="18.009113718963">
        <ele>47.8</ele>
        <time>2015-03-28T13:20:02Z</time>
      </trkpt>
      <trkpt lat="59.219869030675" lon="18.009228634812">
        <ele>47.4</ele>
        <time>2015-03-28T13:20:03Z</time>
      </trkpt>
      <trkpt lat="59.219804238588" lon="18.009337096598">
        <ele>47</ele>
        <time>2015-03-28T13:20:04Z</time>
      </trkpt>
      <trkpt lat="59.219642803194" lon="18.009528455375">
        <ele>47</ele>
        <time>2015-03-28T13:20:06Z</time>
      </trkpt>
      <trkpt lat="59.219465526009" lon="18.009709588234">
        <ele>46.6</ele>
        <time>2015-03-28T13:20:08Z</time>
      </trkpt>
      <trkpt lat="59.21938246138" lon="18.009790473569">
        <ele>46.2</ele>
        <time>2015-03-28T13:20:09Z</time>
      </trkpt>
      <trkpt lat="59.219290595756" lon="18.009865659212">
        <ele>45.8</ele>
        <time>2015-03-28T13:20:10Z</time>
      </trkpt>
      <trkpt lat="59.219201579978" lon="18.009947634194">
        <ele>45.2</ele>
        <time>2015-03-28T13:20:11Z</time>
      </trkpt>
      <trkpt lat="59.219115246408" lon="18.010020137629">
        <ele>44.8</ele>
        <time>2015-03-28T13:20:12Z</time>
      </trkpt>
      <trkpt lat="59.219026314449" lon="18.010096999652">
        <ele>44.4</ele>
        <time>2015-03-28T13:20:13Z</time>
      </trkpt>
      <trkpt lat="59.218932688626" lon="18.010165312137">
        <ele>44</ele>
        <time>2015-03-28T13:20:14Z</time>
      </trkpt>
      <trkpt lat="59.218828753066" lon="18.010241168332">
        <ele>43.6</ele>
        <time>2015-03-28T13:20:15Z</time>
      </trkpt>
      <trkpt lat="59.218726745343" lon="18.010313839405">
        <ele>43.2</ele>
        <time>2015-03-28T13:20:16Z</time>
      </trkpt>
      <trkpt lat="59.218627503647" lon="18.01038299008">
        <ele>42.6</ele>
        <time>2015-03-28T13:20:17Z</time>
      </trkpt>
      <trkpt lat="59.218525244467" lon="18.0104483689">
        <ele>42</ele>
        <time>2015-03-28T13:20:18Z</time>
      </trkpt>
      <trkpt lat="59.218422566192" lon="18.010521878163">
        <ele>41</ele>
        <time>2015-03-28T13:20:19Z</time>
      </trkpt>
      <trkpt lat="59.218316367519" lon="18.010590945019">
        <ele>40.4</ele>
        <time>2015-03-28T13:20:20Z</time>
      </trkpt>
      <trkpt lat="59.218210839398" lon="18.010660766246">
        <ele>39.8</ele>
        <time>2015-03-28T13:20:21Z</time>
      </trkpt>
      <trkpt lat="59.218102880526" lon="18.010720277736">
        <ele>39.2</ele>
        <time>2015-03-28T13:20:22Z</time>
      </trkpt>
      <trkpt lat="59.21799693331" lon="18.010776771742">
        <ele>38.8</ele>
        <time>2015-03-28T13:20:23Z</time>
      </trkpt>
      <trkpt lat="59.217889561171" lon="18.010838211069">
        <ele>38.2</ele>
        <time>2015-03-28T13:20:24Z</time>
      </trkpt>
      <trkpt lat="59.217783781593" lon="18.010892441962">
        <ele>37.8</ele>
        <time>2015-03-28T13:20:25Z</time>
      </trkpt>
      <trkpt lat="59.217270809313" lon="18.011226795953">
        <ele>37.8</ele>
        <time>2015-03-28T13:20:30Z</time>
      </trkpt>
      <trkpt lat="59.21717550711" lon="18.01129074985">
        <ele>37.8</ele>
        <time>2015-03-28T13:20:31Z</time>
      </trkpt>
      <trkpt lat="59.216616853475" lon="18.011723591166">
        <ele>37.8</ele>
        <time>2015-03-28T13:20:37Z</time>
      </trkpt>
      <trkpt lat="59.216082423531" lon="18.012165904029">
        <ele>37.8</ele>
        <time>2015-03-28T13:20:43Z</time>
      </trkpt>
      <trkpt lat="59.215998520712" lon="18.012245280622">
        <ele>37.8</ele>
        <time>2015-03-28T13:20:44Z</time>
      </trkpt>
      <trkpt lat="59.215477082713" lon="18.012693125539">
        <ele>37.8</ele>
        <time>2015-03-28T13:20:50Z</time>
      </trkpt>
      <trkpt lat="59.215299218795" lon="18.012839054418">
        <ele>37.8</ele>
        <time>2015-03-28T13:20:52Z</time>
      </trkpt>
      <trkpt lat="59.215035272764" lon="18.013054050153">
        <ele>37.4</ele>
        <time>2015-03-28T13:20:55Z</time>
      </trkpt>
      <trkpt lat="59.214951118488" lon="18.013122530276">
        <ele>37</ele>
        <time>2015-03-28T13:20:56Z</time>
      </trkpt>
      <trkpt lat="59.214864030547" lon="18.013185729802">
        <ele>36.6</ele>
        <time>2015-03-28T13:20:57Z</time>
      </trkpt>
      <trkpt lat="59.214773422208" lon="18.013260663988">
        <ele>36.2</ele>
        <time>2015-03-28T13:20:58Z</time>
      </trkpt>
      <trkpt lat="59.214683232964" lon="18.013340878771">
        <ele>35.8</ele>
        <time>2015-03-28T13:20:59Z</time>
      </trkpt>
      <trkpt lat="59.214178223489" lon="18.013781766711">
        <ele>35.8</ele>
        <time>2015-03-28T13:21:05Z</time>
      </trkpt>
      <trkpt lat="59.214010836946" lon="18.013918056405">
        <ele>35.8</ele>
        <time>2015-03-28T13:21:07Z</time>
      </trkpt>
      <trkpt lat="59.213491578241" lon="18.014295158086">
        <ele>35.8</ele>
        <time>2015-03-28T13:21:13Z</time>
      </trkpt>
      <trkpt lat="59.213318659644" lon="18.014388113357">
        <ele>35.8</ele>
        <time>2015-03-28T13:21:15Z</time>
      </trkpt>
      <trkpt lat="59.212709211695" lon="18.014592631717">
        <ele>35.8</ele>
        <time>2015-03-28T13:21:22Z</time>
      </trkpt>
      <trkpt lat="59.212141421789" lon="18.014609898431">
        <ele>35.8</ele>
        <time>2015-03-28T13:21:28Z</time>
      </trkpt>
      <trkpt lat="59.212045365215" lon="18.014595984477">
        <ele>35.8</ele>
        <time>2015-03-28T13:21:29Z</time>
      </trkpt>
      <trkpt lat="59.211464751002" lon="18.01442222769">
        <ele>35.8</ele>
        <time>2015-03-28T13:21:35Z</time>
      </trkpt>
      <trkpt lat="59.211369113523" lon="18.014373780308">
        <ele>35.2</ele>
        <time>2015-03-28T13:21:36Z</time>
      </trkpt>
      <trkpt lat="59.211271967302" lon="18.014321896347">
        <ele>34.8</ele>
        <time>2015-03-28T13:21:37Z</time>
      </trkpt>
      <trkpt lat="59.211184041171" lon="18.0142705153">
        <ele>34.4</ele>
        <time>2015-03-28T13:21:38Z</time>
      </trkpt>
      <trkpt lat="59.211092929918" lon="18.014214691846">
        <ele>34</ele>
        <time>2015-03-28T13:21:39Z</time>
      </trkpt>
      <trkpt lat="59.211002070122" lon="18.014155347994">
        <ele>33.6</ele>
        <time>2015-03-28T13:21:40Z</time>
      </trkpt>
      <trkpt lat="59.21090836048" lon="18.014081335817">
        <ele>33.6</ele>
        <time>2015-03-28T13:21:41Z</time>
      </trkpt>
      <trkpt lat="59.210385749015" lon="18.013590407934">
        <ele>33.6</ele>
        <time>2015-03-28T13:21:47Z</time>
      </trkpt>
      <trkpt lat="59.210307713526" lon="18.013492926437">
        <ele>33.6</ele>
        <time>2015-03-28T13:21:48Z</time>
      </trkpt>
      <trkpt lat="59.209872525278" lon="18.012856656408">
        <ele>33.6</ele>
        <time>2015-03-28T13:21:54Z</time>
      </trkpt>
      <trkpt lat="59.209431050605" lon="18.012116534638">
        <ele>33.6</ele>
        <time>2015-03-28T13:22:01Z</time>
      </trkpt>
      <trkpt lat="59.208975578159" lon="18.011362750371">
        <ele>33.6</ele>
        <time>2015-03-28T13:22:08Z</time>
      </trkpt>
      <trkpt lat="59.208908522959" lon="18.011260994105">
        <ele>33.6</ele>
        <time>2015-03-28T13:22:09Z</time>
      </trkpt>
      <trkpt lat="59.208446847907" lon="18.010494553169">
        <ele>33.6</ele>
        <time>2015-03-28T13:22:16Z</time>
      </trkpt>
      <trkpt lat="59.208380211802" lon="18.010381816614">
        <ele>33.6</ele>
        <time>2015-03-28T13:22:17Z</time>
      </trkpt>
      <trkpt lat="59.207915686904" lon="18.009642784491">
        <ele>33.6</ele>
        <time>2015-03-28T13:22:24Z</time>
      </trkpt>
      <trkpt lat="59.207685687568" lon="18.00923383159">
        <ele>34.2</ele>
        <time>2015-03-28T13:22:28Z</time>
      </trkpt>
      <trkpt lat="59.207635563806" lon="18.009145067269">
        <ele>34.6</ele>
        <time>2015-03-28T13:22:29Z</time>
      </trkpt>
      <trkpt lat="59.207581332913" lon="18.00905362074">
        <ele>35.2</ele>
        <time>2015-03-28T13:22:30Z</time>
      </trkpt>
      <trkpt lat="59.207526096192" lon="18.008956893614">
        <ele>35.6</ele>
        <time>2015-03-28T13:22:31Z</time>
      </trkpt>
      <trkpt lat="59.207473625498" lon="18.008871062958">
        <ele>36</ele>
        <time>2015-03-28T13:22:32Z</time>
      </trkpt>
      <trkpt lat="59.207427608867" lon="18.008786992501">
        <ele>36.6</ele>
        <time>2015-03-28T13:22:33Z</time>
      </trkpt>
      <trkpt lat="59.207383855349" lon="18.008703424958">
        <ele>37</ele>
        <time>2015-03-28T13:22:34Z</time>
      </trkpt>
      <trkpt lat="59.20733850927" lon="18.008631508256">
        <ele>37.4</ele>
        <time>2015-03-28T13:22:35Z</time>
      </trkpt>
      <trkpt lat="59.207293833743" lon="18.008563614866">
        <ele>38</ele>
        <time>2015-03-28T13:22:36Z</time>
      </trkpt>
      <trkpt lat="59.207251840424" lon="18.008498822779">
        <ele>38.4</ele>
        <time>2015-03-28T13:22:37Z</time>
      </trkpt>
      <trkpt lat="59.207209092734" lon="18.008429336828">
        <ele>39</ele>
        <time>2015-03-28T13:22:38Z</time>
      </trkpt>
      <trkpt lat="59.207174056392" lon="18.008366640216">
        <ele>39.4</ele>
        <time>2015-03-28T13:22:39Z</time>
      </trkpt>
      <trkpt lat="59.207139271507" lon="18.00831433716">
        <ele>39.8</ele>
        <time>2015-03-28T13:22:40Z</time>
      </trkpt>
      <trkpt lat="59.207097529645" lon="18.008265135407">
        <ele>40.4</ele>
        <time>2015-03-28T13:22:41Z</time>
      </trkpt>
      <trkpt lat="59.207052937937" lon="18.008226578667">
        <ele>40.8</ele>
        <time>2015-03-28T13:22:42Z</time>
      </trkpt>
      <trkpt lat="59.207011196075" lon="18.008187099918">
        <ele>41.4</ele>
        <time>2015-03-28T13:22:43Z</time>
      </trkpt>
      <trkpt lat="59.206966185272" lon="18.008157008897">
        <ele>41.8</ele>
        <time>2015-03-28T13:22:44Z</time>
      </trkpt>
      <trkpt lat="59.206924862505" lon="18.008132114654">
        <ele>42.2</ele>
        <time>2015-03-28T13:22:45Z</time>
      </trkpt>
      <trkpt lat="59.206878845874" lon="18.008108393877">
        <ele>42.8</ele>
        <time>2015-03-28T13:22:46Z</time>
      </trkpt>
      <trkpt lat="59.206783040757" lon="18.008063215436">
        <ele>43.6</ele>
        <time>2015-03-28T13:22:48Z</time>
      </trkpt>
      <trkpt lat="59.206733671366" lon="18.008037818279">
        <ele>44</ele>
        <time>2015-03-28T13:22:49Z</time>
      </trkpt>
      <trkpt lat="59.206683799061" lon="18.008020635384">
        <ele>44.4</ele>
        <time>2015-03-28T13:22:50Z</time>
      </trkpt>
      <trkpt lat="59.206630154901" lon="18.007994232399">
        <ele>44.8</ele>
        <time>2015-03-28T13:22:51Z</time>
      </trkpt>
      <trkpt lat="59.206407866913" lon="18.007894739246">
        <ele>44.8</ele>
        <time>2015-03-28T13:22:55Z</time>
      </trkpt>
      <trkpt lat="59.206031938698" lon="18.007683766823">
        <ele>44.8</ele>
        <time>2015-03-28T13:23:01Z</time>
      </trkpt>
      <trkpt lat="59.205457694729" lon="18.007359135836">
        <ele>44.8</ele>
        <time>2015-03-28T13:23:10Z</time>
      </trkpt>
      <trkpt lat="59.205396925954" lon="18.007333403403">
        <ele>45.2</ele>
        <time>2015-03-28T13:23:11Z</time>
      </trkpt>
      <trkpt lat="59.205338336473" lon="18.00730599459">
        <ele>45.8</ele>
        <time>2015-03-28T13:23:12Z</time>
      </trkpt>
      <trkpt lat="59.205286033417" lon="18.007280094519">
        <ele>46.6</ele>
        <time>2015-03-28T13:23:13Z</time>
      </trkpt>
      <trkpt lat="59.205227695393" lon="18.00726157052">
        <ele>47.2</ele>
        <time>2015-03-28T13:23:14Z</time>
      </trkpt>
      <trkpt lat="59.205178158364" lon="18.007245058177">
        <ele>47.8</ele>
        <time>2015-03-28T13:23:15Z</time>
      </trkpt>
      <trkpt lat="59.205120239435" lon="18.007236760096">
        <ele>48.4</ele>
        <time>2015-03-28T13:23:16Z</time>
      </trkpt>
      <trkpt lat="59.205068858388" lon="18.007228545834">
        <ele>49</ele>
        <time>2015-03-28T13:23:17Z</time>
      </trkpt>
      <trkpt lat="59.205021416834" lon="18.007218990468">
        <ele>49.4</ele>
        <time>2015-03-28T13:23:18Z</time>
      </trkpt>
      <trkpt lat="59.204974478194" lon="18.007208848369">
        <ele>50</ele>
        <time>2015-03-28T13:23:19Z</time>
      </trkpt>
      <trkpt lat="59.204931562866" lon="18.007202561944">
        <ele>50.6</ele>
        <time>2015-03-28T13:23:20Z</time>
      </trkpt>
      <trkpt lat="59.20488931809" lon="18.007197784261">
        <ele>51.2</ele>
        <time>2015-03-28T13:23:21Z</time>
      </trkpt>
      <trkpt lat="59.204844726382" lon="18.007195185872">
        <ele>51.8</ele>
        <time>2015-03-28T13:23:22Z</time>
      </trkpt>
      <trkpt lat="59.204795105534" lon="18.007179763176">
        <ele>51.8</ele>
        <time>2015-03-28T13:23:23Z</time>
      </trkpt>
      <trkpt lat="59.204750430007" lon="18.007159478978">
        <ele>52.2</ele>
        <time>2015-03-28T13:23:24Z</time>
      </trkpt>
      <trkpt lat="59.204706425032" lon="18.007146403214">
        <ele>52.8</ele>
        <time>2015-03-28T13:23:25Z</time>
      </trkpt>
      <trkpt lat="59.204662755333" lon="18.007129387957">
        <ele>53.2</ele>
        <time>2015-03-28T13:23:26Z</time>
      </trkpt>
      <trkpt lat="59.204615146141" lon="18.007106002456">
        <ele>53.6</ele>
        <time>2015-03-28T13:23:27Z</time>
      </trkpt>
      <trkpt lat="59.204567117854" lon="18.007078928919">
        <ele>54.2</ele>
        <time>2015-03-28T13:23:28Z</time>
      </trkpt>
      <trkpt lat="59.204518586653" lon="18.007049759907">
        <ele>54.2</ele>
        <time>2015-03-28T13:23:29Z</time>
      </trkpt>
      <trkpt lat="59.204210970923" lon="18.006819760571">
        <ele>54.2</ele>
        <time>2015-03-28T13:23:35Z</time>
      </trkpt>
      <trkpt lat="59.204155482745" lon="18.006775923234">
        <ele>54.2</ele>
        <time>2015-03-28T13:23:36Z</time>
      </trkpt>
      <trkpt lat="59.203985581632" lon="18.006632508925">
        <ele>54.6</ele>
        <time>2015-03-28T13:23:39Z</time>
      </trkpt>
      <trkpt lat="59.20392875235" lon="18.006588923045">
        <ele>55</ele>
        <time>2015-03-28T13:23:40Z</time>
      </trkpt>
      <trkpt lat="59.203873683267" lon="18.006550198667">
        <ele>55.6</ele>
        <time>2015-03-28T13:23:41Z</time>
      </trkpt>
      <trkpt lat="59.203815261424" lon="18.006508624443">
        <ele>56</ele>
        <time>2015-03-28T13:23:42Z</time>
      </trkpt>
      <trkpt lat="59.203761868721" lon="18.00646026088">
        <ele>56.4</ele>
        <time>2015-03-28T13:23:43Z</time>
      </trkpt>
      <trkpt lat="59.203703195421" lon="18.006413406059">
        <ele>56.4</ele>
        <time>2015-03-28T13:23:44Z</time>
      </trkpt>
      <trkpt lat="59.203268426268" lon="18.006065641028">
        <ele>56.4</ele>
        <time>2015-03-28T13:23:51Z</time>
      </trkpt>
      <trkpt lat="59.202841117006" lon="18.005740088032">
        <ele>56.4</ele>
        <time>2015-03-28T13:23:57Z</time>
      </trkpt>
      <trkpt lat="59.202438282892" lon="18.005536491681">
        <ele>56.4</ele>
        <time>2015-03-28T13:24:02Z</time>
      </trkpt>
      <trkpt lat="59.202350189123" lon="18.005517548587">
        <ele>56.4</ele>
        <time>2015-03-28T13:24:03Z</time>
      </trkpt>
      <trkpt lat="59.202260502793" lon="18.005526433401">
        <ele>56</ele>
        <time>2015-03-28T13:24:04Z</time>
      </trkpt>
      <trkpt lat="59.20216520059" lon="18.005540598812">
        <ele>55.6</ele>
        <time>2015-03-28T13:24:05Z</time>
      </trkpt>
      <trkpt lat="59.202070066025" lon="18.005570019281">
        <ele>55.2</ele>
        <time>2015-03-28T13:24:06Z</time>
      </trkpt>
      <trkpt lat="59.201973171261" lon="18.005594829705">
        <ele>54.6</ele>
        <time>2015-03-28T13:24:07Z</time>
      </trkpt>
      <trkpt lat="59.201869654796" lon="18.005629279314">
        <ele>54.2</ele>
        <time>2015-03-28T13:24:08Z</time>
      </trkpt>
      <trkpt lat="59.201559859772" lon="18.005782081351">
        <ele>53.8</ele>
        <time>2015-03-28T13:24:11Z</time>
      </trkpt>
      <trkpt lat="59.201455421298" lon="18.005853578958">
        <ele>53.2</ele>
        <time>2015-03-28T13:24:12Z</time>
      </trkpt>
      <trkpt lat="59.201346791874" lon="18.005925747117">
        <ele>52.8</ele>
        <time>2015-03-28T13:24:13Z</time>
      </trkpt>
      <trkpt lat="59.201241682848" lon="18.006012499782">
        <ele>52.4</ele>
        <time>2015-03-28T13:24:14Z</time>
      </trkpt>
      <trkpt lat="59.201137914926" lon="18.006106796157">
        <ele>51.8</ele>
        <time>2015-03-28T13:24:15Z</time>
      </trkpt>
      <trkpt lat="59.200923925019" lon="18.006293712527">
        <ele>51.8</ele>
        <time>2015-03-28T13:24:17Z</time>
      </trkpt>
      <trkpt lat="59.200817893984" lon="18.006373675853">
        <ele>51.4</ele>
        <time>2015-03-28T13:24:18Z</time>
      </trkpt>
      <trkpt lat="59.200710521845" lon="18.006465206201">
        <ele>51</ele>
        <time>2015-03-28T13:24:19Z</time>
      </trkpt>
      <trkpt lat="59.200604826086" lon="18.006558999662">
        <ele>50.6</ele>
        <time>2015-03-28T13:24:20Z</time>
      </trkpt>
      <trkpt lat="59.200499046508" lon="18.006649775639">
        <ele>50.2</ele>
        <time>2015-03-28T13:24:21Z</time>
      </trkpt>
      <trkpt lat="59.200395278586" lon="18.00674440729">
        <ele>49.8</ele>
        <time>2015-03-28T13:24:22Z</time>
      </trkpt>
      <trkpt lat="59.200282206755" lon="18.006840547683">
        <ele>49.4</ele>
        <time>2015-03-28T13:24:23Z</time>
      </trkpt>
      <trkpt lat="59.20017701391" lon="18.006934341144">
        <ele>48.8</ele>
        <time>2015-03-28T13:24:24Z</time>
      </trkpt>
      <trkpt lat="59.200066875744" lon="18.007024195112">
        <ele>48.4</ele>
        <time>2015-03-28T13:24:25Z</time>
      </trkpt>
      <trkpt lat="59.199956486121" lon="18.00711991641">
        <ele>48</ele>
        <time>2015-03-28T13:24:26Z</time>
      </trkpt>
      <trkpt lat="59.199847018507" lon="18.007216392079">
        <ele>47.6</ele>
        <time>2015-03-28T13:24:27Z</time>
      </trkpt>
      <trkpt lat="59.199418619598" lon="18.007580501815">
        <ele>47</ele>
        <time>2015-03-28T13:24:31Z</time>
      </trkpt>
      <trkpt lat="59.199314684038" lon="18.007672032163">
        <ele>46.6</ele>
        <time>2015-03-28T13:24:32Z</time>
      </trkpt>
      <trkpt lat="59.199206641347" lon="18.007765574167">
        <ele>46.2</ele>
        <time>2015-03-28T13:24:33Z</time>
      </trkpt>
      <trkpt lat="59.19909742519" lon="18.007855511954">
        <ele>45.8</ele>
        <time>2015-03-28T13:24:34Z</time>
      </trkpt>
      <trkpt lat="59.198989214861" lon="18.00794301899">
        <ele>45.4</ele>
        <time>2015-03-28T13:24:35Z</time>
      </trkpt>
      <trkpt lat="59.198677827276" lon="18.008209898686">
        <ele>45.4</ele>
        <time>2015-03-28T13:24:38Z</time>
      </trkpt>
      <trkpt lat="59.198466771034" lon="18.008395809228">
        <ele>45</ele>
        <time>2015-03-28T13:24:40Z</time>
      </trkpt>
      <trkpt lat="59.198360237085" lon="18.008485160282">
        <ele>44.6</ele>
        <time>2015-03-28T13:24:41Z</time>
      </trkpt>
      <trkpt lat="59.198258061724" lon="18.008573924603">
        <ele>44.2</ele>
        <time>2015-03-28T13:24:42Z</time>
      </trkpt>
      <trkpt lat="59.198159825856" lon="18.008660090535">
        <ele>43.8</ele>
        <time>2015-03-28T13:24:43Z</time>
      </trkpt>
      <trkpt lat="59.198056477029" lon="18.00874432863">
        <ele>43.4</ele>
        <time>2015-03-28T13:24:44Z</time>
      </trkpt>
      <trkpt lat="59.197550713183" lon="18.009162250164">
        <ele>43.4</ele>
        <time>2015-03-28T13:24:49Z</time>
      </trkpt>
      <trkpt lat="59.197160619557" lon="18.00948109764">
        <ele>43.4</ele>
        <time>2015-03-28T13:24:53Z</time>
      </trkpt>
      <trkpt lat="59.196709002785" lon="18.009857780226">
        <ele>42.8</ele>
        <time>2015-03-28T13:24:58Z</time>
      </trkpt>
      <trkpt lat="59.196617556256" lon="18.009930451299">
        <ele>42.4</ele>
        <time>2015-03-28T13:24:59Z</time>
      </trkpt>
      <trkpt lat="59.196524600985" lon="18.010013096833">
        <ele>42</ele>
        <time>2015-03-28T13:25:00Z</time>
      </trkpt>
      <trkpt lat="59.196433573551" lon="18.010096412919">
        <ele>41.4</ele>
        <time>2015-03-28T13:25:01Z</time>
      </trkpt>
      <trkpt lat="59.196339528633" lon="18.010179142272">
        <ele>41</ele>
        <time>2015-03-28T13:25:02Z</time>
      </trkpt>
      <trkpt lat="59.195912806104" lon="18.010611983588">
        <ele>41</ele>
        <time>2015-03-28T13:25:07Z</time>
      </trkpt>
      <trkpt lat="59.195429254293" lon="18.011178516209">
        <ele>41</ele>
        <time>2015-03-28T13:25:13Z</time>
      </trkpt>
      <trkpt lat="59.19535574503" lon="18.011271555299">
        <ele>41</ele>
        <time>2015-03-28T13:25:14Z</time>
      </trkpt>
      <trkpt lat="59.195061205064" lon="18.011672293938">
        <ele>40.6</ele>
        <time>2015-03-28T13:25:18Z</time>
      </trkpt>
      <trkpt lat="59.194989623638" lon="18.011770529806">
        <ele>40</ele>
        <time>2015-03-28T13:25:19Z</time>
      </trkpt>
      <trkpt lat="59.194918377488" lon="18.011866502561">
        <ele>39.6</ele>
        <time>2015-03-28T13:25:20Z</time>
      </trkpt>
      <trkpt lat="59.194846293148" lon="18.011962642954">
        <ele>39.2</ele>
        <time>2015-03-28T13:25:21Z</time>
      </trkpt>
      <trkpt lat="59.194776974835" lon="18.012065907962">
        <ele>38.8</ele>
        <time>2015-03-28T13:25:22Z</time>
      </trkpt>
      <trkpt lat="59.194330973936" lon="18.012793289244">
        <ele>38.8</ele>
        <time>2015-03-28T13:25:29Z</time>
      </trkpt>
      <trkpt lat="59.19406577062" lon="18.013250857165">
        <ele>38.4</ele>
        <time>2015-03-28T13:25:33Z</time>
      </trkpt>
      <trkpt lat="59.19400206818" lon="18.01336862286">
        <ele>38</ele>
        <time>2015-03-28T13:25:34Z</time>
      </trkpt>
      <trkpt lat="59.193938198102" lon="18.013490495686">
        <ele>37.4</ele>
        <time>2015-03-28T13:25:35Z</time>
      </trkpt>
      <trkpt lat="59.193869215065" lon="18.013606920277">
        <ele>37</ele>
        <time>2015-03-28T13:25:36Z</time>
      </trkpt>
      <trkpt lat="59.193803584788" lon="18.013735330985">
        <ele>36.6</ele>
        <time>2015-03-28T13:25:37Z</time>
      </trkpt>
      <trkpt lat="59.193399661027" lon="18.01453370696">
        <ele>36.6</ele>
        <time>2015-03-28T13:25:43Z</time>
      </trkpt>
      <trkpt lat="59.193336712958" lon="18.014661447116">
        <ele>36.6</ele>
        <time>2015-03-28T13:25:44Z</time>
      </trkpt>
      <trkpt lat="59.192925161668" lon="18.015536601295">
        <ele>36.6</ele>
        <time>2015-03-28T13:25:51Z</time>
      </trkpt>
      <trkpt lat="59.192817538072" lon="18.015773222332">
        <ele>37</ele>
        <time>2015-03-28T13:25:53Z</time>
      </trkpt>
      <trkpt lat="59.19276657612" lon="18.015888305819">
        <ele>37.6</ele>
        <time>2015-03-28T13:25:54Z</time>
      </trkpt>
      <trkpt lat="59.192715111254" lon="18.016001880564">
        <ele>38.2</ele>
        <time>2015-03-28T13:25:55Z</time>
      </trkpt>
      <trkpt lat="59.192664233121" lon="18.01611201873">
        <ele>38.8</ele>
        <time>2015-03-28T13:25:56Z</time>
      </trkpt>
      <trkpt lat="59.192615366644" lon="18.016221486344">
        <ele>39.2</ele>
        <time>2015-03-28T13:25:57Z</time>
      </trkpt>
      <trkpt lat="59.192568176547" lon="18.016328690845">
        <ele>39.2</ele>
        <time>2015-03-28T13:25:58Z</time>
      </trkpt>
      <trkpt lat="59.192519980622" lon="18.016441175943">
        <ele>39.6</ele>
        <time>2015-03-28T13:25:59Z</time>
      </trkpt>
      <trkpt lat="59.192472036154" lon="18.016545530598">
        <ele>40</ele>
        <time>2015-03-28T13:26:00Z</time>
      </trkpt>
      <trkpt lat="59.192426354799" lon="18.016654076203">
        <ele>40.4</ele>
        <time>2015-03-28T13:26:01Z</time>
      </trkpt>
      <trkpt lat="59.192380505806" lon="18.016761951256">
        <ele>40.8</ele>
        <time>2015-03-28T13:26:02Z</time>
      </trkpt>
      <trkpt lat="59.19233574646" lon="18.016867311739">
        <ele>41.2</ele>
        <time>2015-03-28T13:26:03Z</time>
      </trkpt>
      <trkpt lat="59.192247485053" lon="18.017079206171">
        <ele>41.8</ele>
        <time>2015-03-28T13:26:05Z</time>
      </trkpt>
      <trkpt lat="59.192205994648" lon="18.017185991577">
        <ele>42.8</ele>
        <time>2015-03-28T13:26:06Z</time>
      </trkpt>
      <trkpt lat="59.192161067664" lon="18.017284814178">
        <ele>43.2</ele>
        <time>2015-03-28T13:26:07Z</time>
      </trkpt>
      <trkpt lat="59.192110943902" lon="18.017396209629">
        <ele>43.6</ele>
        <time>2015-03-28T13:26:08Z</time>
      </trkpt>
      <trkpt lat="59.191949005594" lon="18.017828715669">
        <ele>43.6</ele>
        <time>2015-03-28T13:26:12Z</time>
      </trkpt>
      <trkpt lat="59.191905671171" lon="18.017937764188">
        <ele>44.2</ele>
        <time>2015-03-28T13:26:13Z</time>
      </trkpt>
      <trkpt lat="59.191862839662" lon="18.018040023368">
        <ele>44.6</ele>
        <time>2015-03-28T13:26:14Z</time>
      </trkpt>
      <trkpt lat="59.191821433076" lon="18.018145300032">
        <ele>45</ele>
        <time>2015-03-28T13:26:15Z</time>
      </trkpt>
      <trkpt lat="59.191775248807" lon="18.018254097094">
        <ele>45.4</ele>
        <time>2015-03-28T13:26:16Z</time>
      </trkpt>
      <trkpt lat="59.191731998203" lon="18.018355685722">
        <ele>45.8</ele>
        <time>2015-03-28T13:26:17Z</time>
      </trkpt>
      <trkpt lat="59.191649185031" lon="18.018565233222">
        <ele>46.2</ele>
        <time>2015-03-28T13:26:19Z</time>
      </trkpt>
      <trkpt lat="59.191609706282" lon="18.018668246773">
        <ele>46.6</ele>
        <time>2015-03-28T13:26:20Z</time>
      </trkpt>
      <trkpt lat="59.191571736275" lon="18.018771344143">
        <ele>47</ele>
        <time>2015-03-28T13:26:21Z</time>
      </trkpt>
      <trkpt lat="59.191532425164" lon="18.018873100409">
        <ele>47.6</ele>
        <time>2015-03-28T13:26:22Z</time>
      </trkpt>
      <trkpt lat="59.191492611139" lon="18.01897359939">
        <ele>48</ele>
        <time>2015-03-28T13:26:23Z</time>
      </trkpt>
      <trkpt lat="59.191369564847" lon="18.019276521256">
        <ele>48.4</ele>
        <time>2015-03-28T13:26:26Z</time>
      </trkpt>
      <trkpt lat="59.191329667003" lon="18.019380205359">
        <ele>48.8</ele>
        <time>2015-03-28T13:26:27Z</time>
      </trkpt>
      <trkpt lat="59.19129052353" lon="18.019482213082">
        <ele>49.2</ele>
        <time>2015-03-28T13:26:28Z</time>
      </trkpt>
      <trkpt lat="59.19124861403" lon="18.019577515285">
        <ele>49.6</ele>
        <time>2015-03-28T13:26:29Z</time>
      </trkpt>
      <trkpt lat="59.191207794177" lon="18.019685055062">
        <ele>50</ele>
        <time>2015-03-28T13:26:30Z</time>
      </trkpt>
      <trkpt lat="59.191044347127" lon="18.020083027674">
        <ele>50.4</ele>
        <time>2015-03-28T13:26:34Z</time>
      </trkpt>
      <trkpt lat="59.19100302436" lon="18.020183610474">
        <ele>51</ele>
        <time>2015-03-28T13:26:35Z</time>
      </trkpt>
      <trkpt lat="59.190962288326" lon="18.020281343428">
        <ele>51.4</ele>
        <time>2015-03-28T13:26:36Z</time>
      </trkpt>
      <trkpt lat="59.190920378826" lon="18.020379914572">
        <ele>51.8</ele>
        <time>2015-03-28T13:26:37Z</time>
      </trkpt>
      <trkpt lat="59.190876038575" lon="18.020479491544">
        <ele>52.2</ele>
        <time>2015-03-28T13:26:38Z</time>
      </trkpt>
      <trkpt lat="59.190609158879" lon="18.021061949775">
        <ele>52.8</ele>
        <time>2015-03-28T13:26:44Z</time>
      </trkpt>
      <trkpt lat="59.190560962954" lon="18.021155491779">
        <ele>53.2</ele>
        <time>2015-03-28T13:26:45Z</time>
      </trkpt>
      <trkpt lat="59.190511258287" lon="18.021248698507">
        <ele>53.6</ele>
        <time>2015-03-28T13:26:46Z</time>
      </trkpt>
      <trkpt lat="59.190461302163" lon="18.021339725941">
        <ele>54</ele>
        <time>2015-03-28T13:26:47Z</time>
      </trkpt>
      <trkpt lat="59.190410759306" lon="18.021429831366">
        <ele>54.4</ele>
        <time>2015-03-28T13:26:48Z</time>
      </trkpt>
      <trkpt lat="59.190086798871" lon="18.021967697889">
        <ele>54.4</ele>
        <time>2015-03-28T13:26:54Z</time>
      </trkpt>
      <trkpt lat="59.189669128794" lon="18.022559292391">
        <ele>54.4</ele>
        <time>2015-03-28T13:27:01Z</time>
      </trkpt>
      <trkpt lat="59.189606348363" lon="18.022638501346">
        <ele>54.8</ele>
        <time>2015-03-28T13:27:02Z</time>
      </trkpt>
      <trkpt lat="59.189544238484" lon="18.022715614826">
        <ele>55.2</ele>
        <time>2015-03-28T13:27:03Z</time>
      </trkpt>
      <trkpt lat="59.18948003313" lon="18.022788621175">
        <ele>55.6</ele>
        <time>2015-03-28T13:27:04Z</time>
      </trkpt>
      <trkpt lat="59.189413732301" lon="18.02286028642">
        <ele>56</ele>
        <time>2015-03-28T13:27:05Z</time>
      </trkpt>
      <trkpt lat="59.18934592273" lon="18.022930610561">
        <ele>56.4</ele>
        <time>2015-03-28T13:27:06Z</time>
      </trkpt>
      <trkpt lat="59.189205525905" lon="18.023078383458">
        <ele>56.4</ele>
        <time>2015-03-28T13:27:08Z</time>
      </trkpt>
      <trkpt lat="59.188742342111" lon="18.023504519254">
        <ele>56.4</ele>
        <time>2015-03-28T13:27:14Z</time>
      </trkpt>
      <trkpt lat="59.188155273835" lon="18.023969379428">
        <ele>56.4</ele>
        <time>2015-03-28T13:27:21Z</time>
      </trkpt>
      <trkpt lat="59.188071203378" lon="18.024034339153">
        <ele>56.4</ele>
        <time>2015-03-28T13:27:22Z</time>
      </trkpt>
      <trkpt lat="59.187981265591" lon="18.024103406009">
        <ele>56</ele>
        <time>2015-03-28T13:27:23Z</time>
      </trkpt>
      <trkpt lat="59.187890657252" lon="18.024172305227">
        <ele>55.6</ele>
        <time>2015-03-28T13:27:24Z</time>
      </trkpt>
      <trkpt lat="59.187800216551" lon="18.024244473386">
        <ele>55.2</ele>
        <time>2015-03-28T13:27:25Z</time>
      </trkpt>
      <trkpt lat="59.187709943488" lon="18.024318904658">
        <ele>54.8</ele>
        <time>2015-03-28T13:27:26Z</time>
      </trkpt>
      <trkpt lat="59.187618496959" lon="18.024394090301">
        <ele>54.4</ele>
        <time>2015-03-28T13:27:27Z</time>
      </trkpt>
      <trkpt lat="59.187431580589" lon="18.0245467247">
        <ele>54.4</ele>
        <time>2015-03-28T13:27:29Z</time>
      </trkpt>
      <trkpt lat="59.187338038585" lon="18.024626855664">
        <ele>54</ele>
        <time>2015-03-28T13:27:30Z</time>
      </trkpt>
      <trkpt lat="59.187243658391" lon="18.024710590845">
        <ele>53.6</ele>
        <time>2015-03-28T13:27:31Z</time>
      </trkpt>
      <trkpt lat="59.187147517998" lon="18.024794242207">
        <ele>53.2</ele>
        <time>2015-03-28T13:27:32Z</time>
      </trkpt>
      <trkpt lat="59.187051712881" lon="18.024880659596">
        <ele>52.8</ele>
        <time>2015-03-28T13:27:33Z</time>
      </trkpt>
      <trkpt lat="59.186958003239" lon="18.024973950143">
        <ele>52.2</ele>
        <time>2015-03-28T13:27:34Z</time>
      </trkpt>
      <trkpt lat="59.186767231195" lon="18.025169416051">
        <ele>51.8</ele>
        <time>2015-03-28T13:27:36Z</time>
      </trkpt>
      <trkpt lat="59.186671761354" lon="18.025276872009">
        <ele>51.4</ele>
        <time>2015-03-28T13:27:37Z</time>
      </trkpt>
      <trkpt lat="59.186571010916" lon="18.025396984636">
        <ele>51</ele>
        <time>2015-03-28T13:27:38Z</time>
      </trkpt>
      <trkpt lat="59.186475289618" lon="18.025507793354">
        <ele>50.6</ele>
        <time>2015-03-28T13:27:39Z</time>
      </trkpt>
      <trkpt lat="59.186379233044" lon="18.025624134126">
        <ele>50</ele>
        <time>2015-03-28T13:27:40Z</time>
      </trkpt>
      <trkpt lat="59.186285104307" lon="18.025745001124">
        <ele>49.6</ele>
        <time>2015-03-28T13:27:41Z</time>
      </trkpt>
      <trkpt lat="59.186189383009" lon="18.025870394348">
        <ele>49</ele>
        <time>2015-03-28T13:27:42Z</time>
      </trkpt>
      <trkpt lat="59.186092655883" lon="18.025995536115">
        <ele>48.4</ele>
        <time>2015-03-28T13:27:43Z</time>
      </trkpt>
      <trkpt lat="59.185998359508" lon="18.026125120289">
        <ele>47.4</ele>
        <time>2015-03-28T13:27:44Z</time>
      </trkpt>
      <trkpt lat="59.185905236599" lon="18.026256716119">
        <ele>47</ele>
        <time>2015-03-28T13:27:45Z</time>
      </trkpt>
      <trkpt lat="59.185807587464" lon="18.026395855659">
        <ele>46.4</ele>
        <time>2015-03-28T13:27:46Z</time>
      </trkpt>
      <trkpt lat="59.185715554202" lon="18.026529211688">
        <ele>46</ele>
        <time>2015-03-28T13:27:47Z</time>
      </trkpt>
      <trkpt lat="59.185625364958" lon="18.026664579373">
        <ele>45.6</ele>
        <time>2015-03-28T13:27:48Z</time>
      </trkpt>
      <trkpt lat="59.185536432999" lon="18.026802126352">
        <ele>45.6</ele>
        <time>2015-03-28T13:27:49Z</time>
      </trkpt>
      <trkpt lat="59.185449093601" lon="18.026939338055">
        <ele>45</ele>
        <time>2015-03-28T13:27:50Z</time>
      </trkpt>
      <trkpt lat="59.185363011488" lon="18.027077387948">
        <ele>44.4</ele>
        <time>2015-03-28T13:27:51Z</time>
      </trkpt>
      <trkpt lat="59.18527986304" lon="18.027209989606">
        <ele>43.8</ele>
        <time>2015-03-28T13:27:52Z</time>
      </trkpt>
      <trkpt lat="59.185192942737" lon="18.027353739191">
        <ele>43.4</ele>
        <time>2015-03-28T13:27:53Z</time>
      </trkpt>
      <trkpt lat="59.185112727954" lon="18.027487346677">
        <ele>42.8</ele>
        <time>2015-03-28T13:27:54Z</time>
      </trkpt>
      <trkpt lat="59.184961015564" lon="18.027747520853">
        <ele>42.8</ele>
        <time>2015-03-28T13:27:56Z</time>
      </trkpt>
      <trkpt lat="59.184527336058" lon="18.02852980358">
        <ele>42.8</ele>
        <time>2015-03-28T13:28:02Z</time>
      </trkpt>
      <trkpt lat="59.184460029401" lon="18.028655951175">
        <ele>43.2</ele>
        <time>2015-03-28T13:28:03Z</time>
      </trkpt>
      <trkpt lat="59.184393980029" lon="18.028783607512">
        <ele>43.6</ele>
        <time>2015-03-28T13:28:04Z</time>
      </trkpt>
      <trkpt lat="59.184328433571" lon="18.028913107867">
        <ele>44</ele>
        <time>2015-03-28T13:28:05Z</time>
      </trkpt>
      <trkpt lat="59.184264479674" lon="18.029040428928">
        <ele>44.6</ele>
        <time>2015-03-28T13:28:06Z</time>
      </trkpt>
      <trkpt lat="59.1842019507" lon="18.029167498532">
        <ele>45</ele>
        <time>2015-03-28T13:28:07Z</time>
      </trkpt>
      <trkpt lat="59.183891401305" lon="18.029805780217">
        <ele>45.4</ele>
        <time>2015-03-28T13:28:12Z</time>
      </trkpt>
      <trkpt lat="59.183833817652" lon="18.029933855649">
        <ele>45.8</ele>
        <time>2015-03-28T13:28:13Z</time>
      </trkpt>
      <trkpt lat="59.183772713601" lon="18.030061428167">
        <ele>46.4</ele>
        <time>2015-03-28T13:28:14Z</time>
      </trkpt>
      <trkpt lat="59.183714878491" lon="18.030185899382">
        <ele>46.8</ele>
        <time>2015-03-28T13:28:15Z</time>
      </trkpt>
      <trkpt lat="59.183657546295" lon="18.030311124968">
        <ele>47.2</ele>
        <time>2015-03-28T13:28:16Z</time>
      </trkpt>
      <trkpt lat="59.183430899719" lon="18.030810015656">
        <ele>47.2</ele>
        <time>2015-03-28T13:28:20Z</time>
      </trkpt>
      <trkpt lat="59.183264938099" lon="18.031187117337">
        <ele>47.6</ele>
        <time>2015-03-28T13:28:23Z</time>
      </trkpt>
      <trkpt lat="59.183212299767" lon="18.031311420914">
        <ele>48.2</ele>
        <time>2015-03-28T13:28:24Z</time>
      </trkpt>
      <trkpt lat="59.183161589272" lon="18.031433545197">
        <ele>48.6</ele>
        <time>2015-03-28T13:28:25Z</time>
      </trkpt>
      <trkpt lat="59.183111968424" lon="18.031556004756">
        <ele>49</ele>
        <time>2015-03-28T13:28:26Z</time>
      </trkpt>
      <trkpt lat="59.183062766671" lon="18.031679637781">
        <ele>49.6</ele>
        <time>2015-03-28T13:28:27Z</time>
      </trkpt>
      <trkpt lat="59.182960926586" lon="18.031927239107">
        <ele>49.6</ele>
        <time>2015-03-28T13:28:29Z</time>
      </trkpt>
      <trkpt lat="59.182728664137" lon="18.032526880233">
        <ele>50.4</ele>
        <time>2015-03-28T13:28:34Z</time>
      </trkpt>
      <trkpt lat="59.182681390221" lon="18.032647663412">
        <ele>50.8</ele>
        <time>2015-03-28T13:28:35Z</time>
      </trkpt>
      <trkpt lat="59.182635122133" lon="18.03276853041">
        <ele>51.4</ele>
        <time>2015-03-28T13:28:36Z</time>
      </trkpt>
      <trkpt lat="59.182590027511" lon="18.032887888666">
        <ele>51.8</ele>
        <time>2015-03-28T13:28:37Z</time>
      </trkpt>
      <trkpt lat="59.182317783399" lon="18.033588028773">
        <ele>52.2</ele>
        <time>2015-03-28T13:28:43Z</time>
      </trkpt>
      <trkpt lat="59.182274197519" lon="18.033708057581">
        <ele>52.6</ele>
        <time>2015-03-28T13:28:44Z</time>
      </trkpt>
      <trkpt lat="59.182230444001" lon="18.03383219352">
        <ele>53</ele>
        <time>2015-03-28T13:28:45Z</time>
      </trkpt>
      <trkpt lat="59.182185181741" lon="18.033957586744">
        <ele>53.4</ele>
        <time>2015-03-28T13:28:46Z</time>
      </trkpt>
      <trkpt lat="59.182137907825" lon="18.034073927516">
        <ele>53.8</ele>
        <time>2015-03-28T13:28:47Z</time>
      </trkpt>
      <trkpt lat="59.182043024717" lon="18.034295544952">
        <ele>53.8</ele>
        <time>2015-03-28T13:28:49Z</time>
      </trkpt>
      <trkpt lat="59.181862897686" lon="18.034750514484">
        <ele>54.2</ele>
        <time>2015-03-28T13:28:53Z</time>
      </trkpt>
      <trkpt lat="59.181819563263" lon="18.034861993754">
        <ele>54.6</ele>
        <time>2015-03-28T13:28:54Z</time>
      </trkpt>
      <trkpt lat="59.181775809745" lon="18.034978083069">
        <ele>55</ele>
        <time>2015-03-28T13:28:55Z</time>
      </trkpt>
      <trkpt lat="59.181732140046" lon="18.035093501832">
        <ele>55.4</ele>
        <time>2015-03-28T13:28:56Z</time>
      </trkpt>
      <trkpt lat="59.181690062908" lon="18.035207411853">
        <ele>56</ele>
        <time>2015-03-28T13:28:57Z</time>
      </trkpt>
      <trkpt lat="59.181392086363" lon="18.035993550254">
        <ele>56</ele>
        <time>2015-03-28T13:29:04Z</time>
      </trkpt>
      <trkpt lat="59.181348500483" lon="18.036104442791">
        <ele>56.4</ele>
        <time>2015-03-28T13:29:05Z</time>
      </trkpt>
      <trkpt lat="59.181304746965" lon="18.03621684407">
        <ele>56.8</ele>
        <time>2015-03-28T13:29:06Z</time>
      </trkpt>
      <trkpt lat="59.1812599038" lon="18.036333603937">
        <ele>57.2</ele>
        <time>2015-03-28T13:29:07Z</time>
      </trkpt>
      <trkpt lat="59.181215815006" lon="18.036445083207">
        <ele>57.6</ele>
        <time>2015-03-28T13:29:08Z</time>
      </trkpt>
      <trkpt lat="59.181174073144" lon="18.036555891925">
        <ele>58</ele>
        <time>2015-03-28T13:29:09Z</time>
      </trkpt>
      <trkpt lat="59.181093187809" lon="18.036771642031">
        <ele>58</ele>
        <time>2015-03-28T13:29:11Z</time>
      </trkpt>
      <trkpt lat="59.180873246753" lon="18.037325015069">
        <ele>58.4</ele>
        <time>2015-03-28T13:29:16Z</time>
      </trkpt>
      <trkpt lat="59.180829828511" lon="18.037436661977">
        <ele>58.8</ele>
        <time>2015-03-28T13:29:17Z</time>
      </trkpt>
      <trkpt lat="59.180783895699" lon="18.03755124255">
        <ele>59.2</ele>
        <time>2015-03-28T13:29:18Z</time>
      </trkpt>
      <trkpt lat="59.180738465801" lon="18.037666745132">
        <ele>59.6</ele>
        <time>2015-03-28T13:29:19Z</time>
      </trkpt>
      <trkpt lat="59.180691862437" lon="18.037779900782">
        <ele>60</ele>
        <time>2015-03-28T13:29:20Z</time>
      </trkpt>
      <trkpt lat="59.180404027991" lon="18.038476436672">
        <ele>60</ele>
        <time>2015-03-28T13:29:26Z</time>
      </trkpt>
      <trkpt lat="59.180083839411" lon="18.039228125464">
        <ele>60</ele>
        <time>2015-03-28T13:29:32Z</time>
      </trkpt>
      <trkpt lat="59.179675808519" lon="18.04013370594">
        <ele>60</ele>
        <time>2015-03-28T13:29:39Z</time>
      </trkpt>
      <trkpt lat="59.179553432779" lon="18.040395807953">
        <ele>60</ele>
        <time>2015-03-28T13:29:41Z</time>
      </trkpt>
      <trkpt lat="59.179347824772" lon="18.040799731714">
        <ele>59.6</ele>
        <time>2015-03-28T13:29:44Z</time>
      </trkpt>
      <trkpt lat="59.179278171183" lon="18.040934512666">
        <ele>59</ele>
        <time>2015-03-28T13:29:45Z</time>
      </trkpt>
      <trkpt lat="59.179208936689" lon="18.041070550903">
        <ele>58.6</ele>
        <time>2015-03-28T13:29:46Z</time>
      </trkpt>
      <trkpt lat="59.179137271444" lon="18.041206924416">
        <ele>58.2</ele>
        <time>2015-03-28T13:29:47Z</time>
      </trkpt>
      <trkpt lat="59.17906468419" lon="18.041344974309">
        <ele>57.6</ele>
        <time>2015-03-28T13:29:48Z</time>
      </trkpt>
      <trkpt lat="59.178991845479" lon="18.041486293143">
        <ele>57.2</ele>
        <time>2015-03-28T13:29:49Z</time>
      </trkpt>
      <trkpt lat="59.178919090587" lon="18.041624259217">
        <ele>56.8</ele>
        <time>2015-03-28T13:29:50Z</time>
      </trkpt>
      <trkpt lat="59.178842815297" lon="18.041765075137">
        <ele>56.4</ele>
        <time>2015-03-28T13:29:51Z</time>
      </trkpt>
      <trkpt lat="59.178760840315" lon="18.04191150693">
        <ele>56</ele>
        <time>2015-03-28T13:29:52Z</time>
      </trkpt>
      <trkpt lat="59.178681044627" lon="18.042048802452">
        <ele>55.6</ele>
        <time>2015-03-28T13:29:53Z</time>
      </trkpt>
      <trkpt lat="59.178600746025" lon="18.042184170137">
        <ele>55.6</ele>
        <time>2015-03-28T13:29:54Z</time>
      </trkpt>
      <trkpt lat="59.178521369432" lon="18.042318783451">
        <ele>55</ele>
        <time>2015-03-28T13:29:55Z</time>
      </trkpt>
      <trkpt lat="59.178443166305" lon="18.042454234955">
        <ele>54.6</ele>
        <time>2015-03-28T13:29:56Z</time>
      </trkpt>
      <trkpt lat="59.178364041169" lon="18.042592536305">
        <ele>54.2</ele>
        <time>2015-03-28T13:29:57Z</time>
      </trkpt>
      <trkpt lat="59.178286760051" lon="18.042731508207">
        <ele>53.6</ele>
        <time>2015-03-28T13:29:58Z</time>
      </trkpt>
      <trkpt lat="59.178208137829" lon="18.042873413774">
        <ele>53.2</ele>
        <time>2015-03-28T13:29:59Z</time>
      </trkpt>
      <trkpt lat="59.177960285046" lon="18.043311368049">
        <ele>52.8</ele>
        <time>2015-03-28T13:30:02Z</time>
      </trkpt>
      <trkpt lat="59.177876801322" lon="18.043452854521">
        <ele>52.4</ele>
        <time>2015-03-28T13:30:03Z</time>
      </trkpt>
      <trkpt lat="59.177793401417" lon="18.043598029029">
        <ele>52</ele>
        <time>2015-03-28T13:30:04Z</time>
      </trkpt>
      <trkpt lat="59.17771100734" lon="18.043743371175">
        <ele>51.4</ele>
        <time>2015-03-28T13:30:05Z</time>
      </trkpt>
      <trkpt lat="59.177626433969" lon="18.043889467692">
        <ele>51</ele>
        <time>2015-03-28T13:30:06Z</time>
      </trkpt>
      <trkpt lat="59.177360308644" lon="18.044341335921">
        <ele>50.6</ele>
        <time>2015-03-28T13:30:09Z</time>
      </trkpt>
      <trkpt lat="59.177271292866" lon="18.044494305596">
        <ele>50.2</ele>
        <time>2015-03-28T13:30:10Z</time>
      </trkpt>
      <trkpt lat="59.177181606536" lon="18.044649538384">
        <ele>49.8</ele>
        <time>2015-03-28T13:30:11Z</time>
      </trkpt>
      <trkpt lat="59.177090495283" lon="18.044807285742">
        <ele>49.2</ele>
        <time>2015-03-28T13:30:12Z</time>
      </trkpt>
      <trkpt lat="59.176998210564" lon="18.044966374204">
        <ele>48.8</ele>
        <time>2015-03-28T13:30:13Z</time>
      </trkpt>
      <trkpt lat="59.176905674388" lon="18.045127306684">
        <ele>48.4</ele>
        <time>2015-03-28T13:30:14Z</time>
      </trkpt>
      <trkpt lat="59.176808192891" lon="18.045296369607">
        <ele>48</ele>
        <time>2015-03-28T13:30:15Z</time>
      </trkpt>
      <trkpt lat="59.176713812697" lon="18.045458978467">
        <ele>47.4</ele>
        <time>2015-03-28T13:30:16Z</time>
      </trkpt>
      <trkpt lat="59.176618510494" lon="18.045623431345">
        <ele>47</ele>
        <time>2015-03-28T13:30:17Z</time>
      </trkpt>
      <trkpt lat="59.176523627386" lon="18.045785872567">
        <ele>46.4</ele>
        <time>2015-03-28T13:30:18Z</time>
      </trkpt>
      <trkpt lat="59.176428492821" lon="18.045948146151">
        <ele>46</ele>
        <time>2015-03-28T13:30:19Z</time>
      </trkpt>
      <trkpt lat="59.176332436247" lon="18.04611251521">
        <ele>45.4</ele>
        <time>2015-03-28T13:30:20Z</time>
      </trkpt>
      <trkpt lat="59.176237636958" lon="18.046277554821">
        <ele>44.8</ele>
        <time>2015-03-28T13:30:21Z</time>
      </trkpt>
      <trkpt lat="59.176142418574" lon="18.046441840061">
        <ele>44.2</ele>
        <time>2015-03-28T13:30:22Z</time>
      </trkpt>
      <trkpt lat="59.176043931249" lon="18.04661291464">
        <ele>43.8</ele>
        <time>2015-03-28T13:30:23Z</time>
      </trkpt>
      <trkpt lat="59.175856176689" lon="18.046956907816">
        <ele>43</ele>
        <time>2015-03-28T13:30:25Z</time>
      </trkpt>
      <trkpt lat="59.175762718504" lon="18.047126976567">
        <ele>42.4</ele>
        <time>2015-03-28T13:30:26Z</time>
      </trkpt>
      <trkpt lat="59.175670601423" lon="18.047302158277">
        <ele>42</ele>
        <time>2015-03-28T13:30:27Z</time>
      </trkpt>
      <trkpt lat="59.175583764939" lon="18.047478597272">
        <ele>41.6</ele>
        <time>2015-03-28T13:30:28Z</time>
      </trkpt>
      <trkpt lat="59.175500113577" lon="18.047654449534">
        <ele>41</ele>
        <time>2015-03-28T13:30:29Z</time>
      </trkpt>
      <trkpt lat="59.175412522722" lon="18.047838851334">
        <ele>40.6</ele>
        <time>2015-03-28T13:30:30Z</time>
      </trkpt>
      <trkpt lat="59.175330296283" lon="18.048014284501">
        <ele>40</ele>
        <time>2015-03-28T13:30:31Z</time>
      </trkpt>
      <trkpt lat="59.175248740396" lon="18.04819038822">
        <ele>39.6</ele>
        <time>2015-03-28T13:30:32Z</time>
      </trkpt>
      <trkpt lat="59.175011616445" lon="18.048729260571">
        <ele>39</ele>
        <time>2015-03-28T13:30:35Z</time>
      </trkpt>
      <trkpt lat="59.174935508793" lon="18.048903604091">
        <ele>38.6</ele>
        <time>2015-03-28T13:30:36Z</time>
      </trkpt>
      <trkpt lat="59.174856383657" lon="18.049087167701">
        <ele>37.8</ele>
        <time>2015-03-28T13:30:37Z</time>
      </trkpt>
      <trkpt lat="59.17478237148" lon="18.049262517049">
        <ele>37.4</ele>
        <time>2015-03-28T13:30:38Z</time>
      </trkpt>
      <trkpt lat="59.174708024027" lon="18.049443230813">
        <ele>37.4</ele>
        <time>2015-03-28T13:30:39Z</time>
      </trkpt>
      <trkpt lat="59.174391858759" lon="18.050327940358">
        <ele>37.4</ele>
        <time>2015-03-28T13:30:44Z</time>
      </trkpt>
      <trkpt lat="59.17433393983" lon="18.050509073217">
        <ele>37.4</ele>
        <time>2015-03-28T13:30:45Z</time>
      </trkpt>
      <trkpt lat="59.174055074017" lon="18.051599390769">
        <ele>37.4</ele>
        <time>2015-03-28T13:30:51Z</time>
      </trkpt>
      <trkpt lat="59.173844101594" lon="18.052705298655">
        <ele>37.4</ele>
        <time>2015-03-28T13:30:57Z</time>
      </trkpt>
      <trkpt lat="59.173818033885" lon="18.052888862265">
        <ele>37.4</ele>
        <time>2015-03-28T13:30:58Z</time>
      </trkpt>
      <trkpt lat="59.173704710597" lon="18.05401497053">
        <ele>37.4</ele>
        <time>2015-03-28T13:31:04Z</time>
      </trkpt>
      <trkpt lat="59.173690377548" lon="18.054209849705">
        <ele>37.4</ele>
        <time>2015-03-28T13:31:05Z</time>
      </trkpt>
      <trkpt lat="59.173659364518" lon="18.054953491873">
        <ele>37.8</ele>
        <time>2015-03-28T13:31:09Z</time>
      </trkpt>
      <trkpt lat="59.173658945423" lon="18.055133702723">
        <ele>38.2</ele>
        <time>2015-03-28T13:31:10Z</time>
      </trkpt>
      <trkpt lat="59.173659699794" lon="18.055310728451">
        <ele>38.6</ele>
        <time>2015-03-28T13:31:11Z</time>
      </trkpt>
      <trkpt lat="59.173661208536" lon="18.055489095283">
        <ele>39.2</ele>
        <time>2015-03-28T13:31:12Z</time>
      </trkpt>
      <trkpt lat="59.173665734762" lon="18.05566369026">
        <ele>39.6</ele>
        <time>2015-03-28T13:31:13Z</time>
      </trkpt>
      <trkpt lat="59.173703034217" lon="18.056502550812">
        <ele>39.6</ele>
        <time>2015-03-28T13:31:18Z</time>
      </trkpt>
      <trkpt lat="59.173729856297" lon="18.057159272677">
        <ele>40</ele>
        <time>2015-03-28T13:31:22Z</time>
      </trkpt>
      <trkpt lat="59.173734717799" lon="18.057322887365">
        <ele>40.4</ele>
        <time>2015-03-28T13:31:23Z</time>
      </trkpt>
      <trkpt lat="59.173739160206" lon="18.057487088786">
        <ele>40.8</ele>
        <time>2015-03-28T13:31:24Z</time>
      </trkpt>
      <trkpt lat="59.173742764423" lon="18.057651122569">
        <ele>41.4</ele>
        <time>2015-03-28T13:31:25Z</time>
      </trkpt>
      <trkpt lat="59.173745949545" lon="18.057811719773">
        <ele>41.8</ele>
        <time>2015-03-28T13:31:26Z</time>
      </trkpt>
      <trkpt lat="59.173713008678" lon="18.058776644101">
        <ele>41.8</ele>
        <time>2015-03-28T13:31:32Z</time>
      </trkpt>
      <trkpt lat="59.173607145281" lon="18.059935860871">
        <ele>41.8</ele>
        <time>2015-03-28T13:31:39Z</time>
      </trkpt>
      <trkpt lat="59.17341109264" lon="18.061091138148">
        <ele>41.8</ele>
        <time>2015-03-28T13:31:46Z</time>
      </trkpt>
      <trkpt lat="59.17317639944" lon="18.062071066077">
        <ele>41.8</ele>
        <time>2015-03-28T13:31:52Z</time>
      </trkpt>
      <trkpt lat="59.173008090888" lon="18.062749161787">
        <ele>41.4</ele>
        <time>2015-03-28T13:31:56Z</time>
      </trkpt>
      <trkpt lat="59.172964924103" lon="18.062924008221">
        <ele>41</ele>
        <time>2015-03-28T13:31:57Z</time>
      </trkpt>
      <trkpt lat="59.172918907472" lon="18.063097262094">
        <ele>40.6</ele>
        <time>2015-03-28T13:31:58Z</time>
      </trkpt>
      <trkpt lat="59.172872807022" lon="18.063267079388">
        <ele>40.2</ele>
        <time>2015-03-28T13:31:59Z</time>
      </trkpt>
      <trkpt lat="59.172824527278" lon="18.063446368229">
        <ele>39.8</ele>
        <time>2015-03-28T13:32:00Z</time>
      </trkpt>
      <trkpt lat="59.172695110742" lon="18.063974595567">
        <ele>39.2</ele>
        <time>2015-03-28T13:32:03Z</time>
      </trkpt>
      <trkpt lat="59.172651105767" lon="18.064151788933">
        <ele>38.8</ele>
        <time>2015-03-28T13:32:04Z</time>
      </trkpt>
      <trkpt lat="59.172608274258" lon="18.06433308943">
        <ele>38.2</ele>
        <time>2015-03-28T13:32:05Z</time>
      </trkpt>
      <trkpt lat="59.172562676722" lon="18.064514809022">
        <ele>37.8</ele>
        <time>2015-03-28T13:32:06Z</time>
      </trkpt>
      <trkpt lat="59.172516576272" lon="18.06470273122">
        <ele>37.2</ele>
        <time>2015-03-28T13:32:07Z</time>
      </trkpt>
      <trkpt lat="59.172473912401" lon="18.064880008405">
        <ele>37.2</ele>
        <time>2015-03-28T13:32:08Z</time>
      </trkpt>
      <trkpt lat="59.172224550876" lon="18.065905030956">
        <ele>37.2</ele>
        <time>2015-03-28T13:32:14Z</time>
      </trkpt>
      <trkpt lat="59.172064372767" lon="18.066574241852">
        <ele>37.2</ele>
        <time>2015-03-28T13:32:18Z</time>
      </trkpt>
      <trkpt lat="59.171828170825" lon="18.067531119556">
        <ele>37.2</ele>
        <time>2015-03-28T13:32:24Z</time>
      </trkpt>
      <trkpt lat="59.17179170956" lon="18.067687693448">
        <ele>37.2</ele>
        <time>2015-03-28T13:32:25Z</time>
      </trkpt>
      <trkpt lat="59.171653659667" lon="18.068292615171">
        <ele>37.6</ele>
        <time>2015-03-28T13:32:29Z</time>
      </trkpt>
      <trkpt lat="59.171616611669" lon="18.068447847959">
        <ele>38.2</ele>
        <time>2015-03-28T13:32:30Z</time>
      </trkpt>
      <trkpt lat="59.171582581155" lon="18.068590507897">
        <ele>38.6</ele>
        <time>2015-03-28T13:32:31Z</time>
      </trkpt>
      <trkpt lat="59.171550227021" lon="18.068733670749">
        <ele>39</ele>
        <time>2015-03-28T13:32:32Z</time>
      </trkpt>
      <trkpt lat="59.171519716905" lon="18.068876414506">
        <ele>39.6</ele>
        <time>2015-03-28T13:32:33Z</time>
      </trkpt>
      <trkpt lat="59.17131394126" lon="18.069898754849">
        <ele>39.6</ele>
        <time>2015-03-28T13:32:40Z</time>
      </trkpt>
      <trkpt lat="59.171216543582" lon="18.070485068754">
        <ele>40</ele>
        <time>2015-03-28T13:32:44Z</time>
      </trkpt>
      <trkpt lat="59.171192152253" lon="18.070643402845">
        <ele>40.4</ele>
        <time>2015-03-28T13:32:45Z</time>
      </trkpt>
      <trkpt lat="59.171170778408" lon="18.070795785787">
        <ele>41</ele>
        <time>2015-03-28T13:32:46Z</time>
      </trkpt>
      <trkpt lat="59.171150913305" lon="18.0709489231">
        <ele>41.4</ele>
        <time>2015-03-28T13:32:47Z</time>
      </trkpt>
      <trkpt lat="59.17113289222" lon="18.071099881119">
        <ele>41.8</ele>
        <time>2015-03-28T13:32:48Z</time>
      </trkpt>
      <trkpt lat="59.171115541687" lon="18.071252012604">
        <ele>41.8</ele>
        <time>2015-03-28T13:32:49Z</time>
      </trkpt>
      <trkpt lat="59.171014372154" lon="18.072335708455">
        <ele>41.8</ele>
        <time>2015-03-28T13:32:56Z</time>
      </trkpt>
      <trkpt lat="59.171003391865" lon="18.072491779433">
        <ele>41.8</ele>
        <time>2015-03-28T13:32:57Z</time>
      </trkpt>
      <trkpt lat="59.17096441603" lon="18.073579498596">
        <ele>42.6</ele>
        <time>2015-03-28T13:33:04Z</time>
      </trkpt>
      <trkpt lat="59.170960979451" lon="18.073732049176">
        <ele>43.2</ele>
        <time>2015-03-28T13:33:05Z</time>
      </trkpt>
      <trkpt lat="59.170961482365" lon="18.073888287792">
        <ele>43.6</ele>
        <time>2015-03-28T13:33:06Z</time>
      </trkpt>
      <trkpt lat="59.170963074926" lon="18.074047292435">
        <ele>44</ele>
        <time>2015-03-28T13:33:07Z</time>
      </trkpt>
      <trkpt lat="59.170980509278" lon="18.07483225737">
        <ele>44</ele>
        <time>2015-03-28T13:33:12Z</time>
      </trkpt>
      <trkpt lat="59.171043960261" lon="18.075951157201">
        <ele>44</ele>
        <time>2015-03-28T13:33:19Z</time>
      </trkpt>
      <trkpt lat="59.171058712405" lon="18.076109994206">
        <ele>44</ele>
        <time>2015-03-28T13:33:20Z</time>
      </trkpt>
      <trkpt lat="59.171181842516" lon="18.077207520192">
        <ele>44.4</ele>
        <time>2015-03-28T13:33:27Z</time>
      </trkpt>
      <trkpt lat="59.171203635456" lon="18.077362250066">
        <ele>44.8</ele>
        <time>2015-03-28T13:33:28Z</time>
      </trkpt>
      <trkpt lat="59.171228362061" lon="18.07751362718">
        <ele>45.8</ele>
        <time>2015-03-28T13:33:29Z</time>
      </trkpt>
      <trkpt lat="59.171253088666" lon="18.077664585199">
        <ele>46.2</ele>
        <time>2015-03-28T13:33:30Z</time>
      </trkpt>
      <trkpt lat="59.171390468007" lon="18.078421889864">
        <ele>46.2</ele>
        <time>2015-03-28T13:33:35Z</time>
      </trkpt>
      <trkpt lat="59.171620215886" lon="18.079493515779">
        <ele>46.2</ele>
        <time>2015-03-28T13:33:42Z</time>
      </trkpt>
      <trkpt lat="59.171858261846" lon="18.080524908574">
        <ele>46.2</ele>
        <time>2015-03-28T13:33:49Z</time>
      </trkpt>
      <trkpt lat="59.17192162901" lon="18.080815592866">
        <ele>46.2</ele>
        <time>2015-03-28T13:33:51Z</time>
      </trkpt>
      <trkpt lat="59.172118352203" lon="18.081850170783">
        <ele>46.2</ele>
        <time>2015-03-28T13:33:58Z</time>
      </trkpt>
      <trkpt lat="59.1721403966" lon="18.082002386087">
        <ele>46.2</ele>
        <time>2015-03-28T13:33:59Z</time>
      </trkpt>
      <trkpt lat="59.172162021902" lon="18.082159630531">
        <ele>46.6</ele>
        <time>2015-03-28T13:34:00Z</time>
      </trkpt>
      <trkpt lat="59.172180378263" lon="18.082313186939">
        <ele>47</ele>
        <time>2015-03-28T13:34:01Z</time>
      </trkpt>
      <trkpt lat="59.172199405176" lon="18.08246397732">
        <ele>47.4</ele>
        <time>2015-03-28T13:34:02Z</time>
      </trkpt>
      <trkpt lat="59.172216168976" lon="18.082615270615">
        <ele>47.8</ele>
        <time>2015-03-28T13:34:03Z</time>
      </trkpt>
      <trkpt lat="59.172230418206" lon="18.082771425412">
        <ele>48.2</ele>
        <time>2015-03-28T13:34:04Z</time>
      </trkpt>
      <trkpt lat="59.172258413752" lon="18.083076945667">
        <ele>48.2</ele>
        <time>2015-03-28T13:34:06Z</time>
      </trkpt>
      <trkpt lat="59.172293533913" lon="18.084181763906">
        <ele>48.2</ele>
        <time>2015-03-28T13:34:13Z</time>
      </trkpt>
      <trkpt lat="59.172261347417" lon="18.085270824173">
        <ele>48.2</ele>
        <time>2015-03-28T13:34:20Z</time>
      </trkpt>
      <trkpt lat="59.172250534766" lon="18.085418680889">
        <ele>48.2</ele>
        <time>2015-03-28T13:34:21Z</time>
      </trkpt>
      <trkpt lat="59.172128410483" lon="18.086468681502">
        <ele>48.2</ele>
        <time>2015-03-28T13:34:28Z</time>
      </trkpt>
      <trkpt lat="59.171918024793" lon="18.087541145607">
        <ele>48.2</ele>
        <time>2015-03-28T13:34:35Z</time>
      </trkpt>
      <trkpt lat="59.171648798165" lon="18.088459131295">
        <ele>48.2</ele>
        <time>2015-03-28T13:34:41Z</time>
      </trkpt>
      <trkpt lat="59.17130639755" lon="18.08932540066">
        <ele>48.2</ele>
        <time>2015-03-28T13:34:47Z</time>
      </trkpt>
      <trkpt lat="59.170918064123" lon="18.090075329253">
        <ele>48.2</ele>
        <time>2015-03-28T13:34:53Z</time>
      </trkpt>
      <trkpt lat="59.170846063602" lon="18.090183539582">
        <ele>48.2</ele>
        <time>2015-03-28T13:34:54Z</time>
      </trkpt>
      <trkpt lat="59.17040618149" lon="18.090781085233">
        <ele>48.2</ele>
        <time>2015-03-28T13:35:00Z</time>
      </trkpt>
      <trkpt lat="59.169907123164" lon="18.091350216243">
        <ele>48.2</ele>
        <time>2015-03-28T13:35:07Z</time>
      </trkpt>
      <trkpt lat="59.16983788867" lon="18.091436298356">
        <ele>48.2</ele>
        <time>2015-03-28T13:35:08Z</time>
      </trkpt>
      <trkpt lat="59.169370933021" lon="18.091970979757">
        <ele>48.2</ele>
        <time>2015-03-28T13:35:15Z</time>
      </trkpt>
      <trkpt lat="59.168973798599" lon="18.092411700059">
        <ele>48.2</ele>
        <time>2015-03-28T13:35:21Z</time>
      </trkpt>
      <trkpt lat="59.16865687896" lon="18.092788466464">
        <ele>48.2</ele>
        <time>2015-03-28T13:35:26Z</time>
      </trkpt>
      <trkpt lat="59.168188498388" lon="18.093324069874">
        <ele>48.2</ele>
        <time>2015-03-28T13:35:33Z</time>
      </trkpt>
      <trkpt lat="59.167772839967" lon="18.093782811261">
        <ele>48.8</ele>
        <time>2015-03-28T13:35:39Z</time>
      </trkpt>
      <trkpt lat="59.1677063715" lon="18.09386084675">
        <ele>49.2</ele>
        <time>2015-03-28T13:35:40Z</time>
      </trkpt>
      <trkpt lat="59.167642249965" lon="18.093935026565">
        <ele>49.6</ele>
        <time>2015-03-28T13:35:41Z</time>
      </trkpt>
      <trkpt lat="59.167577876973" lon="18.09400836819">
        <ele>50</ele>
        <time>2015-03-28T13:35:42Z</time>
      </trkpt>
      <trkpt lat="59.167514677447" lon="18.094083889109">
        <ele>50.4</ele>
        <time>2015-03-28T13:35:43Z</time>
      </trkpt>
      <trkpt lat="59.16725877804" lon="18.094377087971">
        <ele>50.4</ele>
        <time>2015-03-28T13:35:47Z</time>
      </trkpt>
      <trkpt lat="59.166769945632" lon="18.094895089391">
        <ele>50.4</ele>
        <time>2015-03-28T13:35:54Z</time>
      </trkpt>
      <trkpt lat="59.166307767666" lon="18.095407977852">
        <ele>50.4</ele>
        <time>2015-03-28T13:36:01Z</time>
      </trkpt>
      <trkpt lat="59.166240041914" lon="18.095478888726">
        <ele>50.8</ele>
        <time>2015-03-28T13:36:02Z</time>
      </trkpt>
      <trkpt lat="59.166173573447" lon="18.095554074369">
        <ele>51.4</ele>
        <time>2015-03-28T13:36:03Z</time>
      </trkpt>
      <trkpt lat="59.166106602066" lon="18.095625991071">
        <ele>51.8</ele>
        <time>2015-03-28T13:36:04Z</time>
      </trkpt>
      <trkpt lat="59.166039463047" lon="18.095699332696">
        <ele>52.2</ele>
        <time>2015-03-28T13:36:05Z</time>
      </trkpt>
      <trkpt lat="59.165974084227" lon="18.095775105072">
        <ele>52.6</ele>
        <time>2015-03-28T13:36:06Z</time>
      </trkpt>
      <trkpt lat="59.165837962171" lon="18.095931846602">
        <ele>52.6</ele>
        <time>2015-03-28T13:36:08Z</time>
      </trkpt>
      <trkpt lat="59.165324570796" lon="18.096529392253">
        <ele>52.6</ele>
        <time>2015-03-28T13:36:16Z</time>
      </trkpt>
      <trkpt lat="59.164941769423" lon="18.096962736483">
        <ele>52.6</ele>
        <time>2015-03-28T13:36:22Z</time>
      </trkpt>
      <trkpt lat="59.164743956583" lon="18.097183515729">
        <ele>53</ele>
        <time>2015-03-28T13:36:25Z</time>
      </trkpt>
      <trkpt lat="59.164678661582" lon="18.097255180974">
        <ele>53.4</ele>
        <time>2015-03-28T13:36:26Z</time>
      </trkpt>
      <trkpt lat="59.164614204771" lon="18.097325756572">
        <ele>53.8</ele>
        <time>2015-03-28T13:36:27Z</time>
      </trkpt>
      <trkpt lat="59.164550753788" lon="18.097392308858">
        <ele>54.2</ele>
        <time>2015-03-28T13:36:28Z</time>
      </trkpt>
      <trkpt lat="59.164486967529" lon="18.097463219732">
        <ele>54.8</ele>
        <time>2015-03-28T13:36:29Z</time>
      </trkpt>
      <trkpt lat="59.164084971605" lon="18.097966888103">
        <ele>55.2</ele>
        <time>2015-03-28T13:36:36Z</time>
      </trkpt>
      <trkpt lat="59.164024621925" lon="18.098044755954">
        <ele>55.6</ele>
        <time>2015-03-28T13:36:37Z</time>
      </trkpt>
      <trkpt lat="59.163968211738" lon="18.098120193054">
        <ele>56</ele>
        <time>2015-03-28T13:36:38Z</time>
      </trkpt>
      <trkpt lat="59.163911130999" lon="18.098197557991">
        <ele>56.4</ele>
        <time>2015-03-28T13:36:39Z</time>
      </trkpt>
      <trkpt lat="59.163858408848" lon="18.098276683127">
        <ele>56.8</ele>
        <time>2015-03-28T13:36:40Z</time>
      </trkpt>
      <trkpt lat="59.163707450829" lon="18.098521686064">
        <ele>56.8</ele>
        <time>2015-03-28T13:36:43Z</time>
      </trkpt>
      <trkpt lat="59.163541992123" lon="18.098776663462">
        <ele>57.2</ele>
        <time>2015-03-28T13:36:46Z</time>
      </trkpt>
      <trkpt lat="59.163490946352" lon="18.098859728091">
        <ele>57.6</ele>
        <time>2015-03-28T13:36:47Z</time>
      </trkpt>
      <trkpt lat="59.163443420979" lon="18.098943295634">
        <ele>58</ele>
        <time>2015-03-28T13:36:48Z</time>
      </trkpt>
      <trkpt lat="59.16339556033" lon="18.09902325896">
        <ele>58.4</ele>
        <time>2015-03-28T13:36:49Z</time>
      </trkpt>
      <trkpt lat="59.163351471536" lon="18.099106994141">
        <ele>59</ele>
        <time>2015-03-28T13:36:50Z</time>
      </trkpt>
      <trkpt lat="59.163218953697" lon="18.099361720082">
        <ele>59.4</ele>
        <time>2015-03-28T13:36:53Z</time>
      </trkpt>
      <trkpt lat="59.163173272342" lon="18.099446041996">
        <ele>59.8</ele>
        <time>2015-03-28T13:36:54Z</time>
      </trkpt>
      <trkpt lat="59.163130189376" lon="18.099532124109">
        <ele>60.2</ele>
        <time>2015-03-28T13:36:55Z</time>
      </trkpt>
      <trkpt lat="59.163085765306" lon="18.099624408828">
        <ele>60.6</ele>
        <time>2015-03-28T13:36:56Z</time>
      </trkpt>
      <trkpt lat="59.163040503046" lon="18.099717447918">
        <ele>61</ele>
        <time>2015-03-28T13:36:57Z</time>
      </trkpt>
      <trkpt lat="59.162765492907" lon="18.100378947466">
        <ele>61</ele>
        <time>2015-03-28T13:37:04Z</time>
      </trkpt>
      <trkpt lat="59.162659545691" lon="18.100643564049">
        <ele>61.4</ele>
        <time>2015-03-28T13:37:07Z</time>
      </trkpt>
      <trkpt lat="59.162625096082" lon="18.100730568171">
        <ele>62</ele>
        <time>2015-03-28T13:37:08Z</time>
      </trkpt>
      <trkpt lat="59.162591400844" lon="18.10082452927">
        <ele>62.4</ele>
        <time>2015-03-28T13:37:09Z</time>
      </trkpt>
      <trkpt lat="59.162553682294" lon="18.100920837301">
        <ele>63.4</ele>
        <time>2015-03-28T13:37:10Z</time>
      </trkpt>
      <trkpt lat="59.16244505287" lon="18.10121847857">
        <ele>63.4</ele>
        <time>2015-03-28T13:37:13Z</time>
      </trkpt>
      <trkpt lat="59.162380009326" lon="18.101417381057">
        <ele>63.4</ele>
        <time>2015-03-28T13:37:15Z</time>
      </trkpt>
      <trkpt lat="59.162133916742" lon="18.102171165324">
        <ele>63.4</ele>
        <time>2015-03-28T13:37:22Z</time>
      </trkpt>
      <trkpt lat="59.162099634771" lon="18.102288511924">
        <ele>63.8</ele>
        <time>2015-03-28T13:37:23Z</time>
      </trkpt>
      <trkpt lat="59.162067448275" lon="18.102405271791">
        <ele>64.2</ele>
        <time>2015-03-28T13:37:24Z</time>
      </trkpt>
      <trkpt lat="59.162038698358" lon="18.102522366934">
        <ele>64.6</ele>
        <time>2015-03-28T13:37:25Z</time>
      </trkpt>
      <trkpt lat="59.162014139391" lon="18.102635774041">
        <ele>65</ele>
        <time>2015-03-28T13:37:26Z</time>
      </trkpt>
      <trkpt lat="59.16198656294" lon="18.102761418722">
        <ele>65.4</ele>
        <time>2015-03-28T13:37:27Z</time>
      </trkpt>
      <trkpt lat="59.161959573222" lon="18.1028839621">
        <ele>65.4</ele>
        <time>2015-03-28T13:37:28Z</time>
      </trkpt>
      <trkpt lat="59.161792270498" lon="18.103661383325">
        <ele>65.4</ele>
        <time>2015-03-28T13:37:34Z</time>
      </trkpt>
      <trkpt lat="59.161611137639" lon="18.104491359063">
        <ele>65.4</ele>
        <time>2015-03-28T13:37:40Z</time>
      </trkpt>
      <trkpt lat="59.161401422501" lon="18.105508502628">
        <ele>65.4</ele>
        <time>2015-03-28T13:37:47Z</time>
      </trkpt>
      <trkpt lat="59.161369906557" lon="18.105655772611">
        <ele>65.4</ele>
        <time>2015-03-28T13:37:48Z</time>
      </trkpt>
      <trkpt lat="59.161145606913" lon="18.106711724373">
        <ele>65.4</ele>
        <time>2015-03-28T13:37:55Z</time>
      </trkpt>
      <trkpt lat="59.161075785686" lon="18.107028224917">
        <ele>65.4</ele>
        <time>2015-03-28T13:37:57Z</time>
      </trkpt>
      <trkpt lat="59.160875374457" lon="18.107965237518">
        <ele>65</ele>
        <time>2015-03-28T13:38:03Z</time>
      </trkpt>
      <trkpt lat="59.160839835201" lon="18.108130277129">
        <ele>64.6</ele>
        <time>2015-03-28T13:38:04Z</time>
      </trkpt>
      <trkpt lat="59.160805888506" lon="18.108289868505">
        <ele>64</ele>
        <time>2015-03-28T13:38:05Z</time>
      </trkpt>
      <trkpt lat="59.160772444725" lon="18.108453650831">
        <ele>63.6</ele>
        <time>2015-03-28T13:38:06Z</time>
      </trkpt>
      <trkpt lat="59.160741180238" lon="18.108616762605">
        <ele>63.2</ele>
        <time>2015-03-28T13:38:07Z</time>
      </trkpt>
      <trkpt lat="59.160563400139" lon="18.10942352048">
        <ele>63.2</ele>
        <time>2015-03-28T13:38:12Z</time>
      </trkpt>
      <trkpt lat="59.160315295899" lon="18.110384002401">
        <ele>63.2</ele>
        <time>2015-03-28T13:38:18Z</time>
      </trkpt>
      <trkpt lat="59.160268608716" lon="18.11054920965">
        <ele>63.2</ele>
        <time>2015-03-28T13:38:19Z</time>
      </trkpt>
      <trkpt lat="59.160180850223" lon="18.110864033814">
        <ele>62.8</ele>
        <time>2015-03-28T13:38:21Z</time>
      </trkpt>
      <trkpt lat="59.160137431981" lon="18.111016752032">
        <ele>62.4</ele>
        <time>2015-03-28T13:38:22Z</time>
      </trkpt>
      <trkpt lat="59.160091834445" lon="18.111174080295">
        <ele>62</ele>
        <time>2015-03-28T13:38:23Z</time>
      </trkpt>
      <trkpt lat="59.160044141434" lon="18.111330821825">
        <ele>61.2</ele>
        <time>2015-03-28T13:38:24Z</time>
      </trkpt>
      <trkpt lat="59.159890333569" lon="18.111824012821">
        <ele>61.2</ele>
        <time>2015-03-28T13:38:27Z</time>
      </trkpt>
      <trkpt lat="59.159573833025" lon="18.112763456173">
        <ele>61.2</ele>
        <time>2015-03-28T13:38:33Z</time>
      </trkpt>
      <trkpt lat="59.159418097323" lon="18.113224879768">
        <ele>61.2</ele>
        <time>2015-03-28T13:38:36Z</time>
      </trkpt>
      <trkpt lat="59.15907804364" lon="18.114124592914">
        <ele>61.2</ele>
        <time>2015-03-28T13:38:42Z</time>
      </trkpt>
      <trkpt lat="59.159019537978" lon="18.114269515965">
        <ele>61.2</ele>
        <time>2015-03-28T13:38:43Z</time>
      </trkpt>
      <trkpt lat="59.158670348024" lon="18.115189094214">
        <ele>61.2</ele>
        <time>2015-03-28T13:38:49Z</time>
      </trkpt>
      <trkpt lat="59.15861033362" lon="18.115338711129">
        <ele>61.2</ele>
        <time>2015-03-28T13:38:50Z</time>
      </trkpt>
      <trkpt lat="59.158247062074" lon="18.116246303261">
        <ele>61.2</ele>
        <time>2015-03-28T13:38:56Z</time>
      </trkpt>
      <trkpt lat="59.158130637483" lon="18.116548470756">
        <ele>61.2</ele>
        <time>2015-03-28T13:38:58Z</time>
      </trkpt>
      <trkpt lat="59.157768539403" lon="18.117457068716">
        <ele>61.2</ele>
        <time>2015-03-28T13:39:04Z</time>
      </trkpt>
      <trkpt lat="59.157708273542" lon="18.117604506337">
        <ele>60.8</ele>
        <time>2015-03-28T13:39:05Z</time>
      </trkpt>
      <trkpt lat="59.157647756224" lon="18.117755631994">
        <ele>60.4</ele>
        <time>2015-03-28T13:39:06Z</time>
      </trkpt>
      <trkpt lat="59.157589502019" lon="18.117910864782">
        <ele>60</ele>
        <time>2015-03-28T13:39:07Z</time>
      </trkpt>
      <trkpt lat="59.157528481787" lon="18.118059475869">
        <ele>59.4</ele>
        <time>2015-03-28T13:39:08Z</time>
      </trkpt>
      <trkpt lat="59.157469976125" lon="18.1182144572">
        <ele>59</ele>
        <time>2015-03-28T13:39:09Z</time>
      </trkpt>
      <trkpt lat="59.157411386644" lon="18.118367678332">
        <ele>59</ele>
        <time>2015-03-28T13:39:10Z</time>
      </trkpt>
      <trkpt lat="59.157053395695" lon="18.119278371767">
        <ele>59</ele>
        <time>2015-03-28T13:39:16Z</time>
      </trkpt>
      <trkpt lat="59.156868993895" lon="18.119744656864">
        <ele>59</ele>
        <time>2015-03-28T13:39:19Z</time>
      </trkpt>
      <trkpt lat="59.156507817824" lon="18.12066113381">
        <ele>59</ele>
        <time>2015-03-28T13:39:25Z</time>
      </trkpt>
      <trkpt lat="59.156393488708" lon="18.120971347929">
        <ele>59</ele>
        <time>2015-03-28T13:39:27Z</time>
      </trkpt>
      <trkpt lat="59.156036168311" lon="18.121880784079">
        <ele>59</ele>
        <time>2015-03-28T13:39:33Z</time>
      </trkpt>
      <trkpt lat="59.15597506426" lon="18.122038950532">
        <ele>59</ele>
        <time>2015-03-28T13:39:34Z</time>
      </trkpt>
      <trkpt lat="59.155807677717" lon="18.122492914236">
        <ele>58.6</ele>
        <time>2015-03-28T13:39:37Z</time>
      </trkpt>
      <trkpt lat="59.155750345521" lon="18.122644961902">
        <ele>57.6</ele>
        <time>2015-03-28T13:39:38Z</time>
      </trkpt>
      <trkpt lat="59.155696952818" lon="18.122797763939">
        <ele>57.2</ele>
        <time>2015-03-28T13:39:39Z</time>
      </trkpt>
      <trkpt lat="59.155642889563" lon="18.122945536836">
        <ele>56.6</ele>
        <time>2015-03-28T13:39:40Z</time>
      </trkpt>
      <trkpt lat="59.155587988118" lon="18.123091214258">
        <ele>56.6</ele>
        <time>2015-03-28T13:39:41Z</time>
      </trkpt>
      <trkpt lat="59.155281964949" lon="18.123951783931">
        <ele>56.6</ele>
        <time>2015-03-28T13:39:47Z</time>
      </trkpt>
      <trkpt lat="59.155095886769" lon="18.124544970994">
        <ele>57</ele>
        <time>2015-03-28T13:39:51Z</time>
      </trkpt>
      <trkpt lat="59.155054228726" lon="18.124685619276">
        <ele>57.4</ele>
        <time>2015-03-28T13:39:52Z</time>
      </trkpt>
      <trkpt lat="59.15501282214" lon="18.124831380517">
        <ele>57.8</ele>
        <time>2015-03-28T13:39:53Z</time>
      </trkpt>
      <trkpt lat="59.154969487717" lon="18.124972615532">
        <ele>58.2</ele>
        <time>2015-03-28T13:39:54Z</time>
      </trkpt>
      <trkpt lat="59.15492648857" lon="18.125108653769">
        <ele>58.8</ele>
        <time>2015-03-28T13:39:55Z</time>
      </trkpt>
      <trkpt lat="59.154804699563" lon="18.125517858127">
        <ele>59.2</ele>
        <time>2015-03-28T13:39:58Z</time>
      </trkpt>
      <trkpt lat="59.154770920506" lon="18.125654734554">
        <ele>59.6</ele>
        <time>2015-03-28T13:39:59Z</time>
      </trkpt>
      <trkpt lat="59.15473873401" lon="18.12578498928">
        <ele>60</ele>
        <time>2015-03-28T13:40:00Z</time>
      </trkpt>
      <trkpt lat="59.154704032944" lon="18.125915830739">
        <ele>60.4</ele>
        <time>2015-03-28T13:40:01Z</time>
      </trkpt>
      <trkpt lat="59.154666230575" lon="18.12603560809">
        <ele>61</ele>
        <time>2015-03-28T13:40:02Z</time>
      </trkpt>
      <trkpt lat="59.154594649149" lon="18.126287148909">
        <ele>61.4</ele>
        <time>2015-03-28T13:40:04Z</time>
      </trkpt>
      <trkpt lat="59.154557852608" lon="18.126422935689">
        <ele>61.8</ele>
        <time>2015-03-28T13:40:05Z</time>
      </trkpt>
      <trkpt lat="59.154522983904" lon="18.126552352225">
        <ele>62.4</ele>
        <time>2015-03-28T13:40:06Z</time>
      </trkpt>
      <trkpt lat="59.154490210675" lon="18.126679505648">
        <ele>62.8</ele>
        <time>2015-03-28T13:40:07Z</time>
      </trkpt>
      <trkpt lat="59.154459952016" lon="18.126806239976">
        <ele>63.2</ele>
        <time>2015-03-28T13:40:08Z</time>
      </trkpt>
      <trkpt lat="59.154374205179" lon="18.127196249783">
        <ele>63.2</ele>
        <time>2015-03-28T13:40:11Z</time>
      </trkpt>
      <trkpt lat="59.154218553296" lon="18.127881218651">
        <ele>63.6</ele>
        <time>2015-03-28T13:40:16Z</time>
      </trkpt>
      <trkpt lat="59.154187540266" lon="18.128015245232">
        <ele>64</ele>
        <time>2015-03-28T13:40:17Z</time>
      </trkpt>
      <trkpt lat="59.154157449245" lon="18.128150529098">
        <ele>64.6</ele>
        <time>2015-03-28T13:40:18Z</time>
      </trkpt>
      <trkpt lat="59.154126100939" lon="18.128297799081">
        <ele>65</ele>
        <time>2015-03-28T13:40:19Z</time>
      </trkpt>
      <trkpt lat="59.154097099565" lon="18.128440123743">
        <ele>65.4</ele>
        <time>2015-03-28T13:40:20Z</time>
      </trkpt>
      <trkpt lat="59.153994924204" lon="18.128999699387">
        <ele>65.4</ele>
        <time>2015-03-28T13:40:24Z</time>
      </trkpt>
      <trkpt lat="59.15381421044" lon="18.13002623068">
        <ele>65.4</ele>
        <time>2015-03-28T13:40:31Z</time>
      </trkpt>
      <trkpt lat="59.153649338467" lon="18.131201037784">
        <ele>65.4</ele>
        <time>2015-03-28T13:40:38Z</time>
      </trkpt>
      <trkpt lat="59.153549677676" lon="18.132132853607">
        <ele>65</ele>
        <time>2015-03-28T13:40:43Z</time>
      </trkpt>
      <trkpt lat="59.153533919704" lon="18.132331756094">
        <ele>64.4</ele>
        <time>2015-03-28T13:40:44Z</time>
      </trkpt>
      <trkpt lat="59.153515982438" lon="18.132526719088">
        <ele>64</ele>
        <time>2015-03-28T13:40:45Z</time>
      </trkpt>
      <trkpt lat="59.153497793715" lon="18.132725956851">
        <ele>63.4</ele>
        <time>2015-03-28T13:40:46Z</time>
      </trkpt>
      <trkpt lat="59.153480359363" lon="18.132930810487">
        <ele>63</ele>
        <time>2015-03-28T13:40:47Z</time>
      </trkpt>
      <trkpt lat="59.153463511744" lon="18.133147147326">
        <ele>62.6</ele>
        <time>2015-03-28T13:40:48Z</time>
      </trkpt>
      <trkpt lat="59.153444317193" lon="18.13336390326">
        <ele>62.2</ele>
        <time>2015-03-28T13:40:49Z</time>
      </trkpt>
      <trkpt lat="59.153428559221" lon="18.133592142397">
        <ele>61.8</ele>
        <time>2015-03-28T13:40:50Z</time>
      </trkpt>
      <trkpt lat="59.153413639439" lon="18.133821052086">
        <ele>61.4</ele>
        <time>2015-03-28T13:40:51Z</time>
      </trkpt>
      <trkpt lat="59.153399390209" lon="18.134053063078">
        <ele>60.4</ele>
        <time>2015-03-28T13:40:52Z</time>
      </trkpt>
      <trkpt lat="59.153389499567" lon="18.134287085726">
        <ele>59.8</ele>
        <time>2015-03-28T13:40:53Z</time>
      </trkpt>
      <trkpt lat="59.153379525106" lon="18.134517923252">
        <ele>59.2</ele>
        <time>2015-03-28T13:40:54Z</time>
      </trkpt>
      <trkpt lat="59.153374244509" lon="18.134739205412">
        <ele>58.6</ele>
        <time>2015-03-28T13:40:55Z</time>
      </trkpt>
      <trkpt lat="59.15336996974" lon="18.134953195319">
        <ele>58</ele>
        <time>2015-03-28T13:40:56Z</time>
      </trkpt>
      <trkpt lat="59.153365108238" lon="18.135169113063">
        <ele>57.4</ele>
        <time>2015-03-28T13:40:57Z</time>
      </trkpt>
      <trkpt lat="59.153366030247" lon="18.135359046917">
        <ele>56.8</ele>
        <time>2015-03-28T13:40:58Z</time>
      </trkpt>
      <trkpt lat="59.153371981396" lon="18.135547555848">
        <ele>56.2</ele>
        <time>2015-03-28T13:40:59Z</time>
      </trkpt>
      <trkpt lat="59.153370221197" lon="18.135732795838">
        <ele>55.8</ele>
        <time>2015-03-28T13:41:00Z</time>
      </trkpt>
      <trkpt lat="59.153362006935" lon="18.135922142959">
        <ele>55.4</ele>
        <time>2015-03-28T13:41:01Z</time>
      </trkpt>
      <trkpt lat="59.153330658629" lon="18.136087685484">
        <ele>55</ele>
        <time>2015-03-28T13:41:02Z</time>
      </trkpt>
      <trkpt lat="59.153276343917" lon="18.136226992662">
        <ele>54.6</ele>
        <time>2015-03-28T13:41:03Z</time>
      </trkpt>
      <trkpt lat="59.153178694782" lon="18.136532932012">
        <ele>54.6</ele>
        <time>2015-03-28T13:41:05Z</time>
      </trkpt>
      <trkpt lat="59.153156650385" lon="18.136718926373">
        <ele>54.6</ele>
        <time>2015-03-28T13:41:06Z</time>
      </trkpt>
      <trkpt lat="59.153175425841" lon="18.137263498416">
        <ele>54.6</ele>
        <time>2015-03-28T13:41:09Z</time>
      </trkpt>
      <trkpt lat="59.153225633422" lon="18.138353983606">
        <ele>54.6</ele>
        <time>2015-03-28T13:41:15Z</time>
      </trkpt>
      <trkpt lat="59.153358402718" lon="18.139411947024">
        <ele>54.6</ele>
        <time>2015-03-28T13:41:21Z</time>
      </trkpt>
      <trkpt lat="59.153487400159" lon="18.14048768007">
        <ele>54.6</ele>
        <time>2015-03-28T13:41:27Z</time>
      </trkpt>
      <trkpt lat="59.153498883362" lon="18.140674177345">
        <ele>54.6</ele>
        <time>2015-03-28T13:41:28Z</time>
      </trkpt>
      <trkpt lat="59.153537356283" lon="18.141219922854">
        <ele>54</ele>
        <time>2015-03-28T13:41:31Z</time>
      </trkpt>
      <trkpt lat="59.153549426219" lon="18.141401474808">
        <ele>53.6</ele>
        <time>2015-03-28T13:41:32Z</time>
      </trkpt>
      <trkpt lat="59.153557472843" lon="18.141584535504">
        <ele>53.2</ele>
        <time>2015-03-28T13:41:33Z</time>
      </trkpt>
      <trkpt lat="59.153563507811" lon="18.141769607856">
        <ele>52.8</ele>
        <time>2015-03-28T13:41:34Z</time>
      </trkpt>
      <trkpt lat="59.153569375141" lon="18.14196624723">
        <ele>52.2</ele>
        <time>2015-03-28T13:41:35Z</time>
      </trkpt>
      <trkpt lat="59.153593598832" lon="18.143041812638">
        <ele>52.2</ele>
        <time>2015-03-28T13:41:41Z</time>
      </trkpt>
      <trkpt lat="59.153630143916" lon="18.144102625902">
        <ele>52.2</ele>
        <time>2015-03-28T13:41:47Z</time>
      </trkpt>
      <trkpt lat="59.153634502504" lon="18.144277807612">
        <ele>52.2</ele>
        <time>2015-03-28T13:41:48Z</time>
      </trkpt>
      <trkpt lat="59.153661492222" lon="18.145331244804">
        <ele>52.2</ele>
        <time>2015-03-28T13:41:54Z</time>
      </trkpt>
      <trkpt lat="59.153675154719" lon="18.145843881808">
        <ele>52.2</ele>
        <time>2015-03-28T13:41:57Z</time>
      </trkpt>
      <trkpt lat="59.153703653179" lon="18.146708055698">
        <ele>52.6</ele>
        <time>2015-03-28T13:42:02Z</time>
      </trkpt>
      <trkpt lat="59.153712035079" lon="18.146882650675">
        <ele>53.2</ele>
        <time>2015-03-28T13:42:03Z</time>
      </trkpt>
      <trkpt lat="59.153720836074" lon="18.1470565751">
        <ele>53.6</ele>
        <time>2015-03-28T13:42:04Z</time>
      </trkpt>
      <trkpt lat="59.153729301793" lon="18.147231086258">
        <ele>54</ele>
        <time>2015-03-28T13:42:05Z</time>
      </trkpt>
      <trkpt lat="59.153737767512" lon="18.147413560221">
        <ele>54.4</ele>
        <time>2015-03-28T13:42:06Z</time>
      </trkpt>
      <trkpt lat="59.153787472179" lon="18.148620386183">
        <ele>54.4</ele>
        <time>2015-03-28T13:42:13Z</time>
      </trkpt>
      <trkpt lat="59.153796105536" lon="18.148802860146">
        <ele>54.4</ele>
        <time>2015-03-28T13:42:14Z</time>
      </trkpt>
      <trkpt lat="59.153856371397" lon="18.149852441664">
        <ele>54.4</ele>
        <time>2015-03-28T13:42:20Z</time>
      </trkpt>
      <trkpt lat="59.153873973387" lon="18.150208672414">
        <ele>54.4</ele>
        <time>2015-03-28T13:42:22Z</time>
      </trkpt>
      <trkpt lat="59.153885624228" lon="18.150384273219">
        <ele>54.8</ele>
        <time>2015-03-28T13:42:23Z</time>
      </trkpt>
      <trkpt lat="59.153894760499" lon="18.150555599255">
        <ele>55.2</ele>
        <time>2015-03-28T13:42:24Z</time>
      </trkpt>
      <trkpt lat="59.153902890942" lon="18.150722985798">
        <ele>55.6</ele>
        <time>2015-03-28T13:42:25Z</time>
      </trkpt>
      <trkpt lat="59.153912865403" lon="18.15089045616">
        <ele>56</ele>
        <time>2015-03-28T13:42:26Z</time>
      </trkpt>
      <trkpt lat="59.15392568971" lon="18.151058680893">
        <ele>56.4</ele>
        <time>2015-03-28T13:42:27Z</time>
      </trkpt>
      <trkpt lat="59.153951003048" lon="18.151398231662">
        <ele>56.4</ele>
        <time>2015-03-28T13:42:29Z</time>
      </trkpt>
      <trkpt lat="59.154028954718" lon="18.152217562387">
        <ele>56.4</ele>
        <time>2015-03-28T13:42:34Z</time>
      </trkpt>
      <trkpt lat="59.154042449577" lon="18.152541522822">
        <ele>56.4</ele>
        <time>2015-03-28T13:42:36Z</time>
      </trkpt>
      <trkpt lat="59.154028367985" lon="18.152714944333">
        <ele>56.4</ele>
        <time>2015-03-28T13:42:37Z</time>
      </trkpt>
      <trkpt lat="59.154066002716" lon="18.15324493187">
        <ele>56.4</ele>
        <time>2015-03-28T13:42:40Z</time>
      </trkpt>
      <trkpt lat="59.154092405701" lon="18.153412486051">
        <ele>56.4</ele>
        <time>2015-03-28T13:42:41Z</time>
      </trkpt>
      <trkpt lat="59.15416541205" lon="18.154076835445">
        <ele>56.4</ele>
        <time>2015-03-28T13:42:45Z</time>
      </trkpt>
      <trkpt lat="59.154279154433" lon="18.155091632078">
        <ele>56.4</ele>
        <time>2015-03-28T13:42:51Z</time>
      </trkpt>
      <trkpt lat="59.154374540455" lon="18.156135932999">
        <ele>56.4</ele>
        <time>2015-03-28T13:42:57Z</time>
      </trkpt>
      <trkpt lat="59.154449977555" lon="18.156831798337">
        <ele>56.4</ele>
        <time>2015-03-28T13:43:01Z</time>
      </trkpt>
      <trkpt lat="59.154566485965" lon="18.15791281198">
        <ele>56.4</ele>
        <time>2015-03-28T13:43:07Z</time>
      </trkpt>
      <trkpt lat="59.154583752679" lon="18.158100985635">
        <ele>56.4</ele>
        <time>2015-03-28T13:43:08Z</time>
      </trkpt>
      <trkpt lat="59.154699087623" lon="18.159235811076">
        <ele>56.4</ele>
        <time>2015-03-28T13:43:14Z</time>
      </trkpt>
      <trkpt lat="59.154719623278" lon="18.159420212876">
        <ele>56.4</ele>
        <time>2015-03-28T13:43:15Z</time>
      </trkpt>
      <trkpt lat="59.154855158601" lon="18.160561743837">
        <ele>56.4</ele>
        <time>2015-03-28T13:43:21Z</time>
      </trkpt>
      <trkpt lat="59.154879298473" lon="18.160756874469">
        <ele>56.4</ele>
        <time>2015-03-28T13:43:22Z</time>
      </trkpt>
      <trkpt lat="59.155015839624" lon="18.16190427276">
        <ele>56.4</ele>
        <time>2015-03-28T13:43:28Z</time>
      </trkpt>
      <trkpt lat="59.155164618349" lon="18.163074134543">
        <ele>56.4</ele>
        <time>2015-03-28T13:43:34Z</time>
      </trkpt>
      <trkpt lat="59.155220777079" lon="18.163473196802">
        <ele>56</ele>
        <time>2015-03-28T13:43:36Z</time>
      </trkpt>
      <trkpt lat="59.155250197548" lon="18.163669165624">
        <ele>55.6</ele>
        <time>2015-03-28T13:43:37Z</time>
      </trkpt>
      <trkpt lat="59.155282886958" lon="18.163867816654">
        <ele>55.2</ele>
        <time>2015-03-28T13:43:38Z</time>
      </trkpt>
      <trkpt lat="59.155314235264" lon="18.164069149892">
        <ele>54.8</ele>
        <time>2015-03-28T13:43:39Z</time>
      </trkpt>
      <trkpt lat="59.155344242466" lon="18.164267298008">
        <ele>54.4</ele>
        <time>2015-03-28T13:43:40Z</time>
      </trkpt>
      <trkpt lat="59.155403753956" lon="18.164667701371">
        <ele>54.4</ele>
        <time>2015-03-28T13:43:42Z</time>
      </trkpt>
      <trkpt lat="59.155485058386" lon="18.165256948941">
        <ele>54.4</ele>
        <time>2015-03-28T13:43:45Z</time>
      </trkpt>
      <trkpt lat="59.155544988971" lon="18.165638744486">
        <ele>54.4</ele>
        <time>2015-03-28T13:43:47Z</time>
      </trkpt>
      <trkpt lat="59.155672645308" lon="18.166437288099">
        <ele>54</ele>
        <time>2015-03-28T13:43:51Z</time>
      </trkpt>
      <trkpt lat="59.155702568691" lon="18.16664088445">
        <ele>53.6</ele>
        <time>2015-03-28T13:43:52Z</time>
      </trkpt>
      <trkpt lat="59.155734252273" lon="18.166843977887">
        <ele>53.2</ele>
        <time>2015-03-28T13:43:53Z</time>
      </trkpt>
      <trkpt lat="59.155768198968" lon="18.167043970021">
        <ele>52.8</ele>
        <time>2015-03-28T13:43:54Z</time>
      </trkpt>
      <trkpt lat="59.155800553102" lon="18.167244129793">
        <ele>52.4</ele>
        <time>2015-03-28T13:43:55Z</time>
      </trkpt>
      <trkpt lat="59.155974058432" lon="18.168270577267">
        <ele>52.4</ele>
        <time>2015-03-28T13:44:00Z</time>
      </trkpt>
      <trkpt lat="59.156046142772" lon="18.168697970348">
        <ele>52</ele>
        <time>2015-03-28T13:44:02Z</time>
      </trkpt>
      <trkpt lat="59.156080173286" lon="18.168908691314">
        <ele>51.6</ele>
        <time>2015-03-28T13:44:03Z</time>
      </trkpt>
      <trkpt lat="59.156115628723" lon="18.169117484443">
        <ele>51.2</ele>
        <time>2015-03-28T13:44:04Z</time>
      </trkpt>
      <trkpt lat="59.156152592902" lon="18.169336252033">
        <ele>50.6</ele>
        <time>2015-03-28T13:44:05Z</time>
      </trkpt>
      <trkpt lat="59.156184779398" lon="18.169543955515">
        <ele>50.2</ele>
        <time>2015-03-28T13:44:06Z</time>
      </trkpt>
      <trkpt lat="59.156328696621" lon="18.170410476337">
        <ele>49.8</ele>
        <time>2015-03-28T13:44:10Z</time>
      </trkpt>
      <trkpt lat="59.156363481506" lon="18.17063150704">
        <ele>49.4</ele>
        <time>2015-03-28T13:44:11Z</time>
      </trkpt>
      <trkpt lat="59.156399607495" lon="18.170867457525">
        <ele>49</ele>
        <time>2015-03-28T13:44:12Z</time>
      </trkpt>
      <trkpt lat="59.156426345756" lon="18.171090667522">
        <ele>48.6</ele>
        <time>2015-03-28T13:44:13Z</time>
      </trkpt>
      <trkpt lat="59.156457358786" lon="18.171310860035">
        <ele>48.2</ele>
        <time>2015-03-28T13:44:14Z</time>
      </trkpt>
      <trkpt lat="59.156499687381" lon="18.171749736319">
        <ele>47.8</ele>
        <time>2015-03-28T13:44:16Z</time>
      </trkpt>
      <trkpt lat="59.156512846964" lon="18.171965234968">
        <ele>47.4</ele>
        <time>2015-03-28T13:44:17Z</time>
      </trkpt>
      <trkpt lat="59.156527599108" lon="18.172183332006">
        <ele>46.8</ele>
        <time>2015-03-28T13:44:18Z</time>
      </trkpt>
      <trkpt lat="59.156538663216" lon="18.172406039089">
        <ele>46.2</ele>
        <time>2015-03-28T13:44:19Z</time>
      </trkpt>
      <trkpt lat="59.156542770347" lon="18.172643582135">
        <ele>45.6</ele>
        <time>2015-03-28T13:44:20Z</time>
      </trkpt>
      <trkpt lat="59.156537405931" lon="18.172876431317">
        <ele>45</ele>
        <time>2015-03-28T13:44:21Z</time>
      </trkpt>
      <trkpt lat="59.156531035687" lon="18.173106514472">
        <ele>44.4</ele>
        <time>2015-03-28T13:44:22Z</time>
      </trkpt>
      <trkpt lat="59.15652324052" lon="18.173337268179">
        <ele>43.8</ele>
        <time>2015-03-28T13:44:23Z</time>
      </trkpt>
      <trkpt lat="59.156432380724" lon="18.174248632166">
        <ele>43.8</ele>
        <time>2015-03-28T13:44:27Z</time>
      </trkpt>
      <trkpt lat="59.156264575086" lon="18.175317994968">
        <ele>43.8</ele>
        <time>2015-03-28T13:44:32Z</time>
      </trkpt>
      <trkpt lat="59.156220318654" lon="18.175522010414">
        <ele>43.8</ele>
        <time>2015-03-28T13:44:33Z</time>
      </trkpt>
      <trkpt lat="59.155947236352" lon="18.176479977765">
        <ele>43.8</ele>
        <time>2015-03-28T13:44:38Z</time>
      </trkpt>
      <trkpt lat="59.15560709885" lon="18.177344403112">
        <ele>43.4</ele>
        <time>2015-03-28T13:44:43Z</time>
      </trkpt>
      <trkpt lat="59.15552998537" lon="18.177499887357">
        <ele>42.8</ele>
        <time>2015-03-28T13:44:44Z</time>
      </trkpt>
      <trkpt lat="59.155450105863" lon="18.177650426281">
        <ele>42.4</ele>
        <time>2015-03-28T13:44:45Z</time>
      </trkpt>
      <trkpt lat="59.155369304347" lon="18.177791912753">
        <ele>41.8</ele>
        <time>2015-03-28T13:44:46Z</time>
      </trkpt>
      <trkpt lat="59.155287832279" lon="18.177929962646">
        <ele>41.2</ele>
        <time>2015-03-28T13:44:47Z</time>
      </trkpt>
      <trkpt lat="59.154844262131" lon="18.178565897399">
        <ele>41.2</ele>
        <time>2015-03-28T13:44:52Z</time>
      </trkpt>
      <trkpt lat="59.154457353627" lon="18.178967725685">
        <ele>41.2</ele>
        <time>2015-03-28T13:44:56Z</time>
      </trkpt>
      <trkpt lat="59.153933065782" lon="18.179324962263">
        <ele>41.2</ele>
        <time>2015-03-28T13:45:01Z</time>
      </trkpt>
      <trkpt lat="59.153734750028" lon="18.179418588086">
        <ele>40.8</ele>
        <time>2015-03-28T13:45:03Z</time>
      </trkpt>
      <trkpt lat="59.153635173056" lon="18.179460665224">
        <ele>40.4</ele>
        <time>2015-03-28T13:45:04Z</time>
      </trkpt>
      <trkpt lat="59.153526208356" lon="18.179497294127">
        <ele>40</ele>
        <time>2015-03-28T13:45:05Z</time>
      </trkpt>
      <trkpt lat="59.153422356615" lon="18.1795280557">
        <ele>39.6</ele>
        <time>2015-03-28T13:45:06Z</time>
      </trkpt>
      <trkpt lat="59.153317666684" lon="18.179552195572">
        <ele>39.2</ele>
        <time>2015-03-28T13:45:07Z</time>
      </trkpt>
      <trkpt lat="59.152781141265" lon="18.179576251625">
        <ele>39.2</ele>
        <time>2015-03-28T13:45:12Z</time>
      </trkpt>
      <trkpt lat="59.152239335249" lon="18.17952637932">
        <ele>39.2</ele>
        <time>2015-03-28T13:45:17Z</time>
      </trkpt>
      <trkpt lat="59.151924594904" lon="18.179493103177">
        <ele>38.8</ele>
        <time>2015-03-28T13:45:20Z</time>
      </trkpt>
      <trkpt lat="59.151823006276" lon="18.179481703793">
        <ele>38.4</ele>
        <time>2015-03-28T13:45:21Z</time>
      </trkpt>
      <trkpt lat="59.15172627915" lon="18.179473238074">
        <ele>38</ele>
        <time>2015-03-28T13:45:22Z</time>
      </trkpt>
      <trkpt lat="59.151626199264" lon="18.179467454563">
        <ele>37.2</ele>
        <time>2015-03-28T13:45:23Z</time>
      </trkpt>
      <trkpt lat="59.151112556432" lon="18.179474495359">
        <ele>37.2</ele>
        <time>2015-03-28T13:45:28Z</time>
      </trkpt>
      <trkpt lat="59.15051174184" lon="18.179521014904">
        <ele>36.8</ele>
        <time>2015-03-28T13:45:34Z</time>
      </trkpt>
      <trkpt lat="59.150411075221" lon="18.179520763447">
        <ele>36.4</ele>
        <time>2015-03-28T13:45:35Z</time>
      </trkpt>
      <trkpt lat="59.150312755534" lon="18.179526127863">
        <ele>36</ele>
        <time>2015-03-28T13:45:36Z</time>
      </trkpt>
      <trkpt lat="59.150218459159" lon="18.179530989365">
        <ele>35.6</ele>
        <time>2015-03-28T13:45:37Z</time>
      </trkpt>
      <trkpt lat="59.150128437553" lon="18.179537778704">
        <ele>35.2</ele>
        <time>2015-03-28T13:45:38Z</time>
      </trkpt>
      <trkpt lat="59.149953004386" lon="18.179566109526">
        <ele>35.2</ele>
        <time>2015-03-28T13:45:40Z</time>
      </trkpt>
      <trkpt lat="59.149468782023" lon="18.179739111942">
        <ele>35.2</ele>
        <time>2015-03-28T13:45:45Z</time>
      </trkpt>
      <trkpt lat="59.148959162503" lon="18.179940696637">
        <ele>35.2</ele>
        <time>2015-03-28T13:45:50Z</time>
      </trkpt>
      <trkpt lat="59.14876243931" lon="18.180003057973">
        <ele>35.2</ele>
        <time>2015-03-28T13:45:52Z</time>
      </trkpt>
      <trkpt lat="59.148557334217" lon="18.180085116774">
        <ele>35.2</ele>
        <time>2015-03-28T13:45:54Z</time>
      </trkpt>
      <trkpt lat="59.147955849073" lon="18.180338753068">
        <ele>35.2</ele>
        <time>2015-03-28T13:46:00Z</time>
      </trkpt>
      <trkpt lat="59.147414797428" lon="18.180559951409">
        <ele>35.2</ele>
        <time>2015-03-28T13:46:06Z</time>
      </trkpt>
      <trkpt lat="59.147164178618" lon="18.180661037123">
        <ele>35.2</ele>
        <time>2015-03-28T13:46:09Z</time>
      </trkpt>
      <trkpt lat="59.147088322423" lon="18.180708311039">
        <ele>35.2</ele>
        <time>2015-03-28T13:46:10Z</time>
      </trkpt>
      <trkpt lat="59.146674088925" lon="18.181010227077">
        <ele>35.2</ele>
        <time>2015-03-28T13:46:15Z</time>
      </trkpt>
      <trkpt lat="59.146166983975" lon="18.181442314022">
        <ele>35.2</ele>
        <time>2015-03-28T13:46:21Z</time>
      </trkpt>
      <trkpt lat="59.145723078551" lon="18.181811871993">
        <ele>35.2</ele>
        <time>2015-03-28T13:46:26Z</time>
      </trkpt>
      <trkpt lat="59.145311108166" lon="18.182116302601">
        <ele>34.6</ele>
        <time>2015-03-28T13:46:30Z</time>
      </trkpt>
      <trkpt lat="59.145208429891" lon="18.182185034181">
        <ele>34.2</ele>
        <time>2015-03-28T13:46:31Z</time>
      </trkpt>
      <trkpt lat="59.145101057752" lon="18.182240019445">
        <ele>33.8</ele>
        <time>2015-03-28T13:46:32Z</time>
      </trkpt>
      <trkpt lat="59.144990500491" lon="18.182290562302">
        <ele>33.4</ele>
        <time>2015-03-28T13:46:33Z</time>
      </trkpt>
      <trkpt lat="59.144891929347" lon="18.182330460146">
        <ele>33</ele>
        <time>2015-03-28T13:46:34Z</time>
      </trkpt>
      <trkpt lat="59.144790592176" lon="18.182379242804">
        <ele>33</ele>
        <time>2015-03-28T13:46:35Z</time>
      </trkpt>
      <trkpt lat="59.144689590281" lon="18.182426600539">
        <ele>32.6</ele>
        <time>2015-03-28T13:46:36Z</time>
      </trkpt>
      <trkpt lat="59.144587079644" lon="18.182468593858">
        <ele>31.8</ele>
        <time>2015-03-28T13:46:37Z</time>
      </trkpt>
      <trkpt lat="59.144482222075" lon="18.182508407883">
        <ele>31.4</ele>
        <time>2015-03-28T13:46:38Z</time>
      </trkpt>
      <trkpt lat="59.144386416958" lon="18.182552748134">
        <ele>31</ele>
        <time>2015-03-28T13:46:39Z</time>
      </trkpt>
      <trkpt lat="59.144198662398" lon="18.182634304021">
        <ele>31</ele>
        <time>2015-03-28T13:46:41Z</time>
      </trkpt>
      <trkpt lat="59.143604888602" lon="18.182877379121">
        <ele>31</ele>
        <time>2015-03-28T13:46:47Z</time>
      </trkpt>
      <trkpt lat="59.142535190524" lon="18.18353376571">
        <ele>31</ele>
        <time>2015-03-28T13:46:59Z</time>
      </trkpt>
      <trkpt lat="59.14202758266" lon="18.183999631712">
        <ele>31</ele>
        <time>2015-03-28T13:47:05Z</time>
      </trkpt>
      <trkpt lat="59.141689708271" lon="18.184332057866">
        <ele>31</ele>
        <time>2015-03-28T13:47:09Z</time>
      </trkpt>
      <trkpt lat="59.141366921302" lon="18.184685774046">
        <ele>30.6</ele>
        <time>2015-03-28T13:47:13Z</time>
      </trkpt>
      <trkpt lat="59.141288801994" lon="18.184768587218">
        <ele>30.2</ele>
        <time>2015-03-28T13:47:14Z</time>
      </trkpt>
      <trkpt lat="59.141206575555" lon="18.1848589441">
        <ele>29.8</ele>
        <time>2015-03-28T13:47:15Z</time>
      </trkpt>
      <trkpt lat="59.141120074347" lon="18.184947037869">
        <ele>29.4</ele>
        <time>2015-03-28T13:47:16Z</time>
      </trkpt>
      <trkpt lat="59.141032315854" lon="18.185038903493">
        <ele>29</ele>
        <time>2015-03-28T13:47:17Z</time>
      </trkpt>
      <trkpt lat="59.140755545516" lon="18.185315590012">
        <ele>28.4</ele>
        <time>2015-03-28T13:47:20Z</time>
      </trkpt>
      <trkpt lat="59.140661835874" lon="18.185395888614">
        <ele>28</ele>
        <time>2015-03-28T13:47:21Z</time>
      </trkpt>
      <trkpt lat="59.140572820096" lon="18.185478198872">
        <ele>27.4</ele>
        <time>2015-03-28T13:47:22Z</time>
      </trkpt>
      <trkpt lat="59.140480619196" lon="18.185560173854">
        <ele>27</ele>
        <time>2015-03-28T13:47:23Z</time>
      </trkpt>
      <trkpt lat="59.140384981717" lon="18.18563426985">
        <ele>26.4</ele>
        <time>2015-03-28T13:47:24Z</time>
      </trkpt>
      <trkpt lat="59.139993044073" lon="18.185897545329">
        <ele>26</ele>
        <time>2015-03-28T13:47:28Z</time>
      </trkpt>
      <trkpt lat="59.139900843173" lon="18.185959739027">
        <ele>25.6</ele>
        <time>2015-03-28T13:47:29Z</time>
      </trkpt>
      <trkpt lat="59.139808139359" lon="18.186009527513">
        <ele>25.2</ele>
        <time>2015-03-28T13:47:30Z</time>
      </trkpt>
      <trkpt lat="59.13971250188" lon="18.186059148361">
        <ele>24.6</ele>
        <time>2015-03-28T13:47:31Z</time>
      </trkpt>
      <trkpt lat="59.139617115858" lon="18.18610952358">
        <ele>24.2</ele>
        <time>2015-03-28T13:47:32Z</time>
      </trkpt>
      <trkpt lat="59.139329784326" lon="18.186279592331">
        <ele>24.2</ele>
        <time>2015-03-28T13:47:35Z</time>
      </trkpt>
      <trkpt lat="59.138821002996" lon="18.186561391809">
        <ele>24.2</ele>
        <time>2015-03-28T13:47:41Z</time>
      </trkpt>
      <trkpt lat="59.138408445878" lon="18.186802958167">
        <ele>24.6</ele>
        <time>2015-03-28T13:47:47Z</time>
      </trkpt>
      <trkpt lat="59.13834709037" lon="18.18683539612">
        <ele>25.2</ele>
        <time>2015-03-28T13:47:48Z</time>
      </trkpt>
      <trkpt lat="59.138287411242" lon="18.186865654779">
        <ele>25.6</ele>
        <time>2015-03-28T13:47:49Z</time>
      </trkpt>
      <trkpt lat="59.138233599444" lon="18.186897170723">
        <ele>26</ele>
        <time>2015-03-28T13:47:50Z</time>
      </trkpt>
      <trkpt lat="59.138179703827" lon="18.186931620332">
        <ele>26.6</ele>
        <time>2015-03-28T13:47:51Z</time>
      </trkpt>
      <trkpt lat="59.13812580821" lon="18.186957101308">
        <ele>27.6</ele>
        <time>2015-03-28T13:47:52Z</time>
      </trkpt>
      <trkpt lat="59.138074846258" lon="18.186983588112">
        <ele>28.2</ele>
        <time>2015-03-28T13:47:53Z</time>
      </trkpt>
      <trkpt lat="59.138024471039" lon="18.187010074916">
        <ele>28.6</ele>
        <time>2015-03-28T13:47:54Z</time>
      </trkpt>
      <trkpt lat="59.137925983714" lon="18.187077549211">
        <ele>29.2</ele>
        <time>2015-03-28T13:47:56Z</time>
      </trkpt>
      <trkpt lat="59.137873261563" lon="18.187113088467">
        <ele>29.6</ele>
        <time>2015-03-28T13:47:57Z</time>
      </trkpt>
      <trkpt lat="59.137823556896" lon="18.187140078185">
        <ele>30</ele>
        <time>2015-03-28T13:47:58Z</time>
      </trkpt>
      <trkpt lat="59.137772846401" lon="18.187161954944">
        <ele>30.6</ele>
        <time>2015-03-28T13:47:59Z</time>
      </trkpt>
      <trkpt lat="59.13772599158" lon="18.187185424264">
        <ele>31</ele>
        <time>2015-03-28T13:48:00Z</time>
      </trkpt>
      <trkpt lat="59.137676957465" lon="18.187213335991">
        <ele>31.4</ele>
        <time>2015-03-28T13:48:01Z</time>
      </trkpt>
      <trkpt lat="59.137628593902" lon="18.187235548026">
        <ele>32</ele>
        <time>2015-03-28T13:48:02Z</time>
      </trkpt>
      <trkpt lat="59.137579140692" lon="18.187265136133">
        <ele>32.4</ele>
        <time>2015-03-28T13:48:03Z</time>
      </trkpt>
      <trkpt lat="59.137527675826" lon="18.187297909362">
        <ele>32.8</ele>
        <time>2015-03-28T13:48:04Z</time>
      </trkpt>
      <trkpt lat="59.137480318091" lon="18.187327665107">
        <ele>33.4</ele>
        <time>2015-03-28T13:48:05Z</time>
      </trkpt>
      <trkpt lat="59.137426422474" lon="18.187360354517">
        <ele>33.8</ele>
        <time>2015-03-28T13:48:06Z</time>
      </trkpt>
      <trkpt lat="59.137377388359" lon="18.18738692514">
        <ele>34.4</ele>
        <time>2015-03-28T13:48:07Z</time>
      </trkpt>
      <trkpt lat="59.137328521882" lon="18.187413076668">
        <ele>34.8</ele>
        <time>2015-03-28T13:48:08Z</time>
      </trkpt>
      <trkpt lat="59.137279403948" lon="18.187437635635">
        <ele>35.4</ele>
        <time>2015-03-28T13:48:09Z</time>
      </trkpt>
      <trkpt lat="59.137126182816" lon="18.187514162382">
        <ele>35.8</ele>
        <time>2015-03-28T13:48:12Z</time>
      </trkpt>
      <trkpt lat="59.137077903072" lon="18.187546684154">
        <ele>36.2</ele>
        <time>2015-03-28T13:48:13Z</time>
      </trkpt>
      <trkpt lat="59.137029874785" lon="18.187580127935">
        <ele>36.6</ele>
        <time>2015-03-28T13:48:14Z</time>
      </trkpt>
      <trkpt lat="59.136978912833" lon="18.187609129309">
        <ele>37</ele>
        <time>2015-03-28T13:48:15Z</time>
      </trkpt>
      <trkpt lat="59.136927028872" lon="18.187638465959">
        <ele>37.4</ele>
        <time>2015-03-28T13:48:16Z</time>
      </trkpt>
      <trkpt lat="59.136605666826" lon="18.187815910782">
        <ele>37.4</ele>
        <time>2015-03-28T13:48:22Z</time>
      </trkpt>
      <trkpt lat="59.136549424277" lon="18.187849186925">
        <ele>37.8</ele>
        <time>2015-03-28T13:48:23Z</time>
      </trkpt>
      <trkpt lat="59.136491756805" lon="18.187885229095">
        <ele>38.2</ele>
        <time>2015-03-28T13:48:24Z</time>
      </trkpt>
      <trkpt lat="59.136434089333" lon="18.187921606541">
        <ele>38.6</ele>
        <time>2015-03-28T13:48:25Z</time>
      </trkpt>
      <trkpt lat="59.136373069101" lon="18.18795773253">
        <ele>39</ele>
        <time>2015-03-28T13:48:26Z</time>
      </trkpt>
      <trkpt lat="59.136309115204" lon="18.187995618718">
        <ele>39.4</ele>
        <time>2015-03-28T13:48:27Z</time>
      </trkpt>
      <trkpt lat="59.136177351736" lon="18.188069295619">
        <ele>39.4</ele>
        <time>2015-03-28T13:48:29Z</time>
      </trkpt>
      <trkpt lat="59.135598330084" lon="18.18840784056">
        <ele>39.4</ele>
        <time>2015-03-28T13:48:37Z</time>
      </trkpt>
      <trkpt lat="59.13519549597" lon="18.188637253163">
        <ele>39</ele>
        <time>2015-03-28T13:48:42Z</time>
      </trkpt>
      <trkpt lat="59.135107905115" lon="18.1886894724">
        <ele>38.6</ele>
        <time>2015-03-28T13:48:43Z</time>
      </trkpt>
      <trkpt lat="59.135019895165" lon="18.188739512343">
        <ele>38.2</ele>
        <time>2015-03-28T13:48:44Z</time>
      </trkpt>
      <trkpt lat="59.134929622102" lon="18.188796676901">
        <ele>37.6</ele>
        <time>2015-03-28T13:48:45Z</time>
      </trkpt>
      <trkpt lat="59.134839600496" lon="18.188847722672">
        <ele>37.2</ele>
        <time>2015-03-28T13:48:46Z</time>
      </trkpt>
      <trkpt lat="59.134747986329" lon="18.188898516986">
        <ele>36.8</ele>
        <time>2015-03-28T13:48:47Z</time>
      </trkpt>
      <trkpt lat="59.13465821618" lon="18.188949562757">
        <ele>36.2</ele>
        <time>2015-03-28T13:48:48Z</time>
      </trkpt>
      <trkpt lat="59.134566685832" lon="18.189002620184">
        <ele>35.8</ele>
        <time>2015-03-28T13:48:49Z</time>
      </trkpt>
      <trkpt lat="59.134477083321" lon="18.189053414498">
        <ele>35.2</ele>
        <time>2015-03-28T13:48:50Z</time>
      </trkpt>
      <trkpt lat="59.134375997607" lon="18.18911024378">
        <ele>34.4</ele>
        <time>2015-03-28T13:48:51Z</time>
      </trkpt>
      <trkpt lat="59.134282539422" lon="18.189169503813">
        <ele>33.8</ele>
        <time>2015-03-28T13:48:52Z</time>
      </trkpt>
      <trkpt lat="59.134191009074" lon="18.189225914">
        <ele>33</ele>
        <time>2015-03-28T13:48:53Z</time>
      </trkpt>
      <trkpt lat="59.134096796518" lon="18.189280480169">
        <ele>32.4</ele>
        <time>2015-03-28T13:48:54Z</time>
      </trkpt>
      <trkpt lat="59.133834443048" lon="18.189440909735">
        <ele>32.4</ele>
        <time>2015-03-28T13:48:57Z</time>
      </trkpt>
      <trkpt lat="59.133301773303" lon="18.189751040035">
        <ele>32.4</ele>
        <time>2015-03-28T13:49:03Z</time>
      </trkpt>
      <trkpt lat="59.133108486689" lon="18.189858998907">
        <ele>32.4</ele>
        <time>2015-03-28T13:49:05Z</time>
      </trkpt>
      <trkpt lat="59.132813779085" lon="18.190024457613">
        <ele>31.8</ele>
        <time>2015-03-28T13:49:08Z</time>
      </trkpt>
      <trkpt lat="59.132717135778" lon="18.190082208904">
        <ele>31.2</ele>
        <time>2015-03-28T13:49:09Z</time>
      </trkpt>
      <trkpt lat="59.132616133883" lon="18.190146581896">
        <ele>30.6</ele>
        <time>2015-03-28T13:49:10Z</time>
      </trkpt>
      <trkpt lat="59.132518568567" lon="18.190217157494">
        <ele>30</ele>
        <time>2015-03-28T13:49:11Z</time>
      </trkpt>
      <trkpt lat="59.132418069586" lon="18.190304077797">
        <ele>29.4</ele>
        <time>2015-03-28T13:49:12Z</time>
      </trkpt>
      <trkpt lat="59.132323354116" lon="18.19040105638">
        <ele>29</ele>
        <time>2015-03-28T13:49:13Z</time>
      </trkpt>
      <trkpt lat="59.132222352221" lon="18.190512703288">
        <ele>28.4</ele>
        <time>2015-03-28T13:49:14Z</time>
      </trkpt>
      <trkpt lat="59.132128894036" lon="18.190632313001">
        <ele>28</ele>
        <time>2015-03-28T13:49:15Z</time>
      </trkpt>
      <trkpt lat="59.132036106403" lon="18.19074974342">
        <ele>27.4</ele>
        <time>2015-03-28T13:49:16Z</time>
      </trkpt>
      <trkpt lat="59.131947006806" lon="18.190862312337">
        <ele>27</ele>
        <time>2015-03-28T13:49:17Z</time>
      </trkpt>
      <trkpt lat="59.131512070015" lon="18.191424234913">
        <ele>27</ele>
        <time>2015-03-28T13:49:22Z</time>
      </trkpt>
      <trkpt lat="59.131246196147" lon="18.191753224488">
        <ele>26.4</ele>
        <time>2015-03-28T13:49:25Z</time>
      </trkpt>
      <trkpt lat="59.131156761274" lon="18.19186034517">
        <ele>26</ele>
        <time>2015-03-28T13:49:26Z</time>
      </trkpt>
      <trkpt lat="59.131069673333" lon="18.191972997906">
        <ele>25.4</ele>
        <time>2015-03-28T13:49:27Z</time>
      </trkpt>
      <trkpt lat="59.130984680867" lon="18.192083471348">
        <ele>25</ele>
        <time>2015-03-28T13:49:28Z</time>
      </trkpt>
      <trkpt lat="59.130900275134" lon="18.192198387197">
        <ele>24.4</ele>
        <time>2015-03-28T13:49:29Z</time>
      </trkpt>
      <trkpt lat="59.130732218039" lon="18.192411203638">
        <ele>24.4</ele>
        <time>2015-03-28T13:49:31Z</time>
      </trkpt>
      <trkpt lat="59.130244559097" lon="18.193031631876">
        <ele>24.4</ele>
        <time>2015-03-28T13:49:37Z</time>
      </trkpt>
      <trkpt lat="59.130083039884" lon="18.193242855756">
        <ele>24.4</ele>
        <time>2015-03-28T13:49:39Z</time>
      </trkpt>
      <trkpt lat="59.129628070352" lon="18.19376136009">
        <ele>24</ele>
        <time>2015-03-28T13:49:45Z</time>
      </trkpt>
      <trkpt lat="59.129549699587" lon="18.193756582407">
        <ele>23.6</ele>
        <time>2015-03-28T13:49:46Z</time>
      </trkpt>
      <trkpt lat="59.129476106505" lon="18.193688353741">
        <ele>23.2</ele>
        <time>2015-03-28T13:49:47Z</time>
      </trkpt>
      <trkpt lat="59.129441153982" lon="18.193561367956">
        <ele>22.8</ele>
        <time>2015-03-28T13:49:48Z</time>
      </trkpt>
      <trkpt lat="59.129410057133" lon="18.193423737158">
        <ele>22.4</ele>
        <time>2015-03-28T13:49:49Z</time>
      </trkpt>
      <trkpt lat="59.12936085538" lon="18.193135483617">
        <ele>22.4</ele>
        <time>2015-03-28T13:49:51Z</time>
      </trkpt>
      <trkpt lat="59.129275946733" lon="18.192896180372">
        <ele>22.4</ele>
        <time>2015-03-28T13:49:53Z</time>
      </trkpt>
      <trkpt lat="59.1291999229" lon="18.192833232303">
        <ele>22</ele>
        <time>2015-03-28T13:49:54Z</time>
      </trkpt>
      <trkpt lat="59.129117612642" lon="18.192816133227">
        <ele>21.2</ele>
        <time>2015-03-28T13:49:55Z</time>
      </trkpt>
      <trkpt lat="59.129036392031" lon="18.192824934222">
        <ele>20.8</ele>
        <time>2015-03-28T13:49:56Z</time>
      </trkpt>
      <trkpt lat="59.128953746497" lon="18.192845888972">
        <ele>20.4</ele>
        <time>2015-03-28T13:49:57Z</time>
      </trkpt>
      <trkpt lat="59.128884092908" lon="18.192865083523">
        <ele>20.4</ele>
        <time>2015-03-28T13:49:58Z</time>
      </trkpt>
      <trkpt lat="59.128747803214" lon="18.192909172317">
        <ele>21</ele>
        <time>2015-03-28T13:50:00Z</time>
      </trkpt>
      <trkpt lat="59.128685358059" lon="18.19291143543">
        <ele>21.4</ele>
        <time>2015-03-28T13:50:01Z</time>
      </trkpt>
      <trkpt lat="59.12862324818" lon="18.192907160661">
        <ele>22</ele>
        <time>2015-03-28T13:50:02Z</time>
      </trkpt>
      <trkpt lat="59.128563317595" lon="18.192890648318">
        <ele>22.4</ele>
        <time>2015-03-28T13:50:03Z</time>
      </trkpt>
      <trkpt lat="59.128504728114" lon="18.192859802926">
        <ele>23</ele>
        <time>2015-03-28T13:50:04Z</time>
      </trkpt>
      <trkpt lat="59.128444462253" lon="18.192825856231">
        <ele>23</ele>
        <time>2015-03-28T13:50:05Z</time>
      </trkpt>
      <trkpt lat="59.128391488645" lon="18.1927882215">
        <ele>23.4</ele>
        <time>2015-03-28T13:50:06Z</time>
      </trkpt>
      <trkpt lat="59.128339856141" lon="18.192753939529">
        <ele>24</ele>
        <time>2015-03-28T13:50:07Z</time>
      </trkpt>
      <trkpt lat="59.128291157302" lon="18.192711862391">
        <ele>24.4</ele>
        <time>2015-03-28T13:50:08Z</time>
      </trkpt>
      <trkpt lat="59.128242877558" lon="18.192676658411">
        <ele>25</ele>
        <time>2015-03-28T13:50:09Z</time>
      </trkpt>
      <trkpt lat="59.128196441832" lon="18.192635000368">
        <ele>25.4</ele>
        <time>2015-03-28T13:50:10Z</time>
      </trkpt>
      <trkpt lat="59.128150257563" lon="18.19259879056">
        <ele>25.8</ele>
        <time>2015-03-28T13:50:11Z</time>
      </trkpt>
      <trkpt lat="59.128106252588" lon="18.192567023159">
        <ele>26.4</ele>
        <time>2015-03-28T13:50:12Z</time>
      </trkpt>
      <trkpt lat="59.128058811034" lon="18.192529807523">
        <ele>26.8</ele>
        <time>2015-03-28T13:50:13Z</time>
      </trkpt>
      <trkpt lat="59.128012459127" lon="18.192489322946">
        <ele>27.2</ele>
        <time>2015-03-28T13:50:14Z</time>
      </trkpt>
      <trkpt lat="59.127968035057" lon="18.192459231925">
        <ele>27.6</ele>
        <time>2015-03-28T13:50:15Z</time>
      </trkpt>
      <trkpt lat="59.127830907173" lon="18.192340292764">
        <ele>28.2</ele>
        <time>2015-03-28T13:50:18Z</time>
      </trkpt>
      <trkpt lat="59.127787405112" lon="18.192309279734">
        <ele>28.6</ele>
        <time>2015-03-28T13:50:19Z</time>
      </trkpt>
      <trkpt lat="59.12774231049" lon="18.192270639175">
        <ele>29.4</ele>
        <time>2015-03-28T13:50:20Z</time>
      </trkpt>
      <trkpt lat="59.127702580284" lon="18.192234597005">
        <ele>29.8</ele>
        <time>2015-03-28T13:50:21Z</time>
      </trkpt>
      <trkpt lat="59.127629406297" lon="18.192169888737">
        <ele>30.2</ele>
        <time>2015-03-28T13:50:23Z</time>
      </trkpt>
      <trkpt lat="59.127593364127" lon="18.192130493807">
        <ele>30.8</ele>
        <time>2015-03-28T13:50:24Z</time>
      </trkpt>
      <trkpt lat="59.127563943658" lon="18.192096630931">
        <ele>31.2</ele>
        <time>2015-03-28T13:50:25Z</time>
      </trkpt>
      <trkpt lat="59.127533349723" lon="18.192067042824">
        <ele>31.6</ele>
        <time>2015-03-28T13:50:26Z</time>
      </trkpt>
      <trkpt lat="59.127498061924" lon="18.192027480256">
        <ele>32.2</ele>
        <time>2015-03-28T13:50:27Z</time>
      </trkpt>
      <trkpt lat="59.127415667847" lon="18.191942739247">
        <ele>32.6</ele>
        <time>2015-03-28T13:50:29Z</time>
      </trkpt>
      <trkpt lat="59.12737602146" lon="18.191907870543">
        <ele>33</ele>
        <time>2015-03-28T13:50:30Z</time>
      </trkpt>
      <trkpt lat="59.127333441408" lon="18.191860596627">
        <ele>33.4</ele>
        <time>2015-03-28T13:50:31Z</time>
      </trkpt>
      <trkpt lat="59.127294465573" lon="18.19181843567">
        <ele>34</ele>
        <time>2015-03-28T13:50:32Z</time>
      </trkpt>
      <trkpt lat="59.127263536362" lon="18.191783483147">
        <ele>34.4</ele>
        <time>2015-03-28T13:50:33Z</time>
      </trkpt>
      <trkpt lat="59.127233948255" lon="18.191737215059">
        <ele>34.4</ele>
        <time>2015-03-28T13:50:34Z</time>
      </trkpt>
      <trkpt lat="59.127199247189" lon="18.191697903948">
        <ele>34.8</ele>
        <time>2015-03-28T13:50:35Z</time>
      </trkpt>
      <trkpt lat="59.127163540295" lon="18.191649624204">
        <ele>35.2</ele>
        <time>2015-03-28T13:50:36Z</time>
      </trkpt>
      <trkpt lat="59.127128252496" lon="18.191610313093">
        <ele>35.6</ele>
        <time>2015-03-28T13:50:37Z</time>
      </trkpt>
      <trkpt lat="59.127094557258" lon="18.191574354742">
        <ele>36</ele>
        <time>2015-03-28T13:50:38Z</time>
      </trkpt>
      <trkpt lat="59.12706002383" lon="18.191534205441">
        <ele>36.6</ele>
        <time>2015-03-28T13:50:39Z</time>
      </trkpt>
      <trkpt lat="59.126993890639" lon="18.19146555768">
        <ele>37</ele>
        <time>2015-03-28T13:50:41Z</time>
      </trkpt>
      <trkpt lat="59.126961620324" lon="18.191434796107">
        <ele>37.4</ele>
        <time>2015-03-28T13:50:42Z</time>
      </trkpt>
      <trkpt lat="59.126930523475" lon="18.191397412833">
        <ele>37.8</ele>
        <time>2015-03-28T13:50:43Z</time>
      </trkpt>
      <trkpt lat="59.126897834065" lon="18.191352569668">
        <ele>38.2</ele>
        <time>2015-03-28T13:50:44Z</time>
      </trkpt>
      <trkpt lat="59.12686724013" lon="18.19131719805">
        <ele>38.8</ele>
        <time>2015-03-28T13:50:45Z</time>
      </trkpt>
      <trkpt lat="59.12679515579" lon="18.191250729583">
        <ele>38.8</ele>
        <time>2015-03-28T13:50:47Z</time>
      </trkpt>
      <trkpt lat="59.12675911362" lon="18.191207898074">
        <ele>39.2</ele>
        <time>2015-03-28T13:50:48Z</time>
      </trkpt>
      <trkpt lat="59.126716030654" lon="18.191163893099">
        <ele>39.6</ele>
        <time>2015-03-28T13:50:49Z</time>
      </trkpt>
      <trkpt lat="59.126647131436" lon="18.191125001083">
        <ele>40</ele>
        <time>2015-03-28T13:50:50Z</time>
      </trkpt>
      <trkpt lat="59.126587787584" lon="18.191087617809">
        <ele>40.4</ele>
        <time>2015-03-28T13:50:51Z</time>
      </trkpt>
      <trkpt lat="59.126535233071" lon="18.191046965594">
        <ele>40.8</ele>
        <time>2015-03-28T13:50:52Z</time>
      </trkpt>
      <trkpt lat="59.126481002178" lon="18.191017377487">
        <ele>40.8</ele>
        <time>2015-03-28T13:50:53Z</time>
      </trkpt>
      <trkpt lat="59.126185037289" lon="18.190751838895">
        <ele>40.8</ele>
        <time>2015-03-28T13:50:59Z</time>
      </trkpt>
      <trkpt lat="59.126070791992" lon="18.190659889452">
        <ele>41.2</ele>
        <time>2015-03-28T13:51:01Z</time>
      </trkpt>
      <trkpt lat="59.126015136176" lon="18.190603814541">
        <ele>41.6</ele>
        <time>2015-03-28T13:51:02Z</time>
      </trkpt>
      <trkpt lat="59.125952691021" lon="18.190545895612">
        <ele>42</ele>
        <time>2015-03-28T13:51:03Z</time>
      </trkpt>
      <trkpt lat="59.125886809287" lon="18.190480432973">
        <ele>42.4</ele>
        <time>2015-03-28T13:51:04Z</time>
      </trkpt>
      <trkpt lat="59.12582620815" lon="18.190417568723">
        <ele>43</ele>
        <time>2015-03-28T13:51:05Z</time>
      </trkpt>
      <trkpt lat="59.125478443119" lon="18.190067037665">
        <ele>43</ele>
        <time>2015-03-28T13:51:11Z</time>
      </trkpt>
      <trkpt lat="59.12508105724" lon="18.189530428427">
        <ele>43.4</ele>
        <time>2015-03-28T13:51:18Z</time>
      </trkpt>
      <trkpt lat="59.125027999813" lon="18.189421463727">
        <ele>43.8</ele>
        <time>2015-03-28T13:51:19Z</time>
      </trkpt>
      <trkpt lat="59.124964213554" lon="18.189318701633">
        <ele>44.2</ele>
        <time>2015-03-28T13:51:20Z</time>
      </trkpt>
      <trkpt lat="59.124906462263" lon="18.189217615919">
        <ele>44.6</ele>
        <time>2015-03-28T13:51:21Z</time>
      </trkpt>
      <trkpt lat="59.124850974085" lon="18.189108483581">
        <ele>45</ele>
        <time>2015-03-28T13:51:22Z</time>
      </trkpt>
      <trkpt lat="59.12472482649" lon="18.188884519213">
        <ele>45</ele>
        <time>2015-03-28T13:51:24Z</time>
      </trkpt>
      <trkpt lat="59.124444619573" lon="18.188285883915">
        <ele>45</ele>
        <time>2015-03-28T13:51:29Z</time>
      </trkpt>
      <trkpt lat="59.124126861744" lon="18.187543247575">
        <ele>45</ele>
        <time>2015-03-28T13:51:35Z</time>
      </trkpt>
      <trkpt lat="59.123721764517" lon="18.186589722631">
        <ele>44.4</ele>
        <time>2015-03-28T13:51:42Z</time>
      </trkpt>
      <trkpt lat="59.123659654638" lon="18.186456785697">
        <ele>44</ele>
        <time>2015-03-28T13:51:43Z</time>
      </trkpt>
      <trkpt lat="59.123596287474" lon="18.186318568166">
        <ele>43.6</ele>
        <time>2015-03-28T13:51:44Z</time>
      </trkpt>
      <trkpt lat="59.123529483731" lon="18.18617741697">
        <ele>43.2</ele>
        <time>2015-03-28T13:51:45Z</time>
      </trkpt>
      <trkpt lat="59.12346083597" lon="18.186040456724">
        <ele>42.8</ele>
        <time>2015-03-28T13:51:46Z</time>
      </trkpt>
      <trkpt lat="59.123385147413" lon="18.185906597781">
        <ele>42.8</ele>
        <time>2015-03-28T13:51:47Z</time>
      </trkpt>
      <trkpt lat="59.123310464684" lon="18.18577508577">
        <ele>42.4</ele>
        <time>2015-03-28T13:51:48Z</time>
      </trkpt>
      <trkpt lat="59.123231255729" lon="18.185638879895">
        <ele>41.8</ele>
        <time>2015-03-28T13:51:49Z</time>
      </trkpt>
      <trkpt lat="59.123159506665" lon="18.185528825548">
        <ele>41.4</ele>
        <time>2015-03-28T13:51:50Z</time>
      </trkpt>
      <trkpt lat="59.123083734289" lon="18.185432936612">
        <ele>40.8</ele>
        <time>2015-03-28T13:51:51Z</time>
      </trkpt>
      <trkpt lat="59.123005782619" lon="18.185349117612">
        <ele>40.2</ele>
        <time>2015-03-28T13:51:52Z</time>
      </trkpt>
      <trkpt lat="59.122927328035" lon="18.185270243933">
        <ele>39.6</ele>
        <time>2015-03-28T13:51:53Z</time>
      </trkpt>
      <trkpt lat="59.122848202899" lon="18.185204697475">
        <ele>39.2</ele>
        <time>2015-03-28T13:51:54Z</time>
      </trkpt>
      <trkpt lat="59.122764048623" lon="18.18514728146">
        <ele>38.6</ele>
        <time>2015-03-28T13:51:55Z</time>
      </trkpt>
      <trkpt lat="59.122598757555" lon="18.185055667293">
        <ele>38.6</ele>
        <time>2015-03-28T13:51:57Z</time>
      </trkpt>
      <trkpt lat="59.122355933912" lon="18.185008477196">
        <ele>38.6</ele>
        <time>2015-03-28T13:52:00Z</time>
      </trkpt>
      <trkpt lat="59.122282759925" lon="18.185030102498">
        <ele>38.6</ele>
        <time>2015-03-28T13:52:01Z</time>
      </trkpt>
      <trkpt lat="59.121867017685" lon="18.185230597546">
        <ele>38.6</ele>
        <time>2015-03-28T13:52:06Z</time>
      </trkpt>
      <trkpt lat="59.121679598401" lon="18.185334365468">
        <ele>38.6</ele>
        <time>2015-03-28T13:52:09Z</time>
      </trkpt>
      <trkpt lat="59.121539201576" lon="18.185479959071">
        <ele>38.6</ele>
        <time>2015-03-28T13:52:13Z</time>
      </trkpt>
      <trkpt lat="59.12144498902" lon="18.185570902686">
        <ele>38.6</ele>
        <time>2015-03-28T13:52:16Z</time>
      </trkpt>
      <trkpt lat="59.121347926618" lon="18.185658409722">
        <ele>38.6</ele>
        <time>2015-03-28T13:52:18Z</time>
      </trkpt>
      <trkpt lat="59.121052548462" lon="18.185883715194">
        <ele>38.6</ele>
        <time>2015-03-28T13:52:22Z</time>
      </trkpt>
      <trkpt lat="59.120550137376" lon="18.18628051434">
        <ele>38.6</ele>
        <time>2015-03-28T13:52:29Z</time>
      </trkpt>
      <trkpt lat="59.120122492838" lon="18.186622998774">
        <ele>38.6</ele>
        <time>2015-03-28T13:52:35Z</time>
      </trkpt>
      <trkpt lat="59.119765759174" lon="18.186853501024">
        <ele>38.6</ele>
        <time>2015-03-28T13:52:40Z</time>
      </trkpt>
      <trkpt lat="59.119584123401" lon="18.186991467098">
        <ele>38</ele>
        <time>2015-03-28T13:52:42Z</time>
      </trkpt>
      <trkpt lat="59.119494185614" lon="18.187065227818">
        <ele>37.6</ele>
        <time>2015-03-28T13:52:43Z</time>
      </trkpt>
      <trkpt lat="59.119406594759" lon="18.187137228339">
        <ele>37.2</ele>
        <time>2015-03-28T13:52:44Z</time>
      </trkpt>
      <trkpt lat="59.11931598642" lon="18.187212330163">
        <ele>36.8</ele>
        <time>2015-03-28T13:52:45Z</time>
      </trkpt>
      <trkpt lat="59.119224707529" lon="18.187288940729">
        <ele>36.4</ele>
        <time>2015-03-28T13:52:46Z</time>
      </trkpt>
      <trkpt lat="59.118653145768" lon="18.187717758733">
        <ele>36.4</ele>
        <time>2015-03-28T13:52:52Z</time>
      </trkpt>
      <trkpt lat="59.118079488532" lon="18.188170129876">
        <ele>36.4</ele>
        <time>2015-03-28T13:52:58Z</time>
      </trkpt>
      <trkpt lat="59.117998854654" lon="18.188243220044">
        <ele>36</ele>
        <time>2015-03-28T13:52:59Z</time>
      </trkpt>
      <trkpt lat="59.117912269627" lon="18.188308850321">
        <ele>35.4</ele>
        <time>2015-03-28T13:53:00Z</time>
      </trkpt>
      <trkpt lat="59.117825852238" lon="18.188372468942">
        <ele>35</ele>
        <time>2015-03-28T13:53:01Z</time>
      </trkpt>
      <trkpt lat="59.117742284695" lon="18.188434159726">
        <ele>34.6</ele>
        <time>2015-03-28T13:53:02Z</time>
      </trkpt>
      <trkpt lat="59.117653352736" lon="18.188503058944">
        <ele>34.2</ele>
        <time>2015-03-28T13:53:03Z</time>
      </trkpt>
      <trkpt lat="59.117107691046" lon="18.188938247192">
        <ele>34.2</ele>
        <time>2015-03-28T13:53:09Z</time>
      </trkpt>
      <trkpt lat="59.117021608933" lon="18.189017120871">
        <ele>34.2</ele>
        <time>2015-03-28T13:53:10Z</time>
      </trkpt>
      <trkpt lat="59.116474941415" lon="18.189451051834">
        <ele>34.2</ele>
        <time>2015-03-28T13:53:16Z</time>
      </trkpt>
      <trkpt lat="59.115945792068" lon="18.189860172373">
        <ele>34.2</ele>
        <time>2015-03-28T13:53:22Z</time>
      </trkpt>
      <trkpt lat="59.115849316399" lon="18.189931083247">
        <ele>34.2</ele>
        <time>2015-03-28T13:53:23Z</time>
      </trkpt>
      <trkpt lat="59.115639265985" lon="18.190078185592">
        <ele>33.6</ele>
        <time>2015-03-28T13:53:25Z</time>
      </trkpt>
      <trkpt lat="59.115528624905" lon="18.19014876119">
        <ele>33.2</ele>
        <time>2015-03-28T13:53:26Z</time>
      </trkpt>
      <trkpt lat="59.11540834464" lon="18.190210032879">
        <ele>32.6</ele>
        <time>2015-03-28T13:53:27Z</time>
      </trkpt>
      <trkpt lat="59.115294183162" lon="18.190266023971">
        <ele>32</ele>
        <time>2015-03-28T13:53:28Z</time>
      </trkpt>
      <trkpt lat="59.115175663096" lon="18.190309106937">
        <ele>31.4</ele>
        <time>2015-03-28T13:53:29Z</time>
      </trkpt>
      <trkpt lat="59.115057394487" lon="18.190349423876">
        <ele>30.6</ele>
        <time>2015-03-28T13:53:30Z</time>
      </trkpt>
      <trkpt lat="59.114937952412" lon="18.19037255792">
        <ele>30</ele>
        <time>2015-03-28T13:53:31Z</time>
      </trkpt>
      <trkpt lat="59.114819013251" lon="18.190387393883">
        <ele>29.4</ele>
        <time>2015-03-28T13:53:32Z</time>
      </trkpt>
      <trkpt lat="59.114699654995" lon="18.190395356688">
        <ele>28.8</ele>
        <time>2015-03-28T13:53:33Z</time>
      </trkpt>
      <trkpt lat="59.11458021292" lon="18.19039183629">
        <ele>28.4</ele>
        <time>2015-03-28T13:53:34Z</time>
      </trkpt>
      <trkpt lat="59.114457920999" lon="18.190368199332">
        <ele>28</ele>
        <time>2015-03-28T13:53:35Z</time>
      </trkpt>
      <trkpt lat="59.114341244951" lon="18.190329139678">
        <ele>27.6</ele>
        <time>2015-03-28T13:53:36Z</time>
      </trkpt>
      <trkpt lat="59.114224065989" lon="18.190283961237">
        <ele>26.6</ele>
        <time>2015-03-28T13:53:37Z</time>
      </trkpt>
      <trkpt lat="59.114106803208" lon="18.190235513855">
        <ele>26</ele>
        <time>2015-03-28T13:53:38Z</time>
      </trkpt>
      <trkpt lat="59.113993144644" lon="18.190191676518">
        <ele>25.4</ele>
        <time>2015-03-28T13:53:39Z</time>
      </trkpt>
      <trkpt lat="59.113879318442" lon="18.19014708481">
        <ele>24.8</ele>
        <time>2015-03-28T13:53:40Z</time>
      </trkpt>
      <trkpt lat="59.113414542087" lon="18.189959749345">
        <ele>24.4</ele>
        <time>2015-03-28T13:53:44Z</time>
      </trkpt>
      <trkpt lat="59.113300715885" lon="18.189910212316">
        <ele>24</ele>
        <time>2015-03-28T13:53:45Z</time>
      </trkpt>
      <trkpt lat="59.113187895511" lon="18.189867296988">
        <ele>23.6</ele>
        <time>2015-03-28T13:53:46Z</time>
      </trkpt>
      <trkpt lat="59.113077673526" lon="18.189821615633">
        <ele>23.2</ele>
        <time>2015-03-28T13:53:47Z</time>
      </trkpt>
      <trkpt lat="59.112968960283" lon="18.189776185735">
        <ele>22.8</ele>
        <time>2015-03-28T13:53:48Z</time>
      </trkpt>
      <trkpt lat="59.112649358436" lon="18.189631346503">
        <ele>22.2</ele>
        <time>2015-03-28T13:53:51Z</time>
      </trkpt>
      <trkpt lat="59.1125450876" lon="18.189585832786">
        <ele>21.8</ele>
        <time>2015-03-28T13:53:52Z</time>
      </trkpt>
      <trkpt lat="59.112438721289" lon="18.189543420372">
        <ele>21.4</ele>
        <time>2015-03-28T13:53:53Z</time>
      </trkpt>
      <trkpt lat="59.112334534272" lon="18.189503522528">
        <ele>20.8</ele>
        <time>2015-03-28T13:53:54Z</time>
      </trkpt>
      <trkpt lat="59.112229760522" lon="18.189459349915">
        <ele>20.4</ele>
        <time>2015-03-28T13:53:55Z</time>
      </trkpt>
      <trkpt lat="59.111611008664" lon="18.189192637857">
        <ele>20.4</ele>
        <time>2015-03-28T13:54:01Z</time>
      </trkpt>
      <trkpt lat="59.111413698738" lon="18.189103622079">
        <ele>20</ele>
        <time>2015-03-28T13:54:03Z</time>
      </trkpt>
      <trkpt lat="59.111318061259" lon="18.189064562425">
        <ele>19.4</ele>
        <time>2015-03-28T13:54:04Z</time>
      </trkpt>
      <trkpt lat="59.111214293337" lon="18.189021563278">
        <ele>18.8</ele>
        <time>2015-03-28T13:54:05Z</time>
      </trkpt>
      <trkpt lat="59.111114632546" lon="18.188986275479">
        <ele>18</ele>
        <time>2015-03-28T13:54:06Z</time>
      </trkpt>
      <trkpt lat="59.111015307031" lon="18.188943779246">
        <ele>17.4</ele>
        <time>2015-03-28T13:54:07Z</time>
      </trkpt>
      <trkpt lat="59.110916232973" lon="18.188896589149">
        <ele>16.6</ele>
        <time>2015-03-28T13:54:08Z</time>
      </trkpt>
      <trkpt lat="59.11081422525" lon="18.188853003269">
        <ele>16</ele>
        <time>2015-03-28T13:54:09Z</time>
      </trkpt>
      <trkpt lat="59.110221373463" lon="18.188597774414">
        <ele>16</ele>
        <time>2015-03-28T13:54:15Z</time>
      </trkpt>
      <trkpt lat="59.110125819803" lon="18.188556535466">
        <ele>16</ele>
        <time>2015-03-28T13:54:16Z</time>
      </trkpt>
      <trkpt lat="59.109523999383" lon="18.188348412889">
        <ele>16</ele>
        <time>2015-03-28T13:54:22Z</time>
      </trkpt>
      <trkpt lat="59.109324091068" lon="18.188275322721">
        <ele>15.6</ele>
        <time>2015-03-28T13:54:24Z</time>
      </trkpt>
      <trkpt lat="59.109226022838" lon="18.18824355532">
        <ele>15.2</ele>
        <time>2015-03-28T13:54:25Z</time>
      </trkpt>
      <trkpt lat="59.109127619332" lon="18.188207932245">
        <ele>14.4</ele>
        <time>2015-03-28T13:54:26Z</time>
      </trkpt>
      <trkpt lat="59.109025611609" lon="18.188174572283">
        <ele>14</ele>
        <time>2015-03-28T13:54:27Z</time>
      </trkpt>
      <trkpt lat="59.108622190762" lon="18.188037947313">
        <ele>13.6</ele>
        <time>2015-03-28T13:54:31Z</time>
      </trkpt>
      <trkpt lat="59.108525882731" lon="18.188009113577">
        <ele>13.2</ele>
        <time>2015-03-28T13:54:32Z</time>
      </trkpt>
      <trkpt lat="59.1084295747" lon="18.18797281995">
        <ele>12.8</ele>
        <time>2015-03-28T13:54:33Z</time>
      </trkpt>
      <trkpt lat="59.108332847574" lon="18.187945494956">
        <ele>12.4</ele>
        <time>2015-03-28T13:54:34Z</time>
      </trkpt>
      <trkpt lat="59.108234863163" lon="18.187909620424">
        <ele>12</ele>
        <time>2015-03-28T13:54:35Z</time>
      </trkpt>
      <trkpt lat="59.107854827817" lon="18.187784813933">
        <ele>12</ele>
        <time>2015-03-28T13:54:39Z</time>
      </trkpt>
      <trkpt lat="59.10728041621" lon="18.18759395807">
        <ele>12</ele>
        <time>2015-03-28T13:54:45Z</time>
      </trkpt>
      <trkpt lat="59.107002472406" lon="18.187502008627">
        <ele>12</ele>
        <time>2015-03-28T13:54:48Z</time>
      </trkpt>
      <trkpt lat="59.106441555658" lon="18.187304279606">
        <ele>12</ele>
        <time>2015-03-28T13:54:54Z</time>
      </trkpt>
      <trkpt lat="59.106257656772" lon="18.187241582994">
        <ele>12</ele>
        <time>2015-03-28T13:54:56Z</time>
      </trkpt>
      <trkpt lat="59.105700344241" lon="18.187053241701">
        <ele>12</ele>
        <time>2015-03-28T13:55:02Z</time>
      </trkpt>
      <trkpt lat="59.105422232799" lon="18.186952407444">
        <ele>12</ele>
        <time>2015-03-28T13:55:05Z</time>
      </trkpt>
      <trkpt lat="59.104886042656" lon="18.186775214078">
        <ele>12</ele>
        <time>2015-03-28T13:55:11Z</time>
      </trkpt>
      <trkpt lat="59.104798367982" lon="18.18674319522">
        <ele>12</ele>
        <time>2015-03-28T13:55:12Z</time>
      </trkpt>
      <trkpt lat="59.104262429296" lon="18.18655879342">
        <ele>12</ele>
        <time>2015-03-28T13:55:18Z</time>
      </trkpt>
      <trkpt lat="59.104175592812" lon="18.186529624408">
        <ele>12</ele>
        <time>2015-03-28T13:55:19Z</time>
      </trkpt>
      <trkpt lat="59.10359238021" lon="18.186331392473">
        <ele>12</ele>
        <time>2015-03-28T13:55:26Z</time>
      </trkpt>
      <trkpt lat="59.103515182911" lon="18.186299541253">
        <ele>12</ele>
        <time>2015-03-28T13:55:27Z</time>
      </trkpt>
      <trkpt lat="59.103360285399" lon="18.186248160206">
        <ele>12.4</ele>
        <time>2015-03-28T13:55:29Z</time>
      </trkpt>
      <trkpt lat="59.103289961258" lon="18.186222427773">
        <ele>13</ele>
        <time>2015-03-28T13:55:30Z</time>
      </trkpt>
      <trkpt lat="59.103217625461" lon="18.186197868806">
        <ele>13.4</ele>
        <time>2015-03-28T13:55:31Z</time>
      </trkpt>
      <trkpt lat="59.10314227218" lon="18.186181440282">
        <ele>14</ele>
        <time>2015-03-28T13:55:32Z</time>
      </trkpt>
      <trkpt lat="59.103068427641" lon="18.186158222419">
        <ele>14.4</ele>
        <time>2015-03-28T13:55:33Z</time>
      </trkpt>
      <trkpt lat="59.102591916626" lon="18.185986561107">
        <ele>14.8</ele>
        <time>2015-03-28T13:55:39Z</time>
      </trkpt>
      <trkpt lat="59.102513126766" lon="18.185957978828">
        <ele>15.2</ele>
        <time>2015-03-28T13:55:40Z</time>
      </trkpt>
      <trkpt lat="59.102436264743" lon="18.185929731825">
        <ele>16.2</ele>
        <time>2015-03-28T13:55:41Z</time>
      </trkpt>
      <trkpt lat="59.102354122123" lon="18.185901903917">
        <ele>16.6</ele>
        <time>2015-03-28T13:55:42Z</time>
      </trkpt>
      <trkpt lat="59.101964782868" lon="18.185729152958">
        <ele>16.6</ele>
        <time>2015-03-28T13:55:47Z</time>
      </trkpt>
      <trkpt lat="59.101542838022" lon="18.185460429244">
        <ele>16.6</ele>
        <time>2015-03-28T13:55:53Z</time>
      </trkpt>
      <trkpt lat="59.101196581733" lon="18.185204529837">
        <ele>17</ele>
        <time>2015-03-28T13:55:58Z</time>
      </trkpt>
      <trkpt lat="59.101127766334" lon="18.185145772718">
        <ele>17.4</ele>
        <time>2015-03-28T13:55:59Z</time>
      </trkpt>
      <trkpt lat="59.10105853184" lon="18.185092882929">
        <ele>18</ele>
        <time>2015-03-28T13:56:00Z</time>
      </trkpt>
      <trkpt lat="59.10099147664" lon="18.185038652036">
        <ele>18.4</ele>
        <time>2015-03-28T13:56:01Z</time>
      </trkpt>
      <trkpt lat="59.100924002345" lon="18.184986516618">
        <ele>18.8</ele>
        <time>2015-03-28T13:56:02Z</time>
      </trkpt>
      <trkpt lat="59.100724513125" lon="18.184821979921">
        <ele>19.2</ele>
        <time>2015-03-28T13:56:05Z</time>
      </trkpt>
      <trkpt lat="59.10065871521" lon="18.18477093415">
        <ele>20</ele>
        <time>2015-03-28T13:56:06Z</time>
      </trkpt>
      <trkpt lat="59.100590654182" lon="18.184718882551">
        <ele>20.4</ele>
        <time>2015-03-28T13:56:07Z</time>
      </trkpt>
      <trkpt lat="59.100521587326" lon="18.184668507332">
        <ele>20.8</ele>
        <time>2015-03-28T13:56:08Z</time>
      </trkpt>
      <trkpt lat="59.100107940561" lon="18.184338931024">
        <ele>20.8</ele>
        <time>2015-03-28T13:56:14Z</time>
      </trkpt>
      <trkpt lat="59.09990350602" lon="18.184183195322">
        <ele>21.2</ele>
        <time>2015-03-28T13:56:17Z</time>
      </trkpt>
      <trkpt lat="59.099834606802" lon="18.184126533678">
        <ele>21.8</ele>
        <time>2015-03-28T13:56:18Z</time>
      </trkpt>
      <trkpt lat="59.099764785575" lon="18.184067106007">
        <ele>22.2</ele>
        <time>2015-03-28T13:56:19Z</time>
      </trkpt>
      <trkpt lat="59.099693790882" lon="18.18401321039">
        <ele>22.6</ele>
        <time>2015-03-28T13:56:20Z</time>
      </trkpt>
      <trkpt lat="59.099624807845" lon="18.18395453709">
        <ele>23</ele>
        <time>2015-03-28T13:56:21Z</time>
      </trkpt>
      <trkpt lat="59.099552891143" lon="18.183897204894">
        <ele>23</ele>
        <time>2015-03-28T13:56:22Z</time>
      </trkpt>
      <trkpt lat="59.098998596096" lon="18.183419352775">
        <ele>23</ele>
        <time>2015-03-28T13:56:30Z</time>
      </trkpt>
      <trkpt lat="59.098511607706" lon="18.182939572819">
        <ele>23</ele>
        <time>2015-03-28T13:56:37Z</time>
      </trkpt>
      <trkpt lat="59.098439607185" lon="18.182869500135">
        <ele>23</ele>
        <time>2015-03-28T13:56:38Z</time>
      </trkpt>
      <trkpt lat="59.097921689584" lon="18.182370525628">
        <ele>23</ele>
        <time>2015-03-28T13:56:45Z</time>
      </trkpt>
      <trkpt lat="59.097372423677" lon="18.181846237783">
        <ele>23</ele>
        <time>2015-03-28T13:56:53Z</time>
      </trkpt>
      <trkpt lat="59.097302350993" lon="18.181786223379">
        <ele>23</ele>
        <time>2015-03-28T13:56:54Z</time>
      </trkpt>
      <trkpt lat="59.096763478642" lon="18.18126646176">
        <ele>23</ele>
        <time>2015-03-28T13:57:02Z</time>
      </trkpt>
      <trkpt lat="59.09657086258" lon="18.181069906205">
        <ele>23.4</ele>
        <time>2015-03-28T13:57:05Z</time>
      </trkpt>
      <trkpt lat="59.096502131" lon="18.181000001159">
        <ele>23.8</ele>
        <time>2015-03-28T13:57:06Z</time>
      </trkpt>
      <trkpt lat="59.096439937302" lon="18.1809445968">
        <ele>24.2</ele>
        <time>2015-03-28T13:57:07Z</time>
      </trkpt>
      <trkpt lat="59.096380509631" lon="18.180883241292">
        <ele>24.6</ele>
        <time>2015-03-28T13:57:08Z</time>
      </trkpt>
      <trkpt lat="59.096319489399" lon="18.18083144115">
        <ele>25</ele>
        <time>2015-03-28T13:57:09Z</time>
      </trkpt>
      <trkpt lat="59.095965773219" lon="18.180478814617">
        <ele>25</ele>
        <time>2015-03-28T13:57:15Z</time>
      </trkpt>
      <trkpt lat="59.095846247325" lon="18.180350068633">
        <ele>25.6</ele>
        <time>2015-03-28T13:57:17Z</time>
      </trkpt>
      <trkpt lat="59.095784053627" lon="18.180293239351">
        <ele>26</ele>
        <time>2015-03-28T13:57:18Z</time>
      </trkpt>
      <trkpt lat="59.095724709775" lon="18.180234985146">
        <ele>26.4</ele>
        <time>2015-03-28T13:57:19Z</time>
      </trkpt>
      <trkpt lat="59.09566477919" lon="18.180171953258">
        <ele>27.4</ele>
        <time>2015-03-28T13:57:20Z</time>
      </trkpt>
      <trkpt lat="59.095533518636" lon="18.180047901138">
        <ele>27.4</ele>
        <time>2015-03-28T13:57:22Z</time>
      </trkpt>
      <trkpt lat="59.09499674176" lon="18.179565606612">
        <ele>27.4</ele>
        <time>2015-03-28T13:57:30Z</time>
      </trkpt>
      <trkpt lat="59.094507406438" lon="18.179267797705">
        <ele>27.4</ele>
        <time>2015-03-28T13:57:37Z</time>
      </trkpt>
      <trkpt lat="59.094438255763" lon="18.179240807987">
        <ele>27.8</ele>
        <time>2015-03-28T13:57:38Z</time>
      </trkpt>
      <trkpt lat="59.094375056237" lon="18.179217841581">
        <ele>28.2</ele>
        <time>2015-03-28T13:57:39Z</time>
      </trkpt>
      <trkpt lat="59.094310683245" lon="18.179198060297">
        <ele>28.6</ele>
        <time>2015-03-28T13:57:40Z</time>
      </trkpt>
      <trkpt lat="59.094246394072" lon="18.179179201022">
        <ele>29.2</ele>
        <time>2015-03-28T13:57:41Z</time>
      </trkpt>
      <trkpt lat="59.094186044392" lon="18.179171573493">
        <ele>29.6</ele>
        <time>2015-03-28T13:57:42Z</time>
      </trkpt>
      <trkpt lat="59.094048916508" lon="18.179153971503">
        <ele>29.6</ele>
        <time>2015-03-28T13:57:44Z</time>
      </trkpt>
      <trkpt lat="59.093983872964" lon="18.179167969276">
        <ele>29.6</ele>
        <time>2015-03-28T13:57:45Z</time>
      </trkpt>
      <trkpt lat="59.093692601939" lon="18.179189762216">
        <ele>29.6</ele>
        <time>2015-03-28T13:57:49Z</time>
      </trkpt>
      <trkpt lat="59.093286247427" lon="18.179351868162">
        <ele>29.6</ele>
        <time>2015-03-28T13:57:54Z</time>
      </trkpt>
      <trkpt lat="59.092787943472" lon="18.179695442243">
        <ele>29.6</ele>
        <time>2015-03-28T13:58:00Z</time>
      </trkpt>
      <trkpt lat="59.092286286757" lon="18.180084362403">
        <ele>29.6</ele>
        <time>2015-03-28T13:58:06Z</time>
      </trkpt>
      <trkpt lat="59.092119822223" lon="18.180204977944">
        <ele>29.6</ele>
        <time>2015-03-28T13:58:08Z</time>
      </trkpt>
      <trkpt lat="59.091653369488" lon="18.18041988986">
        <ele>29.6</ele>
        <time>2015-03-28T13:58:13Z</time>
      </trkpt>
      <trkpt lat="59.091266377165" lon="18.180412681426">
        <ele>29.2</ele>
        <time>2015-03-28T13:58:17Z</time>
      </trkpt>
      <trkpt lat="59.0911628607" lon="18.180389547382">
        <ele>28.8</ele>
        <time>2015-03-28T13:58:18Z</time>
      </trkpt>
      <trkpt lat="59.091062194081" lon="18.180350990642">
        <ele>28.2</ele>
        <time>2015-03-28T13:58:19Z</time>
      </trkpt>
      <trkpt lat="59.090962868566" lon="18.180302794717">
        <ele>27.8</ele>
        <time>2015-03-28T13:58:20Z</time>
      </trkpt>
      <trkpt lat="59.090863459232" lon="18.180231548567">
        <ele>27.4</ele>
        <time>2015-03-28T13:58:21Z</time>
      </trkpt>
      <trkpt lat="59.090759272215" lon="18.180155189458">
        <ele>27</ele>
        <time>2015-03-28T13:58:22Z</time>
      </trkpt>
      <trkpt lat="59.090658437958" lon="18.180068855888">
        <ele>26.6</ele>
        <time>2015-03-28T13:58:23Z</time>
      </trkpt>
      <trkpt lat="59.090563387212" lon="18.179990485123">
        <ele>26</ele>
        <time>2015-03-28T13:58:24Z</time>
      </trkpt>
      <trkpt lat="59.090464145516" lon="18.179908258684">
        <ele>25.6</ele>
        <time>2015-03-28T13:58:25Z</time>
      </trkpt>
      <trkpt lat="59.09037160934" lon="18.179827038073">
        <ele>25.2</ele>
        <time>2015-03-28T13:58:26Z</time>
      </trkpt>
      <trkpt lat="59.090174047957" lon="18.179643139187">
        <ele>24.8</ele>
        <time>2015-03-28T13:58:28Z</time>
      </trkpt>
      <trkpt lat="59.090073297519" lon="18.179559655463">
        <ele>24.4</ele>
        <time>2015-03-28T13:58:29Z</time>
      </trkpt>
      <trkpt lat="59.089982270085" lon="18.179481452336">
        <ele>24</ele>
        <time>2015-03-28T13:58:30Z</time>
      </trkpt>
      <trkpt lat="59.089889901547" lon="18.179384809029">
        <ele>23.6</ele>
        <time>2015-03-28T13:58:31Z</time>
      </trkpt>
      <trkpt lat="59.089793928792" lon="18.179307947006">
        <ele>23.2</ele>
        <time>2015-03-28T13:58:32Z</time>
      </trkpt>
      <trkpt lat="59.089404757175" lon="18.179015670153">
        <ele>23.2</ele>
        <time>2015-03-28T13:58:36Z</time>
      </trkpt>
      <trkpt lat="59.089017848671" lon="18.178851468732">
        <ele>23.2</ele>
        <time>2015-03-28T13:58:40Z</time>
      </trkpt>
      <trkpt lat="59.088695899892" lon="18.1787904485">
        <ele>22.8</ele>
        <time>2015-03-28T13:58:43Z</time>
      </trkpt>
      <trkpt lat="59.088590707047" lon="18.178781563686">
        <ele>22.4</ele>
        <time>2015-03-28T13:58:44Z</time>
      </trkpt>
      <trkpt lat="59.088487944953" lon="18.178764967524">
        <ele>21.8</ele>
        <time>2015-03-28T13:58:45Z</time>
      </trkpt>
      <trkpt lat="59.088385434316" lon="18.178758681099">
        <ele>21.4</ele>
        <time>2015-03-28T13:58:46Z</time>
      </trkpt>
      <trkpt lat="59.088284935335" lon="18.178746359706">
        <ele>21</ele>
        <time>2015-03-28T13:58:47Z</time>
      </trkpt>
      <trkpt lat="59.087899367935" lon="18.178675700289">
        <ele>21</ele>
        <time>2015-03-28T13:58:51Z</time>
      </trkpt>
      <trkpt lat="59.087333673504" lon="18.1785725191">
        <ele>21</ele>
        <time>2015-03-28T13:58:57Z</time>
      </trkpt>
      <trkpt lat="59.086806703451" lon="18.178365234713">
        <ele>21</ele>
        <time>2015-03-28T13:59:03Z</time>
      </trkpt>
      <trkpt lat="59.086627498429" lon="18.178283511188">
        <ele>21</ele>
        <time>2015-03-28T13:59:05Z</time>
      </trkpt>
      <trkpt lat="59.086001119042" lon="18.178015038931">
        <ele>21</ele>
        <time>2015-03-28T13:59:12Z</time>
      </trkpt>
      <trkpt lat="59.085904224278" lon="18.177975895458">
        <ele>21</ele>
        <time>2015-03-28T13:59:13Z</time>
      </trkpt>
      <trkpt lat="59.085428216177" lon="18.177694598894">
        <ele>21</ele>
        <time>2015-03-28T13:59:18Z</time>
      </trkpt>
      <trkpt lat="59.085254878485" lon="18.177485302851">
        <ele>20.6</ele>
        <time>2015-03-28T13:59:20Z</time>
      </trkpt>
      <trkpt lat="59.085174579883" lon="18.177365693138">
        <ele>20.2</ele>
        <time>2015-03-28T13:59:21Z</time>
      </trkpt>
      <trkpt lat="59.085092353444" lon="18.177227140331">
        <ele>19.4</ele>
        <time>2015-03-28T13:59:22Z</time>
      </trkpt>
      <trkpt lat="59.085020939656" lon="18.177107446799">
        <ele>18.8</ele>
        <time>2015-03-28T13:59:23Z</time>
      </trkpt>
      <trkpt lat="59.08489822864" lon="18.176821204914">
        <ele>18.8</ele>
        <time>2015-03-28T13:59:25Z</time>
      </trkpt>
      <trkpt lat="59.084824719377" lon="18.176685585772">
        <ele>18.8</ele>
        <time>2015-03-28T13:59:26Z</time>
      </trkpt>
      <trkpt lat="59.08464006612" lon="18.176253750284">
        <ele>18.8</ele>
        <time>2015-03-28T13:59:29Z</time>
      </trkpt>
      <trkpt lat="59.084541914071" lon="18.175949571133">
        <ele>18.8</ele>
        <time>2015-03-28T13:59:31Z</time>
      </trkpt>
      <trkpt lat="59.084463627125" lon="18.175619324273">
        <ele>18.8</ele>
        <time>2015-03-28T13:59:33Z</time>
      </trkpt>
      <trkpt lat="59.084402774531" lon="18.175263177342">
        <ele>18.8</ele>
        <time>2015-03-28T13:59:35Z</time>
      </trkpt>
      <trkpt lat="59.084377125917" lon="18.175091013116">
        <ele>18.8</ele>
        <time>2015-03-28T13:59:36Z</time>
      </trkpt>
      <trkpt lat="59.08429221727" lon="18.174314262443">
        <ele>18.8</ele>
        <time>2015-03-28T13:59:41Z</time>
      </trkpt>
      <trkpt lat="59.084221138758" lon="18.173352355599">
        <ele>18.8</ele>
        <time>2015-03-28T13:59:47Z</time>
      </trkpt>
      <trkpt lat="59.084134218455" lon="18.172417187016">
        <ele>18.8</ele>
        <time>2015-03-28T13:59:53Z</time>
      </trkpt>
      <trkpt lat="59.084062301753" lon="18.171321002134">
        <ele>18.8</ele>
        <time>2015-03-28T14:00:00Z</time>
      </trkpt>
      <trkpt lat="59.083973369794" lon="18.170258847766">
        <ele>18.8</ele>
        <time>2015-03-28T14:00:07Z</time>
      </trkpt>
      <trkpt lat="59.083897848875" lon="18.169394506238">
        <ele>19.6</ele>
        <time>2015-03-28T14:00:13Z</time>
      </trkpt>
      <trkpt lat="59.083886617129" lon="18.169251427205">
        <ele>20</ele>
        <time>2015-03-28T14:00:14Z</time>
      </trkpt>
      <trkpt lat="59.083874044279" lon="18.169105917421">
        <ele>20.4</ele>
        <time>2015-03-28T14:00:15Z</time>
      </trkpt>
      <trkpt lat="59.083862393438" lon="18.168962335474">
        <ele>21</ele>
        <time>2015-03-28T14:00:16Z</time>
      </trkpt>
      <trkpt lat="59.083815873893" lon="18.168379374329">
        <ele>21</ele>
        <time>2015-03-28T14:00:20Z</time>
      </trkpt>
      <trkpt lat="59.083740269155" lon="18.167552416075">
        <ele>21.4</ele>
        <time>2015-03-28T14:00:26Z</time>
      </trkpt>
      <trkpt lat="59.083726187563" lon="18.167419646779">
        <ele>21.8</ele>
        <time>2015-03-28T14:00:27Z</time>
      </trkpt>
      <trkpt lat="59.083712608885" lon="18.167300623799">
        <ele>22.2</ele>
        <time>2015-03-28T14:00:28Z</time>
      </trkpt>
      <trkpt lat="59.083701796234" lon="18.167192162013">
        <ele>22.6</ele>
        <time>2015-03-28T14:00:29Z</time>
      </trkpt>
      <trkpt lat="59.083689139565" lon="18.167090321928">
        <ele>23</ele>
        <time>2015-03-28T14:00:30Z</time>
      </trkpt>
      <trkpt lat="59.083641027459" lon="18.166792680659">
        <ele>23.4</ele>
        <time>2015-03-28T14:00:33Z</time>
      </trkpt>
      <trkpt lat="59.083623090193" lon="18.166696037352">
        <ele>23.8</ele>
        <time>2015-03-28T14:00:34Z</time>
      </trkpt>
      <trkpt lat="59.083608338049" lon="18.166601070425">
        <ele>24.2</ele>
        <time>2015-03-28T14:00:35Z</time>
      </trkpt>
      <trkpt lat="59.083591322792" lon="18.1665025831">
        <ele>24.6</ele>
        <time>2015-03-28T14:00:36Z</time>
      </trkpt>
      <trkpt lat="59.083573720802" lon="18.166398228445">
        <ele>25</ele>
        <time>2015-03-28T14:00:37Z</time>
      </trkpt>
      <trkpt lat="59.083513035846" lon="18.166074770924">
        <ele>25.4</ele>
        <time>2015-03-28T14:00:40Z</time>
      </trkpt>
      <trkpt lat="59.083487722508" lon="18.165970667726">
        <ele>25.8</ele>
        <time>2015-03-28T14:00:41Z</time>
      </trkpt>
      <trkpt lat="59.083459224048" lon="18.165865223424">
        <ele>26.4</ele>
        <time>2015-03-28T14:00:42Z</time>
      </trkpt>
      <trkpt lat="59.083431731416" lon="18.165752738326">
        <ele>26.8</ele>
        <time>2015-03-28T14:00:43Z</time>
      </trkpt>
      <trkpt lat="59.083408429734" lon="18.165632374242">
        <ele>27.4</ele>
        <time>2015-03-28T14:00:44Z</time>
      </trkpt>
      <trkpt lat="59.083358557429" lon="18.165381671613">
        <ele>27.4</ele>
        <time>2015-03-28T14:00:46Z</time>
      </trkpt>
      <trkpt lat="59.083153787612" lon="18.164577428308">
        <ele>27.4</ele>
        <time>2015-03-28T14:00:52Z</time>
      </trkpt>
      <trkpt lat="59.082949101614" lon="18.163686432338">
        <ele>27.4</ele>
        <time>2015-03-28T14:00:59Z</time>
      </trkpt>
      <trkpt lat="59.082784062003" lon="18.163026944446">
        <ele>27.4</ele>
        <time>2015-03-28T14:01:04Z</time>
      </trkpt>
      <trkpt lat="59.082567054612" lon="18.16207526352">
        <ele>27.4</ele>
        <time>2015-03-28T14:01:11Z</time>
      </trkpt>
      <trkpt lat="59.082533778469" lon="18.1619428295">
        <ele>27.4</ele>
        <time>2015-03-28T14:01:12Z</time>
      </trkpt>
      <trkpt lat="59.082354238171" lon="18.161178567858">
        <ele>27.4</ele>
        <time>2015-03-28T14:01:18Z</time>
      </trkpt>
      <trkpt lat="59.082328254281" lon="18.161047307304">
        <ele>27.8</ele>
        <time>2015-03-28T14:01:19Z</time>
      </trkpt>
      <trkpt lat="59.082304449685" lon="18.160913867456">
        <ele>28.2</ele>
        <time>2015-03-28T14:01:20Z</time>
      </trkpt>
      <trkpt lat="59.082279471623" lon="18.160770788423">
        <ele>28.6</ele>
        <time>2015-03-28T14:01:21Z</time>
      </trkpt>
      <trkpt lat="59.082250721706" lon="18.160613292522">
        <ele>29</ele>
        <time>2015-03-28T14:01:22Z</time>
      </trkpt>
      <trkpt lat="59.082218283753" lon="18.160439703373">
        <ele>29.4</ele>
        <time>2015-03-28T14:01:23Z</time>
      </trkpt>
      <trkpt lat="59.08215650915" lon="18.160056231448">
        <ele>28.8</ele>
        <time>2015-03-28T14:01:25Z</time>
      </trkpt>
      <trkpt lat="59.082125915215" lon="18.159840481342">
        <ele>28.4</ele>
        <time>2015-03-28T14:01:26Z</time>
      </trkpt>
      <trkpt lat="59.082100015144" lon="18.159634286602">
        <ele>26.8</ele>
        <time>2015-03-28T14:01:27Z</time>
      </trkpt>
      <trkpt lat="59.082077635471" lon="18.15943245045">
        <ele>26</ele>
        <time>2015-03-28T14:01:28Z</time>
      </trkpt>
      <trkpt lat="59.082056848359" lon="18.159237068361">
        <ele>25.4</ele>
        <time>2015-03-28T14:01:29Z</time>
      </trkpt>
      <trkpt lat="59.082040503654" lon="18.159044619937">
        <ele>24.6</ele>
        <time>2015-03-28T14:01:30Z</time>
      </trkpt>
      <trkpt lat="59.082022817845" lon="18.158668943179">
        <ele>24.6</ele>
        <time>2015-03-28T14:01:32Z</time>
      </trkpt>
      <trkpt lat="59.082017201972" lon="18.157845086228">
        <ele>24.6</ele>
        <time>2015-03-28T14:01:37Z</time>
      </trkpt>
      <trkpt lat="59.082068918295" lon="18.157126338303">
        <ele>25</ele>
        <time>2015-03-28T14:01:42Z</time>
      </trkpt>
      <trkpt lat="59.082083502801" lon="18.156995999758">
        <ele>25.4</ele>
        <time>2015-03-28T14:01:43Z</time>
      </trkpt>
      <trkpt lat="59.08209951223" lon="18.156867086136">
        <ele>26</ele>
        <time>2015-03-28T14:01:44Z</time>
      </trkpt>
      <trkpt lat="59.082116862763" lon="18.156733646288">
        <ele>26.4</ele>
        <time>2015-03-28T14:01:45Z</time>
      </trkpt>
      <trkpt lat="59.082129435613" lon="18.156594171472">
        <ele>26.8</ele>
        <time>2015-03-28T14:01:46Z</time>
      </trkpt>
      <trkpt lat="59.082153575485" lon="18.156302900447">
        <ele>26.8</ele>
        <time>2015-03-28T14:01:48Z</time>
      </trkpt>
      <trkpt lat="59.08221518245" lon="18.155606867471">
        <ele>27.4</ele>
        <time>2015-03-28T14:01:53Z</time>
      </trkpt>
      <trkpt lat="59.082228509671" lon="18.155478540582">
        <ele>27.8</ele>
        <time>2015-03-28T14:01:54Z</time>
      </trkpt>
      <trkpt lat="59.082244435281" lon="18.155350632788">
        <ele>28.4</ele>
        <time>2015-03-28T14:01:55Z</time>
      </trkpt>
      <trkpt lat="59.082263378375" lon="18.155216606207">
        <ele>29</ele>
        <time>2015-03-28T14:01:56Z</time>
      </trkpt>
      <trkpt lat="59.08228139946" lon="18.155083501635">
        <ele>29.4</ele>
        <time>2015-03-28T14:01:57Z</time>
      </trkpt>
      <trkpt lat="59.08234761647" lon="18.154659126038">
        <ele>29.4</ele>
        <time>2015-03-28T14:02:00Z</time>
      </trkpt>
      <trkpt lat="59.082496311376" lon="18.153717335754">
        <ele>29</ele>
        <time>2015-03-28T14:02:06Z</time>
      </trkpt>
      <trkpt lat="59.082515757384" lon="18.153550535944">
        <ele>28.4</ele>
        <time>2015-03-28T14:02:07Z</time>
      </trkpt>
      <trkpt lat="59.082529252243" lon="18.153384322867">
        <ele>27.8</ele>
        <time>2015-03-28T14:02:08Z</time>
      </trkpt>
      <trkpt lat="59.082535957763" lon="18.153218696523">
        <ele>27.2</ele>
        <time>2015-03-28T14:02:09Z</time>
      </trkpt>
      <trkpt lat="59.082535454849" lon="18.153049298324">
        <ele>26.6</ele>
        <time>2015-03-28T14:02:10Z</time>
      </trkpt>
      <trkpt lat="59.082532605003" lon="18.152869590388">
        <ele>25.8</ele>
        <time>2015-03-28T14:02:11Z</time>
      </trkpt>
      <trkpt lat="59.082536376858" lon="18.152692313203">
        <ele>25.2</ele>
        <time>2015-03-28T14:02:12Z</time>
      </trkpt>
      <trkpt lat="59.082551129002" lon="18.152515622751">
        <ele>24.4</ele>
        <time>2015-03-28T14:02:13Z</time>
      </trkpt>
      <trkpt lat="59.082576777616" lon="18.152356785746">
        <ele>24.4</ele>
        <time>2015-03-28T14:02:14Z</time>
      </trkpt>
      <trkpt lat="59.082708541084" lon="18.152126954048">
        <ele>23.6</ele>
        <time>2015-03-28T14:02:16Z</time>
      </trkpt>
      <trkpt lat="59.082801663993" lon="18.152057803373">
        <ele>23.2</ele>
        <time>2015-03-28T14:02:17Z</time>
      </trkpt>
      <trkpt lat="59.082912053616" lon="18.1520018961">
        <ele>22.8</ele>
        <time>2015-03-28T14:02:18Z</time>
      </trkpt>
      <trkpt lat="59.083024371076" lon="18.151966775939">
        <ele>22.2</ele>
        <time>2015-03-28T14:02:19Z</time>
      </trkpt>
      <trkpt lat="59.083523094126" lon="18.15172194064">
        <ele>22.2</ele>
        <time>2015-03-28T14:02:24Z</time>
      </trkpt>
      <trkpt lat="59.083993737811" lon="18.151432178357">
        <ele>22.2</ele>
        <time>2015-03-28T14:02:29Z</time>
      </trkpt>
      <trkpt lat="59.084321721558" lon="18.151125736093">
        <ele>22.2</ele>
        <time>2015-03-28T14:02:33Z</time>
      </trkpt>
      <trkpt lat="59.084392464794" lon="18.151022806361">
        <ele>22.2</ele>
        <time>2015-03-28T14:02:34Z</time>
      </trkpt>
      <trkpt lat="59.084654902083" lon="18.150556521264">
        <ele>22.2</ele>
        <time>2015-03-28T14:02:38Z</time>
      </trkpt>
      <trkpt lat="59.084709887347" lon="18.150429870755">
        <ele>22.2</ele>
        <time>2015-03-28T14:02:39Z</time>
      </trkpt>
      <trkpt lat="59.084751880666" lon="18.150292742871">
        <ele>22.2</ele>
        <time>2015-03-28T14:02:40Z</time>
      </trkpt>
      <trkpt lat="59.084805021912" lon="18.149974565947">
        <ele>22.2</ele>
        <time>2015-03-28T14:02:42Z</time>
      </trkpt>
      <trkpt lat="59.084851373819" lon="18.149641301603">
        <ele>22.8</ele>
        <time>2015-03-28T14:02:44Z</time>
      </trkpt>
      <trkpt lat="59.084880542831" lon="18.149476932544">
        <ele>23.2</ele>
        <time>2015-03-28T14:02:45Z</time>
      </trkpt>
      <trkpt lat="59.084908957472" lon="18.149315664788">
        <ele>23.6</ele>
        <time>2015-03-28T14:02:46Z</time>
      </trkpt>
      <trkpt lat="59.084936366285" lon="18.149155821955">
        <ele>24</ele>
        <time>2015-03-28T14:02:47Z</time>
      </trkpt>
      <trkpt lat="59.084967630772" lon="18.148987261946">
        <ele>24.4</ele>
        <time>2015-03-28T14:02:48Z</time>
      </trkpt>
      <trkpt lat="59.085092353444" lon="18.148198776613">
        <ele>24.4</ele>
        <time>2015-03-28T14:02:53Z</time>
      </trkpt>
      <trkpt lat="59.085184470525" lon="18.147764091279">
        <ele>24.4</ele>
        <time>2015-03-28T14:02:56Z</time>
      </trkpt>
      <trkpt lat="59.085238366142" lon="18.147481118335">
        <ele>24.4</ele>
        <time>2015-03-28T14:02:58Z</time>
      </trkpt>
      <trkpt lat="59.085346241195" lon="18.146945766382">
        <ele>24.8</ele>
        <time>2015-03-28T14:03:02Z</time>
      </trkpt>
      <trkpt lat="59.085381780451" lon="18.146809811964">
        <ele>25.2</ele>
        <time>2015-03-28T14:03:03Z</time>
      </trkpt>
      <trkpt lat="59.085413296395" lon="18.146679808695">
        <ele>25.8</ele>
        <time>2015-03-28T14:03:04Z</time>
      </trkpt>
      <trkpt lat="59.085441627217" lon="18.14654695558">
        <ele>26.2</ele>
        <time>2015-03-28T14:03:05Z</time>
      </trkpt>
      <trkpt lat="59.085473478437" lon="18.146417203768">
        <ele>26.6</ele>
        <time>2015-03-28T14:03:06Z</time>
      </trkpt>
      <trkpt lat="59.085565846975" lon="18.145875733028">
        <ele>27</ele>
        <time>2015-03-28T14:03:10Z</time>
      </trkpt>
      <trkpt lat="59.085582694594" lon="18.145730893796">
        <ele>27.4</ele>
        <time>2015-03-28T14:03:11Z</time>
      </trkpt>
      <trkpt lat="59.085584957707" lon="18.145592005713">
        <ele>28</ele>
        <time>2015-03-28T14:03:12Z</time>
      </trkpt>
      <trkpt lat="59.085582694594" lon="18.145452866173">
        <ele>28.4</ele>
        <time>2015-03-28T14:03:13Z</time>
      </trkpt>
      <trkpt lat="59.085581521128" lon="18.145310960606">
        <ele>28.8</ele>
        <time>2015-03-28T14:03:14Z</time>
      </trkpt>
      <trkpt lat="59.085624687913" lon="18.14437017615">
        <ele>28.2</ele>
        <time>2015-03-28T14:03:20Z</time>
      </trkpt>
      <trkpt lat="59.085668357612" lon="18.144225756013">
        <ele>27.6</ele>
        <time>2015-03-28T14:03:21Z</time>
      </trkpt>
      <trkpt lat="59.085726192722" lon="18.144105056653">
        <ele>27</ele>
        <time>2015-03-28T14:03:22Z</time>
      </trkpt>
      <trkpt lat="59.085793750836" lon="18.144010425002">
        <ele>26.4</ele>
        <time>2015-03-28T14:03:23Z</time>
      </trkpt>
      <trkpt lat="59.085868936479" lon="18.143943118345">
        <ele>25.8</ele>
        <time>2015-03-28T14:03:24Z</time>
      </trkpt>
      <trkpt lat="59.085948313072" lon="18.143890228556">
        <ele>25.8</ele>
        <time>2015-03-28T14:03:25Z</time>
      </trkpt>
      <trkpt lat="59.086034227547" lon="18.143837003491">
        <ele>25.8</ele>
        <time>2015-03-28T14:03:26Z</time>
      </trkpt>
      <trkpt lat="59.086546529275" lon="18.143495608704">
        <ele>25.8</ele>
        <time>2015-03-28T14:03:32Z</time>
      </trkpt>
      <trkpt lat="59.086720956614" lon="18.143370131661">
        <ele>25.8</ele>
        <time>2015-03-28T14:03:34Z</time>
      </trkpt>
      <trkpt lat="59.087245747373" lon="18.143006860115">
        <ele>25.8</ele>
        <time>2015-03-28T14:03:40Z</time>
      </trkpt>
      <trkpt lat="59.087421348178" lon="18.142876437751">
        <ele>25.8</ele>
        <time>2015-03-28T14:03:42Z</time>
      </trkpt>
      <trkpt lat="59.087921915246" lon="18.142430436852">
        <ele>25.8</ele>
        <time>2015-03-28T14:03:48Z</time>
      </trkpt>
      <trkpt lat="59.08800875173" lon="18.142345192929">
        <ele>25.8</ele>
        <time>2015-03-28T14:03:49Z</time>
      </trkpt>
      <trkpt lat="59.088418291364" lon="18.141906149007">
        <ele>25.4</ele>
        <time>2015-03-28T14:03:54Z</time>
      </trkpt>
      <trkpt lat="59.088501858907" lon="18.141818893428">
        <ele>24.4</ele>
        <time>2015-03-28T14:03:55Z</time>
      </trkpt>
      <trkpt lat="59.088588863029" lon="18.141725938157">
        <ele>24</ele>
        <time>2015-03-28T14:03:56Z</time>
      </trkpt>
      <trkpt lat="59.088669748364" lon="18.141637257655">
        <ele>23.6</ele>
        <time>2015-03-28T14:03:57Z</time>
      </trkpt>
      <trkpt lat="59.089079036541" lon="18.141184132141">
        <ele>23.6</ele>
        <time>2015-03-28T14:04:02Z</time>
      </trkpt>
      <trkpt lat="59.089565438198" lon="18.140655988622">
        <ele>23.6</ele>
        <time>2015-03-28T14:04:08Z</time>
      </trkpt>
      <trkpt lat="59.089811279325" lon="18.14039380279">
        <ele>23.6</ele>
        <time>2015-03-28T14:04:11Z</time>
      </trkpt>
      <trkpt lat="59.090299692638" lon="18.139863647615">
        <ele>23.6</ele>
        <time>2015-03-28T14:04:17Z</time>
      </trkpt>
      <trkpt lat="59.090458529643" lon="18.139673378485">
        <ele>23.6</ele>
        <time>2015-03-28T14:04:19Z</time>
      </trkpt>
      <trkpt lat="59.090894807538" lon="18.13904850784">
        <ele>23.6</ele>
        <time>2015-03-28T14:04:25Z</time>
      </trkpt>
      <trkpt lat="59.090964293489" lon="18.138938285855">
        <ele>23.6</ele>
        <time>2015-03-28T14:04:26Z</time>
      </trkpt>
      <trkpt lat="59.091376180055" lon="18.138268572045">
        <ele>23.6</ele>
        <time>2015-03-28T14:04:32Z</time>
      </trkpt>
      <trkpt lat="59.091513894672" lon="18.138040584365">
        <ele>23.6</ele>
        <time>2015-03-28T14:04:34Z</time>
      </trkpt>
      <trkpt lat="59.092006163659" lon="18.137273640515">
        <ele>23.6</ele>
        <time>2015-03-28T14:04:41Z</time>
      </trkpt>
      <trkpt lat="59.0924704371" lon="18.136536871505">
        <ele>23.6</ele>
        <time>2015-03-28T14:04:48Z</time>
      </trkpt>
      <trkpt lat="59.092842342003" lon="18.135922394416">
        <ele>24</ele>
        <time>2015-03-28T14:04:54Z</time>
      </trkpt>
      <trkpt lat="59.092906882633" lon="18.135819045589">
        <ele>24.6</ele>
        <time>2015-03-28T14:04:55Z</time>
      </trkpt>
      <trkpt lat="59.092969746883" lon="18.1357158644">
        <ele>25</ele>
        <time>2015-03-28T14:04:56Z</time>
      </trkpt>
      <trkpt lat="59.093035209522" lon="18.135607234976">
        <ele>25.4</ele>
        <time>2015-03-28T14:04:57Z</time>
      </trkpt>
      <trkpt lat="59.093099247238" lon="18.135504305244">
        <ele>26</ele>
        <time>2015-03-28T14:04:58Z</time>
      </trkpt>
      <trkpt lat="59.093538794074" lon="18.13477960617">
        <ele>26</ele>
        <time>2015-03-28T14:05:05Z</time>
      </trkpt>
      <trkpt lat="59.093722273865" lon="18.134479617969">
        <ele>26</ele>
        <time>2015-03-28T14:05:08Z</time>
      </trkpt>
      <trkpt lat="59.094150588955" lon="18.133822979923">
        <ele>26</ele>
        <time>2015-03-28T14:05:15Z</time>
      </trkpt>
      <trkpt lat="59.094278748206" lon="18.133638578123">
        <ele>26.4</ele>
        <time>2015-03-28T14:05:17Z</time>
      </trkpt>
      <trkpt lat="59.094344965216" lon="18.133548807974">
        <ele>26.8</ele>
        <time>2015-03-28T14:05:18Z</time>
      </trkpt>
      <trkpt lat="59.094413026244" lon="18.133456774712">
        <ele>27.2</ele>
        <time>2015-03-28T14:05:19Z</time>
      </trkpt>
      <trkpt lat="59.094483518023" lon="18.133357281559">
        <ele>27.6</ele>
        <time>2015-03-28T14:05:20Z</time>
      </trkpt>
      <trkpt lat="59.094552081965" lon="18.133263991012">
        <ele>28.2</ele>
        <time>2015-03-28T14:05:21Z</time>
      </trkpt>
      <trkpt lat="59.094690383315" lon="18.133085959456">
        <ele>28.2</ele>
        <time>2015-03-28T14:05:23Z</time>
      </trkpt>
      <trkpt lat="59.095157590421" lon="18.132512972772">
        <ele>28.2</ele>
        <time>2015-03-28T14:05:30Z</time>
      </trkpt>
      <trkpt lat="59.095225819087" lon="18.132435021102">
        <ele>28.2</ele>
        <time>2015-03-28T14:05:31Z</time>
      </trkpt>
      <trkpt lat="59.095711382554" lon="18.131909056877">
        <ele>28.2</ele>
        <time>2015-03-28T14:05:38Z</time>
      </trkpt>
      <trkpt lat="59.095777180469" lon="18.131838648917">
        <ele>28.2</ele>
        <time>2015-03-28T14:05:39Z</time>
      </trkpt>
      <trkpt lat="59.096269281818" lon="18.131370435983">
        <ele>28.2</ele>
        <time>2015-03-28T14:05:46Z</time>
      </trkpt>
      <trkpt lat="59.09634538947" lon="18.131302626412">
        <ele>28.2</ele>
        <time>2015-03-28T14:05:47Z</time>
      </trkpt>
      <trkpt lat="59.096882585441" lon="18.130863247214">
        <ele>28.2</ele>
        <time>2015-03-28T14:05:54Z</time>
      </trkpt>
      <trkpt lat="59.097033375822" lon="18.13075210322">
        <ele>28.2</ele>
        <time>2015-03-28T14:05:56Z</time>
      </trkpt>
      <trkpt lat="59.097571326164" lon="18.130385311276">
        <ele>28.2</ele>
        <time>2015-03-28T14:06:03Z</time>
      </trkpt>
      <trkpt lat="59.097731168997" lon="18.130295457308">
        <ele>28.2</ele>
        <time>2015-03-28T14:06:05Z</time>
      </trkpt>
      <trkpt lat="59.098291582831" lon="18.130002426084">
        <ele>28.2</ele>
        <time>2015-03-28T14:06:12Z</time>
      </trkpt>
      <trkpt lat="59.098451425664" lon="18.129927491898">
        <ele>28.2</ele>
        <time>2015-03-28T14:06:14Z</time>
      </trkpt>
      <trkpt lat="59.099027346013" lon="18.129715010733">
        <ele>28.2</ele>
        <time>2015-03-28T14:06:21Z</time>
      </trkpt>
      <trkpt lat="59.099111751746" lon="18.129687099006">
        <ele>28.2</ele>
        <time>2015-03-28T14:06:22Z</time>
      </trkpt>
      <trkpt lat="59.099699574393" lon="18.129525998888">
        <ele>28.2</ele>
        <time>2015-03-28T14:06:29Z</time>
      </trkpt>
      <trkpt lat="59.099782722841" lon="18.12951074383">
        <ele>28.2</ele>
        <time>2015-03-28T14:06:30Z</time>
      </trkpt>
      <trkpt lat="59.100367695642" lon="18.129421392776">
        <ele>28.2</ele>
        <time>2015-03-28T14:06:37Z</time>
      </trkpt>
      <trkpt lat="59.100546733026" lon="18.129405048071">
        <ele>28.2</ele>
        <time>2015-03-28T14:06:39Z</time>
      </trkpt>
      <trkpt lat="59.101168250911" lon="18.129379734733">
        <ele>28.2</ele>
        <time>2015-03-28T14:06:46Z</time>
      </trkpt>
      <trkpt lat="59.101347539752" lon="18.129381327294">
        <ele>28.2</ele>
        <time>2015-03-28T14:06:48Z</time>
      </trkpt>
      <trkpt lat="59.101964028497" lon="18.129411250677">
        <ele>28.2</ele>
        <time>2015-03-28T14:06:55Z</time>
      </trkpt>
      <trkpt lat="59.102146418641" lon="18.129417537102">
        <ele>28.2</ele>
        <time>2015-03-28T14:06:57Z</time>
      </trkpt>
      <trkpt lat="59.102751088907" lon="18.129447628123">
        <ele>28.2</ele>
        <time>2015-03-28T14:07:04Z</time>
      </trkpt>
      <trkpt lat="59.102833566803" lon="18.129449807417">
        <ele>28.2</ele>
        <time>2015-03-28T14:07:05Z</time>
      </trkpt>
      <trkpt lat="59.103400183243" lon="18.129413262333">
        <ele>28.2</ele>
        <time>2015-03-28T14:07:12Z</time>
      </trkpt>
      <trkpt lat="59.103938049766" lon="18.129289126394">
        <ele>28.2</ele>
        <time>2015-03-28T14:07:19Z</time>
      </trkpt>
      <trkpt lat="59.104012481038" lon="18.129265489436">
        <ele>28.2</ele>
        <time>2015-03-28T14:07:20Z</time>
      </trkpt>
      <trkpt lat="59.104560573479" lon="18.129015624997">
        <ele>28.2</ele>
        <time>2015-03-28T14:07:27Z</time>
      </trkpt>
      <trkpt lat="59.104944213042" lon="18.128787637317">
        <ele>28.6</ele>
        <time>2015-03-28T14:07:32Z</time>
      </trkpt>
      <trkpt lat="59.10502149416" lon="18.128729886026">
        <ele>29</ele>
        <time>2015-03-28T14:07:33Z</time>
      </trkpt>
      <trkpt lat="59.105093913776" lon="18.128670374536">
        <ele>29.6</ele>
        <time>2015-03-28T14:07:34Z</time>
      </trkpt>
      <trkpt lat="59.105164405555" lon="18.128609186666">
        <ele>30</ele>
        <time>2015-03-28T14:07:35Z</time>
      </trkpt>
      <trkpt lat="59.105236825171" lon="18.128546070959">
        <ele>30.6</ele>
        <time>2015-03-28T14:07:36Z</time>
      </trkpt>
      <trkpt lat="59.105588697333" lon="18.128203251249">
        <ele>30.6</ele>
        <time>2015-03-28T14:07:41Z</time>
      </trkpt>
      <trkpt lat="59.1060658789" lon="18.127559269872">
        <ele>30.6</ele>
        <time>2015-03-28T14:07:49Z</time>
      </trkpt>
      <trkpt lat="59.106115164472" lon="18.127476121424">
        <ele>30.6</ele>
        <time>2015-03-28T14:07:50Z</time>
      </trkpt>
      <trkpt lat="59.106164450044" lon="18.12738928494">
        <ele>31</ele>
        <time>2015-03-28T14:07:51Z</time>
      </trkpt>
      <trkpt lat="59.10621423853" lon="18.127302448456">
        <ele>31.4</ele>
        <time>2015-03-28T14:07:52Z</time>
      </trkpt>
      <trkpt lat="59.10626285355" lon="18.127218377999">
        <ele>31.8</ele>
        <time>2015-03-28T14:07:53Z</time>
      </trkpt>
      <trkpt lat="59.106310462742" lon="18.127133050257">
        <ele>32.4</ele>
        <time>2015-03-28T14:07:54Z</time>
      </trkpt>
      <trkpt lat="59.106357820477" lon="18.127041519909">
        <ele>32.8</ele>
        <time>2015-03-28T14:07:55Z</time>
      </trkpt>
      <trkpt lat="59.106446333341" lon="18.12686373981">
        <ele>32.8</ele>
        <time>2015-03-28T14:07:57Z</time>
      </trkpt>
      <trkpt lat="59.106530990531" lon="18.126689983023">
        <ele>33.2</ele>
        <time>2015-03-28T14:07:59Z</time>
      </trkpt>
      <trkpt lat="59.106575917515" lon="18.126602308349">
        <ele>33.6</ele>
        <time>2015-03-28T14:08:00Z</time>
      </trkpt>
      <trkpt lat="59.106621431232" lon="18.12651086182">
        <ele>34</ele>
        <time>2015-03-28T14:08:01Z</time>
      </trkpt>
      <trkpt lat="59.106668872786" lon="18.126415056703">
        <ele>34.8</ele>
        <time>2015-03-28T14:08:02Z</time>
      </trkpt>
      <trkpt lat="59.106802228815" lon="18.126135939433">
        <ele>34.8</ele>
        <time>2015-03-28T14:08:05Z</time>
      </trkpt>
      <trkpt lat="59.106882192141" lon="18.12595262728">
        <ele>35.2</ele>
        <time>2015-03-28T14:08:07Z</time>
      </trkpt>
      <trkpt lat="59.106918066673" lon="18.125859336733">
        <ele>35.6</ele>
        <time>2015-03-28T14:08:08Z</time>
      </trkpt>
      <trkpt lat="59.106951426635" lon="18.125768057842">
        <ele>36</ele>
        <time>2015-03-28T14:08:09Z</time>
      </trkpt>
      <trkpt lat="59.106984702778" lon="18.125670827802">
        <ele>36.4</ele>
        <time>2015-03-28T14:08:10Z</time>
      </trkpt>
      <trkpt lat="59.107019152387" lon="18.125573178667">
        <ele>36.8</ele>
        <time>2015-03-28T14:08:11Z</time>
      </trkpt>
      <trkpt lat="59.107232220285" lon="18.124851664715">
        <ele>36.8</ele>
        <time>2015-03-28T14:08:18Z</time>
      </trkpt>
      <trkpt lat="59.107259964374" lon="18.124750327544">
        <ele>37.2</ele>
        <time>2015-03-28T14:08:19Z</time>
      </trkpt>
      <trkpt lat="59.107284523341" lon="18.124660641214">
        <ele>37.6</ele>
        <time>2015-03-28T14:08:20Z</time>
      </trkpt>
      <trkpt lat="59.107307573566" lon="18.124562572984">
        <ele>38</ele>
        <time>2015-03-28T14:08:21Z</time>
      </trkpt>
      <trkpt lat="59.107333725094" lon="18.124466348772">
        <ele>38.4</ele>
        <time>2015-03-28T14:08:22Z</time>
      </trkpt>
      <trkpt lat="59.107358619337" lon="18.124361407384">
        <ele>38.8</ele>
        <time>2015-03-28T14:08:23Z</time>
      </trkpt>
      <trkpt lat="59.107475211566" lon="18.123811219468">
        <ele>38.8</ele>
        <time>2015-03-28T14:08:28Z</time>
      </trkpt>
      <trkpt lat="59.107566406638" lon="18.12336010561">
        <ele>39.4</ele>
        <time>2015-03-28T14:08:32Z</time>
      </trkpt>
      <trkpt lat="59.107584343904" lon="18.123247369055">
        <ele>39.8</ele>
        <time>2015-03-28T14:08:33Z</time>
      </trkpt>
      <trkpt lat="59.107600520971" lon="18.12313295612">
        <ele>40.2</ele>
        <time>2015-03-28T14:08:34Z</time>
      </trkpt>
      <trkpt lat="59.107615943667" lon="18.123015106606">
        <ele>40.6</ele>
        <time>2015-03-28T14:08:35Z</time>
      </trkpt>
      <trkpt lat="59.107632623648" lon="18.122895580712">
        <ele>41.2</ele>
        <time>2015-03-28T14:08:36Z</time>
      </trkpt>
      <trkpt lat="59.107754496474" lon="18.122063174223">
        <ele>41.2</ele>
        <time>2015-03-28T14:08:43Z</time>
      </trkpt>
      <trkpt lat="59.107819288561" lon="18.12158984833">
        <ele>41.6</ele>
        <time>2015-03-28T14:08:47Z</time>
      </trkpt>
      <trkpt lat="59.107835800904" lon="18.121477614689">
        <ele>42</ele>
        <time>2015-03-28T14:08:48Z</time>
      </trkpt>
      <trkpt lat="59.107852816161" lon="18.121361609193">
        <ele>42.4</ele>
        <time>2015-03-28T14:08:49Z</time>
      </trkpt>
      <trkpt lat="59.107870166694" lon="18.121245100783">
        <ele>42.8</ele>
        <time>2015-03-28T14:08:50Z</time>
      </trkpt>
      <trkpt lat="59.107886679037" lon="18.12113052021">
        <ele>43.2</ele>
        <time>2015-03-28T14:08:51Z</time>
      </trkpt>
      <trkpt lat="59.108039983988" lon="18.120094014456">
        <ele>43.2</ele>
        <time>2015-03-28T14:09:00Z</time>
      </trkpt>
      <trkpt lat="59.108062363661" lon="18.119974572381">
        <ele>43.6</ele>
        <time>2015-03-28T14:09:01Z</time>
      </trkpt>
      <trkpt lat="59.108085581524" lon="18.11985898598">
        <ele>44</ele>
        <time>2015-03-28T14:09:02Z</time>
      </trkpt>
      <trkpt lat="59.108108883206" lon="18.119745243597">
        <ele>44.6</ele>
        <time>2015-03-28T14:09:03Z</time>
      </trkpt>
      <trkpt lat="59.108132771621" lon="18.11963016011">
        <ele>45</ele>
        <time>2015-03-28T14:09:04Z</time>
      </trkpt>
      <trkpt lat="59.108154816018" lon="18.119516250089">
        <ele>45.4</ele>
        <time>2015-03-28T14:09:05Z</time>
      </trkpt>
      <trkpt lat="59.108203766314" lon="18.119293962101">
        <ele>45.4</ele>
        <time>2015-03-28T14:09:07Z</time>
      </trkpt>
      <trkpt lat="59.108352377401" lon="18.118715443363">
        <ele>45.4</ele>
        <time>2015-03-28T14:09:13Z</time>
      </trkpt>
      <trkpt lat="59.108395041272" lon="18.118567167552">
        <ele>45.4</ele>
        <time>2015-03-28T14:09:17Z</time>
      </trkpt>
      <trkpt lat="59.108396214738" lon="18.11847932524">
        <ele>45.4</ele>
        <time>2015-03-28T14:09:19Z</time>
      </trkpt>
      <trkpt lat="59.108343576406" lon="18.118382179019">
        <ele>45.4</ele>
        <time>2015-03-28T14:09:21Z</time>
      </trkpt>
      <trkpt lat="59.108162946461" lon="18.118204063644">
        <ele>45.4</ele>
        <time>2015-03-28T14:09:25Z</time>
      </trkpt>
      <trkpt lat="59.107822473683" lon="18.117941039622">
        <ele>45.4</ele>
        <time>2015-03-28T14:09:31Z</time>
      </trkpt>
      <trkpt lat="59.107620469893" lon="18.117860070468">
        <ele>45</ele>
        <time>2015-03-28T14:09:34Z</time>
      </trkpt>
      <trkpt lat="59.107548804648" lon="18.117839953908">
        <ele>44.6</ele>
        <time>2015-03-28T14:09:35Z</time>
      </trkpt>
      <trkpt lat="59.107472948453" lon="18.117818580063">
        <ele>44.2</ele>
        <time>2015-03-28T14:09:36Z</time>
      </trkpt>
      <trkpt lat="59.107393068946" lon="18.117798882598">
        <ele>43.8</ele>
        <time>2015-03-28T14:09:37Z</time>
      </trkpt>
      <trkpt lat="59.107311093964" lon="18.117785806834">
        <ele>43.2</ele>
        <time>2015-03-28T14:09:38Z</time>
      </trkpt>
      <trkpt lat="59.107221826729" lon="18.11777356926">
        <ele>42.8</ele>
        <time>2015-03-28T14:09:39Z</time>
      </trkpt>
      <trkpt lat="59.107135241702" lon="18.117754626166">
        <ele>42.2</ele>
        <time>2015-03-28T14:09:40Z</time>
      </trkpt>
      <trkpt lat="59.107046477381" lon="18.117725540973">
        <ele>41.2</ele>
        <time>2015-03-28T14:09:41Z</time>
      </trkpt>
      <trkpt lat="59.10695938944" lon="18.117693270658">
        <ele>40.8</ele>
        <time>2015-03-28T14:09:42Z</time>
      </trkpt>
      <trkpt lat="59.106870625119" lon="18.117656306479">
        <ele>40.4</ele>
        <time>2015-03-28T14:09:43Z</time>
      </trkpt>
      <trkpt lat="59.106784459187" lon="18.11761515135">
        <ele>39.8</ele>
        <time>2015-03-28T14:09:44Z</time>
      </trkpt>
      <trkpt lat="59.10669703597" lon="18.117566787787">
        <ele>39.4</ele>
        <time>2015-03-28T14:09:45Z</time>
      </trkpt>
      <trkpt lat="59.10660148231" lon="18.117509371772">
        <ele>39</ele>
        <time>2015-03-28T14:09:46Z</time>
      </trkpt>
      <trkpt lat="59.10651179598" lon="18.117450782291">
        <ele>38.4</ele>
        <time>2015-03-28T14:09:47Z</time>
      </trkpt>
      <trkpt lat="59.106420852365" lon="18.117389594421">
        <ele>37.8</ele>
        <time>2015-03-28T14:09:48Z</time>
      </trkpt>
      <trkpt lat="59.106329154379" lon="18.117319773194">
        <ele>37.4</ele>
        <time>2015-03-28T14:09:49Z</time>
      </trkpt>
      <trkpt lat="59.106240641515" lon="18.117250873976">
        <ele>36.8</ele>
        <time>2015-03-28T14:09:50Z</time>
      </trkpt>
      <trkpt lat="59.106146009864" lon="18.117178538179">
        <ele>36.4</ele>
        <time>2015-03-28T14:09:51Z</time>
      </trkpt>
      <trkpt lat="59.106053808964" lon="18.117112572626">
        <ele>36</ele>
        <time>2015-03-28T14:09:52Z</time>
      </trkpt>
      <trkpt lat="59.105957333295" lon="18.117041997028">
        <ele>35.6</ele>
        <time>2015-03-28T14:09:53Z</time>
      </trkpt>
      <trkpt lat="59.105868233698" lon="18.116970164145">
        <ele>35.2</ele>
        <time>2015-03-28T14:09:54Z</time>
      </trkpt>
      <trkpt lat="59.105777625359" lon="18.116896571063">
        <ele>34.8</ele>
        <time>2015-03-28T14:09:55Z</time>
      </trkpt>
      <trkpt lat="59.105244033605" lon="18.11648527123">
        <ele>34.8</ele>
        <time>2015-03-28T14:10:01Z</time>
      </trkpt>
      <trkpt lat="59.104988888569" lon="18.116292990444">
        <ele>34.8</ele>
        <time>2015-03-28T14:10:04Z</time>
      </trkpt>
      <trkpt lat="59.104489997881" lon="18.115920917903">
        <ele>34.8</ele>
        <time>2015-03-28T14:10:10Z</time>
      </trkpt>
      <trkpt lat="59.104332837256" lon="18.115802565475">
        <ele>34.8</ele>
        <time>2015-03-28T14:10:12Z</time>
      </trkpt>
      <trkpt lat="59.103790947421" lon="18.115402162112">
        <ele>34.8</ele>
        <time>2015-03-28T14:10:19Z</time>
      </trkpt>
      <trkpt lat="59.10363848066" lon="18.115296633991">
        <ele>34.8</ele>
        <time>2015-03-28T14:10:21Z</time>
      </trkpt>
      <trkpt lat="59.103081587224" lon="18.114882987226">
        <ele>34.8</ele>
        <time>2015-03-28T14:10:28Z</time>
      </trkpt>
      <trkpt lat="59.102501308287" lon="18.114478392913">
        <ele>34.8</ele>
        <time>2015-03-28T14:10:35Z</time>
      </trkpt>
      <trkpt lat="59.102418746572" lon="18.114418378509">
        <ele>34.8</ele>
        <time>2015-03-28T14:10:36Z</time>
      </trkpt>
      <trkpt lat="59.101863529516" lon="18.113965001538">
        <ele>34.8</ele>
        <time>2015-03-28T14:10:43Z</time>
      </trkpt>
      <trkpt lat="59.10132759083" lon="18.113452867448">
        <ele>34.8</ele>
        <time>2015-03-28T14:10:50Z</time>
      </trkpt>
      <trkpt lat="59.101096753304" lon="18.113217419877">
        <ele>34.8</ele>
        <time>2015-03-28T14:10:53Z</time>
      </trkpt>
      <trkpt lat="59.100594006942" lon="18.112686342693">
        <ele>34.8</ele>
        <time>2015-03-28T14:11:00Z</time>
      </trkpt>
      <trkpt lat="59.100118837031" lon="18.112141351555">
        <ele>34.8</ele>
        <time>2015-03-28T14:11:07Z</time>
      </trkpt>
      <trkpt lat="59.0998381272" lon="18.11178805447">
        <ele>34.8</ele>
        <time>2015-03-28T14:11:11Z</time>
      </trkpt>
      <trkpt lat="59.099337224856" lon="18.111231161034">
        <ele>34.8</ele>
        <time>2015-03-28T14:11:18Z</time>
      </trkpt>
      <trkpt lat="59.099271091665" lon="18.111139127772">
        <ele>34.8</ele>
        <time>2015-03-28T14:11:19Z</time>
      </trkpt>
      <trkpt lat="59.09905190498" lon="18.110888257505">
        <ele>34.8</ele>
        <time>2015-03-28T14:11:22Z</time>
      </trkpt>
      <trkpt lat="59.09855234374" lon="18.110257854806">
        <ele>34.8</ele>
        <time>2015-03-28T14:11:29Z</time>
      </trkpt>
      <trkpt lat="59.098480091762" lon="18.110151153219">
        <ele>34.8</ele>
        <time>2015-03-28T14:11:30Z</time>
      </trkpt>
      <trkpt lat="59.098102990081" lon="18.109554613396">
        <ele>34.8</ele>
        <time>2015-03-28T14:11:36Z</time>
      </trkpt>
      <trkpt lat="59.097896460065" lon="18.109185055425">
        <ele>34.8</ele>
        <time>2015-03-28T14:11:40Z</time>
      </trkpt>
      <trkpt lat="59.097844827561" lon="18.109081455141">
        <ele>34.8</ele>
        <time>2015-03-28T14:11:41Z</time>
      </trkpt>
      <trkpt lat="59.09758004334" lon="18.108557418753">
        <ele>35.2</ele>
        <time>2015-03-28T14:11:46Z</time>
      </trkpt>
      <trkpt lat="59.097531260682" lon="18.108454405202">
        <ele>35.8</ele>
        <time>2015-03-28T14:11:47Z</time>
      </trkpt>
      <trkpt lat="59.097482394205" lon="18.108347116882">
        <ele>36.2</ele>
        <time>2015-03-28T14:11:48Z</time>
      </trkpt>
      <trkpt lat="59.0974325219" lon="18.108237900725">
        <ele>36.6</ele>
        <time>2015-03-28T14:11:49Z</time>
      </trkpt>
      <trkpt lat="59.097387427278" lon="18.108126672912">
        <ele>37</ele>
        <time>2015-03-28T14:11:50Z</time>
      </trkpt>
      <trkpt lat="59.097246359901" lon="18.107796426052">
        <ele>37</ele>
        <time>2015-03-28T14:11:53Z</time>
      </trkpt>
      <trkpt lat="59.097114931709" lon="18.107468777581">
        <ele>37.4</ele>
        <time>2015-03-28T14:11:56Z</time>
      </trkpt>
      <trkpt lat="59.097069334173" lon="18.107361992175">
        <ele>38</ele>
        <time>2015-03-28T14:11:57Z</time>
      </trkpt>
      <trkpt lat="59.097024407189" lon="18.107257386063">
        <ele>38.4</ele>
        <time>2015-03-28T14:11:58Z</time>
      </trkpt>
      <trkpt lat="59.096980402214" lon="18.107158814919">
        <ele>38.8</ele>
        <time>2015-03-28T14:11:59Z</time>
      </trkpt>
      <trkpt lat="59.096934217945" lon="18.107050269314">
        <ele>39.2</ele>
        <time>2015-03-28T14:12:00Z</time>
      </trkpt>
      <trkpt lat="59.096888285133" lon="18.106946333754">
        <ele>39.2</ele>
        <time>2015-03-28T14:12:01Z</time>
      </trkpt>
      <trkpt lat="59.096581926688" lon="18.10621492916">
        <ele>39.2</ele>
        <time>2015-03-28T14:12:08Z</time>
      </trkpt>
      <trkpt lat="59.096492659453" lon="18.105995155742">
        <ele>39.6</ele>
        <time>2015-03-28T14:12:10Z</time>
      </trkpt>
      <trkpt lat="59.096448570659" lon="18.10588384411">
        <ele>40</ele>
        <time>2015-03-28T14:12:11Z</time>
      </trkpt>
      <trkpt lat="59.096404481865" lon="18.105776304333">
        <ele>40.4</ele>
        <time>2015-03-28T14:12:12Z</time>
      </trkpt>
      <trkpt lat="59.096358632872" lon="18.105669183651">
        <ele>40.8</ele>
        <time>2015-03-28T14:12:13Z</time>
      </trkpt>
      <trkpt lat="59.096312951517" lon="18.105552423784">
        <ele>41.2</ele>
        <time>2015-03-28T14:12:14Z</time>
      </trkpt>
      <trkpt lat="59.095964515934" lon="18.104732422507">
        <ele>41.2</ele>
        <time>2015-03-28T14:12:22Z</time>
      </trkpt>
      <trkpt lat="59.095735941521" lon="18.104231017249">
        <ele>41.6</ele>
        <time>2015-03-28T14:12:27Z</time>
      </trkpt>
      <trkpt lat="59.095689338157" lon="18.104125489128">
        <ele>42</ele>
        <time>2015-03-28T14:12:28Z</time>
      </trkpt>
      <trkpt lat="59.095642399517" lon="18.104013423125">
        <ele>42.4</ele>
        <time>2015-03-28T14:12:29Z</time>
      </trkpt>
      <trkpt lat="59.095597807809" lon="18.103910325755">
        <ele>42.8</ele>
        <time>2015-03-28T14:12:30Z</time>
      </trkpt>
      <trkpt lat="59.095555060119" lon="18.103802785978">
        <ele>43.2</ele>
        <time>2015-03-28T14:12:31Z</time>
      </trkpt>
      <trkpt lat="59.095236715557" lon="18.10300801422">
        <ele>43.2</ele>
        <time>2015-03-28T14:12:38Z</time>
      </trkpt>
      <trkpt lat="59.094899595539" lon="18.10220083725">
        <ele>43.2</ele>
        <time>2015-03-28T14:12:45Z</time>
      </trkpt>
      <trkpt lat="59.094567420842" lon="18.101304979778">
        <ele>43.2</ele>
        <time>2015-03-28T14:12:52Z</time>
      </trkpt>
      <trkpt lat="59.09435804098" lon="18.100468130882">
        <ele>43.2</ele>
        <time>2015-03-28T14:12:58Z</time>
      </trkpt>
      <trkpt lat="59.094244550054" lon="18.099707976371">
        <ele>43.2</ele>
        <time>2015-03-28T14:13:03Z</time>
      </trkpt>
      <trkpt lat="59.094201634726" lon="18.099437743915">
        <ele>42.8</ele>
        <time>2015-03-28T14:13:05Z</time>
      </trkpt>
      <trkpt lat="59.094177662492" lon="18.099301202764">
        <ele>42.4</ele>
        <time>2015-03-28T14:13:06Z</time>
      </trkpt>
      <trkpt lat="59.094154025534" lon="18.099154770971">
        <ele>42</ele>
        <time>2015-03-28T14:13:07Z</time>
      </trkpt>
      <trkpt lat="59.094131142947" lon="18.099017223992">
        <ele>41.4</ele>
        <time>2015-03-28T14:13:08Z</time>
      </trkpt>
      <trkpt lat="59.094106835437" lon="18.09887909028">
        <ele>41</ele>
        <time>2015-03-28T14:13:09Z</time>
      </trkpt>
      <trkpt lat="59.093997032547" lon="18.098233348704">
        <ele>41</ele>
        <time>2015-03-28T14:13:14Z</time>
      </trkpt>
      <trkpt lat="59.093987980095" lon="18.098103093978">
        <ele>41</ele>
        <time>2015-03-28T14:13:15Z</time>
      </trkpt>
      <trkpt lat="59.093990829941" lon="18.097737056405">
        <ele>41</ele>
        <time>2015-03-28T14:13:18Z</time>
      </trkpt>
      <trkpt lat="59.093974652874" lon="18.097513762589">
        <ele>41</ele>
        <time>2015-03-28T14:13:20Z</time>
      </trkpt>
      <trkpt lat="59.093896533566" lon="18.097335898671">
        <ele>41</ele>
        <time>2015-03-28T14:13:22Z</time>
      </trkpt>
      <trkpt lat="59.093693775405" lon="18.097237998079">
        <ele>41</ele>
        <time>2015-03-28T14:13:25Z</time>
      </trkpt>
      <trkpt lat="59.093626217291" lon="18.097227436885">
        <ele>41</ele>
        <time>2015-03-28T14:13:26Z</time>
      </trkpt>
      <trkpt lat="59.093277530251" lon="18.097070946812">
        <ele>41</ele>
        <time>2015-03-28T14:13:31Z</time>
      </trkpt>
      <trkpt lat="59.092971171806" lon="18.096688815991">
        <ele>41</ele>
        <time>2015-03-28T14:13:36Z</time>
      </trkpt>
      <trkpt lat="59.092780651219" lon="18.096298219451">
        <ele>41</ele>
        <time>2015-03-28T14:13:40Z</time>
      </trkpt>
      <trkpt lat="59.092742178298" lon="18.096186656362">
        <ele>41</ele>
        <time>2015-03-28T14:13:41Z</time>
      </trkpt>
      <trkpt lat="59.092434478749" lon="18.095344023955">
        <ele>41</ele>
        <time>2015-03-28T14:13:49Z</time>
      </trkpt>
      <trkpt lat="59.092321742194" lon="18.095044203392">
        <ele>41.4</ele>
        <time>2015-03-28T14:13:52Z</time>
      </trkpt>
      <trkpt lat="59.09228435892" lon="18.09494295004">
        <ele>41.8</ele>
        <time>2015-03-28T14:13:53Z</time>
      </trkpt>
      <trkpt lat="59.092246221275" lon="18.094842199602">
        <ele>42.2</ele>
        <time>2015-03-28T14:13:54Z</time>
      </trkpt>
      <trkpt lat="59.092208670363" lon="18.094739605146">
        <ele>42.8</ele>
        <time>2015-03-28T14:13:55Z</time>
      </trkpt>
      <trkpt lat="59.092169862166" lon="18.094638938527">
        <ele>43.2</ele>
        <time>2015-03-28T14:13:56Z</time>
      </trkpt>
      <trkpt lat="59.092133736177" lon="18.094540032107">
        <ele>43.2</ele>
        <time>2015-03-28T14:13:57Z</time>
      </trkpt>
      <trkpt lat="59.091800807109" lon="18.093639061676">
        <ele>43.2</ele>
        <time>2015-03-28T14:14:06Z</time>
      </trkpt>
      <trkpt lat="59.091760071075" lon="18.093529174967">
        <ele>43.2</ele>
        <time>2015-03-28T14:14:07Z</time>
      </trkpt>
      <trkpt lat="59.091682287043" lon="18.093318873096">
        <ele>43.6</ele>
        <time>2015-03-28T14:14:09Z</time>
      </trkpt>
      <trkpt lat="59.091644317036" lon="18.093214434622">
        <ele>44</ele>
        <time>2015-03-28T14:14:10Z</time>
      </trkpt>
      <trkpt lat="59.091605676477" lon="18.093111421071">
        <ele>44.4</ele>
        <time>2015-03-28T14:14:11Z</time>
      </trkpt>
      <trkpt lat="59.091569299031" lon="18.093006060588">
        <ele>45.2</ele>
        <time>2015-03-28T14:14:12Z</time>
      </trkpt>
      <trkpt lat="59.091410545845" lon="18.092589647796">
        <ele>45.2</ele>
        <time>2015-03-28T14:14:16Z</time>
      </trkpt>
      <trkpt lat="59.091192113531" lon="18.092002998615">
        <ele>45.2</ele>
        <time>2015-03-28T14:14:22Z</time>
      </trkpt>
      <trkpt lat="59.091118352811" lon="18.091817590987">
        <ele>45.8</ele>
        <time>2015-03-28T14:14:24Z</time>
      </trkpt>
      <trkpt lat="59.091081304813" lon="18.091730922141">
        <ele>46.2</ele>
        <time>2015-03-28T14:14:25Z</time>
      </trkpt>
      <trkpt lat="59.091041742245" lon="18.091645762037">
        <ele>46.6</ele>
        <time>2015-03-28T14:14:26Z</time>
      </trkpt>
      <trkpt lat="59.091001844401" lon="18.09155750063">
        <ele>47</ele>
        <time>2015-03-28T14:14:27Z</time>
      </trkpt>
      <trkpt lat="59.090965802231" lon="18.091470664146">
        <ele>47.4</ele>
        <time>2015-03-28T14:14:28Z</time>
      </trkpt>
      <trkpt lat="59.090734042696" lon="18.090871525934">
        <ele>47.4</ele>
        <time>2015-03-28T14:14:34Z</time>
      </trkpt>
      <trkpt lat="59.090522064445" lon="18.090388728494">
        <ele>47.8</ele>
        <time>2015-03-28T14:14:39Z</time>
      </trkpt>
      <trkpt lat="59.09048560318" lon="18.090295354128">
        <ele>48.2</ele>
        <time>2015-03-28T14:14:40Z</time>
      </trkpt>
      <trkpt lat="59.090450063924" lon="18.090208098549">
        <ele>48.6</ele>
        <time>2015-03-28T14:14:41Z</time>
      </trkpt>
      <trkpt lat="59.090411255727" lon="18.090121262065">
        <ele>49</ele>
        <time>2015-03-28T14:14:42Z</time>
      </trkpt>
      <trkpt lat="59.090373620996" lon="18.090031240459">
        <ele>49.4</ele>
        <time>2015-03-28T14:14:43Z</time>
      </trkpt>
      <trkpt lat="59.090201875865" lon="18.089651540389">
        <ele>49.4</ele>
        <time>2015-03-28T14:14:47Z</time>
      </trkpt>
      <trkpt lat="59.089913370867" lon="18.088999596207">
        <ele>49.4</ele>
        <time>2015-03-28T14:14:53Z</time>
      </trkpt>
      <trkpt lat="59.089533922254" lon="18.088134165032">
        <ele>49</ele>
        <time>2015-03-28T14:15:00Z</time>
      </trkpt>
      <trkpt lat="59.08947642242" lon="18.088007598342">
        <ele>48</ele>
        <time>2015-03-28T14:15:01Z</time>
      </trkpt>
      <trkpt lat="59.08941774912" lon="18.087880025824">
        <ele>47.4</ele>
        <time>2015-03-28T14:15:02Z</time>
      </trkpt>
      <trkpt lat="59.089363350589" lon="18.087747843261">
        <ele>47</ele>
        <time>2015-03-28T14:15:03Z</time>
      </trkpt>
      <trkpt lat="59.089129914674" lon="18.087211904575">
        <ele>47</ele>
        <time>2015-03-28T14:15:07Z</time>
      </trkpt>
      <trkpt lat="59.089067888614" lon="18.087084583514">
        <ele>46.6</ele>
        <time>2015-03-28T14:15:08Z</time>
      </trkpt>
      <trkpt lat="59.089006868382" lon="18.086953239141">
        <ele>46</ele>
        <time>2015-03-28T14:15:09Z</time>
      </trkpt>
      <trkpt lat="59.088941238105" lon="18.086826840089">
        <ele>45.6</ele>
        <time>2015-03-28T14:15:10Z</time>
      </trkpt>
      <trkpt lat="59.088877619484" lon="18.086702201236">
        <ele>45.2</ele>
        <time>2015-03-28T14:15:11Z</time>
      </trkpt>
      <trkpt lat="59.088811653931" lon="18.086581920971">
        <ele>44.6</ele>
        <time>2015-03-28T14:15:12Z</time>
      </trkpt>
      <trkpt lat="59.088746191292" lon="18.086465328742">
        <ele>44.6</ele>
        <time>2015-03-28T14:15:13Z</time>
      </trkpt>
      <trkpt lat="59.088282085489" lon="18.085681369635">
        <ele>44.6</ele>
        <time>2015-03-28T14:15:20Z</time>
      </trkpt>
      <trkpt lat="59.087812782908" lon="18.085040238104">
        <ele>44.6</ele>
        <time>2015-03-28T14:15:27Z</time>
      </trkpt>
      <trkpt lat="59.087303163388" lon="18.084459540072">
        <ele>44.6</ele>
        <time>2015-03-28T14:15:35Z</time>
      </trkpt>
      <trkpt lat="59.087176261422" lon="18.084316209582">
        <ele>45</ele>
        <time>2015-03-28T14:15:37Z</time>
      </trkpt>
      <trkpt lat="59.087117001389" lon="18.084243538509">
        <ele>45.6</ele>
        <time>2015-03-28T14:15:38Z</time>
      </trkpt>
      <trkpt lat="59.087060675021" lon="18.084169358694">
        <ele>46</ele>
        <time>2015-03-28T14:15:39Z</time>
      </trkpt>
      <trkpt lat="59.087006947042" lon="18.084092915766">
        <ele>46.4</ele>
        <time>2015-03-28T14:15:40Z</time>
      </trkpt>
      <trkpt lat="59.086954224891" lon="18.084016975752">
        <ele>46.8</ele>
        <time>2015-03-28T14:15:41Z</time>
      </trkpt>
      <trkpt lat="59.086899742541" lon="18.083941622471">
        <ele>46.8</ele>
        <time>2015-03-28T14:15:42Z</time>
      </trkpt>
      <trkpt lat="59.086678208924" lon="18.083616237113">
        <ele>47.2</ele>
        <time>2015-03-28T14:15:46Z</time>
      </trkpt>
      <trkpt lat="59.086624145669" lon="18.083535267959">
        <ele>47.6</ele>
        <time>2015-03-28T14:15:47Z</time>
      </trkpt>
      <trkpt lat="59.086567484025" lon="18.083453460615">
        <ele>48</ele>
        <time>2015-03-28T14:15:48Z</time>
      </trkpt>
      <trkpt lat="59.086509565096" lon="18.083369054882">
        <ele>48.4</ele>
        <time>2015-03-28T14:15:49Z</time>
      </trkpt>
      <trkpt lat="59.086452735814" lon="18.083286576986">
        <ele>48.8</ele>
        <time>2015-03-28T14:15:50Z</time>
      </trkpt>
      <trkpt lat="59.086025007457" lon="18.08270956699">
        <ele>48.8</ele>
        <time>2015-03-28T14:15:57Z</time>
      </trkpt>
      <trkpt lat="59.085525362398" lon="18.082054521505">
        <ele>48.8</ele>
        <time>2015-03-28T14:16:05Z</time>
      </trkpt>
      <trkpt lat="59.085459648302" lon="18.081976486016">
        <ele>48.8</ele>
        <time>2015-03-28T14:16:06Z</time>
      </trkpt>
      <trkpt lat="59.08498288583" lon="18.08135589014">
        <ele>48.8</ele>
        <time>2015-03-28T14:16:13Z</time>
      </trkpt>
      <trkpt lat="59.084604191588" lon="18.080925395756">
        <ele>48.4</ele>
        <time>2015-03-28T14:16:18Z</time>
      </trkpt>
      <trkpt lat="59.084527413384" lon="18.080850042475">
        <ele>48</ele>
        <time>2015-03-28T14:16:19Z</time>
      </trkpt>
      <trkpt lat="59.084449880809" lon="18.080778461049">
        <ele>47.6</ele>
        <time>2015-03-28T14:16:20Z</time>
      </trkpt>
      <trkpt lat="59.084370504216" lon="18.080702772492">
        <ele>47.2</ele>
        <time>2015-03-28T14:16:21Z</time>
      </trkpt>
      <trkpt lat="59.084296911134" lon="18.080629095591">
        <ele>46.8</ele>
        <time>2015-03-28T14:16:22Z</time>
      </trkpt>
      <trkpt lat="59.084073365861" lon="18.080433713502">
        <ele>47.2</ele>
        <time>2015-03-28T14:16:25Z</time>
      </trkpt>
      <trkpt lat="59.083997761123" lon="18.080369927243">
        <ele>47.6</ele>
        <time>2015-03-28T14:16:26Z</time>
      </trkpt>
      <trkpt lat="59.083921569652" lon="18.080307482088">
        <ele>48</ele>
        <time>2015-03-28T14:16:27Z</time>
      </trkpt>
      <trkpt lat="59.083845378181" lon="18.080242857639">
        <ele>48.4</ele>
        <time>2015-03-28T14:16:28Z</time>
      </trkpt>
      <trkpt lat="59.083765666312" lon="18.080184351977">
        <ele>48.8</ele>
        <time>2015-03-28T14:16:29Z</time>
      </trkpt>
      <trkpt lat="59.083464756102" lon="18.079969607699">
        <ele>48.8</ele>
        <time>2015-03-28T14:16:33Z</time>
      </trkpt>
      <trkpt lat="59.082914903462" lon="18.079561995902">
        <ele>48.8</ele>
        <time>2015-03-28T14:16:40Z</time>
      </trkpt>
      <trkpt lat="59.082682473375" lon="18.079394693178">
        <ele>48.8</ele>
        <time>2015-03-28T14:16:43Z</time>
      </trkpt>
      <trkpt lat="59.08209029214" lon="18.079011724167">
        <ele>48.8</ele>
        <time>2015-03-28T14:16:50Z</time>
      </trkpt>
      <trkpt lat="59.081514539429" lon="18.078656247788">
        <ele>48.8</ele>
        <time>2015-03-28T14:16:57Z</time>
      </trkpt>
      <trkpt lat="59.080963513323" lon="18.078284594342">
        <ele>48.8</ele>
        <time>2015-03-28T14:17:04Z</time>
      </trkpt>
      <trkpt lat="59.080812555304" lon="18.078187951035">
        <ele>48.4</ele>
        <time>2015-03-28T14:17:06Z</time>
      </trkpt>
      <trkpt lat="59.080733011073" lon="18.078132127581">
        <ele>48</ele>
        <time>2015-03-28T14:17:07Z</time>
      </trkpt>
      <trkpt lat="59.080654975584" lon="18.078073202824">
        <ele>47.6</ele>
        <time>2015-03-28T14:17:08Z</time>
      </trkpt>
      <trkpt lat="59.080576353362" lon="18.078015367714">
        <ele>47.2</ele>
        <time>2015-03-28T14:17:09Z</time>
      </trkpt>
      <trkpt lat="59.080498317873" lon="18.077965076314">
        <ele>46.8</ele>
        <time>2015-03-28T14:17:10Z</time>
      </trkpt>
      <trkpt lat="59.080109481532" lon="18.07768042699">
        <ele>46.8</ele>
        <time>2015-03-28T14:17:15Z</time>
      </trkpt>
      <trkpt lat="59.079586283334" lon="18.077221015051">
        <ele>46.8</ele>
        <time>2015-03-28T14:17:22Z</time>
      </trkpt>
      <trkpt lat="59.07910717393" lon="18.07672991953">
        <ele>46.8</ele>
        <time>2015-03-28T14:17:29Z</time>
      </trkpt>
      <trkpt lat="59.078653796959" lon="18.076245026615">
        <ele>47.2</ele>
        <time>2015-03-28T14:17:36Z</time>
      </trkpt>
      <trkpt lat="59.078589759243" lon="18.076170930619">
        <ele>47.8</ele>
        <time>2015-03-28T14:17:37Z</time>
      </trkpt>
      <trkpt lat="59.078526978812" lon="18.076107060541">
        <ele>48.2</ele>
        <time>2015-03-28T14:17:38Z</time>
      </trkpt>
      <trkpt lat="59.078462354363" lon="18.076041346445">
        <ele>48.6</ele>
        <time>2015-03-28T14:17:39Z</time>
      </trkpt>
      <trkpt lat="59.078395047706" lon="18.075975716168">
        <ele>49.2</ele>
        <time>2015-03-28T14:17:40Z</time>
      </trkpt>
      <trkpt lat="59.078191199898" lon="18.075762145356">
        <ele>49.2</ele>
        <time>2015-03-28T14:17:43Z</time>
      </trkpt>
      <trkpt lat="59.077727094095" lon="18.075186560283">
        <ele>49.2</ele>
        <time>2015-03-28T14:17:50Z</time>
      </trkpt>
      <trkpt lat="59.077372791182" lon="18.074451802929">
        <ele>49.2</ele>
        <time>2015-03-28T14:17:56Z</time>
      </trkpt>
      <trkpt lat="59.077203560621" lon="18.074074198334">
        <ele>48.6</ele>
        <time>2015-03-28T14:17:59Z</time>
      </trkpt>
      <trkpt lat="59.077141283104" lon="18.073936902812">
        <ele>48.2</ele>
        <time>2015-03-28T14:18:00Z</time>
      </trkpt>
      <trkpt lat="59.077081184881" lon="18.07380547462">
        <ele>47.6</ele>
        <time>2015-03-28T14:18:01Z</time>
      </trkpt>
      <trkpt lat="59.077016644251" lon="18.073671950953">
        <ele>47.2</ele>
        <time>2015-03-28T14:18:02Z</time>
      </trkpt>
      <trkpt lat="59.076950678698" lon="18.073537337639">
        <ele>46.6</ele>
        <time>2015-03-28T14:18:03Z</time>
      </trkpt>
      <trkpt lat="59.076674411274" lon="18.073000979858">
        <ele>46.2</ele>
        <time>2015-03-28T14:18:07Z</time>
      </trkpt>
      <trkpt lat="59.076603081305" lon="18.072869551666">
        <ele>45.8</ele>
        <time>2015-03-28T14:18:08Z</time>
      </trkpt>
      <trkpt lat="59.076527392748" lon="18.072739213121">
        <ele>45.4</ele>
        <time>2015-03-28T14:18:09Z</time>
      </trkpt>
      <trkpt lat="59.076451033639" lon="18.072610970051">
        <ele>45</ele>
        <time>2015-03-28T14:18:10Z</time>
      </trkpt>
      <trkpt lat="59.076373333426" lon="18.072490773605">
        <ele>44.4</ele>
        <time>2015-03-28T14:18:11Z</time>
      </trkpt>
      <trkpt lat="59.076213490593" lon="18.072246860315">
        <ele>44</ele>
        <time>2015-03-28T14:18:13Z</time>
      </trkpt>
      <trkpt lat="59.076135119828" lon="18.072133369389">
        <ele>43.4</ele>
        <time>2015-03-28T14:18:14Z</time>
      </trkpt>
      <trkpt lat="59.076050127362" lon="18.072021135748">
        <ele>43</ele>
        <time>2015-03-28T14:18:15Z</time>
      </trkpt>
      <trkpt lat="59.075972175692" lon="18.071907058089">
        <ele>42.4</ele>
        <time>2015-03-28T14:18:16Z</time>
      </trkpt>
      <trkpt lat="59.075893972565" lon="18.071793567163">
        <ele>41.8</ele>
        <time>2015-03-28T14:18:17Z</time>
      </trkpt>
      <trkpt lat="59.075732369533" lon="18.071572452641">
        <ele>41</ele>
        <time>2015-03-28T14:18:19Z</time>
      </trkpt>
      <trkpt lat="59.075648550533" lon="18.07146440995">
        <ele>40.6</ele>
        <time>2015-03-28T14:18:20Z</time>
      </trkpt>
      <trkpt lat="59.075568587207" lon="18.071365671168">
        <ele>40</ele>
        <time>2015-03-28T14:18:21Z</time>
      </trkpt>
      <trkpt lat="59.075494323573" lon="18.071271877707">
        <ele>39.6</ele>
        <time>2015-03-28T14:18:22Z</time>
      </trkpt>
      <trkpt lat="59.075277819096" lon="18.070978846483">
        <ele>39.6</ele>
        <time>2015-03-28T14:18:25Z</time>
      </trkpt>
      <trkpt lat="59.074990403745" lon="18.070507699884">
        <ele>39.6</ele>
        <time>2015-03-28T14:18:30Z</time>
      </trkpt>
      <trkpt lat="59.074711789389" lon="18.070005204979">
        <ele>40</ele>
        <time>2015-03-28T14:18:35Z</time>
      </trkpt>
      <trkpt lat="59.074655965935" lon="18.069897497564">
        <ele>40.4</ele>
        <time>2015-03-28T14:18:36Z</time>
      </trkpt>
      <trkpt lat="59.074599220472" lon="18.069788951959">
        <ele>40.8</ele>
        <time>2015-03-28T14:18:37Z</time>
      </trkpt>
      <trkpt lat="59.074540966267" lon="18.069670012798">
        <ele>41.2</ele>
        <time>2015-03-28T14:18:38Z</time>
      </trkpt>
      <trkpt lat="59.074488244116" lon="18.069550151628">
        <ele>41.6</ele>
        <time>2015-03-28T14:18:39Z</time>
      </trkpt>
      <trkpt lat="59.074225471551" lon="18.068964340637">
        <ele>41.6</ele>
        <time>2015-03-28T14:18:44Z</time>
      </trkpt>
      <trkpt lat="59.073859182521" lon="18.068112907235">
        <ele>41.6</ele>
        <time>2015-03-28T14:18:51Z</time>
      </trkpt>
      <trkpt lat="59.073815596641" lon="18.06798340688">
        <ele>41.6</ele>
        <time>2015-03-28T14:18:52Z</time>
      </trkpt>
      <trkpt lat="59.073581657812" lon="18.067174804987">
        <ele>41.6</ele>
        <time>2015-03-28T14:18:58Z</time>
      </trkpt>
      <trkpt lat="59.073340929644" lon="18.066184818778">
        <ele>41.6</ele>
        <time>2015-03-28T14:19:05Z</time>
      </trkpt>
      <trkpt lat="59.073303378732" lon="18.066049031998">
        <ele>41.6</ele>
        <time>2015-03-28T14:19:06Z</time>
      </trkpt>
      <trkpt lat="59.073025434928" lon="18.065288542211">
        <ele>41.6</ele>
        <time>2015-03-28T14:19:12Z</time>
      </trkpt>
      <trkpt lat="59.072748832228" lon="18.064758973769">
        <ele>41.6</ele>
        <time>2015-03-28T14:19:17Z</time>
      </trkpt>
      <trkpt lat="59.072340717517" lon="18.064174839158">
        <ele>41.6</ele>
        <time>2015-03-28T14:19:24Z</time>
      </trkpt>
      <trkpt lat="59.072176767553" lon="18.06399613705">
        <ele>42</ele>
        <time>2015-03-28T14:19:27Z</time>
      </trkpt>
      <trkpt lat="59.072121279375" lon="18.063946097107">
        <ele>42.6</ele>
        <time>2015-03-28T14:19:28Z</time>
      </trkpt>
      <trkpt lat="59.072064366274" lon="18.063895218974">
        <ele>43</ele>
        <time>2015-03-28T14:19:29Z</time>
      </trkpt>
      <trkpt lat="59.07200770463" lon="18.063842161547">
        <ele>43.4</ele>
        <time>2015-03-28T14:19:30Z</time>
      </trkpt>
      <trkpt lat="59.0719515459" lon="18.063803101893">
        <ele>44</ele>
        <time>2015-03-28T14:19:31Z</time>
      </trkpt>
      <trkpt lat="59.071898320835" lon="18.063756666167">
        <ele>44.4</ele>
        <time>2015-03-28T14:19:32Z</time>
      </trkpt>
      <trkpt lat="59.071849035263" lon="18.063702016179">
        <ele>45.2</ele>
        <time>2015-03-28T14:19:33Z</time>
      </trkpt>
      <trkpt lat="59.071795391103" lon="18.0636566701">
        <ele>45.6</ele>
        <time>2015-03-28T14:19:34Z</time>
      </trkpt>
      <trkpt lat="59.071742752771" lon="18.063606630157">
        <ele>46</ele>
        <time>2015-03-28T14:19:35Z</time>
      </trkpt>
      <trkpt lat="59.071535300746" lon="18.063352071854">
        <ele>46.6</ele>
        <time>2015-03-28T14:19:39Z</time>
      </trkpt>
      <trkpt lat="59.071485428441" lon="18.063266241198">
        <ele>47</ele>
        <time>2015-03-28T14:19:40Z</time>
      </trkpt>
      <trkpt lat="59.071433628299" lon="18.06317471085">
        <ele>47.6</ele>
        <time>2015-03-28T14:19:41Z</time>
      </trkpt>
      <trkpt lat="59.071385683831" lon="18.063070691471">
        <ele>48</ele>
        <time>2015-03-28T14:19:42Z</time>
      </trkpt>
      <trkpt lat="59.07133799082" lon="18.062952841957">
        <ele>48.6</ele>
        <time>2015-03-28T14:19:43Z</time>
      </trkpt>
      <trkpt lat="59.071290297809" lon="18.062822922507">
        <ele>48.2</ele>
        <time>2015-03-28T14:19:44Z</time>
      </trkpt>
      <trkpt lat="59.071248639766" lon="18.062688309193">
        <ele>47.6</ele>
        <time>2015-03-28T14:19:45Z</time>
      </trkpt>
      <trkpt lat="59.071215363623" lon="18.062545816893">
        <ele>47</ele>
        <time>2015-03-28T14:19:46Z</time>
      </trkpt>
      <trkpt lat="59.071184937326" lon="18.062400139471">
        <ele>46.4</ele>
        <time>2015-03-28T14:19:47Z</time>
      </trkpt>
      <trkpt lat="59.071159037255" lon="18.062252785669">
        <ele>45.6</ele>
        <time>2015-03-28T14:19:48Z</time>
      </trkpt>
      <trkpt lat="59.071131293166" lon="18.06210434222">
        <ele>45</ele>
        <time>2015-03-28T14:19:49Z</time>
      </trkpt>
      <trkpt lat="59.071112433891" lon="18.061944918482">
        <ele>44.2</ele>
        <time>2015-03-28T14:19:50Z</time>
      </trkpt>
      <trkpt lat="59.071065327613" lon="18.061475448263">
        <ele>44.2</ele>
        <time>2015-03-28T14:19:53Z</time>
      </trkpt>
      <trkpt lat="59.071024759217" lon="18.060873963119">
        <ele>43.8</ele>
        <time>2015-03-28T14:19:57Z</time>
      </trkpt>
      <trkpt lat="59.071017718421" lon="18.060748905171">
        <ele>43</ele>
        <time>2015-03-28T14:19:58Z</time>
      </trkpt>
      <trkpt lat="59.071014868575" lon="18.060630133648">
        <ele>42.6</ele>
        <time>2015-03-28T14:19:59Z</time>
      </trkpt>
      <trkpt lat="59.071027776701" lon="18.060516391265">
        <ele>42.2</ele>
        <time>2015-03-28T14:20:00Z</time>
      </trkpt>
      <trkpt lat="59.071107404751" lon="18.060349926731">
        <ele>42.2</ele>
        <time>2015-03-28T14:20:02Z</time>
      </trkpt>
      <trkpt lat="59.071233971441" lon="18.060334336397">
        <ele>42.2</ele>
        <time>2015-03-28T14:20:04Z</time>
      </trkpt>
      <trkpt lat="59.071584753956" lon="18.060347915075">
        <ele>42.2</ele>
        <time>2015-03-28T14:20:08Z</time>
      </trkpt>
      <trkpt lat="59.072015164521" lon="18.060386136539">
        <ele>42.2</ele>
        <time>2015-03-28T14:20:13Z</time>
      </trkpt>
      <trkpt lat="59.072227478048" lon="18.060132416426">
        <ele>42.2</ele>
        <time>2015-03-28T14:20:16Z</time>
      </trkpt>
      <trkpt lat="59.072352787453" lon="18.059691277029">
        <ele>42.2</ele>
        <time>2015-03-28T14:20:19Z</time>
      </trkpt>
      <trkpt lat="59.072378603705" lon="18.059540067553">
        <ele>42.2</ele>
        <time>2015-03-28T14:20:20Z</time>
      </trkpt>
      <trkpt lat="59.072472564804" lon="18.058941432255">
        <ele>42.2</ele>
        <time>2015-03-28T14:20:24Z</time>
      </trkpt>
      <trkpt lat="59.072550432655" lon="18.058676648034">
        <ele>42.2</ele>
        <time>2015-03-28T14:20:26Z</time>
      </trkpt>
      <trkpt lat="59.072652524197" lon="18.058479338108">
        <ele>42.2</ele>
        <time>2015-03-28T14:20:28Z</time>
      </trkpt>
      <trkpt lat="59.072844553526" lon="18.058332068125">
        <ele>42.2</ele>
        <time>2015-03-28T14:20:31Z</time>
      </trkpt>
      <trkpt lat="59.072917811332" lon="18.058325194967">
        <ele>42.6</ele>
        <time>2015-03-28T14:20:32Z</time>
      </trkpt>
      <trkpt lat="59.072984028342" lon="18.058309520814">
        <ele>43</ele>
        <time>2015-03-28T14:20:33Z</time>
      </trkpt>
      <trkpt lat="59.073053095198" lon="18.058293008471">
        <ele>43.6</ele>
        <time>2015-03-28T14:20:34Z</time>
      </trkpt>
      <trkpt lat="59.073122664968" lon="18.05828638677">
        <ele>44</ele>
        <time>2015-03-28T14:20:35Z</time>
      </trkpt>
      <trkpt lat="59.073189468711" lon="18.058271383169">
        <ele>44.6</ele>
        <time>2015-03-28T14:20:36Z</time>
      </trkpt>
      <trkpt lat="59.073315700125" lon="18.058247410935">
        <ele>45</ele>
        <time>2015-03-28T14:20:38Z</time>
      </trkpt>
      <trkpt lat="59.07337563071" lon="18.058233748438">
        <ele>45.4</ele>
        <time>2015-03-28T14:20:39Z</time>
      </trkpt>
      <trkpt lat="59.073434806924" lon="18.058218074285">
        <ele>45.8</ele>
        <time>2015-03-28T14:20:40Z</time>
      </trkpt>
      <trkpt lat="59.073492893491" lon="18.058201226666">
        <ele>46.2</ele>
        <time>2015-03-28T14:20:41Z</time>
      </trkpt>
      <trkpt lat="59.073553410809" lon="18.058182367391">
        <ele>46.6</ele>
        <time>2015-03-28T14:20:42Z</time>
      </trkpt>
      <trkpt lat="59.073674277807" lon="18.058150180895">
        <ele>47</ele>
        <time>2015-03-28T14:20:44Z</time>
      </trkpt>
      <trkpt lat="59.073735968591" lon="18.058123694091">
        <ele>47.4</ele>
        <time>2015-03-28T14:20:45Z</time>
      </trkpt>
      <trkpt lat="59.073794977167" lon="18.058096452916">
        <ele>47.8</ele>
        <time>2015-03-28T14:20:46Z</time>
      </trkpt>
      <trkpt lat="59.073851471173" lon="18.058064014963">
        <ele>48.8</ele>
        <time>2015-03-28T14:20:47Z</time>
      </trkpt>
      <trkpt lat="59.073903271315" lon="18.058021770187">
        <ele>48.8</ele>
        <time>2015-03-28T14:20:48Z</time>
      </trkpt>
      <trkpt lat="59.073952556887" lon="18.057986482388">
        <ele>49.2</ele>
        <time>2015-03-28T14:20:49Z</time>
      </trkpt>
      <trkpt lat="59.073997651509" lon="18.057964857086">
        <ele>49.6</ele>
        <time>2015-03-28T14:20:50Z</time>
      </trkpt>
      <trkpt lat="59.074044757787" lon="18.057939879024">
        <ele>50</ele>
        <time>2015-03-28T14:20:51Z</time>
      </trkpt>
      <trkpt lat="59.07410150325" lon="18.057923618138">
        <ele>50.4</ele>
        <time>2015-03-28T14:20:52Z</time>
      </trkpt>
      <trkpt lat="59.074154812134" lon="18.057893443298">
        <ele>50.8</ele>
        <time>2015-03-28T14:20:53Z</time>
      </trkpt>
      <trkpt lat="59.074245420473" lon="18.057848264857">
        <ele>51.2</ele>
        <time>2015-03-28T14:20:55Z</time>
      </trkpt>
      <trkpt lat="59.074298394081" lon="18.05782370589">
        <ele>51.6</ele>
        <time>2015-03-28T14:20:56Z</time>
      </trkpt>
      <trkpt lat="59.074350948594" lon="18.05780526571">
        <ele>52</ele>
        <time>2015-03-28T14:20:57Z</time>
      </trkpt>
      <trkpt lat="59.074401239994" lon="18.05779101648">
        <ele>52.4</ele>
        <time>2015-03-28T14:20:58Z</time>
      </trkpt>
      <trkpt lat="59.07445102848" lon="18.057783640408">
        <ele>52.8</ele>
        <time>2015-03-28T14:20:59Z</time>
      </trkpt>
      <trkpt lat="59.074559406447" lon="18.057789423919">
        <ele>53.4</ele>
        <time>2015-03-28T14:21:01Z</time>
      </trkpt>
      <trkpt lat="59.074612547693" lon="18.057786657892">
        <ele>53.8</ele>
        <time>2015-03-28T14:21:02Z</time>
      </trkpt>
      <trkpt lat="59.074664096378" lon="18.057789591557">
        <ele>54.2</ele>
        <time>2015-03-28T14:21:03Z</time>
      </trkpt>
      <trkpt lat="59.074712292303" lon="18.057781125838">
        <ele>54.6</ele>
        <time>2015-03-28T14:21:04Z</time>
      </trkpt>
      <trkpt lat="59.074764092445" lon="18.05777676725">
        <ele>55.2</ele>
        <time>2015-03-28T14:21:05Z</time>
      </trkpt>
      <trkpt lat="59.074819412985" lon="18.057756734509">
        <ele>55.2</ele>
        <time>2015-03-28T14:21:06Z</time>
      </trkpt>
      <trkpt lat="59.074904237813" lon="18.057737456139">
        <ele>55.2</ele>
        <time>2015-03-28T14:21:07Z</time>
      </trkpt>
      <trkpt lat="59.075064080646" lon="18.057675094803">
        <ele>55.2</ele>
        <time>2015-03-28T14:21:09Z</time>
      </trkpt>
      <trkpt lat="59.075219229615" lon="18.057573254718">
        <ele>55.2</ele>
        <time>2015-03-28T14:21:11Z</time>
      </trkpt>
      <trkpt lat="59.075384688321" lon="18.057427325839">
        <ele>55.2</ele>
        <time>2015-03-28T14:21:13Z</time>
      </trkpt>
      <trkpt lat="59.075467920588" lon="18.057325234297">
        <ele>55.2</ele>
        <time>2015-03-28T14:21:14Z</time>
      </trkpt>
      <trkpt lat="59.075550817579" lon="18.057205289308">
        <ele>54.6</ele>
        <time>2015-03-28T14:21:15Z</time>
      </trkpt>
      <trkpt lat="59.075623991566" lon="18.057081321007">
        <ele>54</ele>
        <time>2015-03-28T14:21:16Z</time>
      </trkpt>
      <trkpt lat="59.075698087562" lon="18.056964728778">
        <ele>53.4</ele>
        <time>2015-03-28T14:21:17Z</time>
      </trkpt>
      <trkpt lat="59.075769249893" lon="18.056837491536">
        <ele>52.8</ele>
        <time>2015-03-28T14:21:18Z</time>
      </trkpt>
      <trkpt lat="59.07583571836" lon="18.056711092484">
        <ele>52.2</ele>
        <time>2015-03-28T14:21:19Z</time>
      </trkpt>
      <trkpt lat="59.075908557071" lon="18.056597517739">
        <ele>52.2</ele>
        <time>2015-03-28T14:21:20Z</time>
      </trkpt>
      <trkpt lat="59.076360592938" lon="18.05595286581">
        <ele>51.8</ele>
        <time>2015-03-28T14:21:26Z</time>
      </trkpt>
      <trkpt lat="59.076442735558" lon="18.055847421508">
        <ele>51.2</ele>
        <time>2015-03-28T14:21:27Z</time>
      </trkpt>
      <trkpt lat="59.076522698884" lon="18.055729320537">
        <ele>50.8</ele>
        <time>2015-03-28T14:21:28Z</time>
      </trkpt>
      <trkpt lat="59.076604087133" lon="18.055611303385">
        <ele>50.2</ele>
        <time>2015-03-28T14:21:29Z</time>
      </trkpt>
      <trkpt lat="59.076691091255" lon="18.055486245437">
        <ele>49.6</ele>
        <time>2015-03-28T14:21:30Z</time>
      </trkpt>
      <trkpt lat="59.076857723427" lon="18.055232609143">
        <ele>49.6</ele>
        <time>2015-03-28T14:21:32Z</time>
      </trkpt>
      <trkpt lat="59.076947661214" lon="18.055109898127">
        <ele>49</ele>
        <time>2015-03-28T14:21:33Z</time>
      </trkpt>
      <trkpt lat="59.077042795779" lon="18.054974865718">
        <ele>48.4</ele>
        <time>2015-03-28T14:21:34Z</time>
      </trkpt>
      <trkpt lat="59.07713407467" lon="18.05484561682">
        <ele>48</ele>
        <time>2015-03-28T14:21:35Z</time>
      </trkpt>
      <trkpt lat="59.077224096276" lon="18.054722151433">
        <ele>46.6</ele>
        <time>2015-03-28T14:21:36Z</time>
      </trkpt>
      <trkpt lat="59.077311435674" lon="18.054598769865">
        <ele>45.8</ele>
        <time>2015-03-28T14:21:37Z</time>
      </trkpt>
      <trkpt lat="59.077396511959" lon="18.054472286994">
        <ele>45.2</ele>
        <time>2015-03-28T14:21:38Z</time>
      </trkpt>
      <trkpt lat="59.077478235484" lon="18.054349240702">
        <ele>44.6</ele>
        <time>2015-03-28T14:21:39Z</time>
      </trkpt>
      <trkpt lat="59.077796747684" lon="18.053900809052">
        <ele>44.6</ele>
        <time>2015-03-28T14:21:43Z</time>
      </trkpt>
      <trkpt lat="59.078026663201" lon="18.053686819145">
        <ele>44.6</ele>
        <time>2015-03-28T14:21:46Z</time>
      </trkpt>
      <trkpt lat="59.078101010654" lon="18.053645664016">
        <ele>44.6</ele>
        <time>2015-03-28T14:21:47Z</time>
      </trkpt>
      <trkpt lat="59.078242832402" lon="18.053599479747">
        <ele>45.2</ele>
        <time>2015-03-28T14:21:49Z</time>
      </trkpt>
      <trkpt lat="59.078313408" lon="18.05358330268">
        <ele>45.6</ele>
        <time>2015-03-28T14:21:50Z</time>
      </trkpt>
      <trkpt lat="59.078386665806" lon="18.053586320164">
        <ele>46.2</ele>
        <time>2015-03-28T14:21:51Z</time>
      </trkpt>
      <trkpt lat="59.078458498689" lon="18.053593612417">
        <ele>46.8</ele>
        <time>2015-03-28T14:21:52Z</time>
      </trkpt>
      <trkpt lat="59.078532929961" lon="18.053606939638">
        <ele>47.4</ele>
        <time>2015-03-28T14:21:53Z</time>
      </trkpt>
      <trkpt lat="59.078604343749" lon="18.053624709266">
        <ele>48</ele>
        <time>2015-03-28T14:21:54Z</time>
      </trkpt>
      <trkpt lat="59.078676176632" lon="18.053643400903">
        <ele>48.6</ele>
        <time>2015-03-28T14:21:55Z</time>
      </trkpt>
      <trkpt lat="59.07874675223" lon="18.053656728124">
        <ele>49</ele>
        <time>2015-03-28T14:21:56Z</time>
      </trkpt>
      <trkpt lat="59.078812885421" lon="18.053666199671">
        <ele>49.6</ele>
        <time>2015-03-28T14:21:57Z</time>
      </trkpt>
      <trkpt lat="59.07912812868" lon="18.053635521917">
        <ele>50.4</ele>
        <time>2015-03-28T14:22:01Z</time>
      </trkpt>
      <trkpt lat="59.079210103662" lon="18.05360341924">
        <ele>50.8</ele>
        <time>2015-03-28T14:22:02Z</time>
      </trkpt>
      <trkpt lat="59.079288558246" lon="18.05356821526">
        <ele>51.2</ele>
        <time>2015-03-28T14:22:03Z</time>
      </trkpt>
      <trkpt lat="59.079369862676" lon="18.053524294104">
        <ele>51.8</ele>
        <time>2015-03-28T14:22:04Z</time>
      </trkpt>
      <trkpt lat="59.079525179283" lon="18.053436787068">
        <ele>51.8</ele>
        <time>2015-03-28T14:22:06Z</time>
      </trkpt>
      <trkpt lat="59.080071679163" lon="18.053094134996">
        <ele>51.8</ele>
        <time>2015-03-28T14:22:13Z</time>
      </trkpt>
      <trkpt lat="59.080371835002" lon="18.052836391571">
        <ele>52.2</ele>
        <time>2015-03-28T14:22:17Z</time>
      </trkpt>
      <trkpt lat="59.080442326781" lon="18.052768079086">
        <ele>52.6</ele>
        <time>2015-03-28T14:22:18Z</time>
      </trkpt>
      <trkpt lat="59.080517344786" lon="18.052693815452">
        <ele>53</ele>
        <time>2015-03-28T14:22:19Z</time>
      </trkpt>
      <trkpt lat="59.080591440782" lon="18.052634387781">
        <ele>53.4</ele>
        <time>2015-03-28T14:22:20Z</time>
      </trkpt>
      <trkpt lat="59.080664195674" lon="18.052558783043">
        <ele>53.8</ele>
        <time>2015-03-28T14:22:21Z</time>
      </trkpt>
      <trkpt lat="59.080881538341" lon="18.052305565844">
        <ele>53.8</ele>
        <time>2015-03-28T14:22:24Z</time>
      </trkpt>
      <trkpt lat="59.081247995009" lon="18.051928464163">
        <ele>53.8</ele>
        <time>2015-03-28T14:22:29Z</time>
      </trkpt>
      <trkpt lat="59.081658875747" lon="18.051518421615">
        <ele>54.2</ele>
        <time>2015-03-28T14:22:35Z</time>
      </trkpt>
      <trkpt lat="59.081731714458" lon="18.051475673925">
        <ele>54.8</ele>
        <time>2015-03-28T14:22:36Z</time>
      </trkpt>
      <trkpt lat="59.081804636988" lon="18.051425969258">
        <ele>55.2</ele>
        <time>2015-03-28T14:22:37Z</time>
      </trkpt>
      <trkpt lat="59.081874793491" lon="18.051350783615">
        <ele>55.6</ele>
        <time>2015-03-28T14:22:38Z</time>
      </trkpt>
      <trkpt lat="59.08195869631" lon="18.051296971817">
        <ele>56</ele>
        <time>2015-03-28T14:22:39Z</time>
      </trkpt>
      <trkpt lat="59.082382652812" lon="18.050926408018">
        <ele>56</ele>
        <time>2015-03-28T14:22:45Z</time>
      </trkpt>
      <trkpt lat="59.082704769229" lon="18.050698587976">
        <ele>56</ele>
        <time>2015-03-28T14:22:49Z</time>
      </trkpt>
      <trkpt lat="59.083179017131" lon="18.050267003945">
        <ele>56</ele>
        <time>2015-03-28T14:22:55Z</time>
      </trkpt>
      <trkpt lat="59.083728618314" lon="18.049747074688">
        <ele>56</ele>
        <time>2015-03-28T14:23:02Z</time>
      </trkpt>
      <trkpt lat="59.084192305022" lon="18.049352287198">
        <ele>56</ele>
        <time>2015-03-28T14:23:08Z</time>
      </trkpt>
      <trkpt lat="59.084690189882" lon="18.048941909374">
        <ele>56</ele>
        <time>2015-03-28T14:23:14Z</time>
      </trkpt>
      <trkpt lat="59.08515890573" lon="18.048406305964">
        <ele>56</ele>
        <time>2015-03-28T14:23:20Z</time>
      </trkpt>
      <trkpt lat="59.085566936622" lon="18.047791828875">
        <ele>56</ele>
        <time>2015-03-28T14:23:26Z</time>
      </trkpt>
      <trkpt lat="59.086010255313" lon="18.047295871852">
        <ele>56</ele>
        <time>2015-03-28T14:23:32Z</time>
      </trkpt>
      <trkpt lat="59.086500680282" lon="18.046765716677">
        <ele>56</ele>
        <time>2015-03-28T14:23:38Z</time>
      </trkpt>
      <trkpt lat="59.086961433325" lon="18.046337233949">
        <ele>55.6</ele>
        <time>2015-03-28T14:23:43Z</time>
      </trkpt>
      <trkpt lat="59.087051287293" lon="18.04625333113">
        <ele>55.2</ele>
        <time>2015-03-28T14:23:44Z</time>
      </trkpt>
      <trkpt lat="59.087147511505" lon="18.046164566809">
        <ele>54.8</ele>
        <time>2015-03-28T14:23:45Z</time>
      </trkpt>
      <trkpt lat="59.087236527283" lon="18.046075718669">
        <ele>54.2</ele>
        <time>2015-03-28T14:23:46Z</time>
      </trkpt>
      <trkpt lat="59.08731724498" lon="18.045991145298">
        <ele>53.8</ele>
        <time>2015-03-28T14:23:47Z</time>
      </trkpt>
      <trkpt lat="59.087482200772" lon="18.045832727388">
        <ele>53.8</ele>
        <time>2015-03-28T14:23:49Z</time>
      </trkpt>
      <trkpt lat="59.087796773479" lon="18.045497116112">
        <ele>53.8</ele>
        <time>2015-03-28T14:23:53Z</time>
      </trkpt>
      <trkpt lat="59.087874892787" lon="18.04542771398">
        <ele>53.8</ele>
        <time>2015-03-28T14:23:54Z</time>
      </trkpt>
      <trkpt lat="59.08815627317" lon="18.045126719951">
        <ele>53.8</ele>
        <time>2015-03-28T14:23:58Z</time>
      </trkpt>
      <trkpt lat="59.08851250392" lon="18.044814913271">
        <ele>54.2</ele>
        <time>2015-03-28T14:24:03Z</time>
      </trkpt>
      <trkpt lat="59.088649715623" lon="18.044669319668">
        <ele>55.4</ele>
        <time>2015-03-28T14:24:05Z</time>
      </trkpt>
      <trkpt lat="59.088719872126" lon="18.04460209683">
        <ele>55.8</ele>
        <time>2015-03-28T14:24:06Z</time>
      </trkpt>
      <trkpt lat="59.08885951458" lon="18.044462789652">
        <ele>55.8</ele>
        <time>2015-03-28T14:24:08Z</time>
      </trkpt>
      <trkpt lat="59.089275340639" lon="18.044054004389">
        <ele>55.8</ele>
        <time>2015-03-28T14:24:14Z</time>
      </trkpt>
      <trkpt lat="59.089342060563" lon="18.043988793207">
        <ele>56.4</ele>
        <time>2015-03-28T14:24:15Z</time>
      </trkpt>
      <trkpt lat="59.089414563998" lon="18.043917630876">
        <ele>56.8</ele>
        <time>2015-03-28T14:24:16Z</time>
      </trkpt>
      <trkpt lat="59.089476254782" lon="18.043829537107">
        <ele>57.2</ele>
        <time>2015-03-28T14:24:17Z</time>
      </trkpt>
      <trkpt lat="59.089532748788" lon="18.043738593492">
        <ele>57.6</ele>
        <time>2015-03-28T14:24:18Z</time>
      </trkpt>
      <trkpt lat="59.089584297473" lon="18.043626359851">
        <ele>58</ele>
        <time>2015-03-28T14:24:19Z</time>
      </trkpt>
      <trkpt lat="59.089674570536" lon="18.043389403538">
        <ele>58</ele>
        <time>2015-03-28T14:24:21Z</time>
      </trkpt>
      <trkpt lat="59.089713378733" lon="18.043264177952">
        <ele>58.4</ele>
        <time>2015-03-28T14:24:22Z</time>
      </trkpt>
      <trkpt lat="59.089752606025" lon="18.043137108348">
        <ele>58.8</ele>
        <time>2015-03-28T14:24:23Z</time>
      </trkpt>
      <trkpt lat="59.089790827489" lon="18.043021857223">
        <ele>59.2</ele>
        <time>2015-03-28T14:24:24Z</time>
      </trkpt>
      <trkpt lat="59.089819661225" lon="18.042893278877">
        <ele>59.6</ele>
        <time>2015-03-28T14:24:25Z</time>
      </trkpt>
      <trkpt lat="59.089861570725" lon="18.042769478214">
        <ele>60.2</ele>
        <time>2015-03-28T14:24:26Z</time>
      </trkpt>
      <trkpt lat="59.089950083589" lon="18.042535204109">
        <ele>60.2</ele>
        <time>2015-03-28T14:24:28Z</time>
      </trkpt>
      <trkpt lat="59.089993501831" lon="18.04241442093">
        <ele>61</ele>
        <time>2015-03-28T14:24:29Z</time>
      </trkpt>
      <trkpt lat="59.090040943385" lon="18.042293637751">
        <ele>61.4</ele>
        <time>2015-03-28T14:24:30Z</time>
      </trkpt>
      <trkpt lat="59.090080422134" lon="18.042171597287">
        <ele>61.8</ele>
        <time>2015-03-28T14:24:31Z</time>
      </trkpt>
      <trkpt lat="59.090122918367" lon="18.042050897927">
        <ele>62.2</ele>
        <time>2015-03-28T14:24:32Z</time>
      </trkpt>
      <trkpt lat="59.090202127322" lon="18.041790975208">
        <ele>62.2</ele>
        <time>2015-03-28T14:24:34Z</time>
      </trkpt>
      <trkpt lat="59.090480825497" lon="18.040923364739">
        <ele>61.6</ele>
        <time>2015-03-28T14:24:40Z</time>
      </trkpt>
      <trkpt lat="59.090520639522" lon="18.04075061378">
        <ele>61.2</ele>
        <time>2015-03-28T14:24:41Z</time>
      </trkpt>
      <trkpt lat="59.090561124099" lon="18.040582472866">
        <ele>60.8</ele>
        <time>2015-03-28T14:24:42Z</time>
      </trkpt>
      <trkpt lat="59.090613343336" lon="18.040415673056">
        <ele>60.2</ele>
        <time>2015-03-28T14:24:43Z</time>
      </trkpt>
      <trkpt lat="59.09067000498" lon="18.040249124703">
        <ele>59.8</ele>
        <time>2015-03-28T14:24:44Z</time>
      </trkpt>
      <trkpt lat="59.09073789837" lon="18.040088276042">
        <ele>59.8</ele>
        <time>2015-03-28T14:24:45Z</time>
      </trkpt>
      <trkpt lat="59.090801265534" lon="18.039930696322">
        <ele>59.4</ele>
        <time>2015-03-28T14:24:46Z</time>
      </trkpt>
      <trkpt lat="59.090861363757" lon="18.039760124657">
        <ele>58.8</ele>
        <time>2015-03-28T14:24:47Z</time>
      </trkpt>
      <trkpt lat="59.090924479464" lon="18.03957463321">
        <ele>58.4</ele>
        <time>2015-03-28T14:24:48Z</time>
      </trkpt>
      <trkpt lat="59.090977536891" lon="18.039374221981">
        <ele>57.8</ele>
        <time>2015-03-28T14:24:49Z</time>
      </trkpt>
      <trkpt lat="59.091034282354" lon="18.039184958679">
        <ele>57.4</ele>
        <time>2015-03-28T14:24:50Z</time>
      </trkpt>
      <trkpt lat="59.091104857952" lon="18.039016650127">
        <ele>56.8</ele>
        <time>2015-03-28T14:24:51Z</time>
      </trkpt>
      <trkpt lat="59.091186413839" lon="18.038848341575">
        <ele>56.2</ele>
        <time>2015-03-28T14:24:52Z</time>
      </trkpt>
      <trkpt lat="59.091269729925" lon="18.038701658325">
        <ele>55.6</ele>
        <time>2015-03-28T14:24:53Z</time>
      </trkpt>
      <trkpt lat="59.091351285812" lon="18.038558830749">
        <ele>55</ele>
        <time>2015-03-28T14:24:54Z</time>
      </trkpt>
      <trkpt lat="59.091428650749" lon="18.038412650413">
        <ele>54.6</ele>
        <time>2015-03-28T14:24:55Z</time>
      </trkpt>
      <trkpt lat="59.09150232765" lon="18.038266721534">
        <ele>54.2</ele>
        <time>2015-03-28T14:24:56Z</time>
      </trkpt>
      <trkpt lat="59.091573657619" lon="18.038122636673">
        <ele>53.6</ele>
        <time>2015-03-28T14:24:57Z</time>
      </trkpt>
      <trkpt lat="59.091645993416" lon="18.037987520445">
        <ele>53.2</ele>
        <time>2015-03-28T14:24:58Z</time>
      </trkpt>
      <trkpt lat="59.091719837955" lon="18.037849470552">
        <ele>52.8</ele>
        <time>2015-03-28T14:24:59Z</time>
      </trkpt>
      <trkpt lat="59.092064082588" lon="18.037334486616">
        <ele>52.8</ele>
        <time>2015-03-28T14:25:03Z</time>
      </trkpt>
      <trkpt lat="59.092469431272" lon="18.036965515378">
        <ele>52.8</ele>
        <time>2015-03-28T14:25:07Z</time>
      </trkpt>
      <trkpt lat="59.092682918265" lon="18.036865938406">
        <ele>52.4</ele>
        <time>2015-03-28T14:25:09Z</time>
      </trkpt>
      <trkpt lat="59.092798420847" lon="18.036857472687">
        <ele>51.8</ele>
        <time>2015-03-28T14:25:10Z</time>
      </trkpt>
      <trkpt lat="59.092911241221" lon="18.036858310877">
        <ele>51.4</ele>
        <time>2015-03-28T14:25:11Z</time>
      </trkpt>
      <trkpt lat="59.093018194265" lon="18.036861076904">
        <ele>51</ele>
        <time>2015-03-28T14:25:12Z</time>
      </trkpt>
      <trkpt lat="59.093127661879" lon="18.036867363329">
        <ele>50.6</ele>
        <time>2015-03-28T14:25:13Z</time>
      </trkpt>
      <trkpt lat="59.0933421547" lon="18.036885132957">
        <ele>50.6</ele>
        <time>2015-03-28T14:25:15Z</time>
      </trkpt>
      <trkpt lat="59.093955290685" lon="18.037017483158">
        <ele>50.6</ele>
        <time>2015-03-28T14:25:21Z</time>
      </trkpt>
      <trkpt lat="59.094243544226" lon="18.037066181997">
        <ele>51</ele>
        <time>2015-03-28T14:25:24Z</time>
      </trkpt>
      <trkpt lat="59.094335745126" lon="18.037067020187">
        <ele>51.4</ele>
        <time>2015-03-28T14:25:25Z</time>
      </trkpt>
      <trkpt lat="59.094425850551" lon="18.037067104006">
        <ele>51.8</ele>
        <time>2015-03-28T14:25:26Z</time>
      </trkpt>
      <trkpt lat="59.094514531053" lon="18.037054950251">
        <ele>52.2</ele>
        <time>2015-03-28T14:25:27Z</time>
      </trkpt>
      <trkpt lat="59.094600780804" lon="18.037042628858">
        <ele>52.6</ele>
        <time>2015-03-28T14:25:28Z</time>
      </trkpt>
      <trkpt lat="59.094769676089" lon="18.03702402104">
        <ele>53</ele>
        <time>2015-03-28T14:25:30Z</time>
      </trkpt>
      <trkpt lat="59.094926417619" lon="18.036997953331">
        <ele>53.8</ele>
        <time>2015-03-28T14:25:31Z</time>
      </trkpt>
      <trkpt lat="59.095001267986" lon="18.036985715757">
        <ele>54.2</ele>
        <time>2015-03-28T14:25:33Z</time>
      </trkpt>
      <trkpt lat="59.095081063674" lon="18.036970963613">
        <ele>54.8</ele>
        <time>2015-03-28T14:25:34Z</time>
      </trkpt>
      <trkpt lat="59.095159015344" lon="18.036957636392">
        <ele>55.2</ele>
        <time>2015-03-28T14:25:35Z</time>
      </trkpt>
      <trkpt lat="59.095240152136" lon="18.036942884248">
        <ele>55.8</ele>
        <time>2015-03-28T14:25:36Z</time>
      </trkpt>
      <trkpt lat="59.095317936168" lon="18.036922516231">
        <ele>56.2</ele>
        <time>2015-03-28T14:25:37Z</time>
      </trkpt>
      <trkpt lat="59.095397061304" lon="18.036901896757">
        <ele>56.8</ele>
        <time>2015-03-28T14:25:38Z</time>
      </trkpt>
      <trkpt lat="59.095641477508" lon="18.036818915947">
        <ele>56.8</ele>
        <time>2015-03-28T14:25:41Z</time>
      </trkpt>
      <trkpt lat="59.096137769807" lon="18.036587072593">
        <ele>56.8</ele>
        <time>2015-03-28T14:25:47Z</time>
      </trkpt>
      <trkpt lat="59.096683850592" lon="18.036459248618">
        <ele>56.8</ele>
        <time>2015-03-28T14:25:53Z</time>
      </trkpt>
      <trkpt lat="59.096959196007" lon="18.036519263022">
        <ele>56.8</ele>
        <time>2015-03-28T14:25:56Z</time>
      </trkpt>
      <trkpt lat="59.097135970278" lon="18.036599142529">
        <ele>56.8</ele>
        <time>2015-03-28T14:25:58Z</time>
      </trkpt>
      <trkpt lat="59.097556238744" lon="18.036861663637">
        <ele>56.8</ele>
        <time>2015-03-28T14:26:03Z</time>
      </trkpt>
      <trkpt lat="59.097637207898" lon="18.036955038003">
        <ele>56.8</ele>
        <time>2015-03-28T14:26:04Z</time>
      </trkpt>
      <trkpt lat="59.097872320193" lon="18.037241363707">
        <ele>56.8</ele>
        <time>2015-03-28T14:26:07Z</time>
      </trkpt>
      <trkpt lat="59.098215642817" lon="18.037837149159">
        <ele>56.8</ele>
        <time>2015-03-28T14:26:12Z</time>
      </trkpt>
      <trkpt lat="59.098594085602" lon="18.038387504713">
        <ele>56.8</ele>
        <time>2015-03-28T14:26:17Z</time>
      </trkpt>
      <trkpt lat="59.098672037272" lon="18.038738287228">
        <ele>56.8</ele>
        <time>2015-03-28T14:26:19Z</time>
      </trkpt>
      <trkpt lat="59.09880882988" lon="18.039420657707">
        <ele>56.8</ele>
        <time>2015-03-28T14:26:23Z</time>
      </trkpt>
      <trkpt lat="59.098846632249" lon="18.039591480829">
        <ele>56.8</ele>
        <time>2015-03-28T14:26:24Z</time>
      </trkpt>
      <trkpt lat="59.098870688302" lon="18.03978418071">
        <ele>56.8</ele>
        <time>2015-03-28T14:26:25Z</time>
      </trkpt>
      <trkpt lat="59.098864234239" lon="18.040146781704">
        <ele>56.8</ele>
        <time>2015-03-28T14:26:27Z</time>
      </trkpt>
      <trkpt lat="59.098854259778" lon="18.040666208047">
        <ele>57.2</ele>
        <time>2015-03-28T14:26:30Z</time>
      </trkpt>
      <trkpt lat="59.098866078257" lon="18.0408243745">
        <ele>57.6</ele>
        <time>2015-03-28T14:26:31Z</time>
      </trkpt>
      <trkpt lat="59.098890469586" lon="18.040989330292">
        <ele>58.4</ele>
        <time>2015-03-28T14:26:32Z</time>
      </trkpt>
      <trkpt lat="59.098937408226" lon="18.041150346591">
        <ele>59</ele>
        <time>2015-03-28T14:26:33Z</time>
      </trkpt>
      <trkpt lat="59.099097334878" lon="18.041358720625">
        <ele>59</ele>
        <time>2015-03-28T14:26:35Z</time>
      </trkpt>
      <trkpt lat="59.099396568708" lon="18.041466763316">
        <ele>58.4</ele>
        <time>2015-03-28T14:26:38Z</time>
      </trkpt>
      <trkpt lat="59.099469491238" lon="18.041572375256">
        <ele>58</ele>
        <time>2015-03-28T14:26:39Z</time>
      </trkpt>
      <trkpt lat="59.09952464414" lon="18.04171117952">
        <ele>57.6</ele>
        <time>2015-03-28T14:26:40Z</time>
      </trkpt>
      <trkpt lat="59.099561943595" lon="18.041873034009">
        <ele>57.2</ele>
        <time>2015-03-28T14:26:41Z</time>
      </trkpt>
      <trkpt lat="59.099594297729" lon="18.042049724461">
        <ele>56.8</ele>
        <time>2015-03-28T14:26:42Z</time>
      </trkpt>
      <trkpt lat="59.099623047646" lon="18.042222307782">
        <ele>56.8</ele>
        <time>2015-03-28T14:26:43Z</time>
      </trkpt>
      <trkpt lat="59.099659005997" lon="18.042390700153">
        <ele>56.4</ele>
        <time>2015-03-28T14:26:44Z</time>
      </trkpt>
      <trkpt lat="59.099720612962" lon="18.042563534931">
        <ele>56</ele>
        <time>2015-03-28T14:26:45Z</time>
      </trkpt>
      <trkpt lat="59.099802336487" lon="18.042695968951">
        <ele>55.6</ele>
        <time>2015-03-28T14:26:46Z</time>
      </trkpt>
      <trkpt lat="59.099902248735" lon="18.042791941706">
        <ele>55.2</ele>
        <time>2015-03-28T14:26:47Z</time>
      </trkpt>
      <trkpt lat="59.100003585906" lon="18.042881376579">
        <ele>54.6</ele>
        <time>2015-03-28T14:26:48Z</time>
      </trkpt>
      <trkpt lat="59.100106515638" lon="18.04295924443">
        <ele>54.2</ele>
        <time>2015-03-28T14:26:49Z</time>
      </trkpt>
      <trkpt lat="59.100208690999" lon="18.043026467268">
        <ele>53.6</ele>
        <time>2015-03-28T14:26:50Z</time>
      </trkpt>
      <trkpt lat="59.10031421912" lon="18.04306317999">
        <ele>53</ele>
        <time>2015-03-28T14:26:51Z</time>
      </trkpt>
      <trkpt lat="59.100423016182" lon="18.043039291575">
        <ele>52.6</ele>
        <time>2015-03-28T14:26:52Z</time>
      </trkpt>
      <trkpt lat="59.10053047214" lon="18.042952874186">
        <ele>52</ele>
        <time>2015-03-28T14:26:53Z</time>
      </trkpt>
      <trkpt lat="59.100618062995" lon="18.042829660256">
        <ele>51.6</ele>
        <time>2015-03-28T14:26:54Z</time>
      </trkpt>
      <trkpt lat="59.100700792348" lon="18.042703428842">
        <ele>51</ele>
        <time>2015-03-28T14:26:55Z</time>
      </trkpt>
      <trkpt lat="59.100779330751" lon="18.042579628179">
        <ele>50.4</ele>
        <time>2015-03-28T14:26:56Z</time>
      </trkpt>
      <trkpt lat="59.100856025136" lon="18.042453061489">
        <ele>49.2</ele>
        <time>2015-03-28T14:26:57Z</time>
      </trkpt>
      <trkpt lat="59.100933390073" lon="18.04231970546">
        <ele>48.6</ele>
        <time>2015-03-28T14:26:58Z</time>
      </trkpt>
      <trkpt lat="59.101006396422" lon="18.042194060779">
        <ele>48</ele>
        <time>2015-03-28T14:26:59Z</time>
      </trkpt>
      <trkpt lat="59.101276628878" lon="18.041719729058">
        <ele>47.4</ele>
        <time>2015-03-28T14:27:03Z</time>
      </trkpt>
      <trkpt lat="59.10134100187" lon="18.041616380231">
        <ele>47</ele>
        <time>2015-03-28T14:27:04Z</time>
      </trkpt>
      <trkpt lat="59.101400680998" lon="18.041518731096">
        <ele>46.6</ele>
        <time>2015-03-28T14:27:05Z</time>
      </trkpt>
      <trkpt lat="59.101468825845" lon="18.041438851589">
        <ele>46.2</ele>
        <time>2015-03-28T14:27:06Z</time>
      </trkpt>
      <trkpt lat="59.101536886873" lon="18.041361738109">
        <ele>45.8</ele>
        <time>2015-03-28T14:27:07Z</time>
      </trkpt>
      <trkpt lat="59.101598410019" lon="18.04128454081">
        <ele>45.8</ele>
        <time>2015-03-28T14:27:08Z</time>
      </trkpt>
      <trkpt lat="59.101797312506" lon="18.04109594806">
        <ele>45.8</ele>
        <time>2015-03-28T14:27:11Z</time>
      </trkpt>
      <trkpt lat="59.101867301371" lon="18.041082704658">
        <ele>45.8</ele>
        <time>2015-03-28T14:27:12Z</time>
      </trkpt>
      <trkpt lat="59.101968554723" lon="18.041168535314">
        <ele>45.8</ele>
        <time>2015-03-28T14:27:14Z</time>
      </trkpt>
      <trkpt lat="59.102101826933" lon="18.041474893759">
        <ele>45.8</ele>
        <time>2015-03-28T14:27:17Z</time>
      </trkpt>
      <trkpt lat="59.102170977608" lon="18.0417547654">
        <ele>45.8</ele>
        <time>2015-03-28T14:27:19Z</time>
      </trkpt>
      <trkpt lat="59.102279439394" lon="18.042230941139">
        <ele>45.8</ele>
        <time>2015-03-28T14:27:22Z</time>
      </trkpt>
      <trkpt lat="59.102466188126" lon="18.043020935214">
        <ele>45.8</ele>
        <time>2015-03-28T14:27:27Z</time>
      </trkpt>
      <trkpt lat="59.102635753963" lon="18.043763739192">
        <ele>45.8</ele>
        <time>2015-03-28T14:27:32Z</time>
      </trkpt>
      <trkpt lat="59.102767014517" lon="18.044244944071">
        <ele>45.8</ele>
        <time>2015-03-28T14:27:36Z</time>
      </trkpt>
      <trkpt lat="59.102825520179" lon="18.044293726729">
        <ele>45.8</ele>
        <time>2015-03-28T14:27:37Z</time>
      </trkpt>
      <trkpt lat="59.103021908096" lon="18.044229186099">
        <ele>45.8</ele>
        <time>2015-03-28T14:27:40Z</time>
      </trkpt>
      <trkpt lat="59.103236233279" lon="18.044039755159">
        <ele>45.8</ele>
        <time>2015-03-28T14:27:43Z</time>
      </trkpt>
      <trkpt lat="59.103316950976" lon="18.04398099804">
        <ele>45.8</ele>
        <time>2015-03-28T14:27:44Z</time>
      </trkpt>
      <trkpt lat="59.103392639533" lon="18.043920480722">
        <ele>45.4</ele>
        <time>2015-03-28T14:27:45Z</time>
      </trkpt>
      <trkpt lat="59.103474782153" lon="18.043852168237">
        <ele>45</ele>
        <time>2015-03-28T14:27:46Z</time>
      </trkpt>
      <trkpt lat="59.103557343868" lon="18.043797350611">
        <ele>44.4</ele>
        <time>2015-03-28T14:27:47Z</time>
      </trkpt>
      <trkpt lat="59.103637223375" lon="18.043731887972">
        <ele>44</ele>
        <time>2015-03-28T14:27:48Z</time>
      </trkpt>
      <trkpt lat="59.103716013235" lon="18.043666341514">
        <ele>43.6</ele>
        <time>2015-03-28T14:27:49Z</time>
      </trkpt>
      <trkpt lat="59.103797485303" lon="18.043604986006">
        <ele>43.6</ele>
        <time>2015-03-28T14:27:50Z</time>
      </trkpt>
      <trkpt lat="59.104367789779" lon="18.043161080582">
        <ele>43.6</ele>
        <time>2015-03-28T14:27:57Z</time>
      </trkpt>
      <trkpt lat="59.104787890607" lon="18.042849944454">
        <ele>43.6</ele>
        <time>2015-03-28T14:28:02Z</time>
      </trkpt>
      <trkpt lat="59.105298767412" lon="18.042446858883">
        <ele>43.6</ele>
        <time>2015-03-28T14:28:08Z</time>
      </trkpt>
      <trkpt lat="59.105858678332" lon="18.041974203542">
        <ele>43.6</ele>
        <time>2015-03-28T14:28:15Z</time>
      </trkpt>
      <trkpt lat="59.106432084111" lon="18.041560892053">
        <ele>43.6</ele>
        <time>2015-03-28T14:28:22Z</time>
      </trkpt>
      <trkpt lat="59.10650844322" lon="18.041501548201">
        <ele>43.6</ele>
        <time>2015-03-28T14:28:23Z</time>
      </trkpt>
      <trkpt lat="59.107004484062" lon="18.041114723516">
        <ele>43.6</ele>
        <time>2015-03-28T14:28:29Z</time>
      </trkpt>
      <trkpt lat="59.10732232571" lon="18.040866870733">
        <ele>44</ele>
        <time>2015-03-28T14:28:33Z</time>
      </trkpt>
      <trkpt lat="59.107400947932" lon="18.040805012311">
        <ele>44.4</ele>
        <time>2015-03-28T14:28:34Z</time>
      </trkpt>
      <trkpt lat="59.107479821611" lon="18.040748266848">
        <ele>45.2</ele>
        <time>2015-03-28T14:28:35Z</time>
      </trkpt>
      <trkpt lat="59.107564897896" lon="18.040686827521">
        <ele>45.6</ele>
        <time>2015-03-28T14:28:36Z</time>
      </trkpt>
      <trkpt lat="59.107724908367" lon="18.040554561139">
        <ele>45.6</ele>
        <time>2015-03-28T14:28:38Z</time>
      </trkpt>
      <trkpt lat="59.108285657477" lon="18.040112248276">
        <ele>45.6</ele>
        <time>2015-03-28T14:28:45Z</time>
      </trkpt>
      <trkpt lat="59.108360172568" lon="18.040047204732">
        <ele>45.6</ele>
        <time>2015-03-28T14:28:46Z</time>
      </trkpt>
      <trkpt lat="59.108745320873" lon="18.039746545979">
        <ele>46</ele>
        <time>2015-03-28T14:28:51Z</time>
      </trkpt>
      <trkpt lat="59.108824446009" lon="18.039688207955">
        <ele>46.6</ele>
        <time>2015-03-28T14:28:52Z</time>
      </trkpt>
      <trkpt lat="59.108900972756" lon="18.039622158583">
        <ele>47</ele>
        <time>2015-03-28T14:28:53Z</time>
      </trkpt>
      <trkpt lat="59.108977583322" lon="18.039562479455">
        <ele>47.4</ele>
        <time>2015-03-28T14:28:54Z</time>
      </trkpt>
      <trkpt lat="59.109057043734" lon="18.039504057612">
        <ele>47.8</ele>
        <time>2015-03-28T14:28:55Z</time>
      </trkpt>
      <trkpt lat="59.109129128074" lon="18.039410850884">
        <ele>47.8</ele>
        <time>2015-03-28T14:28:56Z</time>
      </trkpt>
      <trkpt lat="59.10926273556" lon="18.039175487132">
        <ele>47.8</ele>
        <time>2015-03-28T14:28:58Z</time>
      </trkpt>
      <trkpt lat="59.109377651409" lon="18.038914558585">
        <ele>47.8</ele>
        <time>2015-03-28T14:29:00Z</time>
      </trkpt>
      <trkpt lat="59.109537745699" lon="18.038503258752">
        <ele>47.8</ele>
        <time>2015-03-28T14:29:03Z</time>
      </trkpt>
      <trkpt lat="59.109911829896" lon="18.03760069576">
        <ele>47.8</ele>
        <time>2015-03-28T14:29:10Z</time>
      </trkpt>
      <trkpt lat="59.109965893151" lon="18.037477649468">
        <ele>47.8</ele>
        <time>2015-03-28T14:29:11Z</time>
      </trkpt>
      <trkpt lat="59.110342659556" lon="18.036608111162">
        <ele>47.8</ele>
        <time>2015-03-28T14:29:18Z</time>
      </trkpt>
      <trkpt lat="59.110523624777" lon="18.036302255631">
        <ele>47.8</ele>
        <time>2015-03-28T14:29:21Z</time>
      </trkpt>
      <trkpt lat="59.110897625155" lon="18.035764808203">
        <ele>47.8</ele>
        <time>2015-03-28T14:29:27Z</time>
      </trkpt>
      <trkpt lat="59.111085547353" lon="18.035513015927">
        <ele>48.2</ele>
        <time>2015-03-28T14:29:30Z</time>
      </trkpt>
      <trkpt lat="59.111150926173" lon="18.035434142248">
        <ele>48.6</ele>
        <time>2015-03-28T14:29:31Z</time>
      </trkpt>
      <trkpt lat="59.111213119871" lon="18.035354514198">
        <ele>49</ele>
        <time>2015-03-28T14:29:32Z</time>
      </trkpt>
      <trkpt lat="59.111276654673" lon="18.035277149261">
        <ele>49.4</ele>
        <time>2015-03-28T14:29:33Z</time>
      </trkpt>
      <trkpt lat="59.111341865855" lon="18.035214033554">
        <ele>49.8</ele>
        <time>2015-03-28T14:29:34Z</time>
      </trkpt>
      <trkpt lat="59.111746963082" lon="18.034873896052">
        <ele>49.8</ele>
        <time>2015-03-28T14:29:40Z</time>
      </trkpt>
      <trkpt lat="59.111941171705" lon="18.03475839347">
        <ele>50.2</ele>
        <time>2015-03-28T14:29:43Z</time>
      </trkpt>
      <trkpt lat="59.112011579665" lon="18.034723608585">
        <ele>50.6</ele>
        <time>2015-03-28T14:29:44Z</time>
      </trkpt>
      <trkpt lat="59.112076371752" lon="18.034690583899">
        <ele>51</ele>
        <time>2015-03-28T14:29:45Z</time>
      </trkpt>
      <trkpt lat="59.112142421124" lon="18.034664348552">
        <ele>51.4</ele>
        <time>2015-03-28T14:29:46Z</time>
      </trkpt>
      <trkpt lat="59.112209224867" lon="18.034634173712">
        <ele>51.8</ele>
        <time>2015-03-28T14:29:47Z</time>
      </trkpt>
      <trkpt lat="59.112340736878" lon="18.034591006927">
        <ele>52.2</ele>
        <time>2015-03-28T14:29:49Z</time>
      </trkpt>
      <trkpt lat="59.11240510987" lon="18.034567537607">
        <ele>52.6</ele>
        <time>2015-03-28T14:29:50Z</time>
      </trkpt>
      <trkpt lat="59.112467890301" lon="18.034543146278">
        <ele>53</ele>
        <time>2015-03-28T14:29:51Z</time>
      </trkpt>
      <trkpt lat="59.112533939673" lon="18.034519257863">
        <ele>53.4</ele>
        <time>2015-03-28T14:29:52Z</time>
      </trkpt>
      <trkpt lat="59.112598145027" lon="18.034509283402">
        <ele>53.8</ele>
        <time>2015-03-28T14:29:53Z</time>
      </trkpt>
      <trkpt lat="59.112665703141" lon="18.034500650045">
        <ele>53.8</ele>
        <time>2015-03-28T14:29:54Z</time>
      </trkpt>
      <trkpt lat="59.112846752181" lon="18.034430242085">
        <ele>54.4</ele>
        <time>2015-03-28T14:29:57Z</time>
      </trkpt>
      <trkpt lat="59.11290383292" lon="18.034376765563">
        <ele>55</ele>
        <time>2015-03-28T14:29:58Z</time>
      </trkpt>
      <trkpt lat="59.112960243107" lon="18.034294371486">
        <ele>55.4</ele>
        <time>2015-03-28T14:29:59Z</time>
      </trkpt>
      <trkpt lat="59.113006595014" lon="18.034224717897">
        <ele>56</ele>
        <time>2015-03-28T14:30:00Z</time>
      </trkpt>
      <trkpt lat="59.113053785111" lon="18.034120614699">
        <ele>56.4</ele>
        <time>2015-03-28T14:30:01Z</time>
      </trkpt>
      <trkpt lat="59.113162582173" lon="18.03395456926">
        <ele>56.4</ele>
        <time>2015-03-28T14:30:03Z</time>
      </trkpt>
      <trkpt lat="59.113322257368" lon="18.033685007356">
        <ele>56.8</ele>
        <time>2015-03-28T14:30:06Z</time>
      </trkpt>
      <trkpt lat="59.113375566252" lon="18.033589872791">
        <ele>57.2</ele>
        <time>2015-03-28T14:30:07Z</time>
      </trkpt>
      <trkpt lat="59.113422421073" lon="18.03348518286">
        <ele>57.6</ele>
        <time>2015-03-28T14:30:08Z</time>
      </trkpt>
      <trkpt lat="59.113474556491" lon="18.033383175137">
        <ele>58</ele>
        <time>2015-03-28T14:30:09Z</time>
      </trkpt>
      <trkpt lat="59.113522752416" lon="18.033274294256">
        <ele>58.6</ele>
        <time>2015-03-28T14:30:10Z</time>
      </trkpt>
      <trkpt lat="59.113636913894" lon="18.032899455688">
        <ele>58.6</ele>
        <time>2015-03-28T14:30:13Z</time>
      </trkpt>
      <trkpt lat="59.113668010743" lon="18.032750844601">
        <ele>58.6</ele>
        <time>2015-03-28T14:30:14Z</time>
      </trkpt>
      <trkpt lat="59.113684942181" lon="18.032588487198">
        <ele>58.6</ele>
        <time>2015-03-28T14:30:15Z</time>
      </trkpt>
      <trkpt lat="59.113697515031" lon="18.032269052989">
        <ele>58.6</ele>
        <time>2015-03-28T14:30:17Z</time>
      </trkpt>
      <trkpt lat="59.113713608279" lon="18.03198901371">
        <ele>58.6</ele>
        <time>2015-03-28T14:30:19Z</time>
      </trkpt>
      <trkpt lat="59.113697347393" lon="18.031830176705">
        <ele>58.6</ele>
        <time>2015-03-28T14:30:20Z</time>
      </trkpt>
      <trkpt lat="59.113679493946" lon="18.030990394144">
        <ele>58.6</ele>
        <time>2015-03-28T14:30:25Z</time>
      </trkpt>
      <trkpt lat="59.113709501148" lon="18.030485887583">
        <ele>58</ele>
        <time>2015-03-28T14:30:28Z</time>
      </trkpt>
      <trkpt lat="59.113720900532" lon="18.030285979268">
        <ele>57.6</ele>
        <time>2015-03-28T14:30:29Z</time>
      </trkpt>
      <trkpt lat="59.113734143934" lon="18.030093195568">
        <ele>57</ele>
        <time>2015-03-28T14:30:30Z</time>
      </trkpt>
      <trkpt lat="59.113750656277" lon="18.029903848447">
        <ele>56.6</ele>
        <time>2015-03-28T14:30:31Z</time>
      </trkpt>
      <trkpt lat="59.113776891624" lon="18.029715255697">
        <ele>56</ele>
        <time>2015-03-28T14:30:32Z</time>
      </trkpt>
      <trkpt lat="59.113808491387" lon="18.029535799218">
        <ele>55.6</ele>
        <time>2015-03-28T14:30:33Z</time>
      </trkpt>
      <trkpt lat="59.113840510245" lon="18.029352989979">
        <ele>55</ele>
        <time>2015-03-28T14:30:34Z</time>
      </trkpt>
      <trkpt lat="59.113873870207" lon="18.029161966478">
        <ele>54.6</ele>
        <time>2015-03-28T14:30:35Z</time>
      </trkpt>
      <trkpt lat="59.113929358385" lon="18.028987371501">
        <ele>54</ele>
        <time>2015-03-28T14:30:36Z</time>
      </trkpt>
      <trkpt lat="59.114061708586" lon="18.028711187896">
        <ele>54</ele>
        <time>2015-03-28T14:30:38Z</time>
      </trkpt>
      <trkpt lat="59.11426505348" lon="18.028410361505">
        <ele>54</ele>
        <time>2015-03-28T14:30:41Z</time>
      </trkpt>
      <trkpt lat="59.114333198327" lon="18.028325369039">
        <ele>54</ele>
        <time>2015-03-28T14:30:42Z</time>
      </trkpt>
      <trkpt lat="59.114395308206" lon="18.028214225045">
        <ele>54</ele>
        <time>2015-03-28T14:30:43Z</time>
      </trkpt>
      <trkpt lat="59.114581721662" lon="18.02783913502">
        <ele>54</ele>
        <time>2015-03-28T14:30:46Z</time>
      </trkpt>
      <trkpt lat="59.11464642993" lon="18.027715585814">
        <ele>53.6</ele>
        <time>2015-03-28T14:30:47Z</time>
      </trkpt>
      <trkpt lat="59.114705187049" lon="18.027584409079">
        <ele>53.2</ele>
        <time>2015-03-28T14:30:48Z</time>
      </trkpt>
      <trkpt lat="59.1147662911" lon="18.027452645611">
        <ele>52.8</ele>
        <time>2015-03-28T14:30:49Z</time>
      </trkpt>
      <trkpt lat="59.114836866698" lon="18.02731191351">
        <ele>52.4</ele>
        <time>2015-03-28T14:30:50Z</time>
      </trkpt>
      <trkpt lat="59.114897467835" lon="18.027198254946">
        <ele>52</ele>
        <time>2015-03-28T14:30:51Z</time>
      </trkpt>
      <trkpt lat="59.115036775013" lon="18.026969261438">
        <ele>52</ele>
        <time>2015-03-28T14:30:53Z</time>
      </trkpt>
      <trkpt lat="59.115394514505" lon="18.026446482335">
        <ele>52</ele>
        <time>2015-03-28T14:30:58Z</time>
      </trkpt>
      <trkpt lat="59.115739345871" lon="18.026020681815">
        <ele>52</ele>
        <time>2015-03-28T14:31:03Z</time>
      </trkpt>
      <trkpt lat="59.115906397138" lon="18.025854636376">
        <ele>52</ele>
        <time>2015-03-28T14:31:05Z</time>
      </trkpt>
      <trkpt lat="59.116320714455" lon="18.02525499525">
        <ele>52</ele>
        <time>2015-03-28T14:31:11Z</time>
      </trkpt>
      <trkpt lat="59.116437055227" lon="18.02498174531">
        <ele>52</ele>
        <time>2015-03-28T14:31:13Z</time>
      </trkpt>
      <trkpt lat="59.116601843381" lon="18.02459114877">
        <ele>52</ele>
        <time>2015-03-28T14:31:16Z</time>
      </trkpt>
      <trkpt lat="59.116924881807" lon="18.023701158628">
        <ele>52</ele>
        <time>2015-03-28T14:31:22Z</time>
      </trkpt>
      <trkpt lat="59.117214727909" lon="18.022823070784">
        <ele>52</ele>
        <time>2015-03-28T14:31:28Z</time>
      </trkpt>
      <trkpt lat="59.117253033192" lon="18.022659791372">
        <ele>52</ele>
        <time>2015-03-28T14:31:29Z</time>
      </trkpt>
      <trkpt lat="59.117327045369" lon="18.022150423309">
        <ele>52</ele>
        <time>2015-03-28T14:31:32Z</time>
      </trkpt>
      <trkpt lat="59.117357639304" lon="18.021811459273">
        <ele>52</ele>
        <time>2015-03-28T14:31:34Z</time>
      </trkpt>
      <trkpt lat="59.117467442194" lon="18.02080672092">
        <ele>52</ele>
        <time>2015-03-28T14:31:40Z</time>
      </trkpt>
      <trkpt lat="59.117631978891" lon="18.020040866717">
        <ele>52</ele>
        <time>2015-03-28T14:31:45Z</time>
      </trkpt>
      <trkpt lat="59.117900534967" lon="18.019129083635">
        <ele>52</ele>
        <time>2015-03-28T14:31:52Z</time>
      </trkpt>
      <trkpt lat="59.117931799454" lon="18.019012742863">
        <ele>52.6</ele>
        <time>2015-03-28T14:31:53Z</time>
      </trkpt>
      <trkpt lat="59.117962141932" lon="18.018902185602">
        <ele>53</ele>
        <time>2015-03-28T14:31:54Z</time>
      </trkpt>
      <trkpt lat="59.118001033948" lon="18.018771763238">
        <ele>53.6</ele>
        <time>2015-03-28T14:31:55Z</time>
      </trkpt>
      <trkpt lat="59.118044619828" lon="18.01866095452">
        <ele>54.2</ele>
        <time>2015-03-28T14:31:56Z</time>
      </trkpt>
      <trkpt lat="59.118080661998" lon="18.018526089749">
        <ele>54.8</ele>
        <time>2015-03-28T14:31:57Z</time>
      </trkpt>
      <trkpt lat="59.118276127906" lon="18.017750512542">
        <ele>54.8</ele>
        <time>2015-03-28T14:32:02Z</time>
      </trkpt>
      <trkpt lat="59.118313175904" lon="18.01759058589">
        <ele>54.4</ele>
        <time>2015-03-28T14:32:03Z</time>
      </trkpt>
      <trkpt lat="59.118352738472" lon="18.017431078333">
        <ele>54</ele>
        <time>2015-03-28T14:32:04Z</time>
      </trkpt>
      <trkpt lat="59.118391630488" lon="18.017273833889">
        <ele>53.6</ele>
        <time>2015-03-28T14:32:05Z</time>
      </trkpt>
      <trkpt lat="59.118436389834" lon="18.017107369355">
        <ele>53.2</ele>
        <time>2015-03-28T14:32:06Z</time>
      </trkpt>
      <trkpt lat="59.118474276022" lon="18.016949538178">
        <ele>52.8</ele>
        <time>2015-03-28T14:32:07Z</time>
      </trkpt>
      <trkpt lat="59.118585252378" lon="18.016490377696">
        <ele>52.8</ele>
        <time>2015-03-28T14:32:10Z</time>
      </trkpt>
      <trkpt lat="59.118814329705" lon="18.015406178931">
        <ele>52.8</ele>
        <time>2015-03-28T14:32:17Z</time>
      </trkpt>
      <trkpt lat="59.119037288245" lon="18.014329272419">
        <ele>52.8</ele>
        <time>2015-03-28T14:32:24Z</time>
      </trkpt>
      <trkpt lat="59.119123370358" lon="18.014053088814">
        <ele>52.8</ele>
        <time>2015-03-28T14:32:26Z</time>
      </trkpt>
      <trkpt lat="59.119184558228" lon="18.013943453562">
        <ele>52.8</ele>
        <time>2015-03-28T14:32:27Z</time>
      </trkpt>
      <trkpt lat="59.119319171542" lon="18.013833902129">
        <ele>52.8</ele>
        <time>2015-03-28T14:32:29Z</time>
      </trkpt>
      <trkpt lat="59.119446324965" lon="18.013778330132">
        <ele>53.2</ele>
        <time>2015-03-28T14:32:31Z</time>
      </trkpt>
      <trkpt lat="59.119528467585" lon="18.013793333733">
        <ele>53.6</ele>
        <time>2015-03-28T14:32:32Z</time>
      </trkpt>
      <trkpt lat="59.119597366803" lon="18.013785287109">
        <ele>54</ele>
        <time>2015-03-28T14:32:33Z</time>
      </trkpt>
      <trkpt lat="59.119673139179" lon="18.013776486114">
        <ele>54.4</ele>
        <time>2015-03-28T14:32:34Z</time>
      </trkpt>
      <trkpt lat="59.119735249058" lon="18.01376508673">
        <ele>54.8</ele>
        <time>2015-03-28T14:32:35Z</time>
      </trkpt>
      <trkpt lat="59.11984656069" lon="18.01370473705">
        <ele>55.2</ele>
        <time>2015-03-28T14:32:37Z</time>
      </trkpt>
      <trkpt lat="59.11989685209" lon="18.013664336292">
        <ele>55.6</ele>
        <time>2015-03-28T14:32:38Z</time>
      </trkpt>
      <trkpt lat="59.119941192341" lon="18.013622762068">
        <ele>56.2</ele>
        <time>2015-03-28T14:32:39Z</time>
      </trkpt>
      <trkpt lat="59.119984275307" lon="18.013574398505">
        <ele>56.6</ele>
        <time>2015-03-28T14:32:40Z</time>
      </trkpt>
      <trkpt lat="59.120032722689" lon="18.013537601964">
        <ele>57.2</ele>
        <time>2015-03-28T14:32:41Z</time>
      </trkpt>
      <trkpt lat="59.120072704352" lon="18.013486053279">
        <ele>58.2</ele>
        <time>2015-03-28T14:32:42Z</time>
      </trkpt>
      <trkpt lat="59.120114949128" lon="18.013437270621">
        <ele>58.8</ele>
        <time>2015-03-28T14:32:43Z</time>
      </trkpt>
      <trkpt lat="59.120157110085" lon="18.013384380832">
        <ele>59.4</ele>
        <time>2015-03-28T14:32:44Z</time>
      </trkpt>
      <trkpt lat="59.120195834463" lon="18.013333083604">
        <ele>60</ele>
        <time>2015-03-28T14:32:45Z</time>
      </trkpt>
      <trkpt lat="59.120234223565" lon="18.013278852711">
        <ele>60.6</ele>
        <time>2015-03-28T14:32:46Z</time>
      </trkpt>
      <trkpt lat="59.120272528848" lon="18.013220598506">
        <ele>61</ele>
        <time>2015-03-28T14:32:47Z</time>
      </trkpt>
      <trkpt lat="59.120312426692" lon="18.013164020681">
        <ele>61.6</ele>
        <time>2015-03-28T14:32:48Z</time>
      </trkpt>
      <trkpt lat="59.120351905441" lon="18.013112471996">
        <ele>61.6</ele>
        <time>2015-03-28T14:32:49Z</time>
      </trkpt>
      <trkpt lat="59.120471179878" lon="18.012945420729">
        <ele>62</ele>
        <time>2015-03-28T14:32:52Z</time>
      </trkpt>
      <trkpt lat="59.120513424654" lon="18.012877527339">
        <ele>62.4</ele>
        <time>2015-03-28T14:32:53Z</time>
      </trkpt>
      <trkpt lat="59.12055734581" lon="18.0128036828">
        <ele>62.8</ele>
        <time>2015-03-28T14:32:54Z</time>
      </trkpt>
      <trkpt lat="59.120604619726" lon="18.012729586804">
        <ele>63.4</ele>
        <time>2015-03-28T14:32:55Z</time>
      </trkpt>
      <trkpt lat="59.120655330221" lon="18.012660100853">
        <ele>64</ele>
        <time>2015-03-28T14:32:56Z</time>
      </trkpt>
      <trkpt lat="59.120707884734" lon="18.012589273798">
        <ele>64.4</ele>
        <time>2015-03-28T14:32:57Z</time>
      </trkpt>
      <trkpt lat="59.120756499754" lon="18.012519452571">
        <ele>65</ele>
        <time>2015-03-28T14:32:58Z</time>
      </trkpt>
      <trkpt lat="59.120808635172" lon="18.012455247217">
        <ele>65.6</ele>
        <time>2015-03-28T14:32:59Z</time>
      </trkpt>
      <trkpt lat="59.120864039531" lon="18.012395400451">
        <ele>65.6</ele>
        <time>2015-03-28T14:33:00Z</time>
      </trkpt>
      <trkpt lat="59.121072665022" lon="18.012165065839">
        <ele>65.6</ele>
        <time>2015-03-28T14:33:04Z</time>
      </trkpt>
      <trkpt lat="59.121187916147" lon="18.012075714785">
        <ele>65.6</ele>
        <time>2015-03-28T14:33:06Z</time>
      </trkpt>
      <trkpt lat="59.121358571631" lon="18.011961050393">
        <ele>65.6</ele>
        <time>2015-03-28T14:33:09Z</time>
      </trkpt>
      <trkpt lat="59.121544482173" lon="18.011896425944">
        <ele>65.6</ele>
        <time>2015-03-28T14:33:12Z</time>
      </trkpt>
      <trkpt lat="59.121607430242" lon="18.0118900557">
        <ele>65.6</ele>
        <time>2015-03-28T14:33:13Z</time>
      </trkpt>
      <trkpt lat="59.121671467958" lon="18.011884858922">
        <ele>66</ele>
        <time>2015-03-28T14:33:14Z</time>
      </trkpt>
      <trkpt lat="59.121735421855" lon="18.011885278017">
        <ele>66.4</ele>
        <time>2015-03-28T14:33:15Z</time>
      </trkpt>
      <trkpt lat="59.121797447915" lon="18.01188837932">
        <ele>67</ele>
        <time>2015-03-28T14:33:16Z</time>
      </trkpt>
      <trkpt lat="59.121859725432" lon="18.011895252478">
        <ele>67.4</ele>
        <time>2015-03-28T14:33:17Z</time>
      </trkpt>
      <trkpt lat="59.121922841139" lon="18.011909669346">
        <ele>67.8</ele>
        <time>2015-03-28T14:33:18Z</time>
      </trkpt>
      <trkpt lat="59.121985453932" lon="18.011930037363">
        <ele>67.8</ele>
        <time>2015-03-28T14:33:19Z</time>
      </trkpt>
      <trkpt lat="59.122113445545" lon="18.011963145868">
        <ele>68.2</ele>
        <time>2015-03-28T14:33:21Z</time>
      </trkpt>
      <trkpt lat="59.122176645071" lon="18.011973623243">
        <ele>68.6</ele>
        <time>2015-03-28T14:33:22Z</time>
      </trkpt>
      <trkpt lat="59.122238419674" lon="18.011984687351">
        <ele>69.2</ele>
        <time>2015-03-28T14:33:23Z</time>
      </trkpt>
      <trkpt lat="59.122298517897" lon="18.011988543025">
        <ele>69.6</ele>
        <time>2015-03-28T14:33:24Z</time>
      </trkpt>
      <trkpt lat="59.122360041043" lon="18.011991979604">
        <ele>70</ele>
        <time>2015-03-28T14:33:25Z</time>
      </trkpt>
      <trkpt lat="59.122421312732" lon="18.011995919097">
        <ele>70</ele>
        <time>2015-03-28T14:33:26Z</time>
      </trkpt>
      <trkpt lat="59.122486691552" lon="18.012001702608">
        <ele>70.4</ele>
        <time>2015-03-28T14:33:27Z</time>
      </trkpt>
      <trkpt lat="59.122549304345" lon="18.012003798083">
        <ele>70.8</ele>
        <time>2015-03-28T14:33:28Z</time>
      </trkpt>
      <trkpt lat="59.122614934622" lon="18.012004468635">
        <ele>71.2</ele>
        <time>2015-03-28T14:33:29Z</time>
      </trkpt>
      <trkpt lat="59.12267461375" lon="18.012002540798">
        <ele>71.6</ele>
        <time>2015-03-28T14:33:30Z</time>
      </trkpt>
      <trkpt lat="59.122736555991" lon="18.011995164726">
        <ele>72</ele>
        <time>2015-03-28T14:33:31Z</time>
      </trkpt>
      <trkpt lat="59.122858596455" lon="18.011962307678">
        <ele>72.6</ele>
        <time>2015-03-28T14:33:33Z</time>
      </trkpt>
      <trkpt lat="59.122918610859" lon="18.01193447977">
        <ele>73.2</ele>
        <time>2015-03-28T14:33:34Z</time>
      </trkpt>
      <trkpt lat="59.122980804557" lon="18.011901035989">
        <ele>73.6</ele>
        <time>2015-03-28T14:33:35Z</time>
      </trkpt>
      <trkpt lat="59.123039561676" lon="18.011858455937">
        <ele>74.2</ele>
        <time>2015-03-28T14:33:36Z</time>
      </trkpt>
      <trkpt lat="59.123096642415" lon="18.011805733786">
        <ele>74.6</ele>
        <time>2015-03-28T14:33:37Z</time>
      </trkpt>
      <trkpt lat="59.123150789489" lon="18.011745970839">
        <ele>74.6</ele>
        <time>2015-03-28T14:33:38Z</time>
      </trkpt>
      <trkpt lat="59.123303340069" lon="18.011506667594">
        <ele>75</ele>
        <time>2015-03-28T14:33:41Z</time>
      </trkpt>
      <trkpt lat="59.123346674492" lon="18.011413879961">
        <ele>75.4</ele>
        <time>2015-03-28T14:33:42Z</time>
      </trkpt>
      <trkpt lat="59.123389338363" lon="18.011311117867">
        <ele>75.8</ele>
        <time>2015-03-28T14:33:43Z</time>
      </trkpt>
      <trkpt lat="59.123431080225" lon="18.011203242814">
        <ele>76.4</ele>
        <time>2015-03-28T14:33:44Z</time>
      </trkpt>
      <trkpt lat="59.123472067716" lon="18.011093859019">
        <ele>76.8</ele>
        <time>2015-03-28T14:33:45Z</time>
      </trkpt>
      <trkpt lat="59.123598885863" lon="18.010753972974">
        <ele>76.8</ele>
        <time>2015-03-28T14:33:48Z</time>
      </trkpt>
      <trkpt lat="59.123701899414" lon="18.010523722181">
        <ele>76.8</ele>
        <time>2015-03-28T14:33:50Z</time>
      </trkpt>
      <trkpt lat="59.123838272927" lon="18.01030503841">
        <ele>76.8</ele>
        <time>2015-03-28T14:33:52Z</time>
      </trkpt>
      <trkpt lat="59.123912871837" lon="18.01019188276">
        <ele>76.2</ele>
        <time>2015-03-28T14:33:53Z</time>
      </trkpt>
      <trkpt lat="59.123983447435" lon="18.01006531607">
        <ele>75.8</ele>
        <time>2015-03-28T14:33:54Z</time>
      </trkpt>
      <trkpt lat="59.124043880934" lon="18.009923578141">
        <ele>75</ele>
        <time>2015-03-28T14:33:55Z</time>
      </trkpt>
      <trkpt lat="59.124089310832" lon="18.009756107779">
        <ele>74.4</ele>
        <time>2015-03-28T14:33:56Z</time>
      </trkpt>
      <trkpt lat="59.124124263355" lon="18.009562904984">
        <ele>72.8</ele>
        <time>2015-03-28T14:33:57Z</time>
      </trkpt>
      <trkpt lat="59.124137422938" lon="18.009359392452">
        <ele>72.2</ele>
        <time>2015-03-28T14:33:58Z</time>
      </trkpt>
      <trkpt lat="59.124130214504" lon="18.009136517731">
        <ele>71.2</ele>
        <time>2015-03-28T14:33:59Z</time>
      </trkpt>
      <trkpt lat="59.124116719645" lon="18.008909116784">
        <ele>70.4</ele>
        <time>2015-03-28T14:34:00Z</time>
      </trkpt>
      <trkpt lat="59.124115881455" lon="18.008681967294">
        <ele>69.4</ele>
        <time>2015-03-28T14:34:01Z</time>
      </trkpt>
      <trkpt lat="59.12413809349" lon="18.008465630455">
        <ele>68.6</ele>
        <time>2015-03-28T14:34:02Z</time>
      </trkpt>
      <trkpt lat="59.124181763189" lon="18.008273601126">
        <ele>67.6</ele>
        <time>2015-03-28T14:34:03Z</time>
      </trkpt>
      <trkpt lat="59.124242364326" lon="18.008109399705">
        <ele>66.6</ele>
        <time>2015-03-28T14:34:04Z</time>
      </trkpt>
      <trkpt lat="59.124321154186" lon="18.007965147206">
        <ele>65.8</ele>
        <time>2015-03-28T14:34:05Z</time>
      </trkpt>
      <trkpt lat="59.124396591286" lon="18.00783405429">
        <ele>65.8</ele>
        <time>2015-03-28T14:34:06Z</time>
      </trkpt>
      <trkpt lat="59.124594655583" lon="18.007417641498">
        <ele>65.8</ele>
        <time>2015-03-28T14:34:09Z</time>
      </trkpt>
      <trkpt lat="59.124700602799" lon="18.007100805678">
        <ele>65.8</ele>
        <time>2015-03-28T14:34:11Z</time>
      </trkpt>
      <trkpt lat="59.124773273872" lon="18.006779275994">
        <ele>65.8</ele>
        <time>2015-03-28T14:34:13Z</time>
      </trkpt>
      <trkpt lat="59.124814093725" lon="18.006498901439">
        <ele>66.2</ele>
        <time>2015-03-28T14:34:15Z</time>
      </trkpt>
      <trkpt lat="59.124822727082" lon="18.006360348632">
        <ele>66.6</ele>
        <time>2015-03-28T14:34:16Z</time>
      </trkpt>
      <trkpt lat="59.124827337127" lon="18.006215090305">
        <ele>67</ele>
        <time>2015-03-28T14:34:17Z</time>
      </trkpt>
      <trkpt lat="59.124829348783" lon="18.006065892485">
        <ele>67.4</ele>
        <time>2015-03-28T14:34:18Z</time>
      </trkpt>
      <trkpt lat="59.124833455914" lon="18.005918371045">
        <ele>68</ele>
        <time>2015-03-28T14:34:19Z</time>
      </trkpt>
      <trkpt lat="59.124843346556" lon="18.005756013642">
        <ele>68</ele>
        <time>2015-03-28T14:34:20Z</time>
      </trkpt>
      <trkpt lat="59.124885004599" lon="18.005449319921">
        <ele>68</ele>
        <time>2015-03-28T14:34:22Z</time>
      </trkpt>
      <trkpt lat="59.124913083964" lon="18.005297607531">
        <ele>68.4</ele>
        <time>2015-03-28T14:34:23Z</time>
      </trkpt>
      <trkpt lat="59.124948204125" lon="18.005159306181">
        <ele>68.8</ele>
        <time>2015-03-28T14:34:24Z</time>
      </trkpt>
      <trkpt lat="59.124990365082" lon="18.005024609048">
        <ele>69.4</ele>
        <time>2015-03-28T14:34:25Z</time>
      </trkpt>
      <trkpt lat="59.125038477188" lon="18.00489536015">
        <ele>69.8</ele>
        <time>2015-03-28T14:34:26Z</time>
      </trkpt>
      <trkpt lat="59.125088852407" lon="18.004783545604">
        <ele>70.2</ele>
        <time>2015-03-28T14:34:27Z</time>
      </trkpt>
      <trkpt lat="59.125198152383" lon="18.004597718881">
        <ele>70.2</ele>
        <time>2015-03-28T14:34:29Z</time>
      </trkpt>
      <trkpt lat="59.125307200902" lon="18.00444189936">
        <ele>70.8</ele>
        <time>2015-03-28T14:34:31Z</time>
      </trkpt>
      <trkpt lat="59.125355732103" lon="18.004365791708">
        <ele>71.2</ele>
        <time>2015-03-28T14:34:32Z</time>
      </trkpt>
      <trkpt lat="59.12540543677" lon="18.004296221938">
        <ele>71.6</ele>
        <time>2015-03-28T14:34:33Z</time>
      </trkpt>
      <trkpt lat="59.12545740455" lon="18.004229166738">
        <ele>72</ele>
        <time>2015-03-28T14:34:34Z</time>
      </trkpt>
      <trkpt lat="59.125501493344" lon="18.004170409619">
        <ele>72.6</ele>
        <time>2015-03-28T14:34:35Z</time>
      </trkpt>
      <trkpt lat="59.125546839423" lon="18.004112155414">
        <ele>73</ele>
        <time>2015-03-28T14:34:36Z</time>
      </trkpt>
      <trkpt lat="59.125592185502" lon="18.004044429662">
        <ele>73.4</ele>
        <time>2015-03-28T14:34:37Z</time>
      </trkpt>
      <trkpt lat="59.125639375599" lon="18.003970249847">
        <ele>73.8</ele>
        <time>2015-03-28T14:34:38Z</time>
      </trkpt>
      <trkpt lat="59.125688074438" lon="18.003884251553">
        <ele>74.6</ele>
        <time>2015-03-28T14:34:39Z</time>
      </trkpt>
      <trkpt lat="59.125732163232" lon="18.003789200807">
        <ele>75.2</ele>
        <time>2015-03-28T14:34:40Z</time>
      </trkpt>
      <trkpt lat="59.125778682777" lon="18.003695155889">
        <ele>76</ele>
        <time>2015-03-28T14:34:41Z</time>
      </trkpt>
      <trkpt lat="59.12582788453" lon="18.00358526918">
        <ele>76.6</ele>
        <time>2015-03-28T14:34:42Z</time>
      </trkpt>
      <trkpt lat="59.125877673016" lon="18.003473119358">
        <ele>77.4</ele>
        <time>2015-03-28T14:34:43Z</time>
      </trkpt>
      <trkpt lat="59.125929389339" lon="18.003359041699">
        <ele>77.4</ele>
        <time>2015-03-28T14:34:44Z</time>
      </trkpt>
      <trkpt lat="59.126047322672" lon="18.003142201946">
        <ele>77.4</ele>
        <time>2015-03-28T14:34:46Z</time>
      </trkpt>
      <trkpt lat="59.126194760293" lon="18.002976240326">
        <ele>77.4</ele>
        <time>2015-03-28T14:34:48Z</time>
      </trkpt>
      <trkpt lat="59.126353345841" lon="18.00285772026">
        <ele>77.4</ele>
        <time>2015-03-28T14:34:50Z</time>
      </trkpt>
      <trkpt lat="59.12659063743" lon="18.00272780081">
        <ele>77.4</ele>
        <time>2015-03-28T14:34:53Z</time>
      </trkpt>
      <trkpt lat="59.127119954415" lon="18.002371905336">
        <ele>77.4</ele>
        <time>2015-03-28T14:35:00Z</time>
      </trkpt>
      <trkpt lat="59.127529577868" lon="18.00184602493">
        <ele>77.4</ele>
        <time>2015-03-28T14:35:06Z</time>
      </trkpt>
      <trkpt lat="59.127770473674" lon="18.001418296573">
        <ele>77.4</ele>
        <time>2015-03-28T14:35:10Z</time>
      </trkpt>
      <trkpt lat="59.127820765074" lon="18.001299944145">
        <ele>77.4</ele>
        <time>2015-03-28T14:35:11Z</time>
      </trkpt>
      <trkpt lat="59.127921180236" lon="18.000880178593">
        <ele>77.8</ele>
        <time>2015-03-28T14:35:14Z</time>
      </trkpt>
      <trkpt lat="59.127937022027" lon="18.000728550022">
        <ele>78.2</ele>
        <time>2015-03-28T14:35:15Z</time>
      </trkpt>
      <trkpt lat="59.127945320108" lon="18.00057532889">
        <ele>78.6</ele>
        <time>2015-03-28T14:35:16Z</time>
      </trkpt>
      <trkpt lat="59.127945487746" lon="18.000422862129">
        <ele>79</ele>
        <time>2015-03-28T14:35:17Z</time>
      </trkpt>
      <trkpt lat="59.127938111674" lon="18.000268718988">
        <ele>79.4</ele>
        <time>2015-03-28T14:35:18Z</time>
      </trkpt>
      <trkpt lat="59.127925119729" lon="18.000112815648">
        <ele>79.4</ele>
        <time>2015-03-28T14:35:19Z</time>
      </trkpt>
      <trkpt lat="59.127909361757" lon="17.999781311503">
        <ele>79.4</ele>
        <time>2015-03-28T14:35:21Z</time>
      </trkpt>
      <trkpt lat="59.127912882155" lon="17.999615349883">
        <ele>79</ele>
        <time>2015-03-28T14:35:22Z</time>
      </trkpt>
      <trkpt lat="59.127921347874" lon="17.999452824842">
        <ele>78.6</ele>
        <time>2015-03-28T14:35:23Z</time>
      </trkpt>
      <trkpt lat="59.12793844695" lon="17.999295328941">
        <ele>78</ele>
        <time>2015-03-28T14:35:24Z</time>
      </trkpt>
      <trkpt lat="59.127961413356" lon="17.999145460569">
        <ele>77.6</ele>
        <time>2015-03-28T14:35:25Z</time>
      </trkpt>
      <trkpt lat="59.127990247092" lon="17.99899617893">
        <ele>77.2</ele>
        <time>2015-03-28T14:35:26Z</time>
      </trkpt>
      <trkpt lat="59.128026959814" lon="17.998839940314">
        <ele>77.2</ele>
        <time>2015-03-28T14:35:27Z</time>
      </trkpt>
      <trkpt lat="59.128226616672" lon="17.998330320794">
        <ele>77.2</ele>
        <time>2015-03-28T14:35:31Z</time>
      </trkpt>
      <trkpt lat="59.128288475094" lon="17.998229570356">
        <ele>77.2</ele>
        <time>2015-03-28T14:35:32Z</time>
      </trkpt>
      <trkpt lat="59.12841370068" lon="17.998031841335">
        <ele>77.6</ele>
        <time>2015-03-28T14:35:34Z</time>
      </trkpt>
      <trkpt lat="59.128478911862" lon="17.997929665974">
        <ele>78</ele>
        <time>2015-03-28T14:35:35Z</time>
      </trkpt>
      <trkpt lat="59.128541021741" lon="17.997832855029">
        <ele>78.8</ele>
        <time>2015-03-28T14:35:36Z</time>
      </trkpt>
      <trkpt lat="59.128603299258" lon="17.997735457351">
        <ele>79.2</ele>
        <time>2015-03-28T14:35:37Z</time>
      </trkpt>
      <trkpt lat="59.128664822404" lon="17.997631102696">
        <ele>79.2</ele>
        <time>2015-03-28T14:35:38Z</time>
      </trkpt>
      <trkpt lat="59.128922901105" lon="17.997015871236">
        <ele>79.2</ele>
        <time>2015-03-28T14:35:43Z</time>
      </trkpt>
      <trkpt lat="59.129105877982" lon="17.996331740558">
        <ele>79.2</ele>
        <time>2015-03-28T14:35:48Z</time>
      </trkpt>
      <trkpt lat="59.12912280942" lon="17.996184219118">
        <ele>79.2</ele>
        <time>2015-03-28T14:35:49Z</time>
      </trkpt>
      <trkpt lat="59.12913957322" lon="17.995704690619">
        <ele>79.2</ele>
        <time>2015-03-28T14:35:52Z</time>
      </trkpt>
      <trkpt lat="59.129169077508" lon="17.995203285361">
        <ele>79.2</ele>
        <time>2015-03-28T14:35:55Z</time>
      </trkpt>
      <trkpt lat="59.129208975352" lon="17.994845294412">
        <ele>79.2</ele>
        <time>2015-03-28T14:35:57Z</time>
      </trkpt>
      <trkpt lat="59.129291453248" lon="17.994304745681">
        <ele>78.8</ele>
        <time>2015-03-28T14:36:00Z</time>
      </trkpt>
      <trkpt lat="59.12930721122" lon="17.994117242578">
        <ele>78</ele>
        <time>2015-03-28T14:36:01Z</time>
      </trkpt>
      <trkpt lat="59.129317018043" lon="17.993927224905">
        <ele>77.4</ele>
        <time>2015-03-28T14:36:02Z</time>
      </trkpt>
      <trkpt lat="59.129321292812" lon="17.993728657694">
        <ele>77</ele>
        <time>2015-03-28T14:36:03Z</time>
      </trkpt>
      <trkpt lat="59.129316850405" lon="17.993525061343">
        <ele>76.4</ele>
        <time>2015-03-28T14:36:04Z</time>
      </trkpt>
      <trkpt lat="59.129297404397" lon="17.993311322893">
        <ele>75.8</ele>
        <time>2015-03-28T14:36:05Z</time>
      </trkpt>
      <trkpt lat="59.129272091059" lon="17.993075120951">
        <ele>75</ele>
        <time>2015-03-28T14:36:06Z</time>
      </trkpt>
      <trkpt lat="59.129242251495" lon="17.99283883519">
        <ele>74.2</ele>
        <time>2015-03-28T14:36:07Z</time>
      </trkpt>
      <trkpt lat="59.129211406103" lon="17.992592491149">
        <ele>73.4</ele>
        <time>2015-03-28T14:36:08Z</time>
      </trkpt>
      <trkpt lat="59.129184500204" lon="17.992335753552">
        <ele>72.6</ele>
        <time>2015-03-28T14:36:09Z</time>
      </trkpt>
      <trkpt lat="59.129173352277" lon="17.992079267412">
        <ele>71.8</ele>
        <time>2015-03-28T14:36:10Z</time>
      </trkpt>
      <trkpt lat="59.129181231263" lon="17.99183300719">
        <ele>70.8</ele>
        <time>2015-03-28T14:36:11Z</time>
      </trkpt>
      <trkpt lat="59.129220207098" lon="17.991613652867">
        <ele>70</ele>
        <time>2015-03-28T14:36:12Z</time>
      </trkpt>
      <trkpt lat="59.129255494897" lon="17.991386000463">
        <ele>69</ele>
        <time>2015-03-28T14:36:13Z</time>
      </trkpt>
      <trkpt lat="59.129305451021" lon="17.991152816005">
        <ele>68</ele>
        <time>2015-03-28T14:36:14Z</time>
      </trkpt>
      <trkpt lat="59.129354652774" lon="17.990929689827">
        <ele>67</ele>
        <time>2015-03-28T14:36:15Z</time>
      </trkpt>
      <trkpt lat="59.129403686889" lon="17.990700528681">
        <ele>66</ele>
        <time>2015-03-28T14:36:16Z</time>
      </trkpt>
      <trkpt lat="59.12946479094" lon="17.990484694756">
        <ele>65</ele>
        <time>2015-03-28T14:36:17Z</time>
      </trkpt>
      <trkpt lat="59.129618682624" lon="17.990091080732">
        <ele>64.6</ele>
        <time>2015-03-28T14:36:19Z</time>
      </trkpt>
      <trkpt lat="59.129703591271" lon="17.989922520723">
        <ele>64</ele>
        <time>2015-03-28T14:36:20Z</time>
      </trkpt>
      <trkpt lat="59.129800150759" lon="17.98978279445">
        <ele>63.6</ele>
        <time>2015-03-28T14:36:21Z</time>
      </trkpt>
      <trkpt lat="59.129894447134" lon="17.989668297696">
        <ele>63</ele>
        <time>2015-03-28T14:36:22Z</time>
      </trkpt>
      <trkpt lat="59.12998698331" lon="17.989563440127">
        <ele>62.6</ele>
        <time>2015-03-28T14:36:23Z</time>
      </trkpt>
      <trkpt lat="59.130079100391" lon="17.98947517872">
        <ele>62.6</ele>
        <time>2015-03-28T14:36:24Z</time>
      </trkpt>
      <trkpt lat="59.130259143603" lon="17.989379122146">
        <ele>62.6</ele>
        <time>2015-03-28T14:36:26Z</time>
      </trkpt>
      <trkpt lat="59.130344219888" lon="17.989367303667">
        <ele>63.2</ele>
        <time>2015-03-28T14:36:27Z</time>
      </trkpt>
      <trkpt lat="59.130427284517" lon="17.989373087178">
        <ele>63.8</ele>
        <time>2015-03-28T14:36:28Z</time>
      </trkpt>
      <trkpt lat="59.130511019698" lon="17.989392784643">
        <ele>64.4</ele>
        <time>2015-03-28T14:36:29Z</time>
      </trkpt>
      <trkpt lat="59.130587043531" lon="17.989409716081">
        <ele>65</ele>
        <time>2015-03-28T14:36:30Z</time>
      </trkpt>
      <trkpt lat="59.130659463147" lon="17.989414158488">
        <ele>65.6</ele>
        <time>2015-03-28T14:36:31Z</time>
      </trkpt>
      <trkpt lat="59.130728362365" lon="17.989406111864">
        <ele>66.2</ele>
        <time>2015-03-28T14:36:32Z</time>
      </trkpt>
      <trkpt lat="59.130795669022" lon="17.989382726363">
        <ele>67</ele>
        <time>2015-03-28T14:36:33Z</time>
      </trkpt>
      <trkpt lat="59.130861886032" lon="17.989352551523">
        <ele>67.6</ele>
        <time>2015-03-28T14:36:34Z</time>
      </trkpt>
      <trkpt lat="59.130928857413" lon="17.989309468557">
        <ele>68.4</ele>
        <time>2015-03-28T14:36:35Z</time>
      </trkpt>
      <trkpt lat="59.130995409699" lon="17.989252303999">
        <ele>69.2</ele>
        <time>2015-03-28T14:36:36Z</time>
      </trkpt>
      <trkpt lat="59.131061710528" lon="17.989183320962">
        <ele>69.8</ele>
        <time>2015-03-28T14:36:37Z</time>
      </trkpt>
      <trkpt lat="59.131116947249" lon="17.989105620749">
        <ele>70.6</ele>
        <time>2015-03-28T14:36:38Z</time>
      </trkpt>
      <trkpt lat="59.131275113702" lon="17.988720640082">
        <ele>70.6</ele>
        <time>2015-03-28T14:36:42Z</time>
      </trkpt>
      <trkpt lat="59.131303276886" lon="17.9886219013">
        <ele>71</ele>
        <time>2015-03-28T14:36:43Z</time>
      </trkpt>
      <trkpt lat="59.131329176957" lon="17.988520815586">
        <ele>71.4</ele>
        <time>2015-03-28T14:36:44Z</time>
      </trkpt>
      <trkpt lat="59.13135658577" lon="17.988424256098">
        <ele>71.8</ele>
        <time>2015-03-28T14:36:45Z</time>
      </trkpt>
      <trkpt lat="59.131387012067" lon="17.988325014402">
        <ele>72.4</ele>
        <time>2015-03-28T14:36:46Z</time>
      </trkpt>
      <trkpt lat="59.131415761984" lon="17.988228287276">
        <ele>72.8</ele>
        <time>2015-03-28T14:36:47Z</time>
      </trkpt>
      <trkpt lat="59.131444260444" lon="17.988134996729">
        <ele>72.8</ele>
        <time>2015-03-28T14:36:48Z</time>
      </trkpt>
      <trkpt lat="59.131496312043" lon="17.987962748684">
        <ele>73.8</ele>
        <time>2015-03-28T14:36:50Z</time>
      </trkpt>
      <trkpt lat="59.131519278449" lon="17.987880438426">
        <ele>74.2</ele>
        <time>2015-03-28T14:36:51Z</time>
      </trkpt>
      <trkpt lat="59.131541239027" lon="17.987790165363">
        <ele>75</ele>
        <time>2015-03-28T14:36:52Z</time>
      </trkpt>
      <trkpt lat="59.13156194232" lon="17.987702574508">
        <ele>75.6</ele>
        <time>2015-03-28T14:36:53Z</time>
      </trkpt>
      <trkpt lat="59.131581807423" lon="17.987615067472">
        <ele>76.2</ele>
        <time>2015-03-28T14:36:54Z</time>
      </trkpt>
      <trkpt lat="59.131599409413" lon="17.98752806335">
        <ele>76.8</ele>
        <time>2015-03-28T14:36:55Z</time>
      </trkpt>
      <trkpt lat="59.131617765774" lon="17.987436365364">
        <ele>77.4</ele>
        <time>2015-03-28T14:36:56Z</time>
      </trkpt>
      <trkpt lat="59.131653891763" lon="17.987141238665">
        <ele>77.4</ele>
        <time>2015-03-28T14:36:59Z</time>
      </trkpt>
      <trkpt lat="59.131654729953" lon="17.987046020281">
        <ele>77.4</ele>
        <time>2015-03-28T14:37:00Z</time>
      </trkpt>
      <trkpt lat="59.131626818226" lon="17.986737398723">
        <ele>77.8</ele>
        <time>2015-03-28T14:37:03Z</time>
      </trkpt>
      <trkpt lat="59.131610976435" lon="17.986630026584">
        <ele>78.2</ele>
        <time>2015-03-28T14:37:04Z</time>
      </trkpt>
      <trkpt lat="59.131594967006" lon="17.986519385504">
        <ele>78.6</ele>
        <time>2015-03-28T14:37:05Z</time>
      </trkpt>
      <trkpt lat="59.131580466319" lon="17.986410169347">
        <ele>79.2</ele>
        <time>2015-03-28T14:37:06Z</time>
      </trkpt>
      <trkpt lat="59.131565630356" lon="17.986300115">
        <ele>79.6</ele>
        <time>2015-03-28T14:37:07Z</time>
      </trkpt>
      <trkpt lat="59.131471250162" lon="17.985721009529">
        <ele>79.6</ele>
        <time>2015-03-28T14:37:12Z</time>
      </trkpt>
      <trkpt lat="59.131442500245" lon="17.985596705952">
        <ele>79.6</ele>
        <time>2015-03-28T14:37:13Z</time>
      </trkpt>
      <trkpt lat="59.131374858312" lon="17.985233015311">
        <ele>79.6</ele>
        <time>2015-03-28T14:37:16Z</time>
      </trkpt>
      <trkpt lat="59.131269749286" lon="17.984571683401">
        <ele>79.6</ele>
        <time>2015-03-28T14:37:22Z</time>
      </trkpt>
      <trkpt lat="59.131244100672" lon="17.984239089609">
        <ele>80</ele>
        <time>2015-03-28T14:37:25Z</time>
      </trkpt>
      <trkpt lat="59.131245860871" lon="17.984136159877">
        <ele>80.4</ele>
        <time>2015-03-28T14:37:26Z</time>
      </trkpt>
      <trkpt lat="59.131246363785" lon="17.984031302308">
        <ele>80.8</ele>
        <time>2015-03-28T14:37:27Z</time>
      </trkpt>
      <trkpt lat="59.13125013564" lon="17.983924181626">
        <ele>81.2</ele>
        <time>2015-03-28T14:37:28Z</time>
      </trkpt>
      <trkpt lat="59.131257930807" lon="17.983806751207">
        <ele>81.8</ele>
        <time>2015-03-28T14:37:29Z</time>
      </trkpt>
      <trkpt lat="59.131269916924" lon="17.983697115955">
        <ele>82.2</ele>
        <time>2015-03-28T14:37:30Z</time>
      </trkpt>
      <trkpt lat="59.131286680724" lon="17.983603071037">
        <ele>82.8</ele>
        <time>2015-03-28T14:37:31Z</time>
      </trkpt>
      <trkpt lat="59.131306713465" lon="17.983515815458">
        <ele>83.4</ele>
        <time>2015-03-28T14:37:32Z</time>
      </trkpt>
      <trkpt lat="59.131332445898" lon="17.983435600675">
        <ele>83.8</ele>
        <time>2015-03-28T14:37:33Z</time>
      </trkpt>
      <trkpt lat="59.131388017895" lon="17.983290593805">
        <ele>84.2</ele>
        <time>2015-03-28T14:37:35Z</time>
      </trkpt>
      <trkpt lat="59.131413750328" lon="17.983215659619">
        <ele>84.6</ele>
        <time>2015-03-28T14:37:36Z</time>
      </trkpt>
      <trkpt lat="59.131438057838" lon="17.983136115388">
        <ele>85.2</ele>
        <time>2015-03-28T14:37:37Z</time>
      </trkpt>
      <trkpt lat="59.131460688968" lon="17.983063276677">
        <ele>85.6</ele>
        <time>2015-03-28T14:37:38Z</time>
      </trkpt>
      <trkpt lat="59.131484074469" lon="17.982990270328">
        <ele>86</ele>
        <time>2015-03-28T14:37:39Z</time>
      </trkpt>
      <trkpt lat="59.131559260112" lon="17.982762450286">
        <ele>86.4</ele>
        <time>2015-03-28T14:37:42Z</time>
      </trkpt>
      <trkpt lat="59.131587339477" lon="17.982690701222">
        <ele>86.8</ele>
        <time>2015-03-28T14:37:43Z</time>
      </trkpt>
      <trkpt lat="59.131614413014" lon="17.98262381366">
        <ele>87.4</ele>
        <time>2015-03-28T14:37:44Z</time>
      </trkpt>
      <trkpt lat="59.131642492379" lon="17.982557512831">
        <ele>87.8</ele>
        <time>2015-03-28T14:37:45Z</time>
      </trkpt>
      <trkpt lat="59.131667805717" lon="17.982494313305">
        <ele>88.2</ele>
        <time>2015-03-28T14:37:46Z</time>
      </trkpt>
      <trkpt lat="59.131771657458" lon="17.982228439437">
        <ele>88.6</ele>
        <time>2015-03-28T14:37:50Z</time>
      </trkpt>
      <trkpt lat="59.131796886977" lon="17.982150990681">
        <ele>89</ele>
        <time>2015-03-28T14:37:51Z</time>
      </trkpt>
      <trkpt lat="59.131823541419" lon="17.982072033183">
        <ele>89.4</ele>
        <time>2015-03-28T14:37:52Z</time>
      </trkpt>
      <trkpt lat="59.131852458974" lon="17.98200271487">
        <ele>90</ele>
        <time>2015-03-28T14:37:53Z</time>
      </trkpt>
      <trkpt lat="59.1318821309" lon="17.981939682982">
        <ele>90.4</ele>
        <time>2015-03-28T14:37:54Z</time>
      </trkpt>
      <trkpt lat="59.131992939618" lon="17.981627960121">
        <ele>90.4</ele>
        <time>2015-03-28T14:37:58Z</time>
      </trkpt>
      <trkpt lat="59.132019929336" lon="17.98154422494">
        <ele>90.8</ele>
        <time>2015-03-28T14:37:59Z</time>
      </trkpt>
      <trkpt lat="59.132047338149" lon="17.98146040594">
        <ele>91.2</ele>
        <time>2015-03-28T14:38:00Z</time>
      </trkpt>
      <trkpt lat="59.132075920428" lon="17.98137910151">
        <ele>91.6</ele>
        <time>2015-03-28T14:38:01Z</time>
      </trkpt>
      <trkpt lat="59.13210676582" lon="17.981294695777">
        <ele>92</ele>
        <time>2015-03-28T14:38:02Z</time>
      </trkpt>
      <trkpt lat="59.132140377239" lon="17.981199896488">
        <ele>92.6</ele>
        <time>2015-03-28T14:38:03Z</time>
      </trkpt>
      <trkpt lat="59.132176587047" lon="17.981095877109">
        <ele>92.6</ele>
        <time>2015-03-28T14:38:04Z</time>
      </trkpt>
      <trkpt lat="59.132344476504" lon="17.980616516248">
        <ele>92</ele>
        <time>2015-03-28T14:38:08Z</time>
      </trkpt>
      <trkpt lat="59.132389487307" lon="17.9804830764">
        <ele>91.6</ele>
        <time>2015-03-28T14:38:09Z</time>
      </trkpt>
      <trkpt lat="59.132432318816" lon="17.980336141693">
        <ele>91</ele>
        <time>2015-03-28T14:38:10Z</time>
      </trkpt>
      <trkpt lat="59.132471043194" lon="17.980168084598">
        <ele>90.4</ele>
        <time>2015-03-28T14:38:11Z</time>
      </trkpt>
      <trkpt lat="59.132510186667" lon="17.979993238164">
        <ele>89.8</ele>
        <time>2015-03-28T14:38:12Z</time>
      </trkpt>
      <trkpt lat="59.132548743407" lon="17.979808165812">
        <ele>88.8</ele>
        <time>2015-03-28T14:38:13Z</time>
      </trkpt>
      <trkpt lat="59.132584366482" lon="17.979599037407">
        <ele>88</ele>
        <time>2015-03-28T14:38:14Z</time>
      </trkpt>
      <trkpt lat="59.132615295693" lon="17.979390411916">
        <ele>87</ele>
        <time>2015-03-28T14:38:15Z</time>
      </trkpt>
      <trkpt lat="59.132647901284" lon="17.979177511656">
        <ele>86</ele>
        <time>2015-03-28T14:38:16Z</time>
      </trkpt>
      <trkpt lat="59.132684194911" lon="17.978966623052">
        <ele>85</ele>
        <time>2015-03-28T14:38:17Z</time>
      </trkpt>
      <trkpt lat="59.132725266221" lon="17.978757494647">
        <ele>83.8</ele>
        <time>2015-03-28T14:38:18Z</time>
      </trkpt>
      <trkpt lat="59.132765499341" lon="17.978544510568">
        <ele>82.8</ele>
        <time>2015-03-28T14:38:19Z</time>
      </trkpt>
      <trkpt lat="59.132804475176" lon="17.97832976629">
        <ele>81.8</ele>
        <time>2015-03-28T14:38:20Z</time>
      </trkpt>
      <trkpt lat="59.132842780459" lon="17.97811183689">
        <ele>80.8</ele>
        <time>2015-03-28T14:38:21Z</time>
      </trkpt>
      <trkpt lat="59.132884522321" lon="17.977879909717">
        <ele>79.8</ele>
        <time>2015-03-28T14:38:22Z</time>
      </trkpt>
      <trkpt lat="59.132921570319" lon="17.977646809078">
        <ele>78.8</ele>
        <time>2015-03-28T14:38:23Z</time>
      </trkpt>
      <trkpt lat="59.132961216706" lon="17.977414965724">
        <ele>77.8</ele>
        <time>2015-03-28T14:38:24Z</time>
      </trkpt>
      <trkpt lat="59.132997091238" lon="17.977183457646">
        <ele>76.6</ele>
        <time>2015-03-28T14:38:25Z</time>
      </trkpt>
      <trkpt lat="59.133031792304" lon="17.976954715595">
        <ele>75.6</ele>
        <time>2015-03-28T14:38:26Z</time>
      </trkpt>
      <trkpt lat="59.13306314061" lon="17.976719770938">
        <ele>74.6</ele>
        <time>2015-03-28T14:38:27Z</time>
      </trkpt>
      <trkpt lat="59.133107397042" lon="17.976248121425">
        <ele>73.6</ele>
        <time>2015-03-28T14:38:29Z</time>
      </trkpt>
      <trkpt lat="59.13312013753" lon="17.976013176768">
        <ele>73.2</ele>
        <time>2015-03-28T14:38:30Z</time>
      </trkpt>
      <trkpt lat="59.133125418127" lon="17.975781501052">
        <ele>72.8</ele>
        <time>2015-03-28T14:38:31Z</time>
      </trkpt>
      <trkpt lat="59.133123406471" lon="17.975550579707">
        <ele>72.2</ele>
        <time>2015-03-28T14:38:32Z</time>
      </trkpt>
      <trkpt lat="59.1331226521" lon="17.975318736353">
        <ele>71.6</ele>
        <time>2015-03-28T14:38:33Z</time>
      </trkpt>
      <trkpt lat="59.1331226521" lon="17.975090078121">
        <ele>71</ele>
        <time>2015-03-28T14:38:34Z</time>
      </trkpt>
      <trkpt lat="59.133128100335" lon="17.974860665518">
        <ele>70.4</ele>
        <time>2015-03-28T14:38:35Z</time>
      </trkpt>
      <trkpt lat="59.133151485836" lon="17.974638796625">
        <ele>69.8</ele>
        <time>2015-03-28T14:38:36Z</time>
      </trkpt>
      <trkpt lat="59.133235891569" lon="17.974219701625">
        <ele>69.8</ele>
        <time>2015-03-28T14:38:38Z</time>
      </trkpt>
      <trkpt lat="59.133385592303" lon="17.973451835766">
        <ele>69.8</ele>
        <time>2015-03-28T14:38:42Z</time>
      </trkpt>
      <trkpt lat="59.133421131559" lon="17.973055623353">
        <ele>69.8</ele>
        <time>2015-03-28T14:38:44Z</time>
      </trkpt>
      <trkpt lat="59.133424316681" lon="17.972647341004">
        <ele>69.8</ele>
        <time>2015-03-28T14:38:46Z</time>
      </trkpt>
      <trkpt lat="59.133396991687" lon="17.972248614021">
        <ele>69.8</ele>
        <time>2015-03-28T14:38:48Z</time>
      </trkpt>
      <trkpt lat="59.133348041391" lon="17.971873523996">
        <ele>69.8</ele>
        <time>2015-03-28T14:38:50Z</time>
      </trkpt>
      <trkpt lat="59.133215607371" lon="17.97102158768">
        <ele>69.8</ele>
        <time>2015-03-28T14:38:55Z</time>
      </trkpt>
      <trkpt lat="59.133143774488" lon="17.970574413315">
        <ele>70.4</ele>
        <time>2015-03-28T14:38:58Z</time>
      </trkpt>
      <trkpt lat="59.133115359847" lon="17.970433597395">
        <ele>70.8</ele>
        <time>2015-03-28T14:38:59Z</time>
      </trkpt>
      <trkpt lat="59.133091555251" lon="17.970295379864">
        <ele>71.2</ele>
        <time>2015-03-28T14:39:00Z</time>
      </trkpt>
      <trkpt lat="59.13306900794" lon="17.970174596685">
        <ele>71.6</ele>
        <time>2015-03-28T14:39:01Z</time>
      </trkpt>
      <trkpt lat="59.133050064846" lon="17.970068314193">
        <ele>72.2</ele>
        <time>2015-03-28T14:39:02Z</time>
      </trkpt>
      <trkpt lat="59.133030535019" lon="17.969972592895">
        <ele>72.8</ele>
        <time>2015-03-28T14:39:03Z</time>
      </trkpt>
      <trkpt lat="59.133019387092" lon="17.969883577117">
        <ele>73.6</ele>
        <time>2015-03-28T14:39:04Z</time>
      </trkpt>
      <trkpt lat="59.133008909717" lon="17.969806547456">
        <ele>74.2</ele>
        <time>2015-03-28T14:39:05Z</time>
      </trkpt>
      <trkpt lat="59.133000108722" lon="17.969721806447">
        <ele>75</ele>
        <time>2015-03-28T14:39:06Z</time>
      </trkpt>
      <trkpt lat="59.13298770351" lon="17.969630024642">
        <ele>75.8</ele>
        <time>2015-03-28T14:39:07Z</time>
      </trkpt>
      <trkpt lat="59.132966413484" lon="17.969532291688">
        <ele>76.4</ele>
        <time>2015-03-28T14:39:08Z</time>
      </trkpt>
      <trkpt lat="59.132948392399" lon="17.969442102444">
        <ele>77.2</ele>
        <time>2015-03-28T14:39:09Z</time>
      </trkpt>
      <trkpt lat="59.13288041519" lon="17.96909291249">
        <ele>77.2</ele>
        <time>2015-03-28T14:39:13Z</time>
      </trkpt>
      <trkpt lat="59.132834063283" lon="17.968856794367">
        <ele>77.2</ele>
        <time>2015-03-28T14:39:15Z</time>
      </trkpt>
      <trkpt lat="59.132777401639" lon="17.968602822797">
        <ele>77.6</ele>
        <time>2015-03-28T14:39:17Z</time>
      </trkpt>
      <trkpt lat="59.132743035849" lon="17.968461839239">
        <ele>78</ele>
        <time>2015-03-28T14:39:18Z</time>
      </trkpt>
      <trkpt lat="59.132711687543" lon="17.968321190957">
        <ele>78.8</ele>
        <time>2015-03-28T14:39:19Z</time>
      </trkpt>
      <trkpt lat="59.132679836323" lon="17.968182219055">
        <ele>79.2</ele>
        <time>2015-03-28T14:39:20Z</time>
      </trkpt>
      <trkpt lat="59.132612445847" lon="17.967895725713">
        <ele>79.2</ele>
        <time>2015-03-28T14:39:22Z</time>
      </trkpt>
      <trkpt lat="59.132417315215" lon="17.967090141304">
        <ele>79.2</ele>
        <time>2015-03-28T14:39:28Z</time>
      </trkpt>
      <trkpt lat="59.132229812112" lon="17.966358233796">
        <ele>79.2</ele>
        <time>2015-03-28T14:39:33Z</time>
      </trkpt>
      <trkpt lat="59.132201146014" lon="17.966188416502">
        <ele>79.2</ele>
        <time>2015-03-28T14:39:34Z</time>
      </trkpt>
      <trkpt lat="59.132165942034" lon="17.965678880801">
        <ele>79.2</ele>
        <time>2015-03-28T14:39:37Z</time>
      </trkpt>
      <trkpt lat="59.132173401925" lon="17.965335977272">
        <ele>78.8</ele>
        <time>2015-03-28T14:39:39Z</time>
      </trkpt>
      <trkpt lat="59.132180107445" lon="17.965162723399">
        <ele>78.4</ele>
        <time>2015-03-28T14:39:40Z</time>
      </trkpt>
      <trkpt lat="59.132187902612" lon="17.964986200585">
        <ele>77.8</ele>
        <time>2015-03-28T14:39:41Z</time>
      </trkpt>
      <trkpt lat="59.132202570937" lon="17.964807498477">
        <ele>77.4</ele>
        <time>2015-03-28T14:39:42Z</time>
      </trkpt>
      <trkpt lat="59.132217742176" lon="17.964625192152">
        <ele>76.4</ele>
        <time>2015-03-28T14:39:43Z</time>
      </trkpt>
      <trkpt lat="59.13223249432" lon="17.964434923022">
        <ele>76</ele>
        <time>2015-03-28T14:39:44Z</time>
      </trkpt>
      <trkpt lat="59.132250012491" lon="17.964242809874">
        <ele>75.4</ele>
        <time>2015-03-28T14:39:45Z</time>
      </trkpt>
      <trkpt lat="59.132271553974" lon="17.964044829396">
        <ele>75</ele>
        <time>2015-03-28T14:39:46Z</time>
      </trkpt>
      <trkpt lat="59.132301309719" lon="17.963856907198">
        <ele>74.4</ele>
        <time>2015-03-28T14:39:47Z</time>
      </trkpt>
      <trkpt lat="59.132412537532" lon="17.963289536387">
        <ele>74</ele>
        <time>2015-03-28T14:39:50Z</time>
      </trkpt>
      <trkpt lat="59.132447154779" lon="17.963092897013">
        <ele>73.6</ele>
        <time>2015-03-28T14:39:51Z</time>
      </trkpt>
      <trkpt lat="59.132487974632" lon="17.96290287934">
        <ele>73.2</ele>
        <time>2015-03-28T14:39:52Z</time>
      </trkpt>
      <trkpt lat="59.1325359191" lon="17.962708335441">
        <ele>72.6</ele>
        <time>2015-03-28T14:39:53Z</time>
      </trkpt>
      <trkpt lat="59.132574727297" lon="17.962525442383">
        <ele>72.2</ele>
        <time>2015-03-28T14:39:54Z</time>
      </trkpt>
      <trkpt lat="59.132605405051" lon="17.962346488818">
        <ele>71.8</ele>
        <time>2015-03-28T14:39:55Z</time>
      </trkpt>
      <trkpt lat="59.132636250443" lon="17.962172312936">
        <ele>71.4</ele>
        <time>2015-03-28T14:39:56Z</time>
      </trkpt>
      <trkpt lat="59.13267505864" lon="17.962001573633">
        <ele>70.8</ele>
        <time>2015-03-28T14:39:57Z</time>
      </trkpt>
      <trkpt lat="59.132710765534" lon="17.961825050819">
        <ele>70.4</ele>
        <time>2015-03-28T14:39:58Z</time>
      </trkpt>
      <trkpt lat="59.132738258166" lon="17.961644337055">
        <ele>69.8</ele>
        <time>2015-03-28T14:39:59Z</time>
      </trkpt>
      <trkpt lat="59.132754854328" lon="17.961463455653">
        <ele>69.8</ele>
        <time>2015-03-28T14:40:00Z</time>
      </trkpt>
      <trkpt lat="59.132749992826" lon="17.961096328433">
        <ele>69.8</ele>
        <time>2015-03-28T14:40:02Z</time>
      </trkpt>
      <trkpt lat="59.132739766908" lon="17.960921984913">
        <ele>69.8</ele>
        <time>2015-03-28T14:40:03Z</time>
      </trkpt>
      <trkpt lat="59.132721242909" lon="17.960754514551">
        <ele>70.4</ele>
        <time>2015-03-28T14:40:04Z</time>
      </trkpt>
      <trkpt lat="59.13269601339" lon="17.960591738053">
        <ele>70.8</ele>
        <time>2015-03-28T14:40:05Z</time>
      </trkpt>
      <trkpt lat="59.132664329808" lon="17.96043608617">
        <ele>71.2</ele>
        <time>2015-03-28T14:40:06Z</time>
      </trkpt>
      <trkpt lat="59.132626359801" lon="17.9602910793">
        <ele>71.8</ele>
        <time>2015-03-28T14:40:07Z</time>
      </trkpt>
      <trkpt lat="59.132583947387" lon="17.960157220357">
        <ele>72.8</ele>
        <time>2015-03-28T14:40:08Z</time>
      </trkpt>
      <trkpt lat="59.132531057598" lon="17.960025540708">
        <ele>73.4</ele>
        <time>2015-03-28T14:40:09Z</time>
      </trkpt>
      <trkpt lat="59.13247305485" lon="17.959912971791">
        <ele>73.8</ele>
        <time>2015-03-28T14:40:10Z</time>
      </trkpt>
      <trkpt lat="59.132412788989" lon="17.959809706783">
        <ele>74.4</ele>
        <time>2015-03-28T14:40:11Z</time>
      </trkpt>
      <trkpt lat="59.132353612775" lon="17.959708201974">
        <ele>74.4</ele>
        <time>2015-03-28T14:40:12Z</time>
      </trkpt>
      <trkpt lat="59.131931081196" lon="17.958982832348">
        <ele>74.4</ele>
        <time>2015-03-28T14:40:19Z</time>
      </trkpt>
      <trkpt lat="59.131744332464" lon="17.958590224152">
        <ele>74.8</ele>
        <time>2015-03-28T14:40:23Z</time>
      </trkpt>
      <trkpt lat="59.131704266982" lon="17.958476900864">
        <ele>75.2</ele>
        <time>2015-03-28T14:40:24Z</time>
      </trkpt>
      <trkpt lat="59.131668811545" lon="17.958358380798">
        <ele>75.6</ele>
        <time>2015-03-28T14:40:25Z</time>
      </trkpt>
      <trkpt lat="59.131636708868" lon="17.958240447465">
        <ele>76.4</ele>
        <time>2015-03-28T14:40:26Z</time>
      </trkpt>
      <trkpt lat="59.131581975061" lon="17.957991002121">
        <ele>76.4</ele>
        <time>2015-03-28T14:40:28Z</time>
      </trkpt>
      <trkpt lat="59.131556158809" lon="17.95786284287">
        <ele>76.4</ele>
        <time>2015-03-28T14:40:29Z</time>
      </trkpt>
      <trkpt lat="59.131460437511" lon="17.957216514561">
        <ele>76.8</ele>
        <time>2015-03-28T14:40:34Z</time>
      </trkpt>
      <trkpt lat="59.13143034649" lon="17.957099335599">
        <ele>77.2</ele>
        <time>2015-03-28T14:40:35Z</time>
      </trkpt>
      <trkpt lat="59.131404949333" lon="17.956978636239">
        <ele>77.6</ele>
        <time>2015-03-28T14:40:36Z</time>
      </trkpt>
      <trkpt lat="59.131246950518" lon="17.956532300064">
        <ele>78.6</ele>
        <time>2015-03-28T14:40:37Z</time>
      </trkpt>
      <trkpt lat="59.131246950518" lon="17.956532300064">
        <ele>78.6</ele>
        <time>2015-03-28T14:40:40Z</time>
      </trkpt>
      <trkpt lat="59.131204370466" lon="17.956427358676">
        <ele>77.8</ele>
        <time>2015-03-28T14:40:41Z</time>
      </trkpt>
      <trkpt lat="59.131159024387" lon="17.956318561614">
        <ele>77.6</ele>
        <time>2015-03-28T14:40:42Z</time>
      </trkpt>
      <trkpt lat="59.131110325548" lon="17.956204986869">
        <ele>77.4</ele>
        <time>2015-03-28T14:40:43Z</time>
      </trkpt>
      <trkpt lat="59.131058273949" lon="17.956089735744">
        <ele>78</ele>
        <time>2015-03-28T14:40:44Z</time>
      </trkpt>
      <trkpt lat="59.131007563454" lon="17.955970628945">
        <ele>78.4</ele>
        <time>2015-03-28T14:40:45Z</time>
      </trkpt>
      <trkpt lat="59.130958864615" lon="17.955837189097">
        <ele>79</ele>
        <time>2015-03-28T14:40:46Z</time>
      </trkpt>
      <trkpt lat="59.130922068074" lon="17.955697546643">
        <ele>79.4</ele>
        <time>2015-03-28T14:40:47Z</time>
      </trkpt>
      <trkpt lat="59.130891809415" lon="17.955551198669">
        <ele>80</ele>
        <time>2015-03-28T14:40:48Z</time>
      </trkpt>
      <trkpt lat="59.130875799986" lon="17.955217682868">
        <ele>80</ele>
        <time>2015-03-28T14:40:50Z</time>
      </trkpt>
      <trkpt lat="59.130896754736" lon="17.954884250886">
        <ele>79.6</ele>
        <time>2015-03-28T14:40:52Z</time>
      </trkpt>
      <trkpt lat="59.13091485964" lon="17.954731616487">
        <ele>79.2</ele>
        <time>2015-03-28T14:40:53Z</time>
      </trkpt>
      <trkpt lat="59.130943022824" lon="17.954583592133">
        <ele>78.6</ele>
        <time>2015-03-28T14:40:54Z</time>
      </trkpt>
      <trkpt lat="59.130978729718" lon="17.954448392086">
        <ele>78.2</ele>
        <time>2015-03-28T14:40:55Z</time>
      </trkpt>
      <trkpt lat="59.131017705553" lon="17.954317215351">
        <ele>77.8</ele>
        <time>2015-03-28T14:40:56Z</time>
      </trkpt>
      <trkpt lat="59.131142260587" lon="17.953918404549">
        <ele>77.8</ele>
        <time>2015-03-28T14:40:59Z</time>
      </trkpt>
      <trkpt lat="59.131291458407" lon="17.953527305095">
        <ele>77.8</ele>
        <time>2015-03-28T14:41:02Z</time>
      </trkpt>
      <trkpt lat="59.131398159994" lon="17.953293282447">
        <ele>77.8</ele>
        <time>2015-03-28T14:41:04Z</time>
      </trkpt>
      <trkpt lat="59.13177232801" lon="17.952511586453">
        <ele>77.8</ele>
        <time>2015-03-28T14:41:11Z</time>
      </trkpt>
      <trkpt lat="59.131825804532" lon="17.952408656721">
        <ele>78.4</ele>
        <time>2015-03-28T14:41:12Z</time>
      </trkpt>
      <trkpt lat="59.131875593018" lon="17.952299272926">
        <ele>78.8</ele>
        <time>2015-03-28T14:41:13Z</time>
      </trkpt>
      <trkpt lat="59.131926052056" lon="17.952191481692">
        <ele>79.2</ele>
        <time>2015-03-28T14:41:14Z</time>
      </trkpt>
      <trkpt lat="59.131975002352" lon="17.952078745137">
        <ele>79.6</ele>
        <time>2015-03-28T14:41:15Z</time>
      </trkpt>
      <trkpt lat="59.132026467218" lon="17.951962907279">
        <ele>80.2</ele>
        <time>2015-03-28T14:41:16Z</time>
      </trkpt>
      <trkpt lat="59.132078518817" lon="17.951853774941">
        <ele>80.2</ele>
        <time>2015-03-28T14:41:17Z</time>
      </trkpt>
      <trkpt lat="59.132337519527" lon="17.951291517089">
        <ele>80.2</ele>
        <time>2015-03-28T14:41:22Z</time>
      </trkpt>
      <trkpt lat="59.132396276646" lon="17.951187832986">
        <ele>80.2</ele>
        <time>2015-03-28T14:41:23Z</time>
      </trkpt>
      <trkpt lat="59.132694839924" lon="17.9506267486">
        <ele>80.2</ele>
        <time>2015-03-28T14:41:28Z</time>
      </trkpt>
      <trkpt lat="59.132926431821" lon="17.949932308185">
        <ele>80.2</ele>
        <time>2015-03-28T14:41:33Z</time>
      </trkpt>
      <trkpt lat="59.13298770351" lon="17.949311963766">
        <ele>79.6</ele>
        <time>2015-03-28T14:41:37Z</time>
      </trkpt>
      <trkpt lat="59.132983261103" lon="17.949159748462">
        <ele>79.2</ele>
        <time>2015-03-28T14:41:38Z</time>
      </trkpt>
      <trkpt lat="59.132967084036" lon="17.949005270045">
        <ele>78.8</ele>
        <time>2015-03-28T14:41:39Z</time>
      </trkpt>
      <trkpt lat="59.132943782354" lon="17.948854228207">
        <ele>78.4</ele>
        <time>2015-03-28T14:41:40Z</time>
      </trkpt>
      <trkpt lat="59.132910673849" lon="17.94871818997">
        <ele>77.8</ele>
        <time>2015-03-28T14:41:41Z</time>
      </trkpt>
      <trkpt lat="59.132828028315" lon="17.948442676917">
        <ele>77.8</ele>
        <time>2015-03-28T14:41:43Z</time>
      </trkpt>
      <trkpt lat="59.132698360322" lon="17.948006315203">
        <ele>77.8</ele>
        <time>2015-03-28T14:41:46Z</time>
      </trkpt>
      <trkpt lat="59.13266667674" lon="17.947845969456">
        <ele>77.8</ele>
        <time>2015-03-28T14:41:47Z</time>
      </trkpt>
      <trkpt lat="59.132640357574" lon="17.947670284832">
        <ele>77.4</ele>
        <time>2015-03-28T14:41:48Z</time>
      </trkpt>
      <trkpt lat="59.132627197991" lon="17.947480770073">
        <ele>77</ele>
        <time>2015-03-28T14:41:49Z</time>
      </trkpt>
      <trkpt lat="59.132618396996" lon="17.947278347188">
        <ele>76.6</ele>
        <time>2015-03-28T14:41:50Z</time>
      </trkpt>
      <trkpt lat="59.13262812" lon="17.947087742782">
        <ele>76</ele>
        <time>2015-03-28T14:41:51Z</time>
      </trkpt>
      <trkpt lat="59.132648068922" lon="17.946899401489">
        <ele>75.6</ele>
        <time>2015-03-28T14:41:52Z</time>
      </trkpt>
      <trkpt lat="59.132670700052" lon="17.946711479291">
        <ele>75.6</ele>
        <time>2015-03-28T14:41:53Z</time>
      </trkpt>
      <trkpt lat="59.132784274797" lon="17.94586499121">
        <ele>75.6</ele>
        <time>2015-03-28T14:41:58Z</time>
      </trkpt>
      <trkpt lat="59.132792572878" lon="17.945187817509">
        <ele>75.6</ele>
        <time>2015-03-28T14:42:02Z</time>
      </trkpt>
      <trkpt lat="59.132694001734" lon="17.944194729997">
        <ele>75.6</ele>
        <time>2015-03-28T14:42:08Z</time>
      </trkpt>
      <trkpt lat="59.132620911566" lon="17.943180017183">
        <ele>75.6</ele>
        <time>2015-03-28T14:42:14Z</time>
      </trkpt>
      <trkpt lat="59.13261638534" lon="17.942835437274">
        <ele>75</ele>
        <time>2015-03-28T14:42:16Z</time>
      </trkpt>
      <trkpt lat="59.132612613485" lon="17.94266478179">
        <ele>74.6</ele>
        <time>2015-03-28T14:42:17Z</time>
      </trkpt>
      <trkpt lat="59.132609763639" lon="17.9424963056">
        <ele>74</ele>
        <time>2015-03-28T14:42:18Z</time>
      </trkpt>
      <trkpt lat="59.132605656508" lon="17.942328164686">
        <ele>73.6</ele>
        <time>2015-03-28T14:42:19Z</time>
      </trkpt>
      <trkpt lat="59.132602806662" lon="17.942159939953">
        <ele>73</ele>
        <time>2015-03-28T14:42:20Z</time>
      </trkpt>
      <trkpt lat="59.132596352599" lon="17.94199255341">
        <ele>73</ele>
        <time>2015-03-28T14:42:21Z</time>
      </trkpt>
      <trkpt lat="59.132527704838" lon="17.941012290205">
        <ele>73</ele>
        <time>2015-03-28T14:42:27Z</time>
      </trkpt>
      <trkpt lat="59.132472971031" lon="17.940556398664">
        <ele>74</ele>
        <time>2015-03-28T14:42:30Z</time>
      </trkpt>
      <trkpt lat="59.1324521001" lon="17.940400327686">
        <ele>74.4</ele>
        <time>2015-03-28T14:42:31Z</time>
      </trkpt>
      <trkpt lat="59.13243030716" lon="17.94025247097">
        <ele>74.8</ele>
        <time>2015-03-28T14:42:32Z</time>
      </trkpt>
      <trkpt lat="59.13240851422" lon="17.940108637566">
        <ele>75.2</ele>
        <time>2015-03-28T14:42:33Z</time>
      </trkpt>
      <trkpt lat="59.132287395765" lon="17.939549648655">
        <ele>75.2</ele>
        <time>2015-03-28T14:42:37Z</time>
      </trkpt>
      <trkpt lat="59.132115650634" lon="17.938721600754">
        <ele>75.2</ele>
        <time>2015-03-28T14:42:43Z</time>
      </trkpt>
      <trkpt lat="59.132024287924" lon="17.938058341007">
        <ele>75.2</ele>
        <time>2015-03-28T14:42:48Z</time>
      </trkpt>
      <trkpt lat="59.132007775581" lon="17.937932780145">
        <ele>75.6</ele>
        <time>2015-03-28T14:42:49Z</time>
      </trkpt>
      <trkpt lat="59.131985395908" lon="17.937802190143">
        <ele>76</ele>
        <time>2015-03-28T14:42:50Z</time>
      </trkpt>
      <trkpt lat="59.131963519149" lon="17.937679311489">
        <ele>76.4</ele>
        <time>2015-03-28T14:42:51Z</time>
      </trkpt>
      <trkpt lat="59.131930243006" lon="17.9375509846">
        <ele>76.8</ele>
        <time>2015-03-28T14:42:52Z</time>
      </trkpt>
      <trkpt lat="59.131895039026" lon="17.937425842833">
        <ele>77.2</ele>
        <time>2015-03-28T14:42:53Z</time>
      </trkpt>
      <trkpt lat="59.131692113227" lon="17.936801307464">
        <ele>77.2</ele>
        <time>2015-03-28T14:42:58Z</time>
      </trkpt>
      <trkpt lat="59.131527660349" lon="17.936313983798">
        <ele>77.2</ele>
        <time>2015-03-28T14:43:02Z</time>
      </trkpt>
      <trkpt lat="59.131335211925" lon="17.935864797777">
        <ele>77.2</ele>
        <time>2015-03-28T14:43:06Z</time>
      </trkpt>
      <trkpt lat="59.131276622444" lon="17.935767148642">
        <ele>77.2</ele>
        <time>2015-03-28T14:43:07Z</time>
      </trkpt>
      <trkpt lat="59.130942603729" lon="17.935339587923">
        <ele>77.2</ele>
        <time>2015-03-28T14:43:12Z</time>
      </trkpt>
      <trkpt lat="59.130513115173" lon="17.934883780201">
        <ele>77.2</ele>
        <time>2015-03-28T14:43:18Z</time>
      </trkpt>
      <trkpt lat="59.13044463505" lon="17.934806582902">
        <ele>76.8</ele>
        <time>2015-03-28T14:43:19Z</time>
      </trkpt>
      <trkpt lat="59.130374897642" lon="17.93472712249">
        <ele>76</ele>
        <time>2015-03-28T14:43:20Z</time>
      </trkpt>
      <trkpt lat="59.130300717827" lon="17.934644057861">
        <ele>75.6</ele>
        <time>2015-03-28T14:43:21Z</time>
      </trkpt>
      <trkpt lat="59.130224610175" lon="17.934564345992">
        <ele>75.2</ele>
        <time>2015-03-28T14:43:22Z</time>
      </trkpt>
      <trkpt lat="59.130148418704" lon="17.934472815644">
        <ele>75.2</ele>
        <time>2015-03-28T14:43:23Z</time>
      </trkpt>
      <trkpt lat="59.12980006694" lon="17.934018349026">
        <ele>75.2</ele>
        <time>2015-03-28T14:43:28Z</time>
      </trkpt>
      <trkpt lat="59.129743237658" lon="17.933918604416">
        <ele>75.2</ele>
        <time>2015-03-28T14:43:29Z</time>
      </trkpt>
      <trkpt lat="59.129573588002" lon="17.933585423891">
        <ele>75.2</ele>
        <time>2015-03-28T14:43:32Z</time>
      </trkpt>
      <trkpt lat="59.129430508969" lon="17.933217793757">
        <ele>75.2</ele>
        <time>2015-03-28T14:43:35Z</time>
      </trkpt>
      <trkpt lat="59.129208807714" lon="17.932578254787">
        <ele>75.2</ele>
        <time>2015-03-28T14:43:40Z</time>
      </trkpt>
      <trkpt lat="59.129079139721" lon="17.93200971051">
        <ele>75.2</ele>
        <time>2015-03-28T14:43:43Z</time>
      </trkpt>
      <trkpt lat="59.129056760048" lon="17.931858249577">
        <ele>75.2</ele>
        <time>2015-03-28T14:43:46Z</time>
      </trkpt>
      <trkpt lat="59.129042510818" lon="17.931703854979">
        <ele>75.2</ele>
        <time>2015-03-28T14:43:47Z</time>
      </trkpt>
      <trkpt lat="59.129012000702" lon="17.931393976136">
        <ele>75.6</ele>
        <time>2015-03-28T14:43:49Z</time>
      </trkpt>
      <trkpt lat="59.12900462463" lon="17.931239162443">
        <ele>76</ele>
        <time>2015-03-28T14:43:50Z</time>
      </trkpt>
      <trkpt lat="59.12899624273" lon="17.931082923827">
        <ele>76.4</ele>
        <time>2015-03-28T14:43:51Z</time>
      </trkpt>
      <trkpt lat="59.128983502242" lon="17.930925511745">
        <ele>76.8</ele>
        <time>2015-03-28T14:43:52Z</time>
      </trkpt>
      <trkpt lat="59.128967325175" lon="17.930761310324">
        <ele>77.2</ele>
        <time>2015-03-28T14:43:53Z</time>
      </trkpt>
      <trkpt lat="59.128927343512" lon="17.930271220631">
        <ele>77.2</ele>
        <time>2015-03-28T14:43:56Z</time>
      </trkpt>
      <trkpt lat="59.128868418755" lon="17.929839301324">
        <ele>77.2</ele>
        <time>2015-03-28T14:43:59Z</time>
      </trkpt>
      <trkpt lat="59.128838830648" lon="17.929714662471">
        <ele>77.6</ele>
        <time>2015-03-28T14:44:00Z</time>
      </trkpt>
      <trkpt lat="59.128804632496" lon="17.929591448541">
        <ele>78</ele>
        <time>2015-03-28T14:44:01Z</time>
      </trkpt>
      <trkpt lat="59.128761717168" lon="17.92946831843">
        <ele>78.6</ele>
        <time>2015-03-28T14:44:02Z</time>
      </trkpt>
      <trkpt lat="59.128716706365" lon="17.929342841387">
        <ele>79</ele>
        <time>2015-03-28T14:44:03Z</time>
      </trkpt>
      <trkpt lat="59.128676137969" lon="17.929222896398">
        <ele>79.4</ele>
        <time>2015-03-28T14:44:04Z</time>
      </trkpt>
      <trkpt lat="59.12850757796" lon="17.928712019593">
        <ele>79.8</ele>
        <time>2015-03-28T14:44:08Z</time>
      </trkpt>
      <trkpt lat="59.128460471682" lon="17.928587548378">
        <ele>80.4</ele>
        <time>2015-03-28T14:44:09Z</time>
      </trkpt>
      <trkpt lat="59.128424932426" lon="17.928450336675">
        <ele>81.2</ele>
        <time>2015-03-28T14:44:10Z</time>
      </trkpt>
      <trkpt lat="59.128380675994" lon="17.928319076121">
        <ele>81.6</ele>
        <time>2015-03-28T14:44:11Z</time>
      </trkpt>
      <trkpt lat="59.128346142566" lon="17.928191084508">
        <ele>81.6</ele>
        <time>2015-03-28T14:44:12Z</time>
      </trkpt>
      <trkpt lat="59.128120920913" lon="17.927392624714">
        <ele>81.6</ele>
        <time>2015-03-28T14:44:18Z</time>
      </trkpt>
      <trkpt lat="59.127921347874" lon="17.926517470535">
        <ele>81.6</ele>
        <time>2015-03-28T14:44:24Z</time>
      </trkpt>
      <trkpt lat="59.127832499734" lon="17.925757567481">
        <ele>81.6</ele>
        <time>2015-03-28T14:44:29Z</time>
      </trkpt>
      <trkpt lat="59.127803246903" lon="17.924815274283">
        <ele>81.6</ele>
        <time>2015-03-28T14:44:35Z</time>
      </trkpt>
      <trkpt lat="59.127805845292" lon="17.924038188334">
        <ele>81.6</ele>
        <time>2015-03-28T14:44:40Z</time>
      </trkpt>
      <trkpt lat="59.127802157256" lon="17.923885805392">
        <ele>81.6</ele>
        <time>2015-03-28T14:44:41Z</time>
      </trkpt>
      <trkpt lat="59.127815987391" lon="17.923165045811">
        <ele>81.6</ele>
        <time>2015-03-28T14:44:46Z</time>
      </trkpt>
      <trkpt lat="59.127835936313" lon="17.922595747163">
        <ele>81.6</ele>
        <time>2015-03-28T14:44:51Z</time>
      </trkpt>
      <trkpt lat="59.127848173887" lon="17.922414614304">
        <ele>81.6</ele>
        <time>2015-03-28T14:44:53Z</time>
      </trkpt>
      <trkpt lat="59.127876001795" lon="17.922289388718">
        <ele>81.6</ele>
        <time>2015-03-28T14:44:55Z</time>
      </trkpt>
      <trkpt lat="59.127885305704" lon="17.922240689879">
        <ele>81.6</ele>
        <time>2015-03-28T14:44:56Z</time>
      </trkpt>
      <trkpt lat="59.127913049793" lon="17.922245719019">
        <ele>83.6</ele>
        <time>2015-03-28T14:50:51Z</time>
      </trkpt>
      <trkpt lat="59.127934675095" lon="17.922270529443">
        <ele>83.6</ele>
        <time>2015-03-28T14:50:52Z</time>
      </trkpt>
      <trkpt lat="59.127992426386" lon="17.922243539725">
        <ele>83.6</ele>
        <time>2015-03-28T14:50:54Z</time>
      </trkpt>
      <trkpt lat="59.128027630366" lon="17.92223054778">
        <ele>83.6</ele>
        <time>2015-03-28T14:50:55Z</time>
      </trkpt>
      <trkpt lat="59.128099295611" lon="17.92220959303">
        <ele>83.6</ele>
        <time>2015-03-28T14:50:57Z</time>
      </trkpt>
      <trkpt lat="59.128218234772" lon="17.922099873959">
        <ele>84.2</ele>
        <time>2015-03-28T14:51:01Z</time>
      </trkpt>
      <trkpt lat="59.128247068508" lon="17.922056958631">
        <ele>84.6</ele>
        <time>2015-03-28T14:51:02Z</time>
      </trkpt>
      <trkpt lat="59.128279674099" lon="17.922004907032">
        <ele>85</ele>
        <time>2015-03-28T14:51:03Z</time>
      </trkpt>
      <trkpt lat="59.128315548631" lon="17.921968529586">
        <ele>85.4</ele>
        <time>2015-03-28T14:51:04Z</time>
      </trkpt>
      <trkpt lat="59.12835167462" lon="17.921925195163">
        <ele>85.8</ele>
        <time>2015-03-28T14:51:05Z</time>
      </trkpt>
      <trkpt lat="59.128384783125" lon="17.92187850798">
        <ele>85.8</ele>
        <time>2015-03-28T14:51:06Z</time>
      </trkpt>
      <trkpt lat="59.12850841615" lon="17.921709696514">
        <ele>86.8</ele>
        <time>2015-03-28T14:51:09Z</time>
      </trkpt>
      <trkpt lat="59.128548481632" lon="17.921648760101">
        <ele>87.2</ele>
        <time>2015-03-28T14:51:10Z</time>
      </trkpt>
      <trkpt lat="59.128593995349" lon="17.92158095053">
        <ele>87.6</ele>
        <time>2015-03-28T14:51:11Z</time>
      </trkpt>
      <trkpt lat="59.128639341428" lon="17.921510458751">
        <ele>88.2</ele>
        <time>2015-03-28T14:51:12Z</time>
      </trkpt>
      <trkpt lat="59.128675635055" lon="17.921451533994">
        <ele>88.6</ele>
        <time>2015-03-28T14:51:13Z</time>
      </trkpt>
      <trkpt lat="59.128711341949" lon="17.921396381092">
        <ele>89.2</ele>
        <time>2015-03-28T14:51:14Z</time>
      </trkpt>
      <trkpt lat="59.12874646211" lon="17.921345754416">
        <ele>89.6</ele>
        <time>2015-03-28T14:51:15Z</time>
      </trkpt>
      <trkpt lat="59.128785437945" lon="17.921300492156">
        <ele>90.2</ele>
        <time>2015-03-28T14:51:16Z</time>
      </trkpt>
      <trkpt lat="59.128872777343" lon="17.921179373701">
        <ele>90.6</ele>
        <time>2015-03-28T14:51:18Z</time>
      </trkpt>
      <trkpt lat="59.128917369051" lon="17.921103601325">
        <ele>91.2</ele>
        <time>2015-03-28T14:51:19Z</time>
      </trkpt>
      <trkpt lat="59.128956344886" lon="17.921038306324">
        <ele>91.6</ele>
        <time>2015-03-28T14:51:20Z</time>
      </trkpt>
      <trkpt lat="59.128995991273" lon="17.920965886708">
        <ele>92.2</ele>
        <time>2015-03-28T14:51:21Z</time>
      </trkpt>
      <trkpt lat="59.129038906601" lon="17.920897574223">
        <ele>92.6</ele>
        <time>2015-03-28T14:51:22Z</time>
      </trkpt>
      <trkpt lat="59.129217021976" lon="17.920606303198">
        <ele>92.6</ele>
        <time>2015-03-28T14:51:26Z</time>
      </trkpt>
      <trkpt lat="59.12934995891" lon="17.920414944421">
        <ele>92.6</ele>
        <time>2015-03-28T14:51:29Z</time>
      </trkpt>
      <trkpt lat="59.129431095702" lon="17.920281420754">
        <ele>93</ele>
        <time>2015-03-28T14:51:31Z</time>
      </trkpt>
      <trkpt lat="59.12947987836" lon="17.920227441318">
        <ele>93.4</ele>
        <time>2015-03-28T14:51:32Z</time>
      </trkpt>
      <trkpt lat="59.129531510864" lon="17.920183352524">
        <ele>93.8</ele>
        <time>2015-03-28T14:51:33Z</time>
      </trkpt>
      <trkpt lat="59.129581466988" lon="17.920133144943">
        <ele>94.6</ele>
        <time>2015-03-28T14:51:34Z</time>
      </trkpt>
      <trkpt lat="59.129716918492" lon="17.919966931866">
        <ele>94.6</ele>
        <time>2015-03-28T14:51:37Z</time>
      </trkpt>
      <trkpt lat="59.130022438747" lon="17.919517829664">
        <ele>94.6</ele>
        <time>2015-03-28T14:51:44Z</time>
      </trkpt>
      <trkpt lat="59.130337179092" lon="17.918958086382">
        <ele>94.6</ele>
        <time>2015-03-28T14:51:51Z</time>
      </trkpt>
      <trkpt lat="59.13060724391" lon="17.918495070226">
        <ele>94.6</ele>
        <time>2015-03-28T14:51:56Z</time>
      </trkpt>
      <trkpt lat="59.130946124127" lon="17.918116208346">
        <ele>94.6</ele>
        <time>2015-03-28T14:52:01Z</time>
      </trkpt>
      <trkpt lat="59.131278717919" lon="17.918093661035">
        <ele>94.6</ele>
        <time>2015-03-28T14:52:05Z</time>
      </trkpt>
      <trkpt lat="59.131360860539" lon="17.918107239713">
        <ele>95</ele>
        <time>2015-03-28T14:52:06Z</time>
      </trkpt>
      <trkpt lat="59.131447194109" lon="17.918128362101">
        <ele>95.6</ele>
        <time>2015-03-28T14:52:07Z</time>
      </trkpt>
      <trkpt lat="59.131532018937" lon="17.918136073449">
        <ele>96</ele>
        <time>2015-03-28T14:52:08Z</time>
      </trkpt>
      <trkpt lat="59.131621621448" lon="17.918124338789">
        <ele>96.4</ele>
        <time>2015-03-28T14:52:09Z</time>
      </trkpt>
      <trkpt lat="59.131713319434" lon="17.918104725143">
        <ele>96.8</ele>
        <time>2015-03-28T14:52:10Z</time>
      </trkpt>
      <trkpt lat="59.13199444836" lon="17.918039681599">
        <ele>96.4</ele>
        <time>2015-03-28T14:52:13Z</time>
      </trkpt>
      <trkpt lat="59.132084050871" lon="17.918017385745">
        <ele>96</ele>
        <time>2015-03-28T14:52:14Z</time>
      </trkpt>
      <trkpt lat="59.132177089961" lon="17.917999197022">
        <ele>95.4</ele>
        <time>2015-03-28T14:52:15Z</time>
      </trkpt>
      <trkpt lat="59.132271134879" lon="17.917988132914">
        <ele>95</ele>
        <time>2015-03-28T14:52:16Z</time>
      </trkpt>
      <trkpt lat="59.132364760702" lon="17.917985534525">
        <ele>94.6</ele>
        <time>2015-03-28T14:52:17Z</time>
      </trkpt>
      <trkpt lat="59.132922073233" lon="17.918061893634">
        <ele>94.6</ele>
        <time>2015-03-28T14:52:23Z</time>
      </trkpt>
      <trkpt lat="59.133373438548" lon="17.918017301926">
        <ele>94.6</ele>
        <time>2015-03-28T14:52:28Z</time>
      </trkpt>
      <trkpt lat="59.13389881604" lon="17.918033981907">
        <ele>94.6</ele>
        <time>2015-03-28T14:52:34Z</time>
      </trkpt>
      <trkpt lat="59.134229146719" lon="17.918286780011">
        <ele>94.6</ele>
        <time>2015-03-28T14:52:38Z</time>
      </trkpt>
      <trkpt lat="59.134516897346" lon="17.918745772855">
        <ele>94.6</ele>
        <time>2015-03-28T14:52:42Z</time>
      </trkpt>
      <trkpt lat="59.134673219781" lon="17.919190348831">
        <ele>94.6</ele>
        <time>2015-03-28T14:52:45Z</time>
      </trkpt>
      <trkpt lat="59.134724684647" lon="17.919342396497">
        <ele>94.6</ele>
        <time>2015-03-28T14:52:46Z</time>
      </trkpt>
      <trkpt lat="59.135033892938" lon="17.920046308459">
        <ele>94.6</ele>
        <time>2015-03-28T14:52:51Z</time>
      </trkpt>
      <trkpt lat="59.135301610824" lon="17.920550312106">
        <ele>95.2</ele>
        <time>2015-03-28T14:52:55Z</time>
      </trkpt>
      <trkpt lat="59.135359278296" lon="17.920691714759">
        <ele>95.6</ele>
        <time>2015-03-28T14:52:56Z</time>
      </trkpt>
      <trkpt lat="59.13542264546" lon="17.920822472399">
        <ele>96</ele>
        <time>2015-03-28T14:52:57Z</time>
      </trkpt>
      <trkpt lat="59.135483078959" lon="17.920961109025">
        <ele>96.6</ele>
        <time>2015-03-28T14:52:58Z</time>
      </trkpt>
      <trkpt lat="59.135544602105" lon="17.921096225253">
        <ele>97</ele>
        <time>2015-03-28T14:52:59Z</time>
      </trkpt>
      <trkpt lat="59.13592891222" lon="17.921956208193">
        <ele>97</ele>
        <time>2015-03-28T14:53:05Z</time>
      </trkpt>
      <trkpt lat="59.136000745103" lon="17.922114961379">
        <ele>97</ele>
        <time>2015-03-28T14:53:06Z</time>
      </trkpt>
      <trkpt lat="59.136072326529" lon="17.922283102293">
        <ele>96.6</ele>
        <time>2015-03-28T14:53:07Z</time>
      </trkpt>
      <trkpt lat="59.136150781113" lon="17.922456691442">
        <ele>96</ele>
        <time>2015-03-28T14:53:08Z</time>
      </trkpt>
      <trkpt lat="59.136230828258" lon="17.922636399378">
        <ele>95.2</ele>
        <time>2015-03-28T14:53:09Z</time>
      </trkpt>
      <trkpt lat="59.136304505159" lon="17.922808647423">
        <ele>94.6</ele>
        <time>2015-03-28T14:53:10Z</time>
      </trkpt>
      <trkpt lat="59.136378098241" lon="17.922981230744">
        <ele>93.8</ele>
        <time>2015-03-28T14:53:11Z</time>
      </trkpt>
      <trkpt lat="59.136450517857" lon="17.923159094662">
        <ele>93</ele>
        <time>2015-03-28T14:53:12Z</time>
      </trkpt>
      <trkpt lat="59.13652989445" lon="17.923329666327">
        <ele>91.6</ele>
        <time>2015-03-28T14:53:13Z</time>
      </trkpt>
      <trkpt lat="59.136607175568" lon="17.923501662915">
        <ele>91</ele>
        <time>2015-03-28T14:53:14Z</time>
      </trkpt>
      <trkpt lat="59.136683702315" lon="17.923677012263">
        <ele>90.2</ele>
        <time>2015-03-28T14:53:15Z</time>
      </trkpt>
      <trkpt lat="59.136759809967" lon="17.923853702715">
        <ele>89.6</ele>
        <time>2015-03-28T14:53:16Z</time>
      </trkpt>
      <trkpt lat="59.136841617311" lon="17.924040283809">
        <ele>88.8</ele>
        <time>2015-03-28T14:53:17Z</time>
      </trkpt>
      <trkpt lat="59.136920071895" lon="17.924222506315">
        <ele>88</ele>
        <time>2015-03-28T14:53:18Z</time>
      </trkpt>
      <trkpt lat="59.137002968886" lon="17.924404561183">
        <ele>87.6</ele>
        <time>2015-03-28T14:53:19Z</time>
      </trkpt>
      <trkpt lat="59.137083602764" lon="17.924596339055">
        <ele>87.2</ele>
        <time>2015-03-28T14:53:20Z</time>
      </trkpt>
      <trkpt lat="59.137163482271" lon="17.924796331189">
        <ele>86.6</ele>
        <time>2015-03-28T14:53:21Z</time>
      </trkpt>
      <trkpt lat="59.13724738509" lon="17.925005208137">
        <ele>86.2</ele>
        <time>2015-03-28T14:53:22Z</time>
      </trkpt>
      <trkpt lat="59.137329862986" lon="17.925217354026">
        <ele>85.6</ele>
        <time>2015-03-28T14:53:23Z</time>
      </trkpt>
      <trkpt lat="59.137414436357" lon="17.925435534883">
        <ele>84.8</ele>
        <time>2015-03-28T14:53:24Z</time>
      </trkpt>
      <trkpt lat="59.137506553438" lon="17.925674083757">
        <ele>83.8</ele>
        <time>2015-03-28T14:53:25Z</time>
      </trkpt>
      <trkpt lat="59.137588444601" lon="17.925911542984">
        <ele>82.8</ele>
        <time>2015-03-28T14:53:26Z</time>
      </trkpt>
      <trkpt lat="59.137670838678" lon="17.926149169849">
        <ele>81.6</ele>
        <time>2015-03-28T14:53:27Z</time>
      </trkpt>
      <trkpt lat="59.137760692646" lon="17.92639216113">
        <ele>80.6</ele>
        <time>2015-03-28T14:53:28Z</time>
      </trkpt>
      <trkpt lat="59.137856330125" lon="17.926625680864">
        <ele>79.4</ele>
        <time>2015-03-28T14:53:29Z</time>
      </trkpt>
      <trkpt lat="59.137958086391" lon="17.926853836182">
        <ele>78.2</ele>
        <time>2015-03-28T14:53:30Z</time>
      </trkpt>
      <trkpt lat="59.138064117426" lon="17.92706774227">
        <ele>77</ele>
        <time>2015-03-28T14:53:31Z</time>
      </trkpt>
      <trkpt lat="59.13817609961" lon="17.927294221208">
        <ele>76</ele>
        <time>2015-03-28T14:53:32Z</time>
      </trkpt>
      <trkpt lat="59.138289674355" lon="17.927477198085">
        <ele>75.2</ele>
        <time>2015-03-28T14:53:33Z</time>
      </trkpt>
      <trkpt lat="59.138401907996" lon="17.927669814147">
        <ele>74.2</ele>
        <time>2015-03-28T14:53:34Z</time>
      </trkpt>
      <trkpt lat="59.138514896008" lon="17.927863436037">
        <ele>73.4</ele>
        <time>2015-03-28T14:53:35Z</time>
      </trkpt>
      <trkpt lat="59.138628889848" lon="17.928053956624">
        <ele>72.6</ele>
        <time>2015-03-28T14:53:36Z</time>
      </trkpt>
      <trkpt lat="59.13874523062" lon="17.928250512179">
        <ele>72</ele>
        <time>2015-03-28T14:53:37Z</time>
      </trkpt>
      <trkpt lat="59.138860984659" lon="17.928447235372">
        <ele>70.6</ele>
        <time>2015-03-28T14:53:38Z</time>
      </trkpt>
      <trkpt lat="59.138980929648" lon="17.928640102891">
        <ele>70</ele>
        <time>2015-03-28T14:53:39Z</time>
      </trkpt>
      <trkpt lat="59.139212018631" lon="17.929048720516">
        <ele>69.4</ele>
        <time>2015-03-28T14:53:41Z</time>
      </trkpt>
      <trkpt lat="59.139318720218" lon="17.92924703627">
        <ele>68.8</ele>
        <time>2015-03-28T14:53:42Z</time>
      </trkpt>
      <trkpt lat="59.139425170348" lon="17.929438311228">
        <ele>68.2</ele>
        <time>2015-03-28T14:53:43Z</time>
      </trkpt>
      <trkpt lat="59.139526172243" lon="17.92962086901">
        <ele>67.6</ele>
        <time>2015-03-28T14:53:44Z</time>
      </trkpt>
      <trkpt lat="59.139635136943" lon="17.9297893452">
        <ele>67</ele>
        <time>2015-03-28T14:53:45Z</time>
      </trkpt>
      <trkpt lat="59.139746532394" lon="17.929940303219">
        <ele>66.4</ele>
        <time>2015-03-28T14:53:46Z</time>
      </trkpt>
      <trkpt lat="59.139864633365" lon="17.930082879338">
        <ele>65.8</ele>
        <time>2015-03-28T14:53:47Z</time>
      </trkpt>
      <trkpt lat="59.139985919458" lon="17.930200561214">
        <ele>65.2</ele>
        <time>2015-03-28T14:53:48Z</time>
      </trkpt>
      <trkpt lat="59.140107373189" lon="17.930315812339">
        <ele>64.4</ele>
        <time>2015-03-28T14:53:49Z</time>
      </trkpt>
      <trkpt lat="59.14023217968" lon="17.93042301684">
        <ele>64.4</ele>
        <time>2015-03-28T14:53:50Z</time>
      </trkpt>
      <trkpt lat="59.140730315997" lon="17.930834232854">
        <ele>64.4</ele>
        <time>2015-03-28T14:53:54Z</time>
      </trkpt>
      <trkpt lat="59.140844309837" lon="17.930942778459">
        <ele>64.4</ele>
        <time>2015-03-28T14:53:55Z</time>
      </trkpt>
      <trkpt lat="59.141156535612" lon="17.93133329118">
        <ele>64.4</ele>
        <time>2015-03-28T14:53:58Z</time>
      </trkpt>
      <trkpt lat="59.141240186974" lon="17.931492044366">
        <ele>64.4</ele>
        <time>2015-03-28T14:53:59Z</time>
      </trkpt>
      <trkpt lat="59.141392653735" lon="17.931815418068">
        <ele>65</ele>
        <time>2015-03-28T14:54:01Z</time>
      </trkpt>
      <trkpt lat="59.141467755559" lon="17.931988588122">
        <ele>66</ele>
        <time>2015-03-28T14:54:02Z</time>
      </trkpt>
      <trkpt lat="59.14153556513" lon="17.932150861706">
        <ele>66.4</ele>
        <time>2015-03-28T14:54:03Z</time>
      </trkpt>
      <trkpt lat="59.141605470176" lon="17.93230810615">
        <ele>67</ele>
        <time>2015-03-28T14:54:04Z</time>
      </trkpt>
      <trkpt lat="59.141671854824" lon="17.932456381961">
        <ele>67.4</ele>
        <time>2015-03-28T14:54:05Z</time>
      </trkpt>
      <trkpt lat="59.141739329119" lon="17.932598874261">
        <ele>68</ele>
        <time>2015-03-28T14:54:06Z</time>
      </trkpt>
      <trkpt lat="59.14181300602" lon="17.93273390667">
        <ele>68.4</ele>
        <time>2015-03-28T14:54:07Z</time>
      </trkpt>
      <trkpt lat="59.141894142812" lon="17.932853600202">
        <ele>69</ele>
        <time>2015-03-28T14:54:08Z</time>
      </trkpt>
      <trkpt lat="59.141983661504" lon="17.932975221571">
        <ele>69</ele>
        <time>2015-03-28T14:54:09Z</time>
      </trkpt>
      <trkpt lat="59.142471907179" lon="17.933554075585">
        <ele>69</ele>
        <time>2015-03-28T14:54:15Z</time>
      </trkpt>
      <trkpt lat="59.142830401042" lon="17.933932266913">
        <ele>69.4</ele>
        <time>2015-03-28T14:54:20Z</time>
      </trkpt>
      <trkpt lat="59.142897204785" lon="17.933996388448">
        <ele>69.8</ele>
        <time>2015-03-28T14:54:21Z</time>
      </trkpt>
      <trkpt lat="59.142964930537" lon="17.934066544951">
        <ele>70.2</ele>
        <time>2015-03-28T14:54:22Z</time>
      </trkpt>
      <trkpt lat="59.143029974081" lon="17.934128487192">
        <ele>70.6</ele>
        <time>2015-03-28T14:54:23Z</time>
      </trkpt>
      <trkpt lat="59.143100046765" lon="17.93418481356">
        <ele>71.2</ele>
        <time>2015-03-28T14:54:24Z</time>
      </trkpt>
      <trkpt lat="59.143170203268" lon="17.934234518227">
        <ele>71.8</ele>
        <time>2015-03-28T14:54:25Z</time>
      </trkpt>
      <trkpt lat="59.143237258468" lon="17.934282127419">
        <ele>72.4</ele>
        <time>2015-03-28T14:54:26Z</time>
      </trkpt>
      <trkpt lat="59.143306325324" lon="17.93432814405">
        <ele>73.4</ele>
        <time>2015-03-28T14:54:27Z</time>
      </trkpt>
      <trkpt lat="59.143695748398" lon="17.934442724623">
        <ele>73.4</ele>
        <time>2015-03-28T14:54:32Z</time>
      </trkpt>
      <trkpt lat="59.144215342379" lon="17.93441363943">
        <ele>73.4</ele>
        <time>2015-03-28T14:54:38Z</time>
      </trkpt>
      <trkpt lat="59.144699900018" lon="17.934238373901">
        <ele>73</ele>
        <time>2015-03-28T14:54:43Z</time>
      </trkpt>
      <trkpt lat="59.14479612423" lon="17.934198308419">
        <ele>72.6</ele>
        <time>2015-03-28T14:54:44Z</time>
      </trkpt>
      <trkpt lat="59.144886564931" lon="17.934154051987">
        <ele>72.2</ele>
        <time>2015-03-28T14:54:45Z</time>
      </trkpt>
      <trkpt lat="59.144980274573" lon="17.934096300696">
        <ele>71.8</ele>
        <time>2015-03-28T14:54:46Z</time>
      </trkpt>
      <trkpt lat="59.145073732758" lon="17.934042824174">
        <ele>71.4</ele>
        <time>2015-03-28T14:54:47Z</time>
      </trkpt>
      <trkpt lat="59.145259224205" lon="17.933931931637">
        <ele>71.4</ele>
        <time>2015-03-28T14:54:49Z</time>
      </trkpt>
      <trkpt lat="59.145677816291" lon="17.933552483024">
        <ele>71.4</ele>
        <time>2015-03-28T14:54:54Z</time>
      </trkpt>
      <trkpt lat="59.146140078076" lon="17.932864748129">
        <ele>71.4</ele>
        <time>2015-03-28T14:55:00Z</time>
      </trkpt>
      <trkpt lat="59.146569566632" lon="17.932091936949">
        <ele>71.4</ele>
        <time>2015-03-28T14:55:06Z</time>
      </trkpt>
      <trkpt lat="59.146650787243" lon="17.931958497101">
        <ele>71.4</ele>
        <time>2015-03-28T14:55:07Z</time>
      </trkpt>
      <trkpt lat="59.14705085533" lon="17.931265816885">
        <ele>71.4</ele>
        <time>2015-03-28T14:55:12Z</time>
      </trkpt>
      <trkpt lat="59.147506663052" lon="17.930717137711">
        <ele>71.4</ele>
        <time>2015-03-28T14:55:17Z</time>
      </trkpt>
      <trkpt lat="59.147801538294" lon="17.930443217219">
        <ele>71</ele>
        <time>2015-03-28T14:55:20Z</time>
      </trkpt>
      <trkpt lat="59.147901953456" lon="17.930359649676">
        <ele>70.6</ele>
        <time>2015-03-28T14:55:21Z</time>
      </trkpt>
      <trkpt lat="59.148004547912" lon="17.930282284739">
        <ele>70.2</ele>
        <time>2015-03-28T14:55:22Z</time>
      </trkpt>
      <trkpt lat="59.148106639454" lon="17.930203746336">
        <ele>69.8</ele>
        <time>2015-03-28T14:55:23Z</time>
      </trkpt>
      <trkpt lat="59.148211580842" lon="17.930128393055">
        <ele>69.4</ele>
        <time>2015-03-28T14:55:24Z</time>
      </trkpt>
      <trkpt lat="59.14873142628" lon="17.92979102158">
        <ele>69.4</ele>
        <time>2015-03-28T14:55:29Z</time>
      </trkpt>
      <trkpt lat="59.149262084369" lon="17.929487010067">
        <ele>69.4</ele>
        <time>2015-03-28T14:55:34Z</time>
      </trkpt>
      <trkpt lat="59.149371971078" lon="17.929430348423">
        <ele>69.4</ele>
        <time>2015-03-28T14:55:35Z</time>
      </trkpt>
      <trkpt lat="59.149918051863" lon="17.92920847953">
        <ele>69.4</ele>
        <time>2015-03-28T14:55:40Z</time>
      </trkpt>
      <trkpt lat="59.150454158187" lon="17.929003039161">
        <ele>69.4</ele>
        <time>2015-03-28T14:55:45Z</time>
      </trkpt>
      <trkpt lat="59.150557590833" lon="17.928962722222">
        <ele>68.8</ele>
        <time>2015-03-28T14:55:46Z</time>
      </trkpt>
      <trkpt lat="59.150669153922" lon="17.928919052523">
        <ele>68.4</ele>
        <time>2015-03-28T14:55:47Z</time>
      </trkpt>
      <trkpt lat="59.150772251292" lon="17.928878400308">
        <ele>68</ele>
        <time>2015-03-28T14:55:48Z</time>
      </trkpt>
      <trkpt lat="59.150873169368" lon="17.928841771405">
        <ele>67.4</ele>
        <time>2015-03-28T14:55:49Z</time>
      </trkpt>
      <trkpt lat="59.150972578702" lon="17.928806902701">
        <ele>67</ele>
        <time>2015-03-28T14:55:50Z</time>
      </trkpt>
      <trkpt lat="59.151261754252" lon="17.928694249965">
        <ele>67</ele>
        <time>2015-03-28T14:55:53Z</time>
      </trkpt>
      <trkpt lat="59.151546822671" lon="17.928592996613">
        <ele>67</ele>
        <time>2015-03-28T14:55:56Z</time>
      </trkpt>
      <trkpt lat="59.152047976472" lon="17.928481517343">
        <ele>67.4</ele>
        <time>2015-03-28T14:56:02Z</time>
      </trkpt>
      <trkpt lat="59.152128861807" lon="17.928467351932">
        <ele>68</ele>
        <time>2015-03-28T14:56:03Z</time>
      </trkpt>
      <trkpt lat="59.152200443233" lon="17.928450085218">
        <ele>68.4</ele>
        <time>2015-03-28T14:56:04Z</time>
      </trkpt>
      <trkpt lat="59.152273533401" lon="17.92843566835">
        <ele>68.8</ele>
        <time>2015-03-28T14:56:05Z</time>
      </trkpt>
      <trkpt lat="59.152343438447" lon="17.928429298106">
        <ele>69.4</ele>
        <time>2015-03-28T14:56:06Z</time>
      </trkpt>
      <trkpt lat="59.152411248018" lon="17.928434746341">
        <ele>69.8</ele>
        <time>2015-03-28T14:56:07Z</time>
      </trkpt>
      <trkpt lat="59.152481739797" lon="17.928444720802">
        <ele>70.2</ele>
        <time>2015-03-28T14:56:08Z</time>
      </trkpt>
      <trkpt lat="59.152551393386" lon="17.92844907939">
        <ele>70.6</ele>
        <time>2015-03-28T14:56:09Z</time>
      </trkpt>
      <trkpt lat="59.152617945672" lon="17.928458215661">
        <ele>71.2</ele>
        <time>2015-03-28T14:56:10Z</time>
      </trkpt>
      <trkpt lat="59.152687180166" lon="17.928487887587">
        <ele>71.6</ele>
        <time>2015-03-28T14:56:11Z</time>
      </trkpt>
      <trkpt lat="59.152811399924" lon="17.928573466786">
        <ele>71.6</ele>
        <time>2015-03-28T14:56:13Z</time>
      </trkpt>
      <trkpt lat="59.152939642994" lon="17.928685951884">
        <ele>72</ele>
        <time>2015-03-28T14:56:15Z</time>
      </trkpt>
      <trkpt lat="59.152994209163" lon="17.928771698721">
        <ele>72.4</ele>
        <time>2015-03-28T14:56:16Z</time>
      </trkpt>
      <trkpt lat="59.153061599639" lon="17.928842777233">
        <ele>72.8</ele>
        <time>2015-03-28T14:56:17Z</time>
      </trkpt>
      <trkpt lat="59.153120524396" lon="17.928927518242">
        <ele>73.2</ele>
        <time>2015-03-28T14:56:18Z</time>
      </trkpt>
      <trkpt lat="59.153180706438" lon="17.929003374437">
        <ele>73.6</ele>
        <time>2015-03-28T14:56:19Z</time>
      </trkpt>
      <trkpt lat="59.153493267489" lon="17.929352145296">
        <ele>73.6</ele>
        <time>2015-03-28T14:56:24Z</time>
      </trkpt>
      <trkpt lat="59.153880343631" lon="17.929702089621">
        <ele>73.6</ele>
        <time>2015-03-28T14:56:30Z</time>
      </trkpt>
      <trkpt lat="59.154133896106" lon="17.929908703456">
        <ele>74</ele>
        <time>2015-03-28T14:56:34Z</time>
      </trkpt>
      <trkpt lat="59.154194413424" lon="17.929949523309">
        <ele>74.4</ele>
        <time>2015-03-28T14:56:35Z</time>
      </trkpt>
      <trkpt lat="59.154254427828" lon="17.929996042854">
        <ele>75</ele>
        <time>2015-03-28T14:56:36Z</time>
      </trkpt>
      <trkpt lat="59.154317292078" lon="17.93004247858">
        <ele>75.4</ele>
        <time>2015-03-28T14:56:37Z</time>
      </trkpt>
      <trkpt lat="59.154377222663" lon="17.930078185474">
        <ele>75.8</ele>
        <time>2015-03-28T14:56:38Z</time>
      </trkpt>
      <trkpt lat="59.154641839246" lon="17.93023442409">
        <ele>76.2</ele>
        <time>2015-03-28T14:56:42Z</time>
      </trkpt>
      <trkpt lat="59.154709145903" lon="17.930263174007">
        <ele>76.6</ele>
        <time>2015-03-28T14:56:43Z</time>
      </trkpt>
      <trkpt lat="59.154774859999" lon="17.930305837878">
        <ele>77</ele>
        <time>2015-03-28T14:56:44Z</time>
      </trkpt>
      <trkpt lat="59.154839903543" lon="17.930335928899">
        <ele>77.4</ele>
        <time>2015-03-28T14:56:45Z</time>
      </trkpt>
      <trkpt lat="59.154908299847" lon="17.930354871993">
        <ele>77.8</ele>
        <time>2015-03-28T14:56:46Z</time>
      </trkpt>
      <trkpt lat="59.155066969214" lon="17.930371468155">
        <ele>77.8</ele>
        <time>2015-03-28T14:56:48Z</time>
      </trkpt>
      <trkpt lat="59.155147519273" lon="17.930356213097">
        <ele>77.8</ele>
        <time>2015-03-28T14:56:49Z</time>
      </trkpt>
      <trkpt lat="59.155302249147" lon="17.930247164578">
        <ele>77.8</ele>
        <time>2015-03-28T14:56:51Z</time>
      </trkpt>
      <trkpt lat="59.155514981769" lon="17.929946170549">
        <ele>77.8</ele>
        <time>2015-03-28T14:56:54Z</time>
      </trkpt>
      <trkpt lat="59.155590670326" lon="17.929847515586">
        <ele>77</ele>
        <time>2015-03-28T14:56:55Z</time>
      </trkpt>
      <trkpt lat="59.155663509037" lon="17.929713991919">
        <ele>76.4</ele>
        <time>2015-03-28T14:56:56Z</time>
      </trkpt>
      <trkpt lat="59.155747328037" lon="17.929576025845">
        <ele>75.6</ele>
        <time>2015-03-28T14:56:57Z</time>
      </trkpt>
      <trkpt lat="59.155823770965" lon="17.929415009546">
        <ele>75</ele>
        <time>2015-03-28T14:56:58Z</time>
      </trkpt>
      <trkpt lat="59.155902560825" lon="17.929255082894">
        <ele>74.2</ele>
        <time>2015-03-28T14:56:59Z</time>
      </trkpt>
      <trkpt lat="59.15597925521" lon="17.929103286685">
        <ele>73.4</ele>
        <time>2015-03-28T14:57:00Z</time>
      </trkpt>
      <trkpt lat="59.156060392002" lon="17.928942186567">
        <ele>72.6</ele>
        <time>2015-03-28T14:57:01Z</time>
      </trkpt>
      <trkpt lat="59.156141109699" lon="17.928801454466">
        <ele>72.2</ele>
        <time>2015-03-28T14:57:02Z</time>
      </trkpt>
      <trkpt lat="59.156223671414" lon="17.928664997134">
        <ele>71.6</ele>
        <time>2015-03-28T14:57:03Z</time>
      </trkpt>
      <trkpt lat="59.156304808206" lon="17.928512865649">
        <ele>71.2</ele>
        <time>2015-03-28T14:57:04Z</time>
      </trkpt>
      <trkpt lat="59.156390974138" lon="17.928377162688">
        <ele>70.6</ele>
        <time>2015-03-28T14:57:05Z</time>
      </trkpt>
      <trkpt lat="59.156486863074" lon="17.928260151364">
        <ele>70.2</ele>
        <time>2015-03-28T14:57:06Z</time>
      </trkpt>
      <trkpt lat="59.156695237108" lon="17.928135344873">
        <ele>70.2</ele>
        <time>2015-03-28T14:57:08Z</time>
      </trkpt>
      <trkpt lat="59.156919452933" lon="17.928127717344">
        <ele>70.2</ele>
        <time>2015-03-28T14:57:10Z</time>
      </trkpt>
      <trkpt lat="59.157025567787" lon="17.928153617415">
        <ele>70.2</ele>
        <time>2015-03-28T14:57:11Z</time>
      </trkpt>
      <trkpt lat="59.157585059612" lon="17.928379593439">
        <ele>69.8</ele>
        <time>2015-03-28T14:57:16Z</time>
      </trkpt>
      <trkpt lat="59.157693772855" lon="17.928404068587">
        <ele>69.2</ele>
        <time>2015-03-28T14:57:17Z</time>
      </trkpt>
      <trkpt lat="59.15780315665" lon="17.92842896283">
        <ele>68.8</ele>
        <time>2015-03-28T14:57:18Z</time>
      </trkpt>
      <trkpt lat="59.157908600952" lon="17.928456287824">
        <ele>68.4</ele>
        <time>2015-03-28T14:57:19Z</time>
      </trkpt>
      <trkpt lat="59.158007758829" lon="17.928479924782">
        <ele>68</ele>
        <time>2015-03-28T14:57:20Z</time>
      </trkpt>
      <trkpt lat="59.158214791759" lon="17.928502975007">
        <ele>68</ele>
        <time>2015-03-28T14:57:22Z</time>
      </trkpt>
      <trkpt lat="59.15858099697" lon="17.928490318338">
        <ele>68.4</ele>
        <time>2015-03-28T14:57:26Z</time>
      </trkpt>
      <trkpt lat="59.158664313056" lon="17.928481852619">
        <ele>69</ele>
        <time>2015-03-28T14:57:27Z</time>
      </trkpt>
      <trkpt lat="59.15874863497" lon="17.928466513742">
        <ele>69.4</ele>
        <time>2015-03-28T14:57:28Z</time>
      </trkpt>
      <trkpt lat="59.158828011563" lon="17.928453186521">
        <ele>69.8</ele>
        <time>2015-03-28T14:57:29Z</time>
      </trkpt>
      <trkpt lat="59.15890286193" lon="17.928438350558">
        <ele>70.2</ele>
        <time>2015-03-28T14:57:30Z</time>
      </trkpt>
      <trkpt lat="59.158979304858" lon="17.928414294505">
        <ele>70.8</ele>
        <time>2015-03-28T14:57:31Z</time>
      </trkpt>
      <trkpt lat="59.15905038337" lon="17.928396524877">
        <ele>71.2</ele>
        <time>2015-03-28T14:57:32Z</time>
      </trkpt>
      <trkpt lat="59.159119534045" lon="17.928380599267">
        <ele>71.6</ele>
        <time>2015-03-28T14:57:33Z</time>
      </trkpt>
      <trkpt lat="59.159187930349" lon="17.928368194055">
        <ele>72.2</ele>
        <time>2015-03-28T14:57:34Z</time>
      </trkpt>
      <trkpt lat="59.159254734092" lon="17.928358890146">
        <ele>72.6</ele>
        <time>2015-03-28T14:57:35Z</time>
      </trkpt>
      <trkpt lat="59.159313826487" lon="17.92832335089">
        <ele>73.2</ele>
        <time>2015-03-28T14:57:36Z</time>
      </trkpt>
      <trkpt lat="59.159382809524" lon="17.928319746673">
        <ele>73.6</ele>
        <time>2015-03-28T14:57:37Z</time>
      </trkpt>
      <trkpt lat="59.159443913575" lon="17.928307257642">
        <ele>74.2</ele>
        <time>2015-03-28T14:57:38Z</time>
      </trkpt>
      <trkpt lat="59.159505436721" lon="17.928290996756">
        <ele>74.6</ele>
        <time>2015-03-28T14:57:39Z</time>
      </trkpt>
      <trkpt lat="59.159567462781" lon="17.928274819689">
        <ele>75.2</ele>
        <time>2015-03-28T14:57:40Z</time>
      </trkpt>
      <trkpt lat="59.159623789149" lon="17.928250009265">
        <ele>75.6</ele>
        <time>2015-03-28T14:57:41Z</time>
      </trkpt>
      <trkpt lat="59.159678606775" lon="17.928226372307">
        <ele>76.2</ele>
        <time>2015-03-28T14:57:42Z</time>
      </trkpt>
      <trkpt lat="59.159739124093" lon="17.928199717865">
        <ele>76.8</ele>
        <time>2015-03-28T14:57:43Z</time>
      </trkpt>
      <trkpt lat="59.15979721066" lon="17.928172392871">
        <ele>77.8</ele>
        <time>2015-03-28T14:57:44Z</time>
      </trkpt>
      <trkpt lat="59.159855464865" lon="17.928141044565">
        <ele>78.4</ele>
        <time>2015-03-28T14:57:45Z</time>
      </trkpt>
      <trkpt lat="59.159921430418" lon="17.928094105925">
        <ele>79</ele>
        <time>2015-03-28T14:57:46Z</time>
      </trkpt>
      <trkpt lat="59.15998412703" lon="17.928042138145">
        <ele>79.4</ele>
        <time>2015-03-28T14:57:47Z</time>
      </trkpt>
      <trkpt lat="59.160045231081" lon="17.927986063234">
        <ele>80</ele>
        <time>2015-03-28T14:57:48Z</time>
      </trkpt>
      <trkpt lat="59.160102982372" lon="17.927918337482">
        <ele>80.4</ele>
        <time>2015-03-28T14:57:49Z</time>
      </trkpt>
      <trkpt lat="59.160161236577" lon="17.927846504599">
        <ele>81</ele>
        <time>2015-03-28T14:57:50Z</time>
      </trkpt>
      <trkpt lat="59.160453764887" lon="17.927504523079">
        <ele>81</ele>
        <time>2015-03-28T14:57:55Z</time>
      </trkpt>
      <trkpt lat="59.160677393979" lon="17.927250886785">
        <ele>81</ele>
        <time>2015-03-28T14:57:59Z</time>
      </trkpt>
      <trkpt lat="59.160791220181" lon="17.927148124691">
        <ele>81</ele>
        <time>2015-03-28T14:58:01Z</time>
      </trkpt>
      <trkpt lat="59.160919714708" lon="17.927052235755">
        <ele>81</ele>
        <time>2015-03-28T14:58:03Z</time>
      </trkpt>
      <trkpt lat="59.160988613926" lon="17.927006135305">
        <ele>81</ele>
        <time>2015-03-28T14:58:04Z</time>
      </trkpt>
      <trkpt lat="59.161388765832" lon="17.926708829312">
        <ele>81</ele>
        <time>2015-03-28T14:58:09Z</time>
      </trkpt>
      <trkpt lat="59.161811800325" lon="17.926281352412">
        <ele>81</ele>
        <time>2015-03-28T14:58:14Z</time>
      </trkpt>
      <trkpt lat="59.161991508261" lon="17.926078594251">
        <ele>80.4</ele>
        <time>2015-03-28T14:58:16Z</time>
      </trkpt>
      <trkpt lat="59.162090666138" lon="17.92598144803">
        <ele>79.8</ele>
        <time>2015-03-28T14:58:17Z</time>
      </trkpt>
      <trkpt lat="59.162195607526" lon="17.925895449736">
        <ele>79.4</ele>
        <time>2015-03-28T14:58:18Z</time>
      </trkpt>
      <trkpt lat="59.162307338253" lon="17.925822862482">
        <ele>78.6</ele>
        <time>2015-03-28T14:58:19Z</time>
      </trkpt>
      <trkpt lat="59.162427786156" lon="17.925769888874">
        <ele>78</ele>
        <time>2015-03-28T14:58:20Z</time>
      </trkpt>
      <trkpt lat="59.162549156068" lon="17.925745749002">
        <ele>77</ele>
        <time>2015-03-28T14:58:21Z</time>
      </trkpt>
      <trkpt lat="59.162676812405" lon="17.925737199464">
        <ele>76</ele>
        <time>2015-03-28T14:58:22Z</time>
      </trkpt>
      <trkpt lat="59.162812012452" lon="17.925734601075">
        <ele>75</ele>
        <time>2015-03-28T14:58:23Z</time>
      </trkpt>
      <trkpt lat="59.162956851684" lon="17.925746503373">
        <ele>74</ele>
        <time>2015-03-28T14:58:24Z</time>
      </trkpt>
      <trkpt lat="59.163104037848" lon="17.925766368476">
        <ele>72.8</ele>
        <time>2015-03-28T14:58:25Z</time>
      </trkpt>
      <trkpt lat="59.163256839885" lon="17.925771732892">
        <ele>71.4</ele>
        <time>2015-03-28T14:58:26Z</time>
      </trkpt>
      <trkpt lat="59.16341651508" lon="17.925749939952">
        <ele>70</ele>
        <time>2015-03-28T14:58:27Z</time>
      </trkpt>
      <trkpt lat="59.16357744756" lon="17.925700067647">
        <ele>68.4</ele>
        <time>2015-03-28T14:58:28Z</time>
      </trkpt>
      <trkpt lat="59.163738044764" lon="17.925639298872">
        <ele>66.8</ele>
        <time>2015-03-28T14:58:29Z</time>
      </trkpt>
      <trkpt lat="59.163884308919" lon="17.925590097119">
        <ele>65.2</ele>
        <time>2015-03-28T14:58:30Z</time>
      </trkpt>
      <trkpt lat="59.16404012844" lon="17.925556234243">
        <ele>63.8</ele>
        <time>2015-03-28T14:58:31Z</time>
      </trkpt>
      <trkpt lat="59.164187901337" lon="17.925549612542">
        <ele>60.8</ele>
        <time>2015-03-28T14:58:32Z</time>
      </trkpt>
      <trkpt lat="59.164329220171" lon="17.925583056323">
        <ele>59.4</ele>
        <time>2015-03-28T14:58:33Z</time>
      </trkpt>
      <trkpt lat="59.164568271959" lon="17.925788077597">
        <ele>59.4</ele>
        <time>2015-03-28T14:58:35Z</time>
      </trkpt>
      <trkpt lat="59.164667681293" lon="17.925921601264">
        <ele>59.4</ele>
        <time>2015-03-28T14:58:36Z</time>
      </trkpt>
      <trkpt lat="59.164860297355" lon="17.926208178425">
        <ele>59.4</ele>
        <time>2015-03-28T14:58:38Z</time>
      </trkpt>
      <trkpt lat="59.165056601453" lon="17.926479584347">
        <ele>59.4</ele>
        <time>2015-03-28T14:58:40Z</time>
      </trkpt>
      <trkpt lat="59.165259527252" lon="17.926677481006">
        <ele>59.4</ele>
        <time>2015-03-28T14:58:42Z</time>
      </trkpt>
      <trkpt lat="59.165365725925" lon="17.926749146251">
        <ele>59.4</ele>
        <time>2015-03-28T14:58:43Z</time>
      </trkpt>
      <trkpt lat="59.165831508108" lon="17.92693363187">
        <ele>59.4</ele>
        <time>2015-03-28T14:58:47Z</time>
      </trkpt>
      <trkpt lat="59.166486302136" lon="17.926935978802">
        <ele>58.8</ele>
        <time>2015-03-28T14:58:52Z</time>
      </trkpt>
      <trkpt lat="59.166618568518" lon="17.926928518911">
        <ele>58.4</ele>
        <time>2015-03-28T14:58:53Z</time>
      </trkpt>
      <trkpt lat="59.166751253995" lon="17.926923825047">
        <ele>58</ele>
        <time>2015-03-28T14:58:54Z</time>
      </trkpt>
      <trkpt lat="59.166886370223" lon="17.926912174206">
        <ele>57.2</ele>
        <time>2015-03-28T14:58:55Z</time>
      </trkpt>
      <trkpt lat="59.167012769275" lon="17.926899852813">
        <ele>56.6</ele>
        <time>2015-03-28T14:58:56Z</time>
      </trkpt>
      <trkpt lat="59.167136150843" lon="17.92687495857">
        <ele>55.4</ele>
        <time>2015-03-28T14:58:57Z</time>
      </trkpt>
      <trkpt lat="59.167256431108" lon="17.926841598608">
        <ele>54.8</ele>
        <time>2015-03-28T14:58:58Z</time>
      </trkpt>
      <trkpt lat="59.167370676405" lon="17.926788038267">
        <ele>54.2</ele>
        <time>2015-03-28T14:58:59Z</time>
      </trkpt>
      <trkpt lat="59.167478970553" lon="17.926713523176">
        <ele>53.6</ele>
        <time>2015-03-28T14:59:00Z</time>
      </trkpt>
      <trkpt lat="59.167582235561" lon="17.926625094131">
        <ele>53</ele>
        <time>2015-03-28T14:59:01Z</time>
      </trkpt>
      <trkpt lat="59.167687344587" lon="17.926530378661">
        <ele>52.4</ele>
        <time>2015-03-28T14:59:02Z</time>
      </trkpt>
      <trkpt lat="59.16778767593" lon="17.926453349">
        <ele>52.4</ele>
        <time>2015-03-28T14:59:03Z</time>
      </trkpt>
      <trkpt lat="59.167978196517" lon="17.926352263286">
        <ele>52.8</ele>
        <time>2015-03-28T14:59:05Z</time>
      </trkpt>
      <trkpt lat="59.168065787372" lon="17.926335415667">
        <ele>53.2</ele>
        <time>2015-03-28T14:59:06Z</time>
      </trkpt>
      <trkpt lat="59.168151198933" lon="17.926332733459">
        <ele>53.6</ele>
        <time>2015-03-28T14:59:07Z</time>
      </trkpt>
      <trkpt lat="59.168235353209" lon="17.926334745115">
        <ele>54.2</ele>
        <time>2015-03-28T14:59:08Z</time>
      </trkpt>
      <trkpt lat="59.168318836933" lon="17.926338097875">
        <ele>54.6</ele>
        <time>2015-03-28T14:59:09Z</time>
      </trkpt>
      <trkpt lat="59.168589069389" lon="17.926339019884">
        <ele>55</ele>
        <time>2015-03-28T14:59:12Z</time>
      </trkpt>
      <trkpt lat="59.168680599737" lon="17.926329715975">
        <ele>55.4</ele>
        <time>2015-03-28T14:59:13Z</time>
      </trkpt>
      <trkpt lat="59.16877590194" lon="17.926311862528">
        <ele>55.8</ele>
        <time>2015-03-28T14:59:14Z</time>
      </trkpt>
      <trkpt lat="59.168871874695" lon="17.92629493109">
        <ele>56.2</ele>
        <time>2015-03-28T14:59:15Z</time>
      </trkpt>
      <trkpt lat="59.168966925441" lon="17.926286381552">
        <ele>56.6</ele>
        <time>2015-03-28T14:59:16Z</time>
      </trkpt>
      <trkpt lat="59.1694414248" lon="17.926233324125">
        <ele>56.6</ele>
        <time>2015-03-28T14:59:21Z</time>
      </trkpt>
      <trkpt lat="59.169904273318" lon="17.926038361131">
        <ele>56.6</ele>
        <time>2015-03-28T14:59:26Z</time>
      </trkpt>
      <trkpt lat="59.170304676681" lon="17.925778103136">
        <ele>57</ele>
        <time>2015-03-28T14:59:31Z</time>
      </trkpt>
      <trkpt lat="59.170388328043" lon="17.925708114271">
        <ele>57.6</ele>
        <time>2015-03-28T14:59:32Z</time>
      </trkpt>
      <trkpt lat="59.170466112075" lon="17.925638293044">
        <ele>58</ele>
        <time>2015-03-28T14:59:33Z</time>
      </trkpt>
      <trkpt lat="59.170542890279" lon="17.925566041066">
        <ele>58.4</ele>
        <time>2015-03-28T14:59:34Z</time>
      </trkpt>
      <trkpt lat="59.170618746474" lon="17.925494208183">
        <ele>58.8</ele>
        <time>2015-03-28T14:59:35Z</time>
      </trkpt>
      <trkpt lat="59.170928625317" lon="17.925221712614">
        <ele>58.8</ele>
        <time>2015-03-28T14:59:39Z</time>
      </trkpt>
      <trkpt lat="59.171008421005" lon="17.925193800887">
        <ele>58.8</ele>
        <time>2015-03-28T14:59:40Z</time>
      </trkpt>
      <trkpt lat="59.171084780114" lon="17.925229004867">
        <ele>58.8</ele>
        <time>2015-03-28T14:59:41Z</time>
      </trkpt>
      <trkpt lat="59.171188883312" lon="17.925462105506">
        <ele>58.8</ele>
        <time>2015-03-28T14:59:43Z</time>
      </trkpt>
      <trkpt lat="59.171241689282" lon="17.925767039028">
        <ele>58.8</ele>
        <time>2015-03-28T14:59:45Z</time>
      </trkpt>
      <trkpt lat="59.171297596555" lon="17.926063842107">
        <ele>59.8</ele>
        <time>2015-03-28T14:59:47Z</time>
      </trkpt>
      <trkpt lat="59.17133824877" lon="17.926181021069">
        <ele>60.2</ele>
        <time>2015-03-28T14:59:48Z</time>
      </trkpt>
      <trkpt lat="59.17138770198" lon="17.926275065987">
        <ele>60.8</ele>
        <time>2015-03-28T14:59:49Z</time>
      </trkpt>
      <trkpt lat="59.171448219298" lon="17.926346228318">
        <ele>61.4</ele>
        <time>2015-03-28T14:59:50Z</time>
      </trkpt>
      <trkpt lat="59.171515525955" lon="17.926408338197">
        <ele>62.2</ele>
        <time>2015-03-28T14:59:51Z</time>
      </trkpt>
      <trkpt lat="59.171584173716" lon="17.92646340728">
        <ele>62.8</ele>
        <time>2015-03-28T14:59:52Z</time>
      </trkpt>
      <trkpt lat="59.171653072934" lon="17.926517135259">
        <ele>63.4</ele>
        <time>2015-03-28T14:59:53Z</time>
      </trkpt>
      <trkpt lat="59.171872008162" lon="17.926674966436">
        <ele>63.4</ele>
        <time>2015-03-28T14:59:56Z</time>
      </trkpt>
      <trkpt lat="59.172235279708" lon="17.926926255798">
        <ele>63.4</ele>
        <time>2015-03-28T15:00:01Z</time>
      </trkpt>
      <trkpt lat="59.172382801148" lon="17.927021138906">
        <ele>63.4</ele>
        <time>2015-03-28T15:00:03Z</time>
      </trkpt>
      <trkpt lat="59.172853277195" lon="17.927355073802">
        <ele>63.4</ele>
        <time>2015-03-28T15:00:09Z</time>
      </trkpt>
      <trkpt lat="59.173356023557" lon="17.927712980932">
        <ele>63.4</ele>
        <time>2015-03-28T15:00:15Z</time>
      </trkpt>
      <trkpt lat="59.173842592852" lon="17.928056052099">
        <ele>63.4</ele>
        <time>2015-03-28T15:00:21Z</time>
      </trkpt>
      <trkpt lat="59.174147945469" lon="17.928278340087">
        <ele>63.8</ele>
        <time>2015-03-28T15:00:25Z</time>
      </trkpt>
      <trkpt lat="59.174219862171" lon="17.928331900428">
        <ele>64.2</ele>
        <time>2015-03-28T15:00:26Z</time>
      </trkpt>
      <trkpt lat="59.174292114149" lon="17.928380683086">
        <ele>64.8</ele>
        <time>2015-03-28T15:00:27Z</time>
      </trkpt>
      <trkpt lat="59.174362270652" lon="17.928428795192">
        <ele>65.2</ele>
        <time>2015-03-28T15:00:28Z</time>
      </trkpt>
      <trkpt lat="59.174429158214" lon="17.928479505687">
        <ele>65.6</ele>
        <time>2015-03-28T15:00:29Z</time>
      </trkpt>
      <trkpt lat="59.174697127557" lon="17.928680922744">
        <ele>66</ele>
        <time>2015-03-28T15:00:33Z</time>
      </trkpt>
      <trkpt lat="59.174761081454" lon="17.928727274651">
        <ele>66.6</ele>
        <time>2015-03-28T15:00:34Z</time>
      </trkpt>
      <trkpt lat="59.174823526609" lon="17.928770692893">
        <ele>67.4</ele>
        <time>2015-03-28T15:00:35Z</time>
      </trkpt>
      <trkpt lat="59.174888067239" lon="17.928810758375">
        <ele>67.8</ele>
        <time>2015-03-28T15:00:36Z</time>
      </trkpt>
      <trkpt lat="59.175009269513" lon="17.928885189647">
        <ele>68.2</ele>
        <time>2015-03-28T15:00:38Z</time>
      </trkpt>
      <trkpt lat="59.175072971953" lon="17.928922405283">
        <ele>68.6</ele>
        <time>2015-03-28T15:00:39Z</time>
      </trkpt>
      <trkpt lat="59.175132986357" lon="17.928958531272">
        <ele>69.2</ele>
        <time>2015-03-28T15:00:40Z</time>
      </trkpt>
      <trkpt lat="59.175192078752" lon="17.9289930647">
        <ele>69.6</ele>
        <time>2015-03-28T15:00:41Z</time>
      </trkpt>
      <trkpt lat="59.175253015165" lon="17.929025167377">
        <ele>70</ele>
        <time>2015-03-28T15:00:42Z</time>
      </trkpt>
      <trkpt lat="59.175493491876" lon="17.929138155389">
        <ele>70.4</ele>
        <time>2015-03-28T15:00:46Z</time>
      </trkpt>
      <trkpt lat="59.175562558732" lon="17.929166234754">
        <ele>70.8</ele>
        <time>2015-03-28T15:00:47Z</time>
      </trkpt>
      <trkpt lat="59.175631038855" lon="17.929181992726">
        <ele>71.2</ele>
        <time>2015-03-28T15:00:48Z</time>
      </trkpt>
      <trkpt lat="59.175699602797" lon="17.929198924164">
        <ele>71.8</ele>
        <time>2015-03-28T15:00:49Z</time>
      </trkpt>
      <trkpt lat="59.175767580006" lon="17.929215352688">
        <ele>72.2</ele>
        <time>2015-03-28T15:00:50Z</time>
      </trkpt>
      <trkpt lat="59.175981737551" lon="17.929250975763">
        <ele>72.2</ele>
        <time>2015-03-28T15:00:53Z</time>
      </trkpt>
      <trkpt lat="59.176513066192" lon="17.929260028215">
        <ele>72.2</ele>
        <time>2015-03-28T15:01:00Z</time>
      </trkpt>
      <trkpt lat="59.176739461311" lon="17.929236726533">
        <ele>72.2</ele>
        <time>2015-03-28T15:01:03Z</time>
      </trkpt>
      <trkpt lat="59.176888575312" lon="17.929205210589">
        <ele>72.6</ele>
        <time>2015-03-28T15:01:05Z</time>
      </trkpt>
      <trkpt lat="59.17696334186" lon="17.929187189504">
        <ele>73</ele>
        <time>2015-03-28T15:01:06Z</time>
      </trkpt>
      <trkpt lat="59.177034923286" lon="17.929160199786">
        <ele>73.4</ele>
        <time>2015-03-28T15:01:07Z</time>
      </trkpt>
      <trkpt lat="59.177104912151" lon="17.929134467353">
        <ele>74</ele>
        <time>2015-03-28T15:01:08Z</time>
      </trkpt>
      <trkpt lat="59.177177164129" lon="17.92910119121">
        <ele>74.4</ele>
        <time>2015-03-28T15:01:09Z</time>
      </trkpt>
      <trkpt lat="59.177311106891" lon="17.929028603956">
        <ele>74.4</ele>
        <time>2015-03-28T15:01:11Z</time>
      </trkpt>
      <trkpt lat="59.177375228426" lon="17.928994992537">
        <ele>74.8</ele>
        <time>2015-03-28T15:01:12Z</time>
      </trkpt>
      <trkpt lat="59.177439852875" lon="17.92896456624">
        <ele>75.4</ele>
        <time>2015-03-28T15:01:13Z</time>
      </trkpt>
      <trkpt lat="59.177505734609" lon="17.928924919853">
        <ele>75.8</ele>
        <time>2015-03-28T15:01:14Z</time>
      </trkpt>
      <trkpt lat="59.177572119257" lon="17.928876472471">
        <ele>76.4</ele>
        <time>2015-03-28T15:01:15Z</time>
      </trkpt>
      <trkpt lat="59.177634815869" lon="17.92882961765">
        <ele>76.8</ele>
        <time>2015-03-28T15:01:16Z</time>
      </trkpt>
      <trkpt lat="59.178061622217" lon="17.928551841484">
        <ele>77.2</ele>
        <time>2015-03-28T15:01:23Z</time>
      </trkpt>
      <trkpt lat="59.178124318829" lon="17.928510602536">
        <ele>77.6</ele>
        <time>2015-03-28T15:01:24Z</time>
      </trkpt>
      <trkpt lat="59.178183411224" lon="17.92847841604">
        <ele>78.6</ele>
        <time>2015-03-28T15:01:25Z</time>
      </trkpt>
      <trkpt lat="59.178244515275" lon="17.928447654467">
        <ele>79</ele>
        <time>2015-03-28T15:01:26Z</time>
      </trkpt>
      <trkpt lat="59.178498319207" lon="17.928333576808">
        <ele>79</ele>
        <time>2015-03-28T15:01:30Z</time>
      </trkpt>
      <trkpt lat="59.178776095373" lon="17.928285129426">
        <ele>79</ele>
        <time>2015-03-28T15:01:34Z</time>
      </trkpt>
      <trkpt lat="59.178852873577" lon="17.928280770838">
        <ele>79</ele>
        <time>2015-03-28T15:01:35Z</time>
      </trkpt>
      <trkpt lat="59.179098966161" lon="17.928260989554">
        <ele>79</ele>
        <time>2015-03-28T15:01:38Z</time>
      </trkpt>
      <trkpt lat="59.179569190751" lon="17.928297367">
        <ele>79</ele>
        <time>2015-03-28T15:01:43Z</time>
      </trkpt>
      <trkpt lat="59.179774212025" lon="17.928328882944">
        <ele>78.4</ele>
        <time>2015-03-28T15:01:45Z</time>
      </trkpt>
      <trkpt lat="59.17987940487" lon="17.928354531558">
        <ele>78</ele>
        <time>2015-03-28T15:01:46Z</time>
      </trkpt>
      <trkpt lat="59.179991889968" lon="17.928384622579">
        <ele>77.4</ele>
        <time>2015-03-28T15:01:47Z</time>
      </trkpt>
      <trkpt lat="59.180098759193" lon="17.928414965057">
        <ele>77</ele>
        <time>2015-03-28T15:01:48Z</time>
      </trkpt>
      <trkpt lat="59.180207053341" lon="17.928452180693">
        <ele>76.4</ele>
        <time>2015-03-28T15:01:49Z</time>
      </trkpt>
      <trkpt lat="59.180318029697" lon="17.928487719949">
        <ele>75.2</ele>
        <time>2015-03-28T15:01:50Z</time>
      </trkpt>
      <trkpt lat="59.180431101528" lon="17.928523343024">
        <ele>74.8</ele>
        <time>2015-03-28T15:01:51Z</time>
      </trkpt>
      <trkpt lat="59.180547190843" lon="17.928554775149">
        <ele>74.2</ele>
        <time>2015-03-28T15:01:52Z</time>
      </trkpt>
      <trkpt lat="59.1806647889" lon="17.928583608885">
        <ele>73.6</ele>
        <time>2015-03-28T15:01:53Z</time>
      </trkpt>
      <trkpt lat="59.180780542939" lon="17.928619315779">
        <ele>73.2</ele>
        <time>2015-03-28T15:01:54Z</time>
      </trkpt>
      <trkpt lat="59.1808994821" lon="17.928660387089">
        <ele>72.8</ele>
        <time>2015-03-28T15:01:55Z</time>
      </trkpt>
      <trkpt lat="59.181014984682" lon="17.928693160318">
        <ele>72.2</ele>
        <time>2015-03-28T15:01:56Z</time>
      </trkpt>
      <trkpt lat="59.181133085653" lon="17.92872568209">
        <ele>71.6</ele>
        <time>2015-03-28T15:01:57Z</time>
      </trkpt>
      <trkpt lat="59.181250767529" lon="17.928762646269">
        <ele>71</ele>
        <time>2015-03-28T15:01:58Z</time>
      </trkpt>
      <trkpt lat="59.181363252627" lon="17.928800700095">
        <ele>70.4</ele>
        <time>2015-03-28T15:01:59Z</time>
      </trkpt>
      <trkpt lat="59.181476492096" lon="17.928829030917">
        <ele>69.8</ele>
        <time>2015-03-28T15:02:00Z</time>
      </trkpt>
      <trkpt lat="59.181940933175" lon="17.928811261289">
        <ele>69.8</ele>
        <time>2015-03-28T15:02:04Z</time>
      </trkpt>
      <trkpt lat="59.18252305613" lon="17.928620489245">
        <ele>69.8</ele>
        <time>2015-03-28T15:02:09Z</time>
      </trkpt>
      <trkpt lat="59.183042817749" lon="17.928302731416">
        <ele>69</ele>
        <time>2015-03-28T15:02:14Z</time>
      </trkpt>
      <trkpt lat="59.183140131608" lon="17.928250763636">
        <ele>68.6</ele>
        <time>2015-03-28T15:02:15Z</time>
      </trkpt>
      <trkpt lat="59.183240295313" lon="17.928198795856">
        <ele>68.2</ele>
        <time>2015-03-28T15:02:16Z</time>
      </trkpt>
      <trkpt lat="59.183333418222" lon="17.928153701234">
        <ele>67.8</ele>
        <time>2015-03-28T15:02:17Z</time>
      </trkpt>
      <trkpt lat="59.183630388939" lon="17.928024452336">
        <ele>67.8</ele>
        <time>2015-03-28T15:02:20Z</time>
      </trkpt>
      <trkpt lat="59.18383230891" lon="17.927938286404">
        <ele>68.2</ele>
        <time>2015-03-28T15:02:22Z</time>
      </trkpt>
      <trkpt lat="59.18393792085" lon="17.927889000832">
        <ele>68.8</ele>
        <time>2015-03-28T15:02:23Z</time>
      </trkpt>
      <trkpt lat="59.184048478111" lon="17.927840888726">
        <ele>69.4</ele>
        <time>2015-03-28T15:02:24Z</time>
      </trkpt>
      <trkpt lat="59.18415082111" lon="17.927793530991">
        <ele>70</ele>
        <time>2015-03-28T15:02:25Z</time>
      </trkpt>
      <trkpt lat="59.184257187421" lon="17.927748687826">
        <ele>70.4</ele>
        <time>2015-03-28T15:02:26Z</time>
      </trkpt>
      <trkpt lat="59.184669995996" lon="17.927667215758">
        <ele>70.4</ele>
        <time>2015-03-28T15:02:30Z</time>
      </trkpt>
      <trkpt lat="59.185204677397" lon="17.927735444424">
        <ele>70.4</ele>
        <time>2015-03-28T15:02:35Z</time>
      </trkpt>
      <trkpt lat="59.18572913288" lon="17.927953792919">
        <ele>70.4</ele>
        <time>2015-03-28T15:02:40Z</time>
      </trkpt>
      <trkpt lat="59.186334473698" lon="17.928219080054">
        <ele>70.4</ele>
        <time>2015-03-28T15:02:46Z</time>
      </trkpt>
      <trkpt lat="59.18643572705" lon="17.928265012866">
        <ele>70.4</ele>
        <time>2015-03-28T15:02:47Z</time>
      </trkpt>
      <trkpt lat="59.187025142258" lon="17.92852870744">
        <ele>70.4</ele>
        <time>2015-03-28T15:02:53Z</time>
      </trkpt>
      <trkpt lat="59.187224044745" lon="17.928607664938">
        <ele>70.4</ele>
        <time>2015-03-28T15:02:55Z</time>
      </trkpt>
      <trkpt lat="59.18731917931" lon="17.928643958565">
        <ele>70</ele>
        <time>2015-03-28T15:02:56Z</time>
      </trkpt>
      <trkpt lat="59.187414481513" lon="17.928680838925">
        <ele>69.6</ele>
        <time>2015-03-28T15:02:57Z</time>
      </trkpt>
      <trkpt lat="59.187508191155" lon="17.92871813838">
        <ele>69.2</ele>
        <time>2015-03-28T15:02:58Z</time>
      </trkpt>
      <trkpt lat="59.18760164934" lon="17.928754096731">
        <ele>68.6</ele>
        <time>2015-03-28T15:02:59Z</time>
      </trkpt>
      <trkpt lat="59.187693179688" lon="17.928798856077">
        <ele>68.2</ele>
        <time>2015-03-28T15:03:00Z</time>
      </trkpt>
      <trkpt lat="59.187785715864" lon="17.928838753921">
        <ele>68.2</ele>
        <time>2015-03-28T15:03:01Z</time>
      </trkpt>
      <trkpt lat="59.188073885586" lon="17.92894109692">
        <ele>69.2</ele>
        <time>2015-03-28T15:03:04Z</time>
      </trkpt>
      <trkpt lat="59.188168098142" lon="17.928976468538">
        <ele>69.6</ele>
        <time>2015-03-28T15:03:05Z</time>
      </trkpt>
      <trkpt lat="59.188263148888" lon="17.929003793532">
        <ele>70</ele>
        <time>2015-03-28T15:03:06Z</time>
      </trkpt>
      <trkpt lat="59.18835602034" lon="17.929028855413">
        <ele>70.4</ele>
        <time>2015-03-28T15:03:07Z</time>
      </trkpt>
      <trkpt lat="59.188901933487" lon="17.929166486211">
        <ele>70.4</ele>
        <time>2015-03-28T15:03:13Z</time>
      </trkpt>
      <trkpt lat="59.188987931781" lon="17.929182328002">
        <ele>70.4</ele>
        <time>2015-03-28T15:03:14Z</time>
      </trkpt>
      <trkpt lat="59.189479865492" lon="17.929257513645">
        <ele>70.4</ele>
        <time>2015-03-28T15:03:20Z</time>
      </trkpt>
      <trkpt lat="59.189634343909" lon="17.929291292702">
        <ele>70.4</ele>
        <time>2015-03-28T15:03:22Z</time>
      </trkpt>
      <trkpt lat="59.189772980535" lon="17.929462199643">
        <ele>70.4</ele>
        <time>2015-03-28T15:03:24Z</time>
      </trkpt>
      <trkpt lat="59.189895356275" lon="17.929897136434">
        <ele>70.4</ele>
        <time>2015-03-28T15:03:27Z</time>
      </trkpt>
      <trkpt lat="59.189923100364" lon="17.930049854652">
        <ele>70.4</ele>
        <time>2015-03-28T15:03:28Z</time>
      </trkpt>
      <trkpt lat="59.190067855777" lon="17.930648657588">
        <ele>70.4</ele>
        <time>2015-03-28T15:03:32Z</time>
      </trkpt>
      <trkpt lat="59.190106496336" lon="17.930791904259">
        <ele>70.4</ele>
        <time>2015-03-28T15:03:33Z</time>
      </trkpt>
      <trkpt lat="59.190194673924" lon="17.931074374289">
        <ele>70.4</ele>
        <time>2015-03-28T15:03:35Z</time>
      </trkpt>
      <trkpt lat="59.190259633649" lon="17.931188703405">
        <ele>70.4</ele>
        <time>2015-03-28T15:03:36Z</time>
      </trkpt>
      <trkpt lat="59.190432300789" lon="17.931268582912">
        <ele>70.4</ele>
        <time>2015-03-28T15:03:38Z</time>
      </trkpt>
      <trkpt lat="59.190688535472" lon="17.931101280188">
        <ele>70.4</ele>
        <time>2015-03-28T15:03:41Z</time>
      </trkpt>
      <trkpt lat="59.190766990056" lon="17.931017964102">
        <ele>70.4</ele>
        <time>2015-03-28T15:03:42Z</time>
      </trkpt>
      <trkpt lat="59.191001180342" lon="17.930727698905">
        <ele>70.4</ele>
        <time>2015-03-28T15:03:45Z</time>
      </trkpt>
      <trkpt lat="59.191505854541" lon="17.930101068061">
        <ele>70.4</ele>
        <time>2015-03-28T15:03:51Z</time>
      </trkpt>
      <trkpt lat="59.192047744376" lon="17.929520872943">
        <ele>70.4</ele>
        <time>2015-03-28T15:03:57Z</time>
      </trkpt>
      <trkpt lat="59.192526350866" lon="17.929157685216">
        <ele>70.4</ele>
        <time>2015-03-28T15:04:02Z</time>
      </trkpt>
      <trkpt lat="59.193106965079" lon="17.928860463042">
        <ele>70.4</ele>
        <time>2015-03-28T15:04:08Z</time>
      </trkpt>
      <trkpt lat="59.193599066428" lon="17.92878770815">
        <ele>70.4</ele>
        <time>2015-03-28T15:04:13Z</time>
      </trkpt>
      <trkpt lat="59.194173645673" lon="17.928869766951">
        <ele>70.4</ele>
        <time>2015-03-28T15:04:19Z</time>
      </trkpt>
      <trkpt lat="59.194435999143" lon="17.928924752215">
        <ele>70.8</ele>
        <time>2015-03-28T15:04:22Z</time>
      </trkpt>
      <trkpt lat="59.194520488695" lon="17.928944198223">
        <ele>71.2</ele>
        <time>2015-03-28T15:04:23Z</time>
      </trkpt>
      <trkpt lat="59.194604307695" lon="17.928964314783">
        <ele>71.6</ele>
        <time>2015-03-28T15:04:24Z</time>
      </trkpt>
      <trkpt lat="59.194687120867" lon="17.928982503506">
        <ele>72</ele>
        <time>2015-03-28T15:04:25Z</time>
      </trkpt>
      <trkpt lat="59.194772616247" lon="17.928999351125">
        <ele>72.4</ele>
        <time>2015-03-28T15:04:26Z</time>
      </trkpt>
      <trkpt lat="59.19501376351" lon="17.929037321132">
        <ele>72.8</ele>
        <time>2015-03-28T15:04:29Z</time>
      </trkpt>
      <trkpt lat="59.195095403216" lon="17.929055593674">
        <ele>73.2</ele>
        <time>2015-03-28T15:04:30Z</time>
      </trkpt>
      <trkpt lat="59.195175785637" lon="17.929074788225">
        <ele>73.6</ele>
        <time>2015-03-28T15:04:31Z</time>
      </trkpt>
      <trkpt lat="59.195254659316" lon="17.929091552025">
        <ele>74</ele>
        <time>2015-03-28T15:04:32Z</time>
      </trkpt>
      <trkpt lat="59.195337221031" lon="17.929111081852">
        <ele>74.4</ele>
        <time>2015-03-28T15:04:33Z</time>
      </trkpt>
      <trkpt lat="59.195487257041" lon="17.929146369651">
        <ele>74.8</ele>
        <time>2015-03-28T15:04:35Z</time>
      </trkpt>
      <trkpt lat="59.195558838467" lon="17.929166067116">
        <ele>75.4</ele>
        <time>2015-03-28T15:04:36Z</time>
      </trkpt>
      <trkpt lat="59.195632012454" lon="17.929186435133">
        <ele>75.8</ele>
        <time>2015-03-28T15:04:37Z</time>
      </trkpt>
      <trkpt lat="59.195704515889" lon="17.929205378227">
        <ele>76.2</ele>
        <time>2015-03-28T15:04:38Z</time>
      </trkpt>
      <trkpt lat="59.195775594401" lon="17.929218453991">
        <ele>76.6</ele>
        <time>2015-03-28T15:04:39Z</time>
      </trkpt>
      <trkpt lat="59.195842649601" lon="17.929238486732">
        <ele>76.6</ele>
        <time>2015-03-28T15:04:40Z</time>
      </trkpt>
      <trkpt lat="59.195978017286" lon="17.929275786187">
        <ele>77.4</ele>
        <time>2015-03-28T15:04:42Z</time>
      </trkpt>
      <trkpt lat="59.196043563744" lon="17.929285844467">
        <ele>77.8</ele>
        <time>2015-03-28T15:04:43Z</time>
      </trkpt>
      <trkpt lat="59.196108691107" lon="17.929292549987">
        <ele>78.2</ele>
        <time>2015-03-28T15:04:44Z</time>
      </trkpt>
      <trkpt lat="59.196174572841" lon="17.929305122837">
        <ele>78.8</ele>
        <time>2015-03-28T15:04:45Z</time>
      </trkpt>
      <trkpt lat="59.196452013731" lon="17.929319036791">
        <ele>78.8</ele>
        <time>2015-03-28T15:04:49Z</time>
      </trkpt>
      <trkpt lat="59.196878987717" lon="17.929302189172">
        <ele>78.8</ele>
        <time>2015-03-28T15:04:55Z</time>
      </trkpt>
      <trkpt lat="59.196959034862" lon="17.929301434801">
        <ele>79.2</ele>
        <time>2015-03-28T15:04:56Z</time>
      </trkpt>
      <trkpt lat="59.19703631598" lon="17.929293723453">
        <ele>79.6</ele>
        <time>2015-03-28T15:04:57Z</time>
      </trkpt>
      <trkpt lat="59.197114435288" lon="17.929279809499">
        <ele>80</ele>
        <time>2015-03-28T15:04:58Z</time>
      </trkpt>
      <trkpt lat="59.19719138113" lon="17.929266063183">
        <ele>80.4</ele>
        <time>2015-03-28T15:04:59Z</time>
      </trkpt>
      <trkpt lat="59.19727100918" lon="17.929253322695">
        <ele>80.8</ele>
        <time>2015-03-28T15:05:00Z</time>
      </trkpt>
      <trkpt lat="59.197912140711" lon="17.929113680241">
        <ele>80.8</ele>
        <time>2015-03-28T15:05:08Z</time>
      </trkpt>
      <trkpt lat="59.19839753654" lon="17.928932379744">
        <ele>80.8</ele>
        <time>2015-03-28T15:05:14Z</time>
      </trkpt>
      <trkpt lat="59.198954010881" lon="17.928624009643">
        <ele>80.8</ele>
        <time>2015-03-28T15:05:21Z</time>
      </trkpt>
      <trkpt lat="59.199491709766" lon="17.928159317107">
        <ele>80.8</ele>
        <time>2015-03-28T15:05:28Z</time>
      </trkpt>
      <trkpt lat="59.199943577995" lon="17.92765028432">
        <ele>80.8</ele>
        <time>2015-03-28T15:05:34Z</time>
      </trkpt>
      <trkpt lat="59.20044774928" lon="17.92697805594">
        <ele>80.8</ele>
        <time>2015-03-28T15:05:41Z</time>
      </trkpt>
      <trkpt lat="59.200522683466" lon="17.926880742081">
        <ele>80.8</ele>
        <time>2015-03-28T15:05:42Z</time>
      </trkpt>
      <trkpt lat="59.200894001636" lon="17.926382521945">
        <ele>80.2</ele>
        <time>2015-03-28T15:05:47Z</time>
      </trkpt>
      <trkpt lat="59.200969271098" lon="17.926293841443">
        <ele>79.6</ele>
        <time>2015-03-28T15:05:48Z</time>
      </trkpt>
      <trkpt lat="59.201049737338" lon="17.926202143457">
        <ele>79</ele>
        <time>2015-03-28T15:05:49Z</time>
      </trkpt>
      <trkpt lat="59.201128862474" lon="17.926115390792">
        <ele>78.4</ele>
        <time>2015-03-28T15:05:50Z</time>
      </trkpt>
      <trkpt lat="59.201208574343" lon="17.926031487973">
        <ele>78</ele>
        <time>2015-03-28T15:05:51Z</time>
      </trkpt>
      <trkpt lat="59.201544856171" lon="17.925710964117">
        <ele>78</ele>
        <time>2015-03-28T15:05:55Z</time>
      </trkpt>
      <trkpt lat="59.201996556762" lon="17.925391613727">
        <ele>77.4</ele>
        <time>2015-03-28T15:06:00Z</time>
      </trkpt>
      <trkpt lat="59.202087919472" lon="17.925337047558">
        <ele>77</ele>
        <time>2015-03-28T15:06:01Z</time>
      </trkpt>
      <trkpt lat="59.202181712933" lon="17.925284995959">
        <ele>76.4</ele>
        <time>2015-03-28T15:06:02Z</time>
      </trkpt>
      <trkpt lat="59.202274249109" lon="17.925242415907">
        <ele>76</ele>
        <time>2015-03-28T15:06:03Z</time>
      </trkpt>
      <trkpt lat="59.202371060054" lon="17.925203188615">
        <ele>75.6</ele>
        <time>2015-03-28T15:06:04Z</time>
      </trkpt>
      <trkpt lat="59.202566106867" lon="17.925140994917">
        <ele>75.6</ele>
        <time>2015-03-28T15:06:06Z</time>
      </trkpt>
      <trkpt lat="59.202859724824" lon="17.92510302491">
        <ele>75</ele>
        <time>2015-03-28T15:06:09Z</time>
      </trkpt>
      <trkpt lat="59.202963911841" lon="17.925088272766">
        <ele>74.6</ele>
        <time>2015-03-28T15:06:10Z</time>
      </trkpt>
      <trkpt lat="59.203064829917" lon="17.925069413491">
        <ele>74.2</ele>
        <time>2015-03-28T15:06:11Z</time>
      </trkpt>
      <trkpt lat="59.203169268391" lon="17.92503596971">
        <ele>73.6</ele>
        <time>2015-03-28T15:06:12Z</time>
      </trkpt>
      <trkpt lat="59.203268007173" lon="17.924994646943">
        <ele>73.2</ele>
        <time>2015-03-28T15:06:13Z</time>
      </trkpt>
      <trkpt lat="59.2034635569" lon="17.924919712757">
        <ele>73.2</ele>
        <time>2015-03-28T15:06:15Z</time>
      </trkpt>
      <trkpt lat="59.203775866494" lon="17.924846706408">
        <ele>72.8</ele>
        <time>2015-03-28T15:06:18Z</time>
      </trkpt>
      <trkpt lat="59.203884579737" lon="17.924828852961">
        <ele>72.2</ele>
        <time>2015-03-28T15:06:19Z</time>
      </trkpt>
      <trkpt lat="59.20399748393" lon="17.924800270682">
        <ele>71.8</ele>
        <time>2015-03-28T15:06:20Z</time>
      </trkpt>
      <trkpt lat="59.2041173451" lon="17.924780237941">
        <ele>71</ele>
        <time>2015-03-28T15:06:21Z</time>
      </trkpt>
      <trkpt lat="59.204488411813" lon="17.924692814724">
        <ele>71</ele>
        <time>2015-03-28T15:06:24Z</time>
      </trkpt>
      <trkpt lat="59.204745819962" lon="17.924626597714">
        <ele>70.4</ele>
        <time>2015-03-28T15:06:26Z</time>
      </trkpt>
      <trkpt lat="59.204874817403" lon="17.924596339055">
        <ele>69.8</ele>
        <time>2015-03-28T15:06:27Z</time>
      </trkpt>
      <trkpt lat="59.205002725197" lon="17.924563146731">
        <ele>69.4</ele>
        <time>2015-03-28T15:06:28Z</time>
      </trkpt>
      <trkpt lat="59.205136081226" lon="17.924525092905">
        <ele>68.6</ele>
        <time>2015-03-28T15:06:29Z</time>
      </trkpt>
      <trkpt lat="59.205270191626" lon="17.924486284708">
        <ele>68</ele>
        <time>2015-03-28T15:06:30Z</time>
      </trkpt>
      <trkpt lat="59.205400949266" lon="17.924443034104">
        <ele>67.2</ele>
        <time>2015-03-28T15:06:31Z</time>
      </trkpt>
      <trkpt lat="59.205540004987" lon="17.924386791555">
        <ele>66.2</ele>
        <time>2015-03-28T15:06:32Z</time>
      </trkpt>
      <trkpt lat="59.205670343532" lon="17.924330968101">
        <ele>65.4</ele>
        <time>2015-03-28T15:06:33Z</time>
      </trkpt>
      <trkpt lat="59.205795485299" lon="17.924272713896">
        <ele>64.6</ele>
        <time>2015-03-28T15:06:34Z</time>
      </trkpt>
      <trkpt lat="59.205918447772" lon="17.924213370044">
        <ele>63.8</ele>
        <time>2015-03-28T15:06:35Z</time>
      </trkpt>
      <trkpt lat="59.206038979494" lon="17.92415503202">
        <ele>63.2</ele>
        <time>2015-03-28T15:06:36Z</time>
      </trkpt>
      <trkpt lat="59.206157751017" lon="17.924094514702">
        <ele>62.8</ele>
        <time>2015-03-28T15:06:37Z</time>
      </trkpt>
      <trkpt lat="59.206274929979" lon="17.924027040407">
        <ele>62.2</ele>
        <time>2015-03-28T15:06:38Z</time>
      </trkpt>
      <trkpt lat="59.206390600199" lon="17.92394967547">
        <ele>61.6</ele>
        <time>2015-03-28T15:06:39Z</time>
      </trkpt>
      <trkpt lat="59.206503336754" lon="17.923863509538">
        <ele>61</ele>
        <time>2015-03-28T15:06:40Z</time>
      </trkpt>
      <trkpt lat="59.206905081221" lon="17.923465620745">
        <ele>61</ele>
        <time>2015-03-28T15:06:44Z</time>
      </trkpt>
      <trkpt lat="59.20719182602" lon="17.923035042542">
        <ele>61.6</ele>
        <time>2015-03-28T15:06:48Z</time>
      </trkpt>
      <trkpt lat="59.207254774089" lon="17.922926832213">
        <ele>62.2</ele>
        <time>2015-03-28T15:06:49Z</time>
      </trkpt>
      <trkpt lat="59.207315710502" lon="17.922822393739">
        <ele>62.8</ele>
        <time>2015-03-28T15:06:50Z</time>
      </trkpt>
      <trkpt lat="59.207372455965" lon="17.922723654957">
        <ele>63.4</ele>
        <time>2015-03-28T15:06:51Z</time>
      </trkpt>
      <trkpt lat="59.207427189772" lon="17.922623323614">
        <ele>63.8</ele>
        <time>2015-03-28T15:06:52Z</time>
      </trkpt>
      <trkpt lat="59.207481588303" lon="17.92251720876">
        <ele>64.4</ele>
        <time>2015-03-28T15:06:53Z</time>
      </trkpt>
      <trkpt lat="59.207532885531" lon="17.922410674811">
        <ele>64.8</ele>
        <time>2015-03-28T15:06:54Z</time>
      </trkpt>
      <trkpt lat="59.207583512207" lon="17.9223043085">
        <ele>65.2</ele>
        <time>2015-03-28T15:06:55Z</time>
      </trkpt>
      <trkpt lat="59.207640592946" lon="17.922190817574">
        <ele>65.6</ele>
        <time>2015-03-28T15:06:56Z</time>
      </trkpt>
      <trkpt lat="59.207690129975" lon="17.922092078792">
        <ele>66</ele>
        <time>2015-03-28T15:06:57Z</time>
      </trkpt>
      <trkpt lat="59.207788533481" lon="17.921891248468">
        <ele>66.6</ele>
        <time>2015-03-28T15:06:59Z</time>
      </trkpt>
      <trkpt lat="59.207829437153" lon="17.921782619044">
        <ele>67</ele>
        <time>2015-03-28T15:07:00Z</time>
      </trkpt>
      <trkpt lat="59.207870005549" lon="17.921684718452">
        <ele>67.4</ele>
        <time>2015-03-28T15:07:01Z</time>
      </trkpt>
      <trkpt lat="59.207908897565" lon="17.921587991326">
        <ele>67.8</ele>
        <time>2015-03-28T15:07:02Z</time>
      </trkpt>
      <trkpt lat="59.207950555608" lon="17.921494365503">
        <ele>68.4</ele>
        <time>2015-03-28T15:07:03Z</time>
      </trkpt>
      <trkpt lat="59.20803085421" lon="17.921304683106">
        <ele>68.4</ele>
        <time>2015-03-28T15:07:05Z</time>
      </trkpt>
      <trkpt lat="59.208268229618" lon="17.920746616204">
        <ele>68.4</ele>
        <time>2015-03-28T15:07:11Z</time>
      </trkpt>
      <trkpt lat="59.208419858189" lon="17.920377058233">
        <ele>68.8</ele>
        <time>2015-03-28T15:07:15Z</time>
      </trkpt>
      <trkpt lat="59.20845581654" lon="17.920281253116">
        <ele>69.2</ele>
        <time>2015-03-28T15:07:16Z</time>
      </trkpt>
      <trkpt lat="59.208492529262" lon="17.920174635348">
        <ele>69.6</ele>
        <time>2015-03-28T15:07:17Z</time>
      </trkpt>
      <trkpt lat="59.208528319975" lon="17.92007388491">
        <ele>70</ele>
        <time>2015-03-28T15:07:18Z</time>
      </trkpt>
      <trkpt lat="59.20856478124" lon="17.919974894671">
        <ele>70.4</ele>
        <time>2015-03-28T15:07:19Z</time>
      </trkpt>
      <trkpt lat="59.208819507181" lon="17.919403416729">
        <ele>70.4</ele>
        <time>2015-03-28T15:07:25Z</time>
      </trkpt>
      <trkpt lat="59.209001226773" lon="17.919013658379">
        <ele>70.4</ele>
        <time>2015-03-28T15:07:29Z</time>
      </trkpt>
      <trkpt lat="59.209105246152" lon="17.91880402706">
        <ele>70.4</ele>
        <time>2015-03-28T15:07:31Z</time>
      </trkpt>
      <trkpt lat="59.209243547502" lon="17.918559610856">
        <ele>69.8</ele>
        <time>2015-03-28T15:07:34Z</time>
      </trkpt>
      <trkpt lat="59.209269866668" lon="17.918517785175">
        <ele>69</ele>
        <time>2015-03-28T15:07:35Z</time>
      </trkpt>
      <trkpt lat="59.209291240513" lon="17.918486688326">
        <ele>68.6</ele>
        <time>2015-03-28T15:07:36Z</time>
      </trkpt>
      <trkpt lat="59.209308758684" lon="17.918478893159">
        <ele>68</ele>
        <time>2015-03-28T15:07:37Z</time>
      </trkpt>
      <trkpt lat="59.209603633926" lon="17.918191393989">
        <ele>68</ele>
        <time>2015-03-28T15:08:26Z</time>
      </trkpt>
      <trkpt lat="59.209678149017" lon="17.918121824219">
        <ele>68</ele>
        <time>2015-03-28T15:08:28Z</time>
      </trkpt>
      <trkpt lat="59.209780240559" lon="17.918005148171">
        <ele>68</ele>
        <time>2015-03-28T15:08:31Z</time>
      </trkpt>
      <trkpt lat="59.210163125751" lon="17.917712033128">
        <ele>68</ele>
        <time>2015-03-28T15:12:46Z</time>
      </trkpt>
      <trkpt lat="59.210350796492" lon="17.917596698184">
        <ele>68</ele>
        <time>2015-03-28T15:12:51Z</time>
      </trkpt>
      <trkpt lat="59.21052698403" lon="17.917469963856">
        <ele>68</ele>
        <time>2015-03-28T15:12:55Z</time>
      </trkpt>
      <trkpt lat="59.210575766688" lon="17.917433837867">
        <ele>69</ele>
        <time>2015-03-28T15:12:56Z</time>
      </trkpt>
      <trkpt lat="59.210627231554" lon="17.917397879516">
        <ele>69.4</ele>
        <time>2015-03-28T15:12:57Z</time>
      </trkpt>
      <trkpt lat="59.2106803728" lon="17.917355886197">
        <ele>69.8</ele>
        <time>2015-03-28T15:12:58Z</time>
      </trkpt>
      <trkpt lat="59.210736447711" lon="17.917316575086">
        <ele>70.2</ele>
        <time>2015-03-28T15:12:59Z</time>
      </trkpt>
      <trkpt lat="59.210793276993" lon="17.917272318654">
        <ele>70.2</ele>
        <time>2015-03-28T15:13:00Z</time>
      </trkpt>
      <trkpt lat="59.210911797059" lon="17.917177435546">
        <ele>70.2</ele>
        <time>2015-03-28T15:13:02Z</time>
      </trkpt>
      <trkpt lat="59.21108689495" lon="17.91704298987">
        <ele>70.2</ele>
        <time>2015-03-28T15:13:05Z</time>
      </trkpt>
      <trkpt lat="59.211368945885" lon="17.91684601522">
        <ele>70.2</ele>
        <time>2015-03-28T15:13:10Z</time>
      </trkpt>
      <trkpt lat="59.211489729064" lon="17.916767812093">
        <ele>70.2</ele>
        <time>2015-03-28T15:13:12Z</time>
      </trkpt>
      <trkpt lat="59.211546558346" lon="17.916713916476">
        <ele>70.2</ele>
        <time>2015-03-28T15:13:13Z</time>
      </trkpt>
      <trkpt lat="59.211777982605" lon="17.916548122494">
        <ele>70.2</ele>
        <time>2015-03-28T15:13:17Z</time>
      </trkpt>
      <trkpt lat="59.21214888168" lon="17.916346537799">
        <ele>70.2</ele>
        <time>2015-03-28T15:13:23Z</time>
      </trkpt>
      <trkpt lat="59.212261031502" lon="17.916444689848">
        <ele>70.2</ele>
        <time>2015-03-28T15:13:25Z</time>
      </trkpt>
      <trkpt lat="59.212343593217" lon="17.916633869331">
        <ele>69.8</ele>
        <time>2015-03-28T15:13:27Z</time>
      </trkpt>
      <trkpt lat="59.212384832165" lon="17.916724812946">
        <ele>69.4</ele>
        <time>2015-03-28T15:13:28Z</time>
      </trkpt>
      <trkpt lat="59.212438392506" lon="17.916789185938">
        <ele>69</ele>
        <time>2015-03-28T15:13:29Z</time>
      </trkpt>
      <trkpt lat="59.212494048322" lon="17.916841069899">
        <ele>68.6</ele>
        <time>2015-03-28T15:13:30Z</time>
      </trkpt>
      <trkpt lat="59.212550709966" lon="17.916891528937">
        <ele>68.2</ele>
        <time>2015-03-28T15:13:31Z</time>
      </trkpt>
      <trkpt lat="59.212736536689" lon="17.917053802521">
        <ele>68.2</ele>
        <time>2015-03-28T15:13:34Z</time>
      </trkpt>
      <trkpt lat="59.213059658934" lon="17.917408943624">
        <ele>68.6</ele>
        <time>2015-03-28T15:13:39Z</time>
      </trkpt>
      <trkpt lat="59.213117577863" lon="17.917494690461">
        <ele>69</ele>
        <time>2015-03-28T15:13:40Z</time>
      </trkpt>
      <trkpt lat="59.213181447941" lon="17.917588567741">
        <ele>69.4</ele>
        <time>2015-03-28T15:13:41Z</time>
      </trkpt>
      <trkpt lat="59.213239115413" lon="17.91768504341">
        <ele>70</ele>
        <time>2015-03-28T15:13:42Z</time>
      </trkpt>
      <trkpt lat="59.213294855048" lon="17.917789649522">
        <ele>70.4</ele>
        <time>2015-03-28T15:13:43Z</time>
      </trkpt>
      <trkpt lat="59.213402143368" lon="17.918033059898">
        <ele>70.4</ele>
        <time>2015-03-28T15:13:45Z</time>
      </trkpt>
      <trkpt lat="59.2136056559" lon="17.918655332154">
        <ele>70.4</ele>
        <time>2015-03-28T15:13:49Z</time>
      </trkpt>
      <trkpt lat="59.213724259785" lon="17.919357567736">
        <ele>70.4</ele>
        <time>2015-03-28T15:13:53Z</time>
      </trkpt>
      <trkpt lat="59.213748232019" lon="17.919715055771">
        <ele>70.4</ele>
        <time>2015-03-28T15:13:55Z</time>
      </trkpt>
      <trkpt lat="59.213745717449" lon="17.920067514666">
        <ele>70.4</ele>
        <time>2015-03-28T15:13:57Z</time>
      </trkpt>
      <trkpt lat="59.213753344978" lon="17.920247306421">
        <ele>70.8</ele>
        <time>2015-03-28T15:13:58Z</time>
      </trkpt>
      <trkpt lat="59.213759128489" lon="17.920433300782">
        <ele>71.2</ele>
        <time>2015-03-28T15:13:59Z</time>
      </trkpt>
      <trkpt lat="59.213762816525" lon="17.920589204122">
        <ele>71.6</ele>
        <time>2015-03-28T15:14:00Z</time>
      </trkpt>
      <trkpt lat="59.213765163457" lon="17.920743766358">
        <ele>72.2</ele>
        <time>2015-03-28T15:14:01Z</time>
      </trkpt>
      <trkpt lat="59.213753596435" lon="17.920894556739">
        <ele>72.6</ele>
        <time>2015-03-28T15:14:02Z</time>
      </trkpt>
      <trkpt lat="59.213737670825" lon="17.921058590522">
        <ele>73.2</ele>
        <time>2015-03-28T15:14:03Z</time>
      </trkpt>
      <trkpt lat="59.21371629698" lon="17.921230335653">
        <ele>73.8</ele>
        <time>2015-03-28T15:14:04Z</time>
      </trkpt>
      <trkpt lat="59.213703556492" lon="17.921402248422">
        <ele>74.2</ele>
        <time>2015-03-28T15:14:05Z</time>
      </trkpt>
      <trkpt lat="59.213689055805" lon="17.921572903906">
        <ele>74.8</ele>
        <time>2015-03-28T15:14:06Z</time>
      </trkpt>
      <trkpt lat="59.213615043628" lon="17.922463983695">
        <ele>74.8</ele>
        <time>2015-03-28T15:14:11Z</time>
      </trkpt>
      <trkpt lat="59.213592161041" lon="17.923022553511">
        <ele>74.8</ele>
        <time>2015-03-28T15:14:14Z</time>
      </trkpt>
      <trkpt lat="59.213609679212" lon="17.923402169762">
        <ele>74.8</ele>
        <time>2015-03-28T15:14:16Z</time>
      </trkpt>
      <trkpt lat="59.213736329721" lon="17.924152852726">
        <ele>74.8</ele>
        <time>2015-03-28T15:14:20Z</time>
      </trkpt>
      <trkpt lat="59.213973369853" lon="17.92479289461">
        <ele>74.8</ele>
        <time>2015-03-28T15:14:24Z</time>
      </trkpt>
      <trkpt lat="59.214415598897" lon="17.925727979374">
        <ele>74.8</ele>
        <time>2015-03-28T15:14:30Z</time>
      </trkpt>
      <trkpt lat="59.214803094134" lon="17.926509340092">
        <ele>74.8</ele>
        <time>2015-03-28T15:14:35Z</time>
      </trkpt>
      <trkpt lat="59.214962769329" lon="17.926824248075">
        <ele>74.8</ele>
        <time>2015-03-28T15:14:37Z</time>
      </trkpt>
      <trkpt lat="59.215190757009" lon="17.927333280862">
        <ele>74.4</ele>
        <time>2015-03-28T15:14:40Z</time>
      </trkpt>
      <trkpt lat="59.215260410598" lon="17.92751365935">
        <ele>74</ele>
        <time>2015-03-28T15:14:41Z</time>
      </trkpt>
      <trkpt lat="59.215332578757" lon="17.92771482495">
        <ele>73.6</ele>
        <time>2015-03-28T15:14:42Z</time>
      </trkpt>
      <trkpt lat="59.21540105888" lon="17.927907441012">
        <ele>73.2</ele>
        <time>2015-03-28T15:14:43Z</time>
      </trkpt>
      <trkpt lat="59.215467694985" lon="17.928111121182">
        <ele>72.8</ele>
        <time>2015-03-28T15:14:44Z</time>
      </trkpt>
      <trkpt lat="59.215581102092" lon="17.928546057973">
        <ele>72.4</ele>
        <time>2015-03-28T15:14:46Z</time>
      </trkpt>
      <trkpt lat="59.215633740424" lon="17.928771950178">
        <ele>71.8</ele>
        <time>2015-03-28T15:14:47Z</time>
      </trkpt>
      <trkpt lat="59.21568352891" lon="17.929002703885">
        <ele>71.4</ele>
        <time>2015-03-28T15:14:48Z</time>
      </trkpt>
      <trkpt lat="59.215728288256" lon="17.929234966334">
        <ele>70.8</ele>
        <time>2015-03-28T15:14:49Z</time>
      </trkpt>
      <trkpt lat="59.215771119765" lon="17.929482735298">
        <ele>70.4</ele>
        <time>2015-03-28T15:14:50Z</time>
      </trkpt>
      <trkpt lat="59.215842533553" lon="17.929957989028">
        <ele>70</ele>
        <time>2015-03-28T15:14:52Z</time>
      </trkpt>
      <trkpt lat="59.215866673425" lon="17.930196034988">
        <ele>69.6</ele>
        <time>2015-03-28T15:14:53Z</time>
      </trkpt>
      <trkpt lat="59.215886538528" lon="17.930431566378">
        <ele>69.2</ele>
        <time>2015-03-28T15:14:54Z</time>
      </trkpt>
      <trkpt lat="59.21590313469" lon="17.930666175759">
        <ele>68.6</ele>
        <time>2015-03-28T15:14:55Z</time>
      </trkpt>
      <trkpt lat="59.215915120807" lon="17.930898019113">
        <ele>68.2</ele>
        <time>2015-03-28T15:14:56Z</time>
      </trkpt>
      <trkpt lat="59.215926017277" lon="17.931787506341">
        <ele>68.2</ele>
        <time>2015-03-28T15:15:00Z</time>
      </trkpt>
      <trkpt lat="59.215923335069" lon="17.932882182481">
        <ele>68.2</ele>
        <time>2015-03-28T15:15:05Z</time>
      </trkpt>
      <trkpt lat="59.215923921802" lon="17.933106482125">
        <ele>68.6</ele>
        <time>2015-03-28T15:15:06Z</time>
      </trkpt>
      <trkpt lat="59.215917635377" lon="17.933330362674">
        <ele>69</ele>
        <time>2015-03-28T15:15:07Z</time>
      </trkpt>
      <trkpt lat="59.215914282617" lon="17.93355784744">
        <ele>69.4</ele>
        <time>2015-03-28T15:15:08Z</time>
      </trkpt>
      <trkpt lat="59.215913528246" lon="17.933775860659">
        <ele>69.8</ele>
        <time>2015-03-28T15:15:09Z</time>
      </trkpt>
      <trkpt lat="59.215911097495" lon="17.933992700412">
        <ele>70.2</ele>
        <time>2015-03-28T15:15:10Z</time>
      </trkpt>
      <trkpt lat="59.215903050871" lon="17.934412885059">
        <ele>70.2</ele>
        <time>2015-03-28T15:15:12Z</time>
      </trkpt>
      <trkpt lat="59.215948564588" lon="17.935441344189">
        <ele>70.2</ele>
        <time>2015-03-28T15:15:17Z</time>
      </trkpt>
      <trkpt lat="59.216017631444" lon="17.9358243132">
        <ele>70.6</ele>
        <time>2015-03-28T15:15:19Z</time>
      </trkpt>
      <trkpt lat="59.216064486265" lon="17.936014247054">
        <ele>71</ele>
        <time>2015-03-28T15:15:20Z</time>
      </trkpt>
      <trkpt lat="59.216117208416" lon="17.936177023552">
        <ele>71.4</ele>
        <time>2015-03-28T15:15:21Z</time>
      </trkpt>
      <trkpt lat="59.216176552268" lon="17.936337369299">
        <ele>71.8</ele>
        <time>2015-03-28T15:15:22Z</time>
      </trkpt>
      <trkpt lat="59.216240673803" lon="17.936491763897">
        <ele>72.2</ele>
        <time>2015-03-28T15:15:23Z</time>
      </trkpt>
      <trkpt lat="59.216386854139" lon="17.936757637765">
        <ele>72.2</ele>
        <time>2015-03-28T15:15:25Z</time>
      </trkpt>
      <trkpt lat="59.216463716162" lon="17.936876074012">
        <ele>72.2</ele>
        <time>2015-03-28T15:15:26Z</time>
      </trkpt>
      <trkpt lat="59.216782898914" lon="17.937334899218">
        <ele>72.8</ele>
        <time>2015-03-28T15:15:30Z</time>
      </trkpt>
      <trkpt lat="59.21686286224" lon="17.937453503103">
        <ele>73.2</ele>
        <time>2015-03-28T15:15:31Z</time>
      </trkpt>
      <trkpt lat="59.216941400643" lon="17.9375677484">
        <ele>73.6</ele>
        <time>2015-03-28T15:15:32Z</time>
      </trkpt>
      <trkpt lat="59.217023207987" lon="17.937676964557">
        <ele>74</ele>
        <time>2015-03-28T15:15:33Z</time>
      </trkpt>
      <trkpt lat="59.217105685883" lon="17.937791796587">
        <ele>74.4</ele>
        <time>2015-03-28T15:15:34Z</time>
      </trkpt>
      <trkpt lat="59.217359741272" lon="17.938133442831">
        <ele>74.4</ele>
        <time>2015-03-28T15:15:37Z</time>
      </trkpt>
      <trkpt lat="59.217749415803" lon="17.938734257423">
        <ele>74.4</ele>
        <time>2015-03-28T15:15:42Z</time>
      </trkpt>
      <trkpt lat="59.218237242383" lon="17.939477899591">
        <ele>74.4</ele>
        <time>2015-03-28T15:15:48Z</time>
      </trkpt>
      <trkpt lat="59.218316954252" lon="17.939607986679">
        <ele>74.4</ele>
        <time>2015-03-28T15:15:49Z</time>
      </trkpt>
      <trkpt lat="59.218802182443" lon="17.940289602787">
        <ele>74.4</ele>
        <time>2015-03-28T15:15:55Z</time>
      </trkpt>
      <trkpt lat="59.219163107057" lon="17.94082076379">
        <ele>74.4</ele>
        <time>2015-03-28T15:16:00Z</time>
      </trkpt>
      <trkpt lat="59.219520678911" lon="17.941284199041">
        <ele>74.4</ele>
        <time>2015-03-28T15:16:05Z</time>
      </trkpt>
      <trkpt lat="59.219924518853" lon="17.94181318075">
        <ele>74.4</ele>
        <time>2015-03-28T15:16:11Z</time>
      </trkpt>
      <trkpt lat="59.220133814896" lon="17.942090956916">
        <ele>74</ele>
        <time>2015-03-28T15:16:14Z</time>
      </trkpt>
      <trkpt lat="59.220206066874" lon="17.942189108965">
        <ele>73.6</ele>
        <time>2015-03-28T15:16:15Z</time>
      </trkpt>
      <trkpt lat="59.220279073223" lon="17.942292541611">
        <ele>73.2</ele>
        <time>2015-03-28T15:16:16Z</time>
      </trkpt>
      <trkpt lat="59.220354677961" lon="17.942389771651">
        <ele>72.8</ele>
        <time>2015-03-28T15:16:17Z</time>
      </trkpt>
      <trkpt lat="59.220425588835" lon="17.942478116877">
        <ele>72.2</ele>
        <time>2015-03-28T15:16:18Z</time>
      </trkpt>
      <trkpt lat="59.220493314587" lon="17.942576939478">
        <ele>71.6</ele>
        <time>2015-03-28T15:16:19Z</time>
      </trkpt>
      <trkpt lat="59.220546372014" lon="17.942662015763">
        <ele>71</ele>
        <time>2015-03-28T15:16:20Z</time>
      </trkpt>
      <trkpt lat="59.220595992862" lon="17.942746253858">
        <ele>70.4</ele>
        <time>2015-03-28T15:16:21Z</time>
      </trkpt>
      <trkpt lat="59.220635220154" lon="17.94283744893">
        <ele>69.8</ele>
        <time>2015-03-28T15:16:22Z</time>
      </trkpt>
      <trkpt lat="59.220689534866" lon="17.94300341055">
        <ele>69.8</ele>
        <time>2015-03-28T15:16:24Z</time>
      </trkpt>
      <trkpt lat="59.220737563153" lon="17.943051355018">
        <ele>69.8</ele>
        <time>2015-03-28T15:16:25Z</time>
      </trkpt>
      <trkpt lat="59.220791123494" lon="17.943068370275">
        <ele>69.8</ele>
        <time>2015-03-28T15:16:26Z</time>
      </trkpt>
      <trkpt lat="59.220916684356" lon="17.942816326542">
        <ele>69.8</ele>
        <time>2015-03-28T15:16:29Z</time>
      </trkpt>
      <trkpt lat="59.221019697907" lon="17.942392789135">
        <ele>69.8</ele>
        <time>2015-03-28T15:16:33Z</time>
      </trkpt>
      <trkpt lat="59.221239136049" lon="17.941751909061">
        <ele>69.8</ele>
        <time>2015-03-28T15:16:40Z</time>
      </trkpt>
      <trkpt lat="59.221456562535" lon="17.941159895464">
        <ele>69.8</ele>
        <time>2015-03-28T15:16:46Z</time>
      </trkpt>
      <trkpt lat="59.221535100938" lon="17.940952694896">
        <ele>69.8</ele>
        <time>2015-03-28T15:16:48Z</time>
      </trkpt>
      <trkpt lat="59.221635013186" lon="17.940645330623">
        <ele>69.8</ele>
        <time>2015-03-28T15:16:51Z</time>
      </trkpt>
      <trkpt lat="59.221793179639" lon="17.940179716078">
        <ele>69.8</ele>
        <time>2015-03-28T15:16:56Z</time>
      </trkpt>
      <trkpt lat="59.221836346424" lon="17.940090365024">
        <ele>69.8</ele>
        <time>2015-03-28T15:16:57Z</time>
      </trkpt>
      <trkpt lat="59.221953273929" lon="17.939817198903">
        <ele>70.2</ele>
        <time>2015-03-28T15:17:00Z</time>
      </trkpt>
      <trkpt lat="59.221988142633" lon="17.939723489261">
        <ele>70.6</ele>
        <time>2015-03-28T15:17:01Z</time>
      </trkpt>
      <trkpt lat="59.222015383808" lon="17.939627935601">
        <ele>71</ele>
        <time>2015-03-28T15:17:02Z</time>
      </trkpt>
      <trkpt lat="59.222042373526" lon="17.93952240748">
        <ele>71.4</ele>
        <time>2015-03-28T15:17:03Z</time>
      </trkpt>
      <trkpt lat="59.222074560022" lon="17.939424674526">
        <ele>72</ele>
        <time>2015-03-28T15:17:04Z</time>
      </trkpt>
      <trkpt lat="59.222278743106" lon="17.938898458844">
        <ele>72</ele>
        <time>2015-03-28T15:17:09Z</time>
      </trkpt>
      <trkpt lat="59.222382008114" lon="17.938555722953">
        <ele>72</ele>
        <time>2015-03-28T15:17:12Z</time>
      </trkpt>
      <trkpt lat="59.222422911786" lon="17.938459079646">
        <ele>72.4</ele>
        <time>2015-03-28T15:17:13Z</time>
      </trkpt>
      <trkpt lat="59.222466832942" lon="17.938368387488">
        <ele>72.8</ele>
        <time>2015-03-28T15:17:14Z</time>
      </trkpt>
      <trkpt lat="59.222507568976" lon="17.938268978154">
        <ele>73.2</ele>
        <time>2015-03-28T15:17:15Z</time>
      </trkpt>
      <trkpt lat="59.222548137372" lon="17.938162947119">
        <ele>73.8</ele>
        <time>2015-03-28T15:17:16Z</time>
      </trkpt>
      <trkpt lat="59.222589124863" lon="17.938056329351">
        <ele>74.2</ele>
        <time>2015-03-28T15:17:17Z</time>
      </trkpt>
      <trkpt lat="59.222906128321" lon="17.937237669178">
        <ele>74.2</ele>
        <time>2015-03-28T15:17:25Z</time>
      </trkpt>
      <trkpt lat="59.22314844905" lon="17.936581450227">
        <ele>74.2</ele>
        <time>2015-03-28T15:17:31Z</time>
      </trkpt>
      <trkpt lat="59.223332683212" lon="17.936066801567">
        <ele>74.2</ele>
        <time>2015-03-28T15:17:36Z</time>
      </trkpt>
      <trkpt lat="59.223367300459" lon="17.936000165462">
        <ele>74.2</ele>
        <time>2015-03-28T15:17:37Z</time>
      </trkpt>
      <trkpt lat="59.223439384799" lon="17.935876113342">
        <ele>74.2</ele>
        <time>2015-03-28T15:17:39Z</time>
      </trkpt>
      <trkpt lat="59.223543068902" lon="17.935434051936">
        <ele>74.2</ele>
        <time>2015-03-28T15:17:43Z</time>
      </trkpt>
      <trkpt lat="59.223596461605" lon="17.935168345706">
        <ele>74.2</ele>
        <time>2015-03-28T15:17:45Z</time>
      </trkpt>
      <trkpt lat="59.223678017492" lon="17.934910518462">
        <ele>73.8</ele>
        <time>2015-03-28T15:17:47Z</time>
      </trkpt>
      <trkpt lat="59.223720346087" lon="17.93477741389">
        <ele>73.4</ele>
        <time>2015-03-28T15:17:48Z</time>
      </trkpt>
      <trkpt lat="59.223764770157" lon="17.934645482784">
        <ele>73</ele>
        <time>2015-03-28T15:17:49Z</time>
      </trkpt>
      <trkpt lat="59.223811122064" lon="17.934510618013">
        <ele>72.4</ele>
        <time>2015-03-28T15:17:50Z</time>
      </trkpt>
      <trkpt lat="59.223860407636" lon="17.934370137369">
        <ele>72</ele>
        <time>2015-03-28T15:17:51Z</time>
      </trkpt>
      <trkpt lat="59.223957470038" lon="17.93407836343">
        <ele>71.2</ele>
        <time>2015-03-28T15:17:53Z</time>
      </trkpt>
      <trkpt lat="59.224010359827" lon="17.933927237773">
        <ele>70.6</ele>
        <time>2015-03-28T15:17:54Z</time>
      </trkpt>
      <trkpt lat="59.224064925996" lon="17.933778459048">
        <ele>70.2</ele>
        <time>2015-03-28T15:17:55Z</time>
      </trkpt>
      <trkpt lat="59.224117312871" lon="17.933628171581">
        <ele>69.6</ele>
        <time>2015-03-28T15:17:56Z</time>
      </trkpt>
      <trkpt lat="59.224171795221" lon="17.933474279897">
        <ele>69</ele>
        <time>2015-03-28T15:17:57Z</time>
      </trkpt>
      <trkpt lat="59.224227534856" lon="17.933321142584">
        <ele>68.6</ele>
        <time>2015-03-28T15:17:58Z</time>
      </trkpt>
      <trkpt lat="59.224284867052" lon="17.933161802665">
        <ele>68</ele>
        <time>2015-03-28T15:17:59Z</time>
      </trkpt>
      <trkpt lat="59.224339097945" lon="17.933014281225">
        <ele>67.4</ele>
        <time>2015-03-28T15:18:00Z</time>
      </trkpt>
      <trkpt lat="59.224392239191" lon="17.93286717888">
        <ele>67.4</ele>
        <time>2015-03-28T15:18:01Z</time>
      </trkpt>
      <trkpt lat="59.224728688657" lon="17.932028485966">
        <ele>67.4</ele>
        <time>2015-03-28T15:18:07Z</time>
      </trkpt>
      <trkpt lat="59.224852154044" lon="17.931758002053">
        <ele>67.4</ele>
        <time>2015-03-28T15:18:09Z</time>
      </trkpt>
      <trkpt lat="59.224986348263" lon="17.931544598879">
        <ele>67.4</ele>
        <time>2015-03-28T15:18:11Z</time>
      </trkpt>
      <trkpt lat="59.225124649613" lon="17.931371596463">
        <ele>67.4</ele>
        <time>2015-03-28T15:18:13Z</time>
      </trkpt>
      <trkpt lat="59.225331766362" lon="17.931179399496">
        <ele>67.4</ele>
        <time>2015-03-28T15:18:16Z</time>
      </trkpt>
      <trkpt lat="59.225406029996" lon="17.931131455028">
        <ele>67.4</ele>
        <time>2015-03-28T15:18:17Z</time>
      </trkpt>
      <trkpt lat="59.225617672971" lon="17.931048474218">
        <ele>67.4</ele>
        <time>2015-03-28T15:18:20Z</time>
      </trkpt>
      <trkpt lat="59.225684309076" lon="17.931070602434">
        <ele>67.4</ele>
        <time>2015-03-28T15:18:21Z</time>
      </trkpt>
      <trkpt lat="59.225840799149" lon="17.931288112739">
        <ele>67.4</ele>
        <time>2015-03-28T15:18:24Z</time>
      </trkpt>
      <trkpt lat="59.225904585408" lon="17.931720702598">
        <ele>67.4</ele>
        <time>2015-03-28T15:18:27Z</time>
      </trkpt>
      <trkpt lat="59.226043473491" lon="17.932735499231">
        <ele>67.4</ele>
        <time>2015-03-28T15:18:33Z</time>
      </trkpt>
      <trkpt lat="59.22613575821" lon="17.933295326332">
        <ele>67</ele>
        <time>2015-03-28T15:18:36Z</time>
      </trkpt>
      <trkpt lat="59.226170040181" lon="17.933486852747">
        <ele>66.6</ele>
        <time>2015-03-28T15:18:37Z</time>
      </trkpt>
      <trkpt lat="59.226203400143" lon="17.933674020574">
        <ele>66.2</ele>
        <time>2015-03-28T15:18:38Z</time>
      </trkpt>
      <trkpt lat="59.226240112865" lon="17.933867810102">
        <ele>65.6</ele>
        <time>2015-03-28T15:18:39Z</time>
      </trkpt>
      <trkpt lat="59.226279340157" lon="17.934066796408">
        <ele>65</ele>
        <time>2015-03-28T15:18:40Z</time>
      </trkpt>
      <trkpt lat="59.22632602734" lon="17.93427952903">
        <ele>64.4</ele>
        <time>2015-03-28T15:18:41Z</time>
      </trkpt>
      <trkpt lat="59.226371038143" lon="17.934488657435">
        <ele>63.8</ele>
        <time>2015-03-28T15:18:42Z</time>
      </trkpt>
      <trkpt lat="59.226425101398" lon="17.934705078093">
        <ele>63.2</ele>
        <time>2015-03-28T15:18:43Z</time>
      </trkpt>
      <trkpt lat="59.226486289268" lon="17.934903729123">
        <ele>62.6</ele>
        <time>2015-03-28T15:18:44Z</time>
      </trkpt>
      <trkpt lat="59.226549656432" lon="17.935102547791">
        <ele>62.2</ele>
        <time>2015-03-28T15:18:45Z</time>
      </trkpt>
      <trkpt lat="59.226621824591" lon="17.93527529875">
        <ele>61.6</ele>
        <time>2015-03-28T15:18:46Z</time>
      </trkpt>
      <trkpt lat="59.226702626107" lon="17.935442350017">
        <ele>61.2</ele>
        <time>2015-03-28T15:18:47Z</time>
      </trkpt>
      <trkpt lat="59.226790468419" lon="17.935604288325">
        <ele>60.6</ele>
        <time>2015-03-28T15:18:48Z</time>
      </trkpt>
      <trkpt lat="59.226885519165" lon="17.935761113674">
        <ele>60</ele>
        <time>2015-03-28T15:18:49Z</time>
      </trkpt>
      <trkpt lat="59.226985599051" lon="17.935912993702">
        <ele>59</ele>
        <time>2015-03-28T15:18:50Z</time>
      </trkpt>
      <trkpt lat="59.227097665054" lon="17.936052719975">
        <ele>58.2</ele>
        <time>2015-03-28T15:18:51Z</time>
      </trkpt>
      <trkpt lat="59.227207970858" lon="17.936185908366">
        <ele>57.4</ele>
        <time>2015-03-28T15:18:52Z</time>
      </trkpt>
      <trkpt lat="59.227319114852" lon="17.936310714857">
        <ele>56.6</ele>
        <time>2015-03-28T15:18:53Z</time>
      </trkpt>
      <trkpt lat="59.227430677941" lon="17.936422948498">
        <ele>55.8</ele>
        <time>2015-03-28T15:18:54Z</time>
      </trkpt>
      <trkpt lat="59.227544923238" lon="17.936528476619">
        <ele>55.2</ele>
        <time>2015-03-28T15:18:55Z</time>
      </trkpt>
      <trkpt lat="59.227662186019" lon="17.936621767166">
        <ele>54.8</ele>
        <time>2015-03-28T15:18:56Z</time>
      </trkpt>
      <trkpt lat="59.227780035533" lon="17.936705753804">
        <ele>54.4</ele>
        <time>2015-03-28T15:18:57Z</time>
      </trkpt>
      <trkpt lat="59.22789930997" lon="17.936783705474">
        <ele>53.8</ele>
        <time>2015-03-28T15:18:58Z</time>
      </trkpt>
      <trkpt lat="59.228029145601" lon="17.936850509217">
        <ele>53.4</ele>
        <time>2015-03-28T15:18:59Z</time>
      </trkpt>
      <trkpt lat="59.228408258938" lon="17.937041951813">
        <ele>53.4</ele>
        <time>2015-03-28T15:19:02Z</time>
      </trkpt>
      <trkpt lat="59.228537088741" lon="17.937101798579">
        <ele>53</ele>
        <time>2015-03-28T15:19:03Z</time>
      </trkpt>
      <trkpt lat="59.228671199141" lon="17.937151000332">
        <ele>52.4</ele>
        <time>2015-03-28T15:19:04Z</time>
      </trkpt>
      <trkpt lat="59.228804471351" lon="17.937204141578">
        <ele>51.6</ele>
        <time>2015-03-28T15:19:05Z</time>
      </trkpt>
      <trkpt lat="59.228947382746" lon="17.937257869557">
        <ele>50.8</ele>
        <time>2015-03-28T15:19:06Z</time>
      </trkpt>
      <trkpt lat="59.229082918069" lon="17.937310843165">
        <ele>48.8</ele>
        <time>2015-03-28T15:19:07Z</time>
      </trkpt>
      <trkpt lat="59.229215435908" lon="17.937366331343">
        <ele>47.6</ele>
        <time>2015-03-28T15:19:08Z</time>
      </trkpt>
      <trkpt lat="59.229347115557" lon="17.937419221132">
        <ele>46.6</ele>
        <time>2015-03-28T15:19:09Z</time>
      </trkpt>
      <trkpt lat="59.22947594536" lon="17.937473368206">
        <ele>45.6</ele>
        <time>2015-03-28T15:19:10Z</time>
      </trkpt>
      <trkpt lat="59.229602176774" lon="17.937517792276">
        <ele>44.6</ele>
        <time>2015-03-28T15:19:11Z</time>
      </trkpt>
      <trkpt lat="59.229727150903" lon="17.937562803079">
        <ele>43.8</ele>
        <time>2015-03-28T15:19:12Z</time>
      </trkpt>
      <trkpt lat="59.229848353177" lon="17.937600353991">
        <ele>43</ele>
        <time>2015-03-28T15:19:13Z</time>
      </trkpt>
      <trkpt lat="59.229971902383" lon="17.937640084197">
        <ele>42</ele>
        <time>2015-03-28T15:19:14Z</time>
      </trkpt>
      <trkpt lat="59.230087907879" lon="17.937681490783">
        <ele>41.2</ele>
        <time>2015-03-28T15:19:15Z</time>
      </trkpt>
      <trkpt lat="59.230404073147" lon="17.937828006395">
        <ele>41.2</ele>
        <time>2015-03-28T15:19:18Z</time>
      </trkpt>
      <trkpt lat="59.230713532895" lon="17.937980389337">
        <ele>41.6</ele>
        <time>2015-03-28T15:19:22Z</time>
      </trkpt>
      <trkpt lat="59.23074747959" lon="17.937989106513">
        <ele>42</ele>
        <time>2015-03-28T15:19:23Z</time>
      </trkpt>
      <trkpt lat="59.230854348815" lon="17.938293956216">
        <ele>45.4</ele>
        <time>2015-03-28T15:19:45Z</time>
      </trkpt>
      <trkpt lat="59.230831717685" lon="17.938598303005">
        <ele>45.4</ele>
        <time>2015-03-28T15:19:49Z</time>
      </trkpt>
      <trkpt lat="59.230800201741" lon="17.939168188386">
        <ele>45.4</ele>
        <time>2015-03-28T15:19:54Z</time>
      </trkpt>
      <trkpt lat="59.230763740476" lon="17.940071002835">
        <ele>45.4</ele>
        <time>2015-03-28T15:20:01Z</time>
      </trkpt>
      <trkpt lat="59.230731302523" lon="17.941164589328">
        <ele>45.4</ele>
        <time>2015-03-28T15:20:08Z</time>
      </trkpt>
      <trkpt lat="59.230694589801" lon="17.942263204961">
        <ele>45.4</ele>
        <time>2015-03-28T15:20:15Z</time>
      </trkpt>
      <trkpt lat="59.230683693331" lon="17.942574592546">
        <ele>46</ele>
        <time>2015-03-28T15:20:17Z</time>
      </trkpt>
      <trkpt lat="59.230678664191" lon="17.942734854474">
        <ele>46.4</ele>
        <time>2015-03-28T15:20:18Z</time>
      </trkpt>
      <trkpt lat="59.230675981983" lon="17.942896038411">
        <ele>46.8</ele>
        <time>2015-03-28T15:20:19Z</time>
      </trkpt>
      <trkpt lat="59.230673802689" lon="17.943061916212">
        <ele>47.2</ele>
        <time>2015-03-28T15:20:20Z</time>
      </trkpt>
      <trkpt lat="59.230668857368" lon="17.943232823153">
        <ele>47.6</ele>
        <time>2015-03-28T15:20:21Z</time>
      </trkpt>
      <trkpt lat="59.230659972554" lon="17.943413704555">
        <ele>47.6</ele>
        <time>2015-03-28T15:20:22Z</time>
      </trkpt>
      <trkpt lat="59.230623678927" lon="17.94461189716">
        <ele>47.6</ele>
        <time>2015-03-28T15:20:29Z</time>
      </trkpt>
      <trkpt lat="59.230590570422" lon="17.945720487254">
        <ele>47.6</ele>
        <time>2015-03-28T15:20:35Z</time>
      </trkpt>
      <trkpt lat="59.230577159382" lon="17.946107898672">
        <ele>47.6</ele>
        <time>2015-03-28T15:20:37Z</time>
      </trkpt>
      <trkpt lat="59.230569531853" lon="17.946473684788">
        <ele>47.2</ele>
        <time>2015-03-28T15:20:39Z</time>
      </trkpt>
      <trkpt lat="59.230566095274" lon="17.946655823475">
        <ele>46.8</ele>
        <time>2015-03-28T15:20:40Z</time>
      </trkpt>
      <trkpt lat="59.230560647039" lon="17.946835279954">
        <ele>46.2</ele>
        <time>2015-03-28T15:20:41Z</time>
      </trkpt>
      <trkpt lat="59.230561988143" lon="17.947011048397">
        <ele>45.8</ele>
        <time>2015-03-28T15:20:42Z</time>
      </trkpt>
      <trkpt lat="59.230564837989" lon="17.947188912315">
        <ele>45.4</ele>
        <time>2015-03-28T15:20:43Z</time>
      </trkpt>
      <trkpt lat="59.230571543509" lon="17.947370464269">
        <ele>45.4</ele>
        <time>2015-03-28T15:20:44Z</time>
      </trkpt>
      <trkpt lat="59.230663828228" lon="17.948084853606">
        <ele>45.4</ele>
        <time>2015-03-28T15:20:48Z</time>
      </trkpt>
      <trkpt lat="59.23077681624" lon="17.948585253036">
        <ele>45</ele>
        <time>2015-03-28T15:20:51Z</time>
      </trkpt>
      <trkpt lat="59.230815121523" lon="17.948763871325">
        <ele>44.6</ele>
        <time>2015-03-28T15:20:52Z</time>
      </trkpt>
      <trkpt lat="59.230843200888" lon="17.948933520981">
        <ele>44.2</ele>
        <time>2015-03-28T15:20:53Z</time>
      </trkpt>
      <trkpt lat="59.230857869213" lon="17.949111552537">
        <ele>43.8</ele>
        <time>2015-03-28T15:20:54Z</time>
      </trkpt>
      <trkpt lat="59.23085812067" lon="17.949287907713">
        <ele>43.4</ele>
        <time>2015-03-28T15:20:55Z</time>
      </trkpt>
      <trkpt lat="59.230878656325" lon="17.949443727234">
        <ele>43.4</ele>
        <time>2015-03-28T15:20:56Z</time>
      </trkpt>
      <trkpt lat="59.230989800319" lon="17.949560654739">
        <ele>43.4</ele>
        <time>2015-03-28T15:20:58Z</time>
      </trkpt>
      <trkpt lat="59.231088036187" lon="17.949433501316">
        <ele>43.4</ele>
        <time>2015-03-28T15:21:00Z</time>
      </trkpt>
      <trkpt lat="59.231133717542" lon="17.949355968741">
        <ele>43.4</ele>
        <time>2015-03-28T15:21:01Z</time>
      </trkpt>
      <trkpt lat="59.23119004391" lon="17.949281788926">
        <ele>43.4</ele>
        <time>2015-03-28T15:21:02Z</time>
      </trkpt>
      <trkpt lat="59.231316107686" lon="17.949201741781">
        <ele>43.4</ele>
        <time>2015-03-28T15:21:04Z</time>
      </trkpt>
      <trkpt lat="59.23174827845" lon="17.94892606109">
        <ele>43.4</ele>
        <time>2015-03-28T15:21:11Z</time>
      </trkpt>
      <trkpt lat="59.232171899676" lon="17.948618026265">
        <ele>43.4</ele>
        <time>2015-03-28T15:21:18Z</time>
      </trkpt>
      <trkpt lat="59.232586384631" lon="17.948364641428">
        <ele>43.4</ele>
        <time>2015-03-28T15:21:24Z</time>
      </trkpt>
      <trkpt lat="59.232856449449" lon="17.948195327048">
        <ele>43.4</ele>
        <time>2015-03-28T15:21:28Z</time>
      </trkpt>
      <trkpt lat="59.232997935921" lon="17.948125422002">
        <ele>43.4</ele>
        <time>2015-03-28T15:21:30Z</time>
      </trkpt>
      <trkpt lat="59.233423149708" lon="17.948030119799">
        <ele>43.4</ele>
        <time>2015-03-28T15:21:36Z</time>
      </trkpt>
      <trkpt lat="59.233787929996" lon="17.948001286063">
        <ele>43.4</ele>
        <time>2015-03-28T15:21:41Z</time>
      </trkpt>
      <trkpt lat="59.233943581879" lon="17.948021570261">
        <ele>43.4</ele>
        <time>2015-03-28T15:21:43Z</time>
      </trkpt>
      <trkpt lat="59.234109794956" lon="17.948029784523">
        <ele>43.4</ele>
        <time>2015-03-28T15:21:45Z</time>
      </trkpt>
      <trkpt lat="59.234466947715" lon="17.948023246641">
        <ele>43.4</ele>
        <time>2015-03-28T15:21:50Z</time>
      </trkpt>
      <trkpt lat="59.234985787325" lon="17.947937332166">
        <ele>43.4</ele>
        <time>2015-03-28T15:21:58Z</time>
      </trkpt>
      <trkpt lat="59.235109001255" lon="17.947902966376">
        <ele>43.8</ele>
        <time>2015-03-28T15:22:00Z</time>
      </trkpt>
      <trkpt lat="59.235166333451" lon="17.947888046594">
        <ele>44.2</ele>
        <time>2015-03-28T15:22:01Z</time>
      </trkpt>
      <trkpt lat="59.235222408362" lon="17.947878826504">
        <ele>44.6</ele>
        <time>2015-03-28T15:22:02Z</time>
      </trkpt>
      <trkpt lat="59.235276471617" lon="17.947868852043">
        <ele>45</ele>
        <time>2015-03-28T15:22:03Z</time>
      </trkpt>
      <trkpt lat="59.235330199596" lon="17.947859799591">
        <ele>45.4</ele>
        <time>2015-03-28T15:22:04Z</time>
      </trkpt>
      <trkpt lat="59.235381496824" lon="17.947836497909">
        <ele>45.4</ele>
        <time>2015-03-28T15:22:05Z</time>
      </trkpt>
      <trkpt lat="59.235432877871" lon="17.947804395232">
        <ele>45.8</ele>
        <time>2015-03-28T15:22:06Z</time>
      </trkpt>
      <trkpt lat="59.235482331081" lon="17.947764413569">
        <ele>46.4</ele>
        <time>2015-03-28T15:22:07Z</time>
      </trkpt>
      <trkpt lat="59.235528096255" lon="17.947729377227">
        <ele>47</ele>
        <time>2015-03-28T15:22:08Z</time>
      </trkpt>
      <trkpt lat="59.23557293942" lon="17.947681432759">
        <ele>47.4</ele>
        <time>2015-03-28T15:22:09Z</time>
      </trkpt>
      <trkpt lat="59.23562071625" lon="17.947637092508">
        <ele>48</ele>
        <time>2015-03-28T15:22:10Z</time>
      </trkpt>
      <trkpt lat="59.235663296302" lon="17.94757825157">
        <ele>48</ele>
        <time>2015-03-28T15:22:11Z</time>
      </trkpt>
      <trkpt lat="59.235834370881" lon="17.947328219493">
        <ele>48.4</ele>
        <time>2015-03-28T15:22:15Z</time>
      </trkpt>
      <trkpt lat="59.235877872942" lon="17.947271138754">
        <ele>49</ele>
        <time>2015-03-28T15:22:16Z</time>
      </trkpt>
      <trkpt lat="59.235922799926" lon="17.94722202082">
        <ele>49.4</ele>
        <time>2015-03-28T15:22:17Z</time>
      </trkpt>
      <trkpt lat="59.235966553444" lon="17.947176423284">
        <ele>49.8</ele>
        <time>2015-03-28T15:22:18Z</time>
      </trkpt>
      <trkpt lat="59.236010558419" lon="17.947135854888">
        <ele>50.4</ele>
        <time>2015-03-28T15:22:19Z</time>
      </trkpt>
      <trkpt lat="59.236109548658" lon="17.947059663417">
        <ele>50.4</ele>
        <time>2015-03-28T15:22:21Z</time>
      </trkpt>
      <trkpt lat="59.236403250434" lon="17.946996631529">
        <ele>50.4</ele>
        <time>2015-03-28T15:22:26Z</time>
      </trkpt>
      <trkpt lat="59.23646644996" lon="17.947014401157">
        <ele>50.4</ele>
        <time>2015-03-28T15:22:27Z</time>
      </trkpt>
      <trkpt lat="59.236656132357" lon="17.947110206274">
        <ele>50.4</ele>
        <time>2015-03-28T15:22:30Z</time>
      </trkpt>
      <trkpt lat="59.236715811485" lon="17.947164437167">
        <ele>50.4</ele>
        <time>2015-03-28T15:22:31Z</time>
      </trkpt>
      <trkpt lat="59.236880348182" lon="17.947355209211">
        <ele>50.4</ele>
        <time>2015-03-28T15:22:34Z</time>
      </trkpt>
      <trkpt lat="59.236976488575" lon="17.947500216081">
        <ele>50.4</ele>
        <time>2015-03-28T15:22:36Z</time>
      </trkpt>
      <trkpt lat="59.237169188456" lon="17.947838761022">
        <ele>50.8</ele>
        <time>2015-03-28T15:22:41Z</time>
      </trkpt>
      <trkpt lat="59.237203973341" lon="17.947885532024">
        <ele>51.4</ele>
        <time>2015-03-28T15:22:42Z</time>
      </trkpt>
      <trkpt lat="59.23725351037" lon="17.947891566992">
        <ele>52</ele>
        <time>2015-03-28T15:22:43Z</time>
      </trkpt>
      <trkpt lat="59.23729541987" lon="17.947841191773">
        <ele>52.4</ele>
        <time>2015-03-28T15:22:44Z</time>
      </trkpt>
      <trkpt lat="59.237321739036" lon="17.947762569551">
        <ele>53</ele>
        <time>2015-03-28T15:22:45Z</time>
      </trkpt>
      <trkpt lat="59.237364486726" lon="17.947572970973">
        <ele>53</ele>
        <time>2015-03-28T15:22:47Z</time>
      </trkpt>
      <trkpt lat="59.237418549981" lon="17.947383037119">
        <ele>53</ele>
        <time>2015-03-28T15:22:49Z</time>
      </trkpt>
      <trkpt lat="59.237514941831" lon="17.947083468013">
        <ele>53</ele>
        <time>2015-03-28T15:22:52Z</time>
      </trkpt>
      <trkpt lat="59.237582164669" lon="17.946886577182">
        <ele>52.6</ele>
        <time>2015-03-28T15:22:54Z</time>
      </trkpt>
    </trkseg>
  </trk>
</gpx>